<?xml version="1.0" encoding="UTF-8" standalone="no" ?>
<gpx xmlns="http://www.topografix.com/GPX/1/1" xmlns:xsi="http://www.w3.org/2001/XMLSchema-instance" xsi:schemaLocation="http://www.topografix.com/GPX/1/1 http://www.topografix.com/GPX/1/1/gpx.xsd" version="1.1" creator="VisuGPX - https://www.visugpx.com">
  <metadata>
    <name>aubais 28Km</name>
    <desc><![CDATA[Départ Vergèze en dirction de bois d'Aigues-Vives - Aubais et retour Vergèze]]></desc>
  </metadata>
  <trk>
    <name><![CDATA[Aubais]]></name>
    <trkseg>
      <trkpt lat="43.73882" lon="4.22579">
        <ele>19</ele>
        <time>2018-08-12T06:38:14Z</time>
      </trkpt>
      <trkpt lat="43.73877" lon="4.22578">
        <ele>19</ele>
        <time>2018-08-12T06:38:23Z</time>
      </trkpt>
      <trkpt lat="43.73873" lon="4.22576">
        <ele>19</ele>
        <time>2018-08-12T06:38:26Z</time>
      </trkpt>
      <trkpt lat="43.73868" lon="4.22574">
        <ele>19</ele>
        <time>2018-08-12T06:38:29Z</time>
      </trkpt>
      <trkpt lat="43.73865" lon="4.22567">
        <ele>19</ele>
        <time>2018-08-12T06:38:32Z</time>
      </trkpt>
      <trkpt lat="43.73864" lon="4.2256">
        <ele>20</ele>
        <time>2018-08-12T06:38:34Z</time>
      </trkpt>
      <trkpt lat="43.73863" lon="4.22554">
        <ele>20</ele>
        <time>2018-08-12T06:38:36Z</time>
      </trkpt>
      <trkpt lat="43.73863" lon="4.22546">
        <ele>20</ele>
        <time>2018-08-12T06:38:38Z</time>
      </trkpt>
      <trkpt lat="43.73862" lon="4.22539">
        <ele>20</ele>
        <time>2018-08-12T06:38:40Z</time>
      </trkpt>
      <trkpt lat="43.73861" lon="4.22531">
        <ele>20</ele>
        <time>2018-08-12T06:38:42Z</time>
      </trkpt>
      <trkpt lat="43.73859" lon="4.22523">
        <ele>20</ele>
        <time>2018-08-12T06:38:44Z</time>
      </trkpt>
      <trkpt lat="43.73858" lon="4.22515">
        <ele>20</ele>
        <time>2018-08-12T06:38:46Z</time>
      </trkpt>
      <trkpt lat="43.73856" lon="4.22506">
        <ele>20</ele>
        <time>2018-08-12T06:38:48Z</time>
      </trkpt>
      <trkpt lat="43.73855" lon="4.22495">
        <ele>20</ele>
        <time>2018-08-12T06:38:50Z</time>
      </trkpt>
      <trkpt lat="43.73854" lon="4.22485">
        <ele>20</ele>
        <time>2018-08-12T06:38:52Z</time>
      </trkpt>
      <trkpt lat="43.73855" lon="4.22476">
        <ele>21</ele>
        <time>2018-08-12T06:38:54Z</time>
      </trkpt>
      <trkpt lat="43.7386" lon="4.2247">
        <ele>21</ele>
        <time>2018-08-12T06:38:56Z</time>
      </trkpt>
      <trkpt lat="43.73865" lon="4.22465">
        <ele>21</ele>
        <time>2018-08-12T06:38:58Z</time>
      </trkpt>
      <trkpt lat="43.73867" lon="4.22458">
        <ele>21</ele>
        <time>2018-08-12T06:39:00Z</time>
      </trkpt>
      <trkpt lat="43.73865" lon="4.2245">
        <ele>21</ele>
        <time>2018-08-12T06:39:02Z</time>
      </trkpt>
      <trkpt lat="43.73863" lon="4.22441">
        <ele>21</ele>
        <time>2018-08-12T06:39:04Z</time>
      </trkpt>
      <trkpt lat="43.73861" lon="4.22433">
        <ele>21</ele>
        <time>2018-08-12T06:39:06Z</time>
      </trkpt>
      <trkpt lat="43.73859" lon="4.22424">
        <ele>21</ele>
        <time>2018-08-12T06:39:08Z</time>
      </trkpt>
      <trkpt lat="43.73858" lon="4.22415">
        <ele>21</ele>
        <time>2018-08-12T06:39:10Z</time>
      </trkpt>
      <trkpt lat="43.73856" lon="4.22405">
        <ele>21</ele>
        <time>2018-08-12T06:39:12Z</time>
      </trkpt>
      <trkpt lat="43.73857" lon="4.22396">
        <ele>21</ele>
        <time>2018-08-12T06:39:14Z</time>
      </trkpt>
      <trkpt lat="43.7386" lon="4.22388">
        <ele>21</ele>
        <time>2018-08-12T06:39:16Z</time>
      </trkpt>
      <trkpt lat="43.73866" lon="4.22383">
        <ele>21</ele>
        <time>2018-08-12T06:39:18Z</time>
      </trkpt>
      <trkpt lat="43.73871" lon="4.22376">
        <ele>21</ele>
        <time>2018-08-12T06:39:20Z</time>
      </trkpt>
      <trkpt lat="43.73873" lon="4.22368">
        <ele>21</ele>
        <time>2018-08-12T06:39:22Z</time>
      </trkpt>
      <trkpt lat="43.73872" lon="4.22359">
        <ele>21</ele>
        <time>2018-08-12T06:39:24Z</time>
      </trkpt>
      <trkpt lat="43.7387" lon="4.2235">
        <ele>21</ele>
        <time>2018-08-12T06:39:26Z</time>
      </trkpt>
      <trkpt lat="43.73869" lon="4.22341">
        <ele>20</ele>
        <time>2018-08-12T06:39:28Z</time>
      </trkpt>
      <trkpt lat="43.73873" lon="4.22333">
        <ele>20</ele>
        <time>2018-08-12T06:39:30Z</time>
      </trkpt>
      <trkpt lat="43.73878" lon="4.22326">
        <ele>20</ele>
        <time>2018-08-12T06:39:32Z</time>
      </trkpt>
      <trkpt lat="43.73879" lon="4.22317">
        <ele>20</ele>
        <time>2018-08-12T06:39:34Z</time>
      </trkpt>
      <trkpt lat="43.73878" lon="4.22308">
        <ele>20</ele>
        <time>2018-08-12T06:39:36Z</time>
      </trkpt>
      <trkpt lat="43.73877" lon="4.223">
        <ele>20</ele>
        <time>2018-08-12T06:39:38Z</time>
      </trkpt>
      <trkpt lat="43.73875" lon="4.22291">
        <ele>20</ele>
        <time>2018-08-12T06:39:40Z</time>
      </trkpt>
      <trkpt lat="43.73874" lon="4.22281">
        <ele>20</ele>
        <time>2018-08-12T06:39:42Z</time>
      </trkpt>
      <trkpt lat="43.73872" lon="4.22272">
        <ele>20</ele>
        <time>2018-08-12T06:39:44Z</time>
      </trkpt>
      <trkpt lat="43.73871" lon="4.22263">
        <ele>20</ele>
        <time>2018-08-12T06:39:46Z</time>
      </trkpt>
      <trkpt lat="43.73869" lon="4.22253">
        <ele>20</ele>
        <time>2018-08-12T06:39:48Z</time>
      </trkpt>
      <trkpt lat="43.73867" lon="4.22244">
        <ele>20</ele>
        <time>2018-08-12T06:39:50Z</time>
      </trkpt>
      <trkpt lat="43.73864" lon="4.22239">
        <ele>20</ele>
        <time>2018-08-12T06:39:52Z</time>
      </trkpt>
      <trkpt lat="43.7386" lon="4.22237">
        <ele>20</ele>
        <time>2018-08-12T06:39:54Z</time>
      </trkpt>
      <trkpt lat="43.73854" lon="4.22237">
        <ele>20</ele>
        <time>2018-08-12T06:39:56Z</time>
      </trkpt>
      <trkpt lat="43.73848" lon="4.22239">
        <ele>20</ele>
        <time>2018-08-12T06:39:58Z</time>
      </trkpt>
      <trkpt lat="43.73841" lon="4.22242">
        <ele>20</ele>
        <time>2018-08-12T06:40:00Z</time>
      </trkpt>
      <trkpt lat="43.73834" lon="4.22244">
        <ele>20</ele>
        <time>2018-08-12T06:40:02Z</time>
      </trkpt>
      <trkpt lat="43.73827" lon="4.22242">
        <ele>20</ele>
        <time>2018-08-12T06:40:04Z</time>
      </trkpt>
      <trkpt lat="43.73825" lon="4.22233">
        <ele>20</ele>
        <time>2018-08-12T06:40:06Z</time>
      </trkpt>
      <trkpt lat="43.73823" lon="4.22222">
        <ele>20</ele>
        <time>2018-08-12T06:40:08Z</time>
      </trkpt>
      <trkpt lat="43.73822" lon="4.22211">
        <ele>20</ele>
        <time>2018-08-12T06:40:10Z</time>
      </trkpt>
      <trkpt lat="43.73821" lon="4.22201">
        <ele>20</ele>
        <time>2018-08-12T06:40:12Z</time>
      </trkpt>
      <trkpt lat="43.73819" lon="4.2219">
        <ele>20</ele>
        <time>2018-08-12T06:40:14Z</time>
      </trkpt>
      <trkpt lat="43.73818" lon="4.22179">
        <ele>19</ele>
        <time>2018-08-12T06:40:16Z</time>
      </trkpt>
      <trkpt lat="43.73817" lon="4.22168">
        <ele>19</ele>
        <time>2018-08-12T06:40:18Z</time>
      </trkpt>
      <trkpt lat="43.73816" lon="4.22156">
        <ele>20</ele>
        <time>2018-08-12T06:40:20Z</time>
      </trkpt>
      <trkpt lat="43.73814" lon="4.22145">
        <ele>20</ele>
        <time>2018-08-12T06:40:22Z</time>
      </trkpt>
      <trkpt lat="43.73813" lon="4.22134">
        <ele>20</ele>
        <time>2018-08-12T06:40:24Z</time>
      </trkpt>
      <trkpt lat="43.73811" lon="4.22123">
        <ele>20</ele>
        <time>2018-08-12T06:40:26Z</time>
      </trkpt>
      <trkpt lat="43.7381" lon="4.22112">
        <ele>20</ele>
        <time>2018-08-12T06:40:28Z</time>
      </trkpt>
      <trkpt lat="43.73808" lon="4.22101">
        <ele>20</ele>
        <time>2018-08-12T06:40:30Z</time>
      </trkpt>
      <trkpt lat="43.73805" lon="4.22091">
        <ele>20</ele>
        <time>2018-08-12T06:40:32Z</time>
      </trkpt>
      <trkpt lat="43.73802" lon="4.22081">
        <ele>21</ele>
        <time>2018-08-12T06:40:34Z</time>
      </trkpt>
      <trkpt lat="43.73801" lon="4.2207">
        <ele>21</ele>
        <time>2018-08-12T06:40:36Z</time>
      </trkpt>
      <trkpt lat="43.738" lon="4.22059">
        <ele>22</ele>
        <time>2018-08-12T06:40:38Z</time>
      </trkpt>
      <trkpt lat="43.73798" lon="4.22047">
        <ele>22</ele>
        <time>2018-08-12T06:40:40Z</time>
      </trkpt>
      <trkpt lat="43.73797" lon="4.22036">
        <ele>22</ele>
        <time>2018-08-12T06:40:42Z</time>
      </trkpt>
      <trkpt lat="43.73795" lon="4.22026">
        <ele>22</ele>
        <time>2018-08-12T06:40:44Z</time>
      </trkpt>
      <trkpt lat="43.73793" lon="4.22015">
        <ele>22</ele>
        <time>2018-08-12T06:40:46Z</time>
      </trkpt>
      <trkpt lat="43.73792" lon="4.22003">
        <ele>22</ele>
        <time>2018-08-12T06:40:48Z</time>
      </trkpt>
      <trkpt lat="43.73791" lon="4.21992">
        <ele>22</ele>
        <time>2018-08-12T06:40:50Z</time>
      </trkpt>
      <trkpt lat="43.7379" lon="4.2198">
        <ele>22</ele>
        <time>2018-08-12T06:40:52Z</time>
      </trkpt>
      <trkpt lat="43.73788" lon="4.21969">
        <ele>22</ele>
        <time>2018-08-12T06:40:54Z</time>
      </trkpt>
      <trkpt lat="43.73787" lon="4.21959">
        <ele>22</ele>
        <time>2018-08-12T06:40:56Z</time>
      </trkpt>
      <trkpt lat="43.73786" lon="4.21949">
        <ele>22</ele>
        <time>2018-08-12T06:40:58Z</time>
      </trkpt>
      <trkpt lat="43.73785" lon="4.21943">
        <ele>22</ele>
        <time>2018-08-12T06:41:01Z</time>
      </trkpt>
      <trkpt lat="43.73778" lon="4.21943">
        <ele>22</ele>
        <time>2018-08-12T06:41:04Z</time>
      </trkpt>
      <trkpt lat="43.73771" lon="4.21944">
        <ele>22</ele>
        <time>2018-08-12T06:41:06Z</time>
      </trkpt>
      <trkpt lat="43.73764" lon="4.21946">
        <ele>22</ele>
        <time>2018-08-12T06:41:08Z</time>
      </trkpt>
      <trkpt lat="43.73757" lon="4.21947">
        <ele>22</ele>
        <time>2018-08-12T06:41:10Z</time>
      </trkpt>
      <trkpt lat="43.7375" lon="4.21949">
        <ele>21</ele>
        <time>2018-08-12T06:41:12Z</time>
      </trkpt>
      <trkpt lat="43.73742" lon="4.2195">
        <ele>21</ele>
        <time>2018-08-12T06:41:14Z</time>
      </trkpt>
      <trkpt lat="43.73735" lon="4.21951">
        <ele>21</ele>
        <time>2018-08-12T06:41:16Z</time>
      </trkpt>
      <trkpt lat="43.73726" lon="4.21952">
        <ele>21</ele>
        <time>2018-08-12T06:41:18Z</time>
      </trkpt>
      <trkpt lat="43.73716" lon="4.21955">
        <ele>21</ele>
        <time>2018-08-12T06:41:19Z</time>
      </trkpt>
      <trkpt lat="43.73708" lon="4.21956">
        <ele>21</ele>
        <time>2018-08-12T06:41:21Z</time>
      </trkpt>
      <trkpt lat="43.737" lon="4.21957">
        <ele>21</ele>
        <time>2018-08-12T06:41:23Z</time>
      </trkpt>
      <trkpt lat="43.73693" lon="4.21959">
        <ele>21</ele>
        <time>2018-08-12T06:41:25Z</time>
      </trkpt>
      <trkpt lat="43.73687" lon="4.2196">
        <ele>21</ele>
        <time>2018-08-12T06:41:26Z</time>
      </trkpt>
      <trkpt lat="43.73679" lon="4.21961">
        <ele>21</ele>
        <time>2018-08-12T06:41:28Z</time>
      </trkpt>
      <trkpt lat="43.73671" lon="4.21961">
        <ele>21</ele>
        <time>2018-08-12T06:41:30Z</time>
      </trkpt>
      <trkpt lat="43.73664" lon="4.21961">
        <ele>21</ele>
        <time>2018-08-12T06:41:32Z</time>
      </trkpt>
      <trkpt lat="43.73656" lon="4.21961">
        <ele>21</ele>
        <time>2018-08-12T06:41:34Z</time>
      </trkpt>
      <trkpt lat="43.73648" lon="4.21962">
        <ele>21</ele>
        <time>2018-08-12T06:41:36Z</time>
      </trkpt>
      <trkpt lat="43.7364" lon="4.21962">
        <ele>21</ele>
        <time>2018-08-12T06:41:38Z</time>
      </trkpt>
      <trkpt lat="43.73632" lon="4.21963">
        <ele>21</ele>
        <time>2018-08-12T06:41:40Z</time>
      </trkpt>
      <trkpt lat="43.73625" lon="4.21964">
        <ele>21</ele>
        <time>2018-08-12T06:41:42Z</time>
      </trkpt>
      <trkpt lat="43.73619" lon="4.21965">
        <ele>21</ele>
        <time>2018-08-12T06:41:44Z</time>
      </trkpt>
      <trkpt lat="43.73612" lon="4.21965">
        <ele>21</ele>
        <time>2018-08-12T06:41:46Z</time>
      </trkpt>
      <trkpt lat="43.73607" lon="4.2196">
        <ele>21</ele>
        <time>2018-08-12T06:41:48Z</time>
      </trkpt>
      <trkpt lat="43.73604" lon="4.21954">
        <ele>21</ele>
        <time>2018-08-12T06:41:50Z</time>
      </trkpt>
      <trkpt lat="43.736" lon="4.2195">
        <ele>21</ele>
        <time>2018-08-12T06:41:59Z</time>
      </trkpt>
      <trkpt lat="43.73595" lon="4.21951">
        <ele>21</ele>
        <time>2018-08-12T06:42:01Z</time>
      </trkpt>
      <trkpt lat="43.73589" lon="4.21955">
        <ele>21</ele>
        <time>2018-08-12T06:42:03Z</time>
      </trkpt>
      <trkpt lat="43.73582" lon="4.21958">
        <ele>20</ele>
        <time>2018-08-12T06:42:05Z</time>
      </trkpt>
      <trkpt lat="43.73574" lon="4.2196">
        <ele>21</ele>
        <time>2018-08-12T06:42:07Z</time>
      </trkpt>
      <trkpt lat="43.73567" lon="4.21964">
        <ele>21</ele>
        <time>2018-08-12T06:42:09Z</time>
      </trkpt>
      <trkpt lat="43.73559" lon="4.21968">
        <ele>21</ele>
        <time>2018-08-12T06:42:11Z</time>
      </trkpt>
      <trkpt lat="43.73552" lon="4.21972">
        <ele>21</ele>
        <time>2018-08-12T06:42:13Z</time>
      </trkpt>
      <trkpt lat="43.73543" lon="4.21974">
        <ele>21</ele>
        <time>2018-08-12T06:42:15Z</time>
      </trkpt>
      <trkpt lat="43.73534" lon="4.21977">
        <ele>20</ele>
        <time>2018-08-12T06:42:17Z</time>
      </trkpt>
      <trkpt lat="43.73526" lon="4.21978">
        <ele>20</ele>
        <time>2018-08-12T06:42:19Z</time>
      </trkpt>
      <trkpt lat="43.73517" lon="4.21978">
        <ele>20</ele>
        <time>2018-08-12T06:42:21Z</time>
      </trkpt>
      <trkpt lat="43.73509" lon="4.21979">
        <ele>20</ele>
        <time>2018-08-12T06:42:23Z</time>
      </trkpt>
      <trkpt lat="43.735" lon="4.2198">
        <ele>20</ele>
        <time>2018-08-12T06:42:25Z</time>
      </trkpt>
      <trkpt lat="43.73492" lon="4.2198">
        <ele>21</ele>
        <time>2018-08-12T06:42:27Z</time>
      </trkpt>
      <trkpt lat="43.73484" lon="4.21981">
        <ele>21</ele>
        <time>2018-08-12T06:42:29Z</time>
      </trkpt>
      <trkpt lat="43.73476" lon="4.21981">
        <ele>21</ele>
        <time>2018-08-12T06:42:31Z</time>
      </trkpt>
      <trkpt lat="43.73469" lon="4.21981">
        <ele>21</ele>
        <time>2018-08-12T06:42:33Z</time>
      </trkpt>
      <trkpt lat="43.7346" lon="4.21982">
        <ele>21</ele>
        <time>2018-08-12T06:42:35Z</time>
      </trkpt>
      <trkpt lat="43.73452" lon="4.21985">
        <ele>21</ele>
        <time>2018-08-12T06:42:37Z</time>
      </trkpt>
      <trkpt lat="43.73444" lon="4.21985">
        <ele>21</ele>
        <time>2018-08-12T06:42:39Z</time>
      </trkpt>
      <trkpt lat="43.73438" lon="4.21979">
        <ele>21</ele>
        <time>2018-08-12T06:42:41Z</time>
      </trkpt>
      <trkpt lat="43.73439" lon="4.21971">
        <ele>21</ele>
        <time>2018-08-12T06:42:42Z</time>
      </trkpt>
      <trkpt lat="43.73439" lon="4.2196">
        <ele>21</ele>
        <time>2018-08-12T06:42:44Z</time>
      </trkpt>
      <trkpt lat="43.73439" lon="4.21949">
        <ele>22</ele>
        <time>2018-08-12T06:42:46Z</time>
      </trkpt>
      <trkpt lat="43.7344" lon="4.21938">
        <ele>22</ele>
        <time>2018-08-12T06:42:48Z</time>
      </trkpt>
      <trkpt lat="43.7344" lon="4.21927">
        <ele>22</ele>
        <time>2018-08-12T06:42:50Z</time>
      </trkpt>
      <trkpt lat="43.73441" lon="4.21916">
        <ele>22</ele>
        <time>2018-08-12T06:42:52Z</time>
      </trkpt>
      <trkpt lat="43.73441" lon="4.21905">
        <ele>22</ele>
        <time>2018-08-12T06:42:54Z</time>
      </trkpt>
      <trkpt lat="43.73441" lon="4.21893">
        <ele>22</ele>
        <time>2018-08-12T06:42:56Z</time>
      </trkpt>
      <trkpt lat="43.73442" lon="4.21882">
        <ele>22</ele>
        <time>2018-08-12T06:42:58Z</time>
      </trkpt>
      <trkpt lat="43.73442" lon="4.21871">
        <ele>22</ele>
        <time>2018-08-12T06:43:00Z</time>
      </trkpt>
      <trkpt lat="43.73442" lon="4.21859">
        <ele>22</ele>
        <time>2018-08-12T06:43:02Z</time>
      </trkpt>
      <trkpt lat="43.73442" lon="4.21847">
        <ele>22</ele>
        <time>2018-08-12T06:43:04Z</time>
      </trkpt>
      <trkpt lat="43.73444" lon="4.21839">
        <ele>22</ele>
        <time>2018-08-12T06:43:05Z</time>
      </trkpt>
      <trkpt lat="43.73444" lon="4.21832">
        <ele>21</ele>
        <time>2018-08-12T06:43:06Z</time>
      </trkpt>
      <trkpt lat="43.73444" lon="4.21819">
        <ele>21</ele>
        <time>2018-08-12T06:43:08Z</time>
      </trkpt>
      <trkpt lat="43.73445" lon="4.21807">
        <ele>20</ele>
        <time>2018-08-12T06:43:10Z</time>
      </trkpt>
      <trkpt lat="43.73443" lon="4.218">
        <ele>20</ele>
        <time>2018-08-12T06:43:11Z</time>
      </trkpt>
      <trkpt lat="43.73444" lon="4.21794">
        <ele>20</ele>
        <time>2018-08-12T06:43:12Z</time>
      </trkpt>
      <trkpt lat="43.73445" lon="4.21782">
        <ele>20</ele>
        <time>2018-08-12T06:43:14Z</time>
      </trkpt>
      <trkpt lat="43.73443" lon="4.2177">
        <ele>20</ele>
        <time>2018-08-12T06:43:16Z</time>
      </trkpt>
      <trkpt lat="43.73441" lon="4.21764">
        <ele>20</ele>
        <time>2018-08-12T06:43:17Z</time>
      </trkpt>
      <trkpt lat="43.7344" lon="4.21752">
        <ele>20</ele>
        <time>2018-08-12T06:43:19Z</time>
      </trkpt>
      <trkpt lat="43.73439" lon="4.2174">
        <ele>19</ele>
        <time>2018-08-12T06:43:21Z</time>
      </trkpt>
      <trkpt lat="43.73436" lon="4.21729">
        <ele>19</ele>
        <time>2018-08-12T06:43:23Z</time>
      </trkpt>
      <trkpt lat="43.73432" lon="4.21719">
        <ele>19</ele>
        <time>2018-08-12T06:43:25Z</time>
      </trkpt>
      <trkpt lat="43.73428" lon="4.21709">
        <ele>19</ele>
        <time>2018-08-12T06:43:27Z</time>
      </trkpt>
      <trkpt lat="43.73428" lon="4.21699">
        <ele>19</ele>
        <time>2018-08-12T06:43:29Z</time>
      </trkpt>
      <trkpt lat="43.73432" lon="4.2169">
        <ele>19</ele>
        <time>2018-08-12T06:43:31Z</time>
      </trkpt>
      <trkpt lat="43.73435" lon="4.21681">
        <ele>19</ele>
        <time>2018-08-12T06:43:33Z</time>
      </trkpt>
      <trkpt lat="43.73438" lon="4.21673">
        <ele>19</ele>
        <time>2018-08-12T06:43:35Z</time>
      </trkpt>
      <trkpt lat="43.73441" lon="4.21664">
        <ele>18</ele>
        <time>2018-08-12T06:43:37Z</time>
      </trkpt>
      <trkpt lat="43.73444" lon="4.21655">
        <ele>18</ele>
        <time>2018-08-12T06:43:39Z</time>
      </trkpt>
      <trkpt lat="43.73447" lon="4.21646">
        <ele>18</ele>
        <time>2018-08-12T06:43:41Z</time>
      </trkpt>
      <trkpt lat="43.7345" lon="4.21638">
        <ele>18</ele>
        <time>2018-08-12T06:43:43Z</time>
      </trkpt>
      <trkpt lat="43.73452" lon="4.21629">
        <ele>18</ele>
        <time>2018-08-12T06:43:45Z</time>
      </trkpt>
      <trkpt lat="43.73453" lon="4.21621">
        <ele>18</ele>
        <time>2018-08-12T06:43:47Z</time>
      </trkpt>
      <trkpt lat="43.73456" lon="4.21614">
        <ele>18</ele>
        <time>2018-08-12T06:43:49Z</time>
      </trkpt>
      <trkpt lat="43.73457" lon="4.21615">
        <ele>18</ele>
        <time>2018-08-12T06:44:10Z</time>
      </trkpt>
      <trkpt lat="43.73458" lon="4.21615">
        <ele>18</ele>
        <time>2018-08-12T06:44:12Z</time>
      </trkpt>
      <trkpt lat="43.73463" lon="4.21612">
        <ele>18</ele>
        <time>2018-08-12T06:44:30Z</time>
      </trkpt>
      <trkpt lat="43.73468" lon="4.2161">
        <ele>18</ele>
        <time>2018-08-12T06:44:32Z</time>
      </trkpt>
      <trkpt lat="43.73473" lon="4.21608">
        <ele>18</ele>
        <time>2018-08-12T06:44:34Z</time>
      </trkpt>
      <trkpt lat="43.73479" lon="4.21605">
        <ele>18</ele>
        <time>2018-08-12T06:44:36Z</time>
      </trkpt>
      <trkpt lat="43.73485" lon="4.21603">
        <ele>18</ele>
        <time>2018-08-12T06:44:38Z</time>
      </trkpt>
      <trkpt lat="43.73491" lon="4.216">
        <ele>18</ele>
        <time>2018-08-12T06:44:40Z</time>
      </trkpt>
      <trkpt lat="43.73497" lon="4.21597">
        <ele>18</ele>
        <time>2018-08-12T06:44:42Z</time>
      </trkpt>
      <trkpt lat="43.73503" lon="4.21593">
        <ele>18</ele>
        <time>2018-08-12T06:44:44Z</time>
      </trkpt>
      <trkpt lat="43.7351" lon="4.21589">
        <ele>18</ele>
        <time>2018-08-12T06:44:46Z</time>
      </trkpt>
      <trkpt lat="43.73515" lon="4.21586">
        <ele>18</ele>
        <time>2018-08-12T06:44:48Z</time>
      </trkpt>
      <trkpt lat="43.73523" lon="4.21582">
        <ele>18</ele>
        <time>2018-08-12T06:44:50Z</time>
      </trkpt>
      <trkpt lat="43.73529" lon="4.21578">
        <ele>18</ele>
        <time>2018-08-12T06:44:52Z</time>
      </trkpt>
      <trkpt lat="43.73535" lon="4.21574">
        <ele>18</ele>
        <time>2018-08-12T06:44:54Z</time>
      </trkpt>
      <trkpt lat="43.73542" lon="4.2157">
        <ele>18</ele>
        <time>2018-08-12T06:44:56Z</time>
      </trkpt>
      <trkpt lat="43.73548" lon="4.21567">
        <ele>18</ele>
        <time>2018-08-12T06:44:58Z</time>
      </trkpt>
      <trkpt lat="43.73554" lon="4.21565">
        <ele>18</ele>
        <time>2018-08-12T06:45:00Z</time>
      </trkpt>
      <trkpt lat="43.73561" lon="4.21561">
        <ele>18</ele>
        <time>2018-08-12T06:45:02Z</time>
      </trkpt>
      <trkpt lat="43.73567" lon="4.21558">
        <ele>18</ele>
        <time>2018-08-12T06:45:04Z</time>
      </trkpt>
      <trkpt lat="43.73574" lon="4.21555">
        <ele>18</ele>
        <time>2018-08-12T06:45:06Z</time>
      </trkpt>
      <trkpt lat="43.7358" lon="4.21552">
        <ele>17</ele>
        <time>2018-08-12T06:45:08Z</time>
      </trkpt>
      <trkpt lat="43.73586" lon="4.2155">
        <ele>17</ele>
        <time>2018-08-12T06:45:10Z</time>
      </trkpt>
      <trkpt lat="43.73591" lon="4.21548">
        <ele>17</ele>
        <time>2018-08-12T06:45:12Z</time>
      </trkpt>
      <trkpt lat="43.73599" lon="4.21544">
        <ele>17</ele>
        <time>2018-08-12T06:45:14Z</time>
      </trkpt>
      <trkpt lat="43.73605" lon="4.21541">
        <ele>17</ele>
        <time>2018-08-12T06:45:16Z</time>
      </trkpt>
      <trkpt lat="43.73613" lon="4.21537">
        <ele>17</ele>
        <time>2018-08-12T06:45:18Z</time>
      </trkpt>
      <trkpt lat="43.7362" lon="4.21533">
        <ele>17</ele>
        <time>2018-08-12T06:45:20Z</time>
      </trkpt>
      <trkpt lat="43.73629" lon="4.21526">
        <ele>17</ele>
        <time>2018-08-12T06:45:22Z</time>
      </trkpt>
      <trkpt lat="43.73635" lon="4.2152">
        <ele>17</ele>
        <time>2018-08-12T06:45:24Z</time>
      </trkpt>
      <trkpt lat="43.73639" lon="4.21517">
        <ele>17</ele>
        <time>2018-08-12T06:45:25Z</time>
      </trkpt>
      <trkpt lat="43.73646" lon="4.2151">
        <ele>17</ele>
        <time>2018-08-12T06:45:27Z</time>
      </trkpt>
      <trkpt lat="43.73653" lon="4.21503">
        <ele>17</ele>
        <time>2018-08-12T06:45:29Z</time>
      </trkpt>
      <trkpt lat="43.7366" lon="4.21495">
        <ele>17</ele>
        <time>2018-08-12T06:45:31Z</time>
      </trkpt>
      <trkpt lat="43.73666" lon="4.21488">
        <ele>17</ele>
        <time>2018-08-12T06:45:33Z</time>
      </trkpt>
      <trkpt lat="43.73675" lon="4.21478">
        <ele>18</ele>
        <time>2018-08-12T06:45:36Z</time>
      </trkpt>
      <trkpt lat="43.73679" lon="4.21474">
        <ele>18</ele>
        <time>2018-08-12T06:45:37Z</time>
      </trkpt>
      <trkpt lat="43.73685" lon="4.21467">
        <ele>18</ele>
        <time>2018-08-12T06:45:39Z</time>
      </trkpt>
      <trkpt lat="43.73692" lon="4.21461">
        <ele>18</ele>
        <time>2018-08-12T06:45:41Z</time>
      </trkpt>
      <trkpt lat="43.73697" lon="4.21454">
        <ele>18</ele>
        <time>2018-08-12T06:45:43Z</time>
      </trkpt>
      <trkpt lat="43.73704" lon="4.21448">
        <ele>18</ele>
        <time>2018-08-12T06:45:45Z</time>
      </trkpt>
      <trkpt lat="43.73713" lon="4.21442">
        <ele>18</ele>
        <time>2018-08-12T06:45:48Z</time>
      </trkpt>
      <trkpt lat="43.73721" lon="4.21439">
        <ele>18</ele>
        <time>2018-08-12T06:45:50Z</time>
      </trkpt>
      <trkpt lat="43.73728" lon="4.21436">
        <ele>18</ele>
        <time>2018-08-12T06:45:52Z</time>
      </trkpt>
      <trkpt lat="43.73735" lon="4.21434">
        <ele>18</ele>
        <time>2018-08-12T06:45:54Z</time>
      </trkpt>
      <trkpt lat="43.73742" lon="4.21434">
        <ele>18</ele>
        <time>2018-08-12T06:45:56Z</time>
      </trkpt>
      <trkpt lat="43.73748" lon="4.21438">
        <ele>18</ele>
        <time>2018-08-12T06:45:58Z</time>
      </trkpt>
      <trkpt lat="43.73754" lon="4.21443">
        <ele>19</ele>
        <time>2018-08-12T06:46:00Z</time>
      </trkpt>
      <trkpt lat="43.7376" lon="4.21449">
        <ele>19</ele>
        <time>2018-08-12T06:46:02Z</time>
      </trkpt>
      <trkpt lat="43.73766" lon="4.21451">
        <ele>19</ele>
        <time>2018-08-12T06:46:04Z</time>
      </trkpt>
      <trkpt lat="43.73772" lon="4.21448">
        <ele>19</ele>
        <time>2018-08-12T06:46:06Z</time>
      </trkpt>
      <trkpt lat="43.73776" lon="4.21441">
        <ele>19</ele>
        <time>2018-08-12T06:46:08Z</time>
      </trkpt>
      <trkpt lat="43.73776" lon="4.21432">
        <ele>19</ele>
        <time>2018-08-12T06:46:10Z</time>
      </trkpt>
      <trkpt lat="43.73774" lon="4.21424">
        <ele>19</ele>
        <time>2018-08-12T06:46:12Z</time>
      </trkpt>
      <trkpt lat="43.73776" lon="4.21415">
        <ele>19</ele>
        <time>2018-08-12T06:46:14Z</time>
      </trkpt>
      <trkpt lat="43.7378" lon="4.21409">
        <ele>19</ele>
        <time>2018-08-12T06:46:16Z</time>
      </trkpt>
      <trkpt lat="43.73787" lon="4.21406">
        <ele>19</ele>
        <time>2018-08-12T06:46:18Z</time>
      </trkpt>
      <trkpt lat="43.73795" lon="4.21406">
        <ele>19</ele>
        <time>2018-08-12T06:46:20Z</time>
      </trkpt>
      <trkpt lat="43.73802" lon="4.21406">
        <ele>19</ele>
        <time>2018-08-12T06:46:22Z</time>
      </trkpt>
      <trkpt lat="43.73809" lon="4.21407">
        <ele>19</ele>
        <time>2018-08-12T06:46:24Z</time>
      </trkpt>
      <trkpt lat="43.73818" lon="4.21408">
        <ele>18</ele>
        <time>2018-08-12T06:46:26Z</time>
      </trkpt>
      <trkpt lat="43.73826" lon="4.21409">
        <ele>18</ele>
        <time>2018-08-12T06:46:28Z</time>
      </trkpt>
      <trkpt lat="43.73834" lon="4.21409">
        <ele>18</ele>
        <time>2018-08-12T06:46:30Z</time>
      </trkpt>
      <trkpt lat="43.73842" lon="4.2141">
        <ele>18</ele>
        <time>2018-08-12T06:46:32Z</time>
      </trkpt>
      <trkpt lat="43.7385" lon="4.21409">
        <ele>18</ele>
        <time>2018-08-12T06:46:34Z</time>
      </trkpt>
      <trkpt lat="43.73857" lon="4.21407">
        <ele>19</ele>
        <time>2018-08-12T06:46:36Z</time>
      </trkpt>
      <trkpt lat="43.73861" lon="4.21406">
        <ele>19</ele>
        <time>2018-08-12T06:46:37Z</time>
      </trkpt>
      <trkpt lat="43.73869" lon="4.21403">
        <ele>19</ele>
        <time>2018-08-12T06:46:39Z</time>
      </trkpt>
      <trkpt lat="43.73877" lon="4.214">
        <ele>19</ele>
        <time>2018-08-12T06:46:41Z</time>
      </trkpt>
      <trkpt lat="43.73886" lon="4.21397">
        <ele>19</ele>
        <time>2018-08-12T06:46:43Z</time>
      </trkpt>
      <trkpt lat="43.73897" lon="4.21396">
        <ele>19</ele>
        <time>2018-08-12T06:46:45Z</time>
      </trkpt>
      <trkpt lat="43.73908" lon="4.21392">
        <ele>19</ele>
        <time>2018-08-12T06:46:48Z</time>
      </trkpt>
      <trkpt lat="43.73912" lon="4.2139">
        <ele>19</ele>
        <time>2018-08-12T06:46:49Z</time>
      </trkpt>
      <trkpt lat="43.7392" lon="4.21387">
        <ele>19</ele>
        <time>2018-08-12T06:46:51Z</time>
      </trkpt>
      <trkpt lat="43.73927" lon="4.21385">
        <ele>19</ele>
        <time>2018-08-12T06:46:53Z</time>
      </trkpt>
      <trkpt lat="43.73935" lon="4.21382">
        <ele>19</ele>
        <time>2018-08-12T06:46:55Z</time>
      </trkpt>
      <trkpt lat="43.73942" lon="4.21379">
        <ele>19</ele>
        <time>2018-08-12T06:46:57Z</time>
      </trkpt>
      <trkpt lat="43.73953" lon="4.21381">
        <ele>19</ele>
        <time>2018-08-12T06:47:00Z</time>
      </trkpt>
      <trkpt lat="43.73958" lon="4.21383">
        <ele>19</ele>
        <time>2018-08-12T06:47:01Z</time>
      </trkpt>
      <trkpt lat="43.73966" lon="4.21387">
        <ele>19</ele>
        <time>2018-08-12T06:47:03Z</time>
      </trkpt>
      <trkpt lat="43.73974" lon="4.21389">
        <ele>19</ele>
        <time>2018-08-12T06:47:05Z</time>
      </trkpt>
      <trkpt lat="43.73982" lon="4.21387">
        <ele>19</ele>
        <time>2018-08-12T06:47:06Z</time>
      </trkpt>
      <trkpt lat="43.73987" lon="4.21385">
        <ele>19</ele>
        <time>2018-08-12T06:47:07Z</time>
      </trkpt>
      <trkpt lat="43.73992" lon="4.21379">
        <ele>19</ele>
        <time>2018-08-12T06:47:09Z</time>
      </trkpt>
      <trkpt lat="43.74003" lon="4.21371">
        <ele>20</ele>
        <time>2018-08-12T06:47:12Z</time>
      </trkpt>
      <trkpt lat="43.74007" lon="4.21367">
        <ele>20</ele>
        <time>2018-08-12T06:47:13Z</time>
      </trkpt>
      <trkpt lat="43.74014" lon="4.2136">
        <ele>20</ele>
        <time>2018-08-12T06:47:15Z</time>
      </trkpt>
      <trkpt lat="43.74021" lon="4.21356">
        <ele>20</ele>
        <time>2018-08-12T06:47:17Z</time>
      </trkpt>
      <trkpt lat="43.74028" lon="4.21351">
        <ele>20</ele>
        <time>2018-08-12T06:47:19Z</time>
      </trkpt>
      <trkpt lat="43.74036" lon="4.21346">
        <ele>20</ele>
        <time>2018-08-12T06:47:21Z</time>
      </trkpt>
      <trkpt lat="43.74047" lon="4.21339">
        <ele>19</ele>
        <time>2018-08-12T06:47:24Z</time>
      </trkpt>
      <trkpt lat="43.74051" lon="4.21337">
        <ele>19</ele>
        <time>2018-08-12T06:47:25Z</time>
      </trkpt>
      <trkpt lat="43.74059" lon="4.21331">
        <ele>19</ele>
        <time>2018-08-12T06:47:27Z</time>
      </trkpt>
      <trkpt lat="43.74066" lon="4.21326">
        <ele>19</ele>
        <time>2018-08-12T06:47:29Z</time>
      </trkpt>
      <trkpt lat="43.74074" lon="4.21321">
        <ele>19</ele>
        <time>2018-08-12T06:47:31Z</time>
      </trkpt>
      <trkpt lat="43.74081" lon="4.21315">
        <ele>19</ele>
        <time>2018-08-12T06:47:33Z</time>
      </trkpt>
      <trkpt lat="43.74091" lon="4.21308">
        <ele>18</ele>
        <time>2018-08-12T06:47:36Z</time>
      </trkpt>
      <trkpt lat="43.74096" lon="4.21305">
        <ele>18</ele>
        <time>2018-08-12T06:47:37Z</time>
      </trkpt>
      <trkpt lat="43.74103" lon="4.21301">
        <ele>18</ele>
        <time>2018-08-12T06:47:39Z</time>
      </trkpt>
      <trkpt lat="43.74111" lon="4.21296">
        <ele>18</ele>
        <time>2018-08-12T06:47:41Z</time>
      </trkpt>
      <trkpt lat="43.74117" lon="4.2129">
        <ele>18</ele>
        <time>2018-08-12T06:47:43Z</time>
      </trkpt>
      <trkpt lat="43.74124" lon="4.21287">
        <ele>18</ele>
        <time>2018-08-12T06:47:45Z</time>
      </trkpt>
      <trkpt lat="43.74135" lon="4.21286">
        <ele>18</ele>
        <time>2018-08-12T06:47:48Z</time>
      </trkpt>
      <trkpt lat="43.7414" lon="4.21286">
        <ele>18</ele>
        <time>2018-08-12T06:47:49Z</time>
      </trkpt>
      <trkpt lat="43.74147" lon="4.21286">
        <ele>18</ele>
        <time>2018-08-12T06:47:51Z</time>
      </trkpt>
      <trkpt lat="43.74155" lon="4.21287">
        <ele>18</ele>
        <time>2018-08-12T06:47:53Z</time>
      </trkpt>
      <trkpt lat="43.74162" lon="4.21291">
        <ele>18</ele>
        <time>2018-08-12T06:47:55Z</time>
      </trkpt>
      <trkpt lat="43.7417" lon="4.21295">
        <ele>18</ele>
        <time>2018-08-12T06:47:57Z</time>
      </trkpt>
      <trkpt lat="43.74181" lon="4.21295">
        <ele>19</ele>
        <time>2018-08-12T06:48:00Z</time>
      </trkpt>
      <trkpt lat="43.74186" lon="4.21293">
        <ele>19</ele>
        <time>2018-08-12T06:48:01Z</time>
      </trkpt>
      <trkpt lat="43.74194" lon="4.21291">
        <ele>19</ele>
        <time>2018-08-12T06:48:03Z</time>
      </trkpt>
      <trkpt lat="43.742" lon="4.21289">
        <ele>19</ele>
        <time>2018-08-12T06:48:05Z</time>
      </trkpt>
      <trkpt lat="43.74207" lon="4.21284">
        <ele>19</ele>
        <time>2018-08-12T06:48:07Z</time>
      </trkpt>
      <trkpt lat="43.74213" lon="4.21279">
        <ele>19</ele>
        <time>2018-08-12T06:48:09Z</time>
      </trkpt>
      <trkpt lat="43.74226" lon="4.21272">
        <ele>19</ele>
        <time>2018-08-12T06:48:12Z</time>
      </trkpt>
      <trkpt lat="43.74231" lon="4.21269">
        <ele>19</ele>
        <time>2018-08-12T06:48:14Z</time>
      </trkpt>
      <trkpt lat="43.74239" lon="4.21266">
        <ele>19</ele>
        <time>2018-08-12T06:48:16Z</time>
      </trkpt>
      <trkpt lat="43.74244" lon="4.21264">
        <ele>19</ele>
        <time>2018-08-12T06:48:17Z</time>
      </trkpt>
      <trkpt lat="43.7425" lon="4.21264">
        <ele>20</ele>
        <time>2018-08-12T06:48:19Z</time>
      </trkpt>
      <trkpt lat="43.74255" lon="4.21264">
        <ele>20</ele>
        <time>2018-08-12T06:48:20Z</time>
      </trkpt>
      <trkpt lat="43.74262" lon="4.21262">
        <ele>20</ele>
        <time>2018-08-12T06:48:22Z</time>
      </trkpt>
      <trkpt lat="43.7427" lon="4.21262">
        <ele>20</ele>
        <time>2018-08-12T06:48:24Z</time>
      </trkpt>
      <trkpt lat="43.74278" lon="4.21261">
        <ele>20</ele>
        <time>2018-08-12T06:48:26Z</time>
      </trkpt>
      <trkpt lat="43.74286" lon="4.21259">
        <ele>20</ele>
        <time>2018-08-12T06:48:28Z</time>
      </trkpt>
      <trkpt lat="43.74293" lon="4.21254">
        <ele>20</ele>
        <time>2018-08-12T06:48:30Z</time>
      </trkpt>
      <trkpt lat="43.74299" lon="4.21248">
        <ele>20</ele>
        <time>2018-08-12T06:48:32Z</time>
      </trkpt>
      <trkpt lat="43.74305" lon="4.21241">
        <ele>20</ele>
        <time>2018-08-12T06:48:34Z</time>
      </trkpt>
      <trkpt lat="43.7434" lon="4.21204">
        <ele>21</ele>
        <time>2018-08-12T06:48:46Z</time>
      </trkpt>
      <trkpt lat="43.74347" lon="4.21197">
        <ele>21</ele>
        <time>2018-08-12T06:48:47Z</time>
      </trkpt>
      <trkpt lat="43.74352" lon="4.21191">
        <ele>21</ele>
        <time>2018-08-12T06:48:49Z</time>
      </trkpt>
      <trkpt lat="43.74358" lon="4.21185">
        <ele>21</ele>
        <time>2018-08-12T06:48:51Z</time>
      </trkpt>
      <trkpt lat="43.74363" lon="4.21179">
        <ele>21</ele>
        <time>2018-08-12T06:48:53Z</time>
      </trkpt>
      <trkpt lat="43.74368" lon="4.21174">
        <ele>21</ele>
        <time>2018-08-12T06:48:55Z</time>
      </trkpt>
      <trkpt lat="43.74372" lon="4.2117">
        <ele>21</ele>
        <time>2018-08-12T06:48:57Z</time>
      </trkpt>
      <trkpt lat="43.74377" lon="4.21169">
        <ele>21</ele>
        <time>2018-08-12T06:49:01Z</time>
      </trkpt>
      <trkpt lat="43.74381" lon="4.21163">
        <ele>20</ele>
        <time>2018-08-12T06:49:04Z</time>
      </trkpt>
      <trkpt lat="43.74382" lon="4.21154">
        <ele>20</ele>
        <time>2018-08-12T06:49:06Z</time>
      </trkpt>
      <trkpt lat="43.74382" lon="4.21144">
        <ele>20</ele>
        <time>2018-08-12T06:49:08Z</time>
      </trkpt>
      <trkpt lat="43.74382" lon="4.21132">
        <ele>20</ele>
        <time>2018-08-12T06:49:10Z</time>
      </trkpt>
      <trkpt lat="43.74381" lon="4.2112">
        <ele>20</ele>
        <time>2018-08-12T06:49:12Z</time>
      </trkpt>
      <trkpt lat="43.74381" lon="4.21114">
        <ele>20</ele>
        <time>2018-08-12T06:49:13Z</time>
      </trkpt>
      <trkpt lat="43.7438" lon="4.21104">
        <ele>20</ele>
        <time>2018-08-12T06:49:14Z</time>
      </trkpt>
      <trkpt lat="43.74381" lon="4.21097">
        <ele>20</ele>
        <time>2018-08-12T06:49:15Z</time>
      </trkpt>
      <trkpt lat="43.74381" lon="4.2109">
        <ele>20</ele>
        <time>2018-08-12T06:49:16Z</time>
      </trkpt>
      <trkpt lat="43.74381" lon="4.21084">
        <ele>20</ele>
        <time>2018-08-12T06:49:17Z</time>
      </trkpt>
      <trkpt lat="43.7438" lon="4.21074">
        <ele>21</ele>
        <time>2018-08-12T06:49:19Z</time>
      </trkpt>
      <trkpt lat="43.7438" lon="4.21063">
        <ele>21</ele>
        <time>2018-08-12T06:49:21Z</time>
      </trkpt>
      <trkpt lat="43.74379" lon="4.21052">
        <ele>21</ele>
        <time>2018-08-12T06:49:23Z</time>
      </trkpt>
      <trkpt lat="43.74377" lon="4.21042">
        <ele>21</ele>
        <time>2018-08-12T06:49:25Z</time>
      </trkpt>
      <trkpt lat="43.74377" lon="4.21031">
        <ele>21</ele>
        <time>2018-08-12T06:49:27Z</time>
      </trkpt>
      <trkpt lat="43.74377" lon="4.21021">
        <ele>21</ele>
        <time>2018-08-12T06:49:29Z</time>
      </trkpt>
      <trkpt lat="43.74381" lon="4.21012">
        <ele>21</ele>
        <time>2018-08-12T06:49:31Z</time>
      </trkpt>
      <trkpt lat="43.74386" lon="4.21003">
        <ele>21</ele>
        <time>2018-08-12T06:49:33Z</time>
      </trkpt>
      <trkpt lat="43.74391" lon="4.20994">
        <ele>21</ele>
        <time>2018-08-12T06:49:35Z</time>
      </trkpt>
      <trkpt lat="43.74395" lon="4.20985">
        <ele>21</ele>
        <time>2018-08-12T06:49:37Z</time>
      </trkpt>
      <trkpt lat="43.74401" lon="4.20977">
        <ele>21</ele>
        <time>2018-08-12T06:49:39Z</time>
      </trkpt>
      <trkpt lat="43.74408" lon="4.20972">
        <ele>21</ele>
        <time>2018-08-12T06:49:41Z</time>
      </trkpt>
      <trkpt lat="43.74416" lon="4.20968">
        <ele>21</ele>
        <time>2018-08-12T06:49:43Z</time>
      </trkpt>
      <trkpt lat="43.74423" lon="4.20965">
        <ele>20</ele>
        <time>2018-08-12T06:49:45Z</time>
      </trkpt>
      <trkpt lat="43.74431" lon="4.20962">
        <ele>20</ele>
        <time>2018-08-12T06:49:47Z</time>
      </trkpt>
      <trkpt lat="43.74438" lon="4.20958">
        <ele>21</ele>
        <time>2018-08-12T06:49:49Z</time>
      </trkpt>
      <trkpt lat="43.74445" lon="4.20954">
        <ele>21</ele>
        <time>2018-08-12T06:49:51Z</time>
      </trkpt>
      <trkpt lat="43.74452" lon="4.2095">
        <ele>21</ele>
        <time>2018-08-12T06:49:53Z</time>
      </trkpt>
      <trkpt lat="43.74459" lon="4.20946">
        <ele>21</ele>
        <time>2018-08-12T06:49:55Z</time>
      </trkpt>
      <trkpt lat="43.74466" lon="4.20941">
        <ele>21</ele>
        <time>2018-08-12T06:49:57Z</time>
      </trkpt>
      <trkpt lat="43.74474" lon="4.20937">
        <ele>21</ele>
        <time>2018-08-12T06:49:59Z</time>
      </trkpt>
      <trkpt lat="43.74481" lon="4.20933">
        <ele>21</ele>
        <time>2018-08-12T06:50:01Z</time>
      </trkpt>
      <trkpt lat="43.74488" lon="4.20929">
        <ele>21</ele>
        <time>2018-08-12T06:50:03Z</time>
      </trkpt>
      <trkpt lat="43.74496" lon="4.20925">
        <ele>21</ele>
        <time>2018-08-12T06:50:05Z</time>
      </trkpt>
      <trkpt lat="43.74504" lon="4.20922">
        <ele>21</ele>
        <time>2018-08-12T06:50:07Z</time>
      </trkpt>
      <trkpt lat="43.74511" lon="4.20919">
        <ele>21</ele>
        <time>2018-08-12T06:50:09Z</time>
      </trkpt>
      <trkpt lat="43.74519" lon="4.20916">
        <ele>21</ele>
        <time>2018-08-12T06:50:11Z</time>
      </trkpt>
      <trkpt lat="43.74527" lon="4.20912">
        <ele>22</ele>
        <time>2018-08-12T06:50:13Z</time>
      </trkpt>
      <trkpt lat="43.74535" lon="4.20909">
        <ele>22</ele>
        <time>2018-08-12T06:50:15Z</time>
      </trkpt>
      <trkpt lat="43.74543" lon="4.20905">
        <ele>22</ele>
        <time>2018-08-12T06:50:17Z</time>
      </trkpt>
      <trkpt lat="43.74551" lon="4.20903">
        <ele>22</ele>
        <time>2018-08-12T06:50:19Z</time>
      </trkpt>
      <trkpt lat="43.74559" lon="4.209">
        <ele>22</ele>
        <time>2018-08-12T06:50:21Z</time>
      </trkpt>
      <trkpt lat="43.74567" lon="4.20896">
        <ele>22</ele>
        <time>2018-08-12T06:50:23Z</time>
      </trkpt>
      <trkpt lat="43.74575" lon="4.20893">
        <ele>22</ele>
        <time>2018-08-12T06:50:25Z</time>
      </trkpt>
      <trkpt lat="43.74582" lon="4.20891">
        <ele>22</ele>
        <time>2018-08-12T06:50:27Z</time>
      </trkpt>
      <trkpt lat="43.7459" lon="4.20887">
        <ele>22</ele>
        <time>2018-08-12T06:50:29Z</time>
      </trkpt>
      <trkpt lat="43.74597" lon="4.20884">
        <ele>22</ele>
        <time>2018-08-12T06:50:31Z</time>
      </trkpt>
      <trkpt lat="43.74605" lon="4.20881">
        <ele>22</ele>
        <time>2018-08-12T06:50:33Z</time>
      </trkpt>
      <trkpt lat="43.74612" lon="4.20879">
        <ele>22</ele>
        <time>2018-08-12T06:50:35Z</time>
      </trkpt>
      <trkpt lat="43.7462" lon="4.20875">
        <ele>22</ele>
        <time>2018-08-12T06:50:37Z</time>
      </trkpt>
      <trkpt lat="43.74627" lon="4.20872">
        <ele>22</ele>
        <time>2018-08-12T06:50:39Z</time>
      </trkpt>
      <trkpt lat="43.74634" lon="4.20869">
        <ele>22</ele>
        <time>2018-08-12T06:50:41Z</time>
      </trkpt>
      <trkpt lat="43.74641" lon="4.20865">
        <ele>22</ele>
        <time>2018-08-12T06:50:43Z</time>
      </trkpt>
      <trkpt lat="43.74649" lon="4.20862">
        <ele>22</ele>
        <time>2018-08-12T06:50:45Z</time>
      </trkpt>
      <trkpt lat="43.74657" lon="4.2086">
        <ele>22</ele>
        <time>2018-08-12T06:50:47Z</time>
      </trkpt>
      <trkpt lat="43.74665" lon="4.20857">
        <ele>22</ele>
        <time>2018-08-12T06:50:49Z</time>
      </trkpt>
      <trkpt lat="43.74673" lon="4.20854">
        <ele>22</ele>
        <time>2018-08-12T06:50:51Z</time>
      </trkpt>
      <trkpt lat="43.74681" lon="4.20852">
        <ele>22</ele>
        <time>2018-08-12T06:50:53Z</time>
      </trkpt>
      <trkpt lat="43.74689" lon="4.2085">
        <ele>22</ele>
        <time>2018-08-12T06:50:55Z</time>
      </trkpt>
      <trkpt lat="43.74697" lon="4.20847">
        <ele>22</ele>
        <time>2018-08-12T06:50:57Z</time>
      </trkpt>
      <trkpt lat="43.74705" lon="4.20844">
        <ele>22</ele>
        <time>2018-08-12T06:50:59Z</time>
      </trkpt>
      <trkpt lat="43.74712" lon="4.20841">
        <ele>22</ele>
        <time>2018-08-12T06:51:01Z</time>
      </trkpt>
      <trkpt lat="43.7472" lon="4.20839">
        <ele>22</ele>
        <time>2018-08-12T06:51:03Z</time>
      </trkpt>
      <trkpt lat="43.74728" lon="4.20837">
        <ele>23</ele>
        <time>2018-08-12T06:51:05Z</time>
      </trkpt>
      <trkpt lat="43.74736" lon="4.20834">
        <ele>23</ele>
        <time>2018-08-12T06:51:07Z</time>
      </trkpt>
      <trkpt lat="43.74744" lon="4.20832">
        <ele>23</ele>
        <time>2018-08-12T06:51:09Z</time>
      </trkpt>
      <trkpt lat="43.74752" lon="4.2083">
        <ele>23</ele>
        <time>2018-08-12T06:51:11Z</time>
      </trkpt>
      <trkpt lat="43.7476" lon="4.20828">
        <ele>23</ele>
        <time>2018-08-12T06:51:13Z</time>
      </trkpt>
      <trkpt lat="43.74768" lon="4.20826">
        <ele>24</ele>
        <time>2018-08-12T06:51:15Z</time>
      </trkpt>
      <trkpt lat="43.74777" lon="4.20825">
        <ele>24</ele>
        <time>2018-08-12T06:51:17Z</time>
      </trkpt>
      <trkpt lat="43.74785" lon="4.20823">
        <ele>24</ele>
        <time>2018-08-12T06:51:19Z</time>
      </trkpt>
      <trkpt lat="43.74792" lon="4.20821">
        <ele>24</ele>
        <time>2018-08-12T06:51:21Z</time>
      </trkpt>
      <trkpt lat="43.748" lon="4.20819">
        <ele>24</ele>
        <time>2018-08-12T06:51:23Z</time>
      </trkpt>
      <trkpt lat="43.74808" lon="4.20817">
        <ele>24</ele>
        <time>2018-08-12T06:51:25Z</time>
      </trkpt>
      <trkpt lat="43.74817" lon="4.20814">
        <ele>24</ele>
        <time>2018-08-12T06:51:27Z</time>
      </trkpt>
      <trkpt lat="43.74824" lon="4.20813">
        <ele>24</ele>
        <time>2018-08-12T06:51:29Z</time>
      </trkpt>
      <trkpt lat="43.74831" lon="4.2081">
        <ele>24</ele>
        <time>2018-08-12T06:51:31Z</time>
      </trkpt>
      <trkpt lat="43.74839" lon="4.20808">
        <ele>24</ele>
        <time>2018-08-12T06:51:33Z</time>
      </trkpt>
      <trkpt lat="43.74846" lon="4.20806">
        <ele>24</ele>
        <time>2018-08-12T06:51:35Z</time>
      </trkpt>
      <trkpt lat="43.74854" lon="4.20804">
        <ele>25</ele>
        <time>2018-08-12T06:51:37Z</time>
      </trkpt>
      <trkpt lat="43.74861" lon="4.20803">
        <ele>25</ele>
        <time>2018-08-12T06:51:39Z</time>
      </trkpt>
      <trkpt lat="43.74868" lon="4.20801">
        <ele>25</ele>
        <time>2018-08-12T06:51:41Z</time>
      </trkpt>
      <trkpt lat="43.74876" lon="4.20799">
        <ele>25</ele>
        <time>2018-08-12T06:51:43Z</time>
      </trkpt>
      <trkpt lat="43.74885" lon="4.20796">
        <ele>25</ele>
        <time>2018-08-12T06:51:45Z</time>
      </trkpt>
      <trkpt lat="43.74892" lon="4.20794">
        <ele>25</ele>
        <time>2018-08-12T06:51:47Z</time>
      </trkpt>
      <trkpt lat="43.74898" lon="4.20792">
        <ele>25</ele>
        <time>2018-08-12T06:51:48Z</time>
      </trkpt>
      <trkpt lat="43.74904" lon="4.20792">
        <ele>25</ele>
        <time>2018-08-12T06:51:49Z</time>
      </trkpt>
      <trkpt lat="43.74911" lon="4.20787">
        <ele>25</ele>
        <time>2018-08-12T06:51:50Z</time>
      </trkpt>
      <trkpt lat="43.74916" lon="4.20792">
        <ele>25</ele>
        <time>2018-08-12T06:51:52Z</time>
      </trkpt>
      <trkpt lat="43.74921" lon="4.20795">
        <ele>26</ele>
        <time>2018-08-12T06:51:53Z</time>
      </trkpt>
      <trkpt lat="43.74925" lon="4.20792">
        <ele>26</ele>
        <time>2018-08-12T06:51:54Z</time>
      </trkpt>
      <trkpt lat="43.7493" lon="4.20791">
        <ele>27</ele>
        <time>2018-08-12T06:51:55Z</time>
      </trkpt>
      <trkpt lat="43.74937" lon="4.20789">
        <ele>27</ele>
        <time>2018-08-12T06:51:57Z</time>
      </trkpt>
      <trkpt lat="43.74942" lon="4.20788">
        <ele>27</ele>
        <time>2018-08-12T06:51:58Z</time>
      </trkpt>
      <trkpt lat="43.7495" lon="4.20786">
        <ele>27</ele>
        <time>2018-08-12T06:52:00Z</time>
      </trkpt>
      <trkpt lat="43.74957" lon="4.20783">
        <ele>27</ele>
        <time>2018-08-12T06:52:02Z</time>
      </trkpt>
      <trkpt lat="43.74966" lon="4.20781">
        <ele>27</ele>
        <time>2018-08-12T06:52:04Z</time>
      </trkpt>
      <trkpt lat="43.74971" lon="4.20781">
        <ele>27</ele>
        <time>2018-08-12T06:52:05Z</time>
      </trkpt>
      <trkpt lat="43.74978" lon="4.2078">
        <ele>27</ele>
        <time>2018-08-12T06:52:07Z</time>
      </trkpt>
      <trkpt lat="43.74985" lon="4.20778">
        <ele>27</ele>
        <time>2018-08-12T06:52:09Z</time>
      </trkpt>
      <trkpt lat="43.74992" lon="4.20778">
        <ele>28</ele>
        <time>2018-08-12T06:52:11Z</time>
      </trkpt>
      <trkpt lat="43.74999" lon="4.20777">
        <ele>28</ele>
        <time>2018-08-12T06:52:13Z</time>
      </trkpt>
      <trkpt lat="43.75005" lon="4.20774">
        <ele>28</ele>
        <time>2018-08-12T06:52:15Z</time>
      </trkpt>
      <trkpt lat="43.7501" lon="4.20768">
        <ele>28</ele>
        <time>2018-08-12T06:52:17Z</time>
      </trkpt>
      <trkpt lat="43.75009" lon="4.20758">
        <ele>29</ele>
        <time>2018-08-12T06:52:19Z</time>
      </trkpt>
      <trkpt lat="43.75003" lon="4.20752">
        <ele>30</ele>
        <time>2018-08-12T06:52:21Z</time>
      </trkpt>
      <trkpt lat="43.74997" lon="4.20747">
        <ele>30</ele>
        <time>2018-08-12T06:52:23Z</time>
      </trkpt>
      <trkpt lat="43.74992" lon="4.20742">
        <ele>30</ele>
        <time>2018-08-12T06:52:25Z</time>
      </trkpt>
      <trkpt lat="43.74987" lon="4.20739">
        <ele>31</ele>
        <time>2018-08-12T06:52:27Z</time>
      </trkpt>
      <trkpt lat="43.74981" lon="4.20735">
        <ele>31</ele>
        <time>2018-08-12T06:52:29Z</time>
      </trkpt>
      <trkpt lat="43.74972" lon="4.2073">
        <ele>31</ele>
        <time>2018-08-12T06:52:31Z</time>
      </trkpt>
      <trkpt lat="43.74966" lon="4.20725">
        <ele>31</ele>
        <time>2018-08-12T06:52:33Z</time>
      </trkpt>
      <trkpt lat="43.74959" lon="4.20719">
        <ele>31</ele>
        <time>2018-08-12T06:52:36Z</time>
      </trkpt>
      <trkpt lat="43.74955" lon="4.20715">
        <ele>31</ele>
        <time>2018-08-12T06:52:38Z</time>
      </trkpt>
      <trkpt lat="43.7495" lon="4.20711">
        <ele>31</ele>
        <time>2018-08-12T06:52:40Z</time>
      </trkpt>
      <trkpt lat="43.74945" lon="4.20706">
        <ele>31</ele>
        <time>2018-08-12T06:52:42Z</time>
      </trkpt>
      <trkpt lat="43.74939" lon="4.20702">
        <ele>31</ele>
        <time>2018-08-12T06:52:44Z</time>
      </trkpt>
      <trkpt lat="43.74933" lon="4.20697">
        <ele>31</ele>
        <time>2018-08-12T06:52:46Z</time>
      </trkpt>
      <trkpt lat="43.74928" lon="4.20692">
        <ele>31</ele>
        <time>2018-08-12T06:52:48Z</time>
      </trkpt>
      <trkpt lat="43.74923" lon="4.20686">
        <ele>31</ele>
        <time>2018-08-12T06:52:50Z</time>
      </trkpt>
      <trkpt lat="43.74918" lon="4.20679">
        <ele>31</ele>
        <time>2018-08-12T06:52:52Z</time>
      </trkpt>
      <trkpt lat="43.74913" lon="4.20673">
        <ele>30</ele>
        <time>2018-08-12T06:52:54Z</time>
      </trkpt>
      <trkpt lat="43.74908" lon="4.20667">
        <ele>30</ele>
        <time>2018-08-12T06:52:56Z</time>
      </trkpt>
      <trkpt lat="43.74903" lon="4.20662">
        <ele>31</ele>
        <time>2018-08-12T06:52:58Z</time>
      </trkpt>
      <trkpt lat="43.74897" lon="4.20657">
        <ele>32</ele>
        <time>2018-08-12T06:53:00Z</time>
      </trkpt>
      <trkpt lat="43.74891" lon="4.20653">
        <ele>32</ele>
        <time>2018-08-12T06:53:02Z</time>
      </trkpt>
      <trkpt lat="43.74885" lon="4.2065">
        <ele>32</ele>
        <time>2018-08-12T06:53:04Z</time>
      </trkpt>
      <trkpt lat="43.74879" lon="4.20646">
        <ele>32</ele>
        <time>2018-08-12T06:53:06Z</time>
      </trkpt>
      <trkpt lat="43.74873" lon="4.20642">
        <ele>32</ele>
        <time>2018-08-12T06:53:08Z</time>
      </trkpt>
      <trkpt lat="43.74867" lon="4.20636">
        <ele>32</ele>
        <time>2018-08-12T06:53:10Z</time>
      </trkpt>
      <trkpt lat="43.74863" lon="4.20629">
        <ele>32</ele>
        <time>2018-08-12T06:53:12Z</time>
      </trkpt>
      <trkpt lat="43.74859" lon="4.20622">
        <ele>32</ele>
        <time>2018-08-12T06:53:14Z</time>
      </trkpt>
      <trkpt lat="43.74854" lon="4.20615">
        <ele>32</ele>
        <time>2018-08-12T06:53:16Z</time>
      </trkpt>
      <trkpt lat="43.7485" lon="4.20607">
        <ele>32</ele>
        <time>2018-08-12T06:53:18Z</time>
      </trkpt>
      <trkpt lat="43.74846" lon="4.206">
        <ele>32</ele>
        <time>2018-08-12T06:53:20Z</time>
      </trkpt>
      <trkpt lat="43.74843" lon="4.20592">
        <ele>32</ele>
        <time>2018-08-12T06:53:22Z</time>
      </trkpt>
      <trkpt lat="43.7484" lon="4.20584">
        <ele>32</ele>
        <time>2018-08-12T06:53:24Z</time>
      </trkpt>
      <trkpt lat="43.74838" lon="4.20575">
        <ele>33</ele>
        <time>2018-08-12T06:53:26Z</time>
      </trkpt>
      <trkpt lat="43.74835" lon="4.20567">
        <ele>34</ele>
        <time>2018-08-12T06:53:28Z</time>
      </trkpt>
      <trkpt lat="43.74831" lon="4.2056">
        <ele>32</ele>
        <time>2018-08-12T06:53:30Z</time>
      </trkpt>
      <trkpt lat="43.74826" lon="4.20553">
        <ele>32</ele>
        <time>2018-08-12T06:53:32Z</time>
      </trkpt>
      <trkpt lat="43.74823" lon="4.20546">
        <ele>32</ele>
        <time>2018-08-12T06:53:34Z</time>
      </trkpt>
      <trkpt lat="43.74819" lon="4.20539">
        <ele>33</ele>
        <time>2018-08-12T06:53:36Z</time>
      </trkpt>
      <trkpt lat="43.74815" lon="4.20531">
        <ele>33</ele>
        <time>2018-08-12T06:53:38Z</time>
      </trkpt>
      <trkpt lat="43.74812" lon="4.20523">
        <ele>33</ele>
        <time>2018-08-12T06:53:40Z</time>
      </trkpt>
      <trkpt lat="43.74809" lon="4.20516">
        <ele>33</ele>
        <time>2018-08-12T06:53:42Z</time>
      </trkpt>
      <trkpt lat="43.74805" lon="4.20508">
        <ele>33</ele>
        <time>2018-08-12T06:53:44Z</time>
      </trkpt>
      <trkpt lat="43.74801" lon="4.20501">
        <ele>33</ele>
        <time>2018-08-12T06:53:46Z</time>
      </trkpt>
      <trkpt lat="43.74796" lon="4.20494">
        <ele>35</ele>
        <time>2018-08-12T06:53:48Z</time>
      </trkpt>
      <trkpt lat="43.7479" lon="4.20483">
        <ele>35</ele>
        <time>2018-08-12T06:53:51Z</time>
      </trkpt>
      <trkpt lat="43.74785" lon="4.20475">
        <ele>35</ele>
        <time>2018-08-12T06:53:53Z</time>
      </trkpt>
      <trkpt lat="43.7478" lon="4.20468">
        <ele>35</ele>
        <time>2018-08-12T06:53:55Z</time>
      </trkpt>
      <trkpt lat="43.74777" lon="4.2046">
        <ele>35</ele>
        <time>2018-08-12T06:53:57Z</time>
      </trkpt>
      <trkpt lat="43.74773" lon="4.20452">
        <ele>35</ele>
        <time>2018-08-12T06:53:59Z</time>
      </trkpt>
      <trkpt lat="43.7477" lon="4.20444">
        <ele>35</ele>
        <time>2018-08-12T06:54:01Z</time>
      </trkpt>
      <trkpt lat="43.74767" lon="4.20437">
        <ele>35</ele>
        <time>2018-08-12T06:54:03Z</time>
      </trkpt>
      <trkpt lat="43.74764" lon="4.20429">
        <ele>35</ele>
        <time>2018-08-12T06:54:05Z</time>
      </trkpt>
      <trkpt lat="43.7476" lon="4.20422">
        <ele>35</ele>
        <time>2018-08-12T06:54:07Z</time>
      </trkpt>
      <trkpt lat="43.74757" lon="4.20416">
        <ele>36</ele>
        <time>2018-08-12T06:54:09Z</time>
      </trkpt>
      <trkpt lat="43.74753" lon="4.2041">
        <ele>36</ele>
        <time>2018-08-12T06:54:11Z</time>
      </trkpt>
      <trkpt lat="43.74748" lon="4.20403">
        <ele>36</ele>
        <time>2018-08-12T06:54:13Z</time>
      </trkpt>
      <trkpt lat="43.74743" lon="4.20397">
        <ele>36</ele>
        <time>2018-08-12T06:54:15Z</time>
      </trkpt>
      <trkpt lat="43.74738" lon="4.2039">
        <ele>36</ele>
        <time>2018-08-12T06:54:17Z</time>
      </trkpt>
      <trkpt lat="43.74734" lon="4.20384">
        <ele>36</ele>
        <time>2018-08-12T06:54:19Z</time>
      </trkpt>
      <trkpt lat="43.7473" lon="4.20378">
        <ele>36</ele>
        <time>2018-08-12T06:54:21Z</time>
      </trkpt>
      <trkpt lat="43.74727" lon="4.20373">
        <ele>36</ele>
        <time>2018-08-12T06:54:23Z</time>
      </trkpt>
      <trkpt lat="43.74724" lon="4.20365">
        <ele>36</ele>
        <time>2018-08-12T06:54:25Z</time>
      </trkpt>
      <trkpt lat="43.7472" lon="4.20358">
        <ele>36</ele>
        <time>2018-08-12T06:54:27Z</time>
      </trkpt>
      <trkpt lat="43.74718" lon="4.2035">
        <ele>36</ele>
        <time>2018-08-12T06:54:29Z</time>
      </trkpt>
      <trkpt lat="43.74715" lon="4.20344">
        <ele>36</ele>
        <time>2018-08-12T06:54:31Z</time>
      </trkpt>
      <trkpt lat="43.74718" lon="4.20338">
        <ele>36</ele>
        <time>2018-08-12T06:54:32Z</time>
      </trkpt>
      <trkpt lat="43.74721" lon="4.20331">
        <ele>37</ele>
        <time>2018-08-12T06:54:34Z</time>
      </trkpt>
      <trkpt lat="43.74723" lon="4.20324">
        <ele>37</ele>
        <time>2018-08-12T06:54:36Z</time>
      </trkpt>
      <trkpt lat="43.74726" lon="4.20315">
        <ele>37</ele>
        <time>2018-08-12T06:54:39Z</time>
      </trkpt>
      <trkpt lat="43.74729" lon="4.20305">
        <ele>38</ele>
        <time>2018-08-12T06:54:42Z</time>
      </trkpt>
      <trkpt lat="43.74731" lon="4.20299">
        <ele>38</ele>
        <time>2018-08-12T06:54:44Z</time>
      </trkpt>
      <trkpt lat="43.74732" lon="4.2029">
        <ele>38</ele>
        <time>2018-08-12T06:54:46Z</time>
      </trkpt>
      <trkpt lat="43.74738" lon="4.20245">
        <ele>40</ele>
        <time>2018-08-12T06:54:59Z</time>
      </trkpt>
      <trkpt lat="43.74739" lon="4.20236">
        <ele>40</ele>
        <time>2018-08-12T06:55:01Z</time>
      </trkpt>
      <trkpt lat="43.74741" lon="4.20228">
        <ele>40</ele>
        <time>2018-08-12T06:55:03Z</time>
      </trkpt>
      <trkpt lat="43.74741" lon="4.2022">
        <ele>41</ele>
        <time>2018-08-12T06:55:05Z</time>
      </trkpt>
      <trkpt lat="43.74742" lon="4.20212">
        <ele>41</ele>
        <time>2018-08-12T06:55:07Z</time>
      </trkpt>
      <trkpt lat="43.74741" lon="4.20204">
        <ele>41</ele>
        <time>2018-08-12T06:55:09Z</time>
      </trkpt>
      <trkpt lat="43.74741" lon="4.20196">
        <ele>41</ele>
        <time>2018-08-12T06:55:11Z</time>
      </trkpt>
      <trkpt lat="43.74741" lon="4.20189">
        <ele>41</ele>
        <time>2018-08-12T06:55:13Z</time>
      </trkpt>
      <trkpt lat="43.74741" lon="4.20181">
        <ele>42</ele>
        <time>2018-08-12T06:55:15Z</time>
      </trkpt>
      <trkpt lat="43.7474" lon="4.20174">
        <ele>42</ele>
        <time>2018-08-12T06:55:17Z</time>
      </trkpt>
      <trkpt lat="43.74741" lon="4.20167">
        <ele>42</ele>
        <time>2018-08-12T06:55:19Z</time>
      </trkpt>
      <trkpt lat="43.7474" lon="4.2016">
        <ele>43</ele>
        <time>2018-08-12T06:55:21Z</time>
      </trkpt>
      <trkpt lat="43.7474" lon="4.20153">
        <ele>43</ele>
        <time>2018-08-12T06:55:23Z</time>
      </trkpt>
      <trkpt lat="43.74742" lon="4.20147">
        <ele>44</ele>
        <time>2018-08-12T06:55:25Z</time>
      </trkpt>
      <trkpt lat="43.74743" lon="4.20141">
        <ele>44</ele>
        <time>2018-08-12T06:55:27Z</time>
      </trkpt>
      <trkpt lat="43.74744" lon="4.20135">
        <ele>44</ele>
        <time>2018-08-12T06:55:30Z</time>
      </trkpt>
      <trkpt lat="43.74748" lon="4.20129">
        <ele>44</ele>
        <time>2018-08-12T06:55:34Z</time>
      </trkpt>
      <trkpt lat="43.74756" lon="4.20125">
        <ele>42</ele>
        <time>2018-08-12T06:55:37Z</time>
      </trkpt>
      <trkpt lat="43.74761" lon="4.20122">
        <ele>42</ele>
        <time>2018-08-12T06:55:39Z</time>
      </trkpt>
      <trkpt lat="43.74766" lon="4.20119">
        <ele>42</ele>
        <time>2018-08-12T06:55:41Z</time>
      </trkpt>
      <trkpt lat="43.74772" lon="4.20116">
        <ele>42</ele>
        <time>2018-08-12T06:55:44Z</time>
      </trkpt>
      <trkpt lat="43.74776" lon="4.20114">
        <ele>42</ele>
        <time>2018-08-12T06:55:46Z</time>
      </trkpt>
      <trkpt lat="43.7478" lon="4.20112">
        <ele>42</ele>
        <time>2018-08-12T06:55:48Z</time>
      </trkpt>
      <trkpt lat="43.74785" lon="4.2011">
        <ele>42</ele>
        <time>2018-08-12T06:55:50Z</time>
      </trkpt>
      <trkpt lat="43.74789" lon="4.20108">
        <ele>42</ele>
        <time>2018-08-12T06:55:52Z</time>
      </trkpt>
      <trkpt lat="43.74794" lon="4.20106">
        <ele>42</ele>
        <time>2018-08-12T06:55:54Z</time>
      </trkpt>
      <trkpt lat="43.74798" lon="4.20102">
        <ele>42</ele>
        <time>2018-08-12T06:55:56Z</time>
      </trkpt>
      <trkpt lat="43.74801" lon="4.20093">
        <ele>42</ele>
        <time>2018-08-12T06:55:59Z</time>
      </trkpt>
      <trkpt lat="43.74802" lon="4.20087">
        <ele>42</ele>
        <time>2018-08-12T06:56:01Z</time>
      </trkpt>
      <trkpt lat="43.74806" lon="4.20082">
        <ele>46</ele>
        <time>2018-08-12T06:56:03Z</time>
      </trkpt>
      <trkpt lat="43.74807" lon="4.20074">
        <ele>46</ele>
        <time>2018-08-12T06:56:06Z</time>
      </trkpt>
      <trkpt lat="43.74807" lon="4.20067">
        <ele>46</ele>
        <time>2018-08-12T06:56:09Z</time>
      </trkpt>
      <trkpt lat="43.7481" lon="4.20061">
        <ele>46</ele>
        <time>2018-08-12T06:56:12Z</time>
      </trkpt>
      <trkpt lat="43.7481" lon="4.20053">
        <ele>46</ele>
        <time>2018-08-12T06:56:15Z</time>
      </trkpt>
      <trkpt lat="43.74806" lon="4.20047">
        <ele>47</ele>
        <time>2018-08-12T06:56:18Z</time>
      </trkpt>
      <trkpt lat="43.74804" lon="4.20041">
        <ele>47</ele>
        <time>2018-08-12T06:56:20Z</time>
      </trkpt>
      <trkpt lat="43.74803" lon="4.20032">
        <ele>47</ele>
        <time>2018-08-12T06:56:23Z</time>
      </trkpt>
      <trkpt lat="43.74801" lon="4.20023">
        <ele>48</ele>
        <time>2018-08-12T06:56:26Z</time>
      </trkpt>
      <trkpt lat="43.74797" lon="4.20016">
        <ele>48</ele>
        <time>2018-08-12T06:56:29Z</time>
      </trkpt>
      <trkpt lat="43.74793" lon="4.20009">
        <ele>48</ele>
        <time>2018-08-12T06:56:32Z</time>
      </trkpt>
      <trkpt lat="43.74789" lon="4.20002">
        <ele>49</ele>
        <time>2018-08-12T06:56:35Z</time>
      </trkpt>
      <trkpt lat="43.74787" lon="4.19994">
        <ele>52</ele>
        <time>2018-08-12T06:56:38Z</time>
      </trkpt>
      <trkpt lat="43.74787" lon="4.19986">
        <ele>53</ele>
        <time>2018-08-12T06:56:41Z</time>
      </trkpt>
      <trkpt lat="43.74786" lon="4.19978">
        <ele>53</ele>
        <time>2018-08-12T06:56:44Z</time>
      </trkpt>
      <trkpt lat="43.74783" lon="4.1997">
        <ele>53</ele>
        <time>2018-08-12T06:56:47Z</time>
      </trkpt>
      <trkpt lat="43.7478" lon="4.19962">
        <ele>53</ele>
        <time>2018-08-12T06:56:50Z</time>
      </trkpt>
      <trkpt lat="43.74777" lon="4.19956">
        <ele>54</ele>
        <time>2018-08-12T06:56:53Z</time>
      </trkpt>
      <trkpt lat="43.74773" lon="4.1995">
        <ele>54</ele>
        <time>2018-08-12T06:56:56Z</time>
      </trkpt>
      <trkpt lat="43.74768" lon="4.19944">
        <ele>55</ele>
        <time>2018-08-12T06:56:59Z</time>
      </trkpt>
      <trkpt lat="43.74764" lon="4.19939">
        <ele>55</ele>
        <time>2018-08-12T06:57:02Z</time>
      </trkpt>
      <trkpt lat="43.7476" lon="4.19934">
        <ele>56</ele>
        <time>2018-08-12T06:57:04Z</time>
      </trkpt>
      <trkpt lat="43.74756" lon="4.19928">
        <ele>57</ele>
        <time>2018-08-12T06:57:07Z</time>
      </trkpt>
      <trkpt lat="43.74751" lon="4.19922">
        <ele>58</ele>
        <time>2018-08-12T06:57:10Z</time>
      </trkpt>
      <trkpt lat="43.74747" lon="4.19922">
        <ele>59</ele>
        <time>2018-08-12T06:57:12Z</time>
      </trkpt>
      <trkpt lat="43.7474" lon="4.1992">
        <ele>58</ele>
        <time>2018-08-12T06:57:15Z</time>
      </trkpt>
      <trkpt lat="43.74734" lon="4.19918">
        <ele>58</ele>
        <time>2018-08-12T06:57:18Z</time>
      </trkpt>
      <trkpt lat="43.7473" lon="4.19917">
        <ele>58</ele>
        <time>2018-08-12T06:57:20Z</time>
      </trkpt>
      <trkpt lat="43.74723" lon="4.19915">
        <ele>61</ele>
        <time>2018-08-12T06:57:23Z</time>
      </trkpt>
      <trkpt lat="43.74717" lon="4.19912">
        <ele>62</ele>
        <time>2018-08-12T06:57:26Z</time>
      </trkpt>
      <trkpt lat="43.74712" lon="4.19909">
        <ele>62</ele>
        <time>2018-08-12T06:57:29Z</time>
      </trkpt>
      <trkpt lat="43.74706" lon="4.19907">
        <ele>62</ele>
        <time>2018-08-12T06:57:32Z</time>
      </trkpt>
      <trkpt lat="43.747" lon="4.19905">
        <ele>62</ele>
        <time>2018-08-12T06:57:35Z</time>
      </trkpt>
      <trkpt lat="43.74695" lon="4.19901">
        <ele>62</ele>
        <time>2018-08-12T06:57:38Z</time>
      </trkpt>
      <trkpt lat="43.74691" lon="4.19894">
        <ele>62</ele>
        <time>2018-08-12T06:57:41Z</time>
      </trkpt>
      <trkpt lat="43.7469" lon="4.19886">
        <ele>62</ele>
        <time>2018-08-12T06:57:44Z</time>
      </trkpt>
      <trkpt lat="43.74687" lon="4.19888">
        <ele>62</ele>
        <time>2018-08-12T06:58:10Z</time>
      </trkpt>
      <trkpt lat="43.74687" lon="4.19887">
        <ele>62</ele>
        <time>2018-08-12T06:58:12Z</time>
      </trkpt>
      <trkpt lat="43.74687" lon="4.19887">
        <ele>62</ele>
        <time>2018-08-12T06:58:40Z</time>
      </trkpt>
      <trkpt lat="43.74687" lon="4.19887">
        <ele>62</ele>
        <time>2018-08-12T06:58:42Z</time>
      </trkpt>
      <trkpt lat="43.74687" lon="4.19887">
        <ele>62</ele>
        <time>2018-08-12T06:59:10Z</time>
      </trkpt>
      <trkpt lat="43.74687" lon="4.19887">
        <ele>62</ele>
        <time>2018-08-12T06:59:12Z</time>
      </trkpt>
      <trkpt lat="43.74687" lon="4.19887">
        <ele>62</ele>
        <time>2018-08-12T06:59:40Z</time>
      </trkpt>
      <trkpt lat="43.74687" lon="4.19887">
        <ele>62</ele>
        <time>2018-08-12T06:59:42Z</time>
      </trkpt>
      <trkpt lat="43.74687" lon="4.1988">
        <ele>63</ele>
        <time>2018-08-12T07:00:00Z</time>
      </trkpt>
      <trkpt lat="43.74689" lon="4.19872">
        <ele>63</ele>
        <time>2018-08-12T07:00:04Z</time>
      </trkpt>
      <trkpt lat="43.74693" lon="4.19863">
        <ele>63</ele>
        <time>2018-08-12T07:00:07Z</time>
      </trkpt>
      <trkpt lat="43.74697" lon="4.19857">
        <ele>63</ele>
        <time>2018-08-12T07:00:09Z</time>
      </trkpt>
      <trkpt lat="43.74702" lon="4.19852">
        <ele>63</ele>
        <time>2018-08-12T07:00:11Z</time>
      </trkpt>
      <trkpt lat="43.74704" lon="4.19847">
        <ele>63</ele>
        <time>2018-08-12T07:00:13Z</time>
      </trkpt>
      <trkpt lat="43.74705" lon="4.19841">
        <ele>63</ele>
        <time>2018-08-12T07:00:15Z</time>
      </trkpt>
      <trkpt lat="43.74707" lon="4.19832">
        <ele>64</ele>
        <time>2018-08-12T07:00:18Z</time>
      </trkpt>
      <trkpt lat="43.74709" lon="4.19826">
        <ele>64</ele>
        <time>2018-08-12T07:00:20Z</time>
      </trkpt>
      <trkpt lat="43.74712" lon="4.1982">
        <ele>64</ele>
        <time>2018-08-12T07:00:22Z</time>
      </trkpt>
      <trkpt lat="43.74714" lon="4.19814">
        <ele>64</ele>
        <time>2018-08-12T07:00:24Z</time>
      </trkpt>
      <trkpt lat="43.74717" lon="4.19804">
        <ele>63</ele>
        <time>2018-08-12T07:00:27Z</time>
      </trkpt>
      <trkpt lat="43.74719" lon="4.19797">
        <ele>63</ele>
        <time>2018-08-12T07:00:29Z</time>
      </trkpt>
      <trkpt lat="43.74722" lon="4.1979">
        <ele>63</ele>
        <time>2018-08-12T07:00:31Z</time>
      </trkpt>
      <trkpt lat="43.74725" lon="4.19783">
        <ele>63</ele>
        <time>2018-08-12T07:00:33Z</time>
      </trkpt>
      <trkpt lat="43.74728" lon="4.19775">
        <ele>63</ele>
        <time>2018-08-12T07:00:35Z</time>
      </trkpt>
      <trkpt lat="43.74732" lon="4.19768">
        <ele>63</ele>
        <time>2018-08-12T07:00:37Z</time>
      </trkpt>
      <trkpt lat="43.74736" lon="4.19759">
        <ele>63</ele>
        <time>2018-08-12T07:00:39Z</time>
      </trkpt>
      <trkpt lat="43.74738" lon="4.19754">
        <ele>63</ele>
        <time>2018-08-12T07:00:40Z</time>
      </trkpt>
      <trkpt lat="43.7474" lon="4.19743">
        <ele>61</ele>
        <time>2018-08-12T07:00:42Z</time>
      </trkpt>
      <trkpt lat="43.74741" lon="4.19732">
        <ele>61</ele>
        <time>2018-08-12T07:00:44Z</time>
      </trkpt>
      <trkpt lat="43.74743" lon="4.19721">
        <ele>60</ele>
        <time>2018-08-12T07:00:46Z</time>
      </trkpt>
      <trkpt lat="43.74744" lon="4.19706">
        <ele>59</ele>
        <time>2018-08-12T07:00:48Z</time>
      </trkpt>
      <trkpt lat="43.74743" lon="4.19699">
        <ele>58</ele>
        <time>2018-08-12T07:00:49Z</time>
      </trkpt>
      <trkpt lat="43.74741" lon="4.19686">
        <ele>58</ele>
        <time>2018-08-12T07:00:51Z</time>
      </trkpt>
      <trkpt lat="43.7474" lon="4.19677">
        <ele>57</ele>
        <time>2018-08-12T07:00:52Z</time>
      </trkpt>
      <trkpt lat="43.74739" lon="4.1967">
        <ele>57</ele>
        <time>2018-08-12T07:00:53Z</time>
      </trkpt>
      <trkpt lat="43.74738" lon="4.19662">
        <ele>56</ele>
        <time>2018-08-12T07:00:54Z</time>
      </trkpt>
      <trkpt lat="43.74738" lon="4.19655">
        <ele>55</ele>
        <time>2018-08-12T07:00:55Z</time>
      </trkpt>
      <trkpt lat="43.74738" lon="4.19648">
        <ele>55</ele>
        <time>2018-08-12T07:00:56Z</time>
      </trkpt>
      <trkpt lat="43.74737" lon="4.1964">
        <ele>55</ele>
        <time>2018-08-12T07:00:57Z</time>
      </trkpt>
      <trkpt lat="43.74736" lon="4.19633">
        <ele>55</ele>
        <time>2018-08-12T07:00:58Z</time>
      </trkpt>
      <trkpt lat="43.74735" lon="4.19625">
        <ele>55</ele>
        <time>2018-08-12T07:00:59Z</time>
      </trkpt>
      <trkpt lat="43.74734" lon="4.19618">
        <ele>55</ele>
        <time>2018-08-12T07:01:00Z</time>
      </trkpt>
      <trkpt lat="43.74733" lon="4.1961">
        <ele>55</ele>
        <time>2018-08-12T07:01:01Z</time>
      </trkpt>
      <trkpt lat="43.74728" lon="4.19532">
        <ele>53</ele>
        <time>2018-08-12T07:01:13Z</time>
      </trkpt>
      <trkpt lat="43.74729" lon="4.19521">
        <ele>53</ele>
        <time>2018-08-12T07:01:14Z</time>
      </trkpt>
      <trkpt lat="43.7473" lon="4.19514">
        <ele>52</ele>
        <time>2018-08-12T07:01:15Z</time>
      </trkpt>
      <trkpt lat="43.74731" lon="4.19506">
        <ele>52</ele>
        <time>2018-08-12T07:01:16Z</time>
      </trkpt>
      <trkpt lat="43.74731" lon="4.19499">
        <ele>51</ele>
        <time>2018-08-12T07:01:17Z</time>
      </trkpt>
      <trkpt lat="43.74732" lon="4.19492">
        <ele>51</ele>
        <time>2018-08-12T07:01:18Z</time>
      </trkpt>
      <trkpt lat="43.74733" lon="4.19485">
        <ele>51</ele>
        <time>2018-08-12T07:01:19Z</time>
      </trkpt>
      <trkpt lat="43.74734" lon="4.19478">
        <ele>51</ele>
        <time>2018-08-12T07:01:20Z</time>
      </trkpt>
      <trkpt lat="43.74735" lon="4.19472">
        <ele>51</ele>
        <time>2018-08-12T07:01:21Z</time>
      </trkpt>
      <trkpt lat="43.74735" lon="4.19465">
        <ele>50</ele>
        <time>2018-08-12T07:01:22Z</time>
      </trkpt>
      <trkpt lat="43.74736" lon="4.19459">
        <ele>50</ele>
        <time>2018-08-12T07:01:23Z</time>
      </trkpt>
      <trkpt lat="43.74738" lon="4.19451">
        <ele>50</ele>
        <time>2018-08-12T07:01:24Z</time>
      </trkpt>
      <trkpt lat="43.7474" lon="4.19444">
        <ele>50</ele>
        <time>2018-08-12T07:01:25Z</time>
      </trkpt>
      <trkpt lat="43.74741" lon="4.19437">
        <ele>50</ele>
        <time>2018-08-12T07:01:26Z</time>
      </trkpt>
      <trkpt lat="43.74742" lon="4.1943">
        <ele>50</ele>
        <time>2018-08-12T07:01:27Z</time>
      </trkpt>
      <trkpt lat="43.74746" lon="4.19423">
        <ele>50</ele>
        <time>2018-08-12T07:01:28Z</time>
      </trkpt>
      <trkpt lat="43.74749" lon="4.19418">
        <ele>50</ele>
        <time>2018-08-12T07:01:29Z</time>
      </trkpt>
      <trkpt lat="43.74752" lon="4.19413">
        <ele>49</ele>
        <time>2018-08-12T07:01:30Z</time>
      </trkpt>
      <trkpt lat="43.74755" lon="4.19408">
        <ele>49</ele>
        <time>2018-08-12T07:01:31Z</time>
      </trkpt>
      <trkpt lat="43.74757" lon="4.19402">
        <ele>48</ele>
        <time>2018-08-12T07:01:32Z</time>
      </trkpt>
      <trkpt lat="43.74761" lon="4.19398">
        <ele>48</ele>
        <time>2018-08-12T07:01:33Z</time>
      </trkpt>
      <trkpt lat="43.74764" lon="4.19393">
        <ele>48</ele>
        <time>2018-08-12T07:01:34Z</time>
      </trkpt>
      <trkpt lat="43.74769" lon="4.19389">
        <ele>47</ele>
        <time>2018-08-12T07:01:35Z</time>
      </trkpt>
      <trkpt lat="43.74774" lon="4.19385">
        <ele>47</ele>
        <time>2018-08-12T07:01:36Z</time>
      </trkpt>
      <trkpt lat="43.74778" lon="4.1938">
        <ele>47</ele>
        <time>2018-08-12T07:01:37Z</time>
      </trkpt>
      <trkpt lat="43.74783" lon="4.19375">
        <ele>47</ele>
        <time>2018-08-12T07:01:38Z</time>
      </trkpt>
      <trkpt lat="43.74786" lon="4.1937">
        <ele>46</ele>
        <time>2018-08-12T07:01:39Z</time>
      </trkpt>
      <trkpt lat="43.7479" lon="4.19363">
        <ele>46</ele>
        <time>2018-08-12T07:01:40Z</time>
      </trkpt>
      <trkpt lat="43.74794" lon="4.19357">
        <ele>46</ele>
        <time>2018-08-12T07:01:41Z</time>
      </trkpt>
      <trkpt lat="43.74798" lon="4.19352">
        <ele>46</ele>
        <time>2018-08-12T07:01:42Z</time>
      </trkpt>
      <trkpt lat="43.74803" lon="4.19345">
        <ele>46</ele>
        <time>2018-08-12T07:01:43Z</time>
      </trkpt>
      <trkpt lat="43.74808" lon="4.19338">
        <ele>46</ele>
        <time>2018-08-12T07:01:44Z</time>
      </trkpt>
      <trkpt lat="43.74812" lon="4.19332">
        <ele>44</ele>
        <time>2018-08-12T07:01:45Z</time>
      </trkpt>
      <trkpt lat="43.74818" lon="4.19328">
        <ele>44</ele>
        <time>2018-08-12T07:01:46Z</time>
      </trkpt>
      <trkpt lat="43.74823" lon="4.19323">
        <ele>44</ele>
        <time>2018-08-12T07:01:47Z</time>
      </trkpt>
      <trkpt lat="43.74828" lon="4.19318">
        <ele>44</ele>
        <time>2018-08-12T07:01:48Z</time>
      </trkpt>
      <trkpt lat="43.74834" lon="4.19314">
        <ele>43</ele>
        <time>2018-08-12T07:01:49Z</time>
      </trkpt>
      <trkpt lat="43.74841" lon="4.19309">
        <ele>43</ele>
        <time>2018-08-12T07:01:50Z</time>
      </trkpt>
      <trkpt lat="43.74847" lon="4.19305">
        <ele>43</ele>
        <time>2018-08-12T07:01:51Z</time>
      </trkpt>
      <trkpt lat="43.74851" lon="4.19301">
        <ele>42</ele>
        <time>2018-08-12T07:01:52Z</time>
      </trkpt>
      <trkpt lat="43.74856" lon="4.19296">
        <ele>42</ele>
        <time>2018-08-12T07:01:53Z</time>
      </trkpt>
      <trkpt lat="43.74863" lon="4.1929">
        <ele>42</ele>
        <time>2018-08-12T07:01:55Z</time>
      </trkpt>
      <trkpt lat="43.74867" lon="4.19286">
        <ele>42</ele>
        <time>2018-08-12T07:01:57Z</time>
      </trkpt>
      <trkpt lat="43.74874" lon="4.19282">
        <ele>42</ele>
        <time>2018-08-12T07:02:00Z</time>
      </trkpt>
      <trkpt lat="43.74879" lon="4.19279">
        <ele>42</ele>
        <time>2018-08-12T07:02:02Z</time>
      </trkpt>
      <trkpt lat="43.74882" lon="4.19269">
        <ele>42</ele>
        <time>2018-08-12T07:02:04Z</time>
      </trkpt>
      <trkpt lat="43.74884" lon="4.19259">
        <ele>42</ele>
        <time>2018-08-12T07:02:06Z</time>
      </trkpt>
      <trkpt lat="43.74886" lon="4.19248">
        <ele>41</ele>
        <time>2018-08-12T07:02:08Z</time>
      </trkpt>
      <trkpt lat="43.74889" lon="4.19238">
        <ele>41</ele>
        <time>2018-08-12T07:02:10Z</time>
      </trkpt>
      <trkpt lat="43.74893" lon="4.19228">
        <ele>41</ele>
        <time>2018-08-12T07:02:12Z</time>
      </trkpt>
      <trkpt lat="43.74897" lon="4.19219">
        <ele>41</ele>
        <time>2018-08-12T07:02:14Z</time>
      </trkpt>
      <trkpt lat="43.74901" lon="4.19209">
        <ele>41</ele>
        <time>2018-08-12T07:02:16Z</time>
      </trkpt>
      <trkpt lat="43.74906" lon="4.19199">
        <ele>41</ele>
        <time>2018-08-12T07:02:18Z</time>
      </trkpt>
      <trkpt lat="43.7491" lon="4.19189">
        <ele>41</ele>
        <time>2018-08-12T07:02:20Z</time>
      </trkpt>
      <trkpt lat="43.74914" lon="4.19179">
        <ele>41</ele>
        <time>2018-08-12T07:02:22Z</time>
      </trkpt>
      <trkpt lat="43.74919" lon="4.19169">
        <ele>41</ele>
        <time>2018-08-12T07:02:24Z</time>
      </trkpt>
      <trkpt lat="43.74923" lon="4.19159">
        <ele>41</ele>
        <time>2018-08-12T07:02:26Z</time>
      </trkpt>
      <trkpt lat="43.74928" lon="4.19149">
        <ele>41</ele>
        <time>2018-08-12T07:02:28Z</time>
      </trkpt>
      <trkpt lat="43.74932" lon="4.1914">
        <ele>41</ele>
        <time>2018-08-12T07:02:30Z</time>
      </trkpt>
      <trkpt lat="43.74937" lon="4.19131">
        <ele>41</ele>
        <time>2018-08-12T07:02:32Z</time>
      </trkpt>
      <trkpt lat="43.74941" lon="4.19122">
        <ele>41</ele>
        <time>2018-08-12T07:02:34Z</time>
      </trkpt>
      <trkpt lat="43.74945" lon="4.19112">
        <ele>41</ele>
        <time>2018-08-12T07:02:36Z</time>
      </trkpt>
      <trkpt lat="43.74949" lon="4.19104">
        <ele>42</ele>
        <time>2018-08-12T07:02:38Z</time>
      </trkpt>
      <trkpt lat="43.74955" lon="4.19098">
        <ele>42</ele>
        <time>2018-08-12T07:02:40Z</time>
      </trkpt>
      <trkpt lat="43.74962" lon="4.19095">
        <ele>42</ele>
        <time>2018-08-12T07:02:42Z</time>
      </trkpt>
      <trkpt lat="43.7497" lon="4.19094">
        <ele>42</ele>
        <time>2018-08-12T07:02:44Z</time>
      </trkpt>
      <trkpt lat="43.74977" lon="4.19092">
        <ele>42</ele>
        <time>2018-08-12T07:02:46Z</time>
      </trkpt>
      <trkpt lat="43.74984" lon="4.19088">
        <ele>42</ele>
        <time>2018-08-12T07:02:48Z</time>
      </trkpt>
      <trkpt lat="43.74991" lon="4.19085">
        <ele>43</ele>
        <time>2018-08-12T07:02:50Z</time>
      </trkpt>
      <trkpt lat="43.74999" lon="4.19084">
        <ele>43</ele>
        <time>2018-08-12T07:02:52Z</time>
      </trkpt>
      <trkpt lat="43.75006" lon="4.19083">
        <ele>43</ele>
        <time>2018-08-12T07:02:54Z</time>
      </trkpt>
      <trkpt lat="43.75014" lon="4.19083">
        <ele>43</ele>
        <time>2018-08-12T07:02:56Z</time>
      </trkpt>
      <trkpt lat="43.75021" lon="4.19084">
        <ele>42</ele>
        <time>2018-08-12T07:02:58Z</time>
      </trkpt>
      <trkpt lat="43.75029" lon="4.19086">
        <ele>42</ele>
        <time>2018-08-12T07:03:00Z</time>
      </trkpt>
      <trkpt lat="43.75036" lon="4.19088">
        <ele>42</ele>
        <time>2018-08-12T07:03:02Z</time>
      </trkpt>
      <trkpt lat="43.75046" lon="4.1909">
        <ele>42</ele>
        <time>2018-08-12T07:03:04Z</time>
      </trkpt>
      <trkpt lat="43.75051" lon="4.1909">
        <ele>42</ele>
        <time>2018-08-12T07:03:05Z</time>
      </trkpt>
      <trkpt lat="43.75059" lon="4.19089">
        <ele>42</ele>
        <time>2018-08-12T07:03:07Z</time>
      </trkpt>
      <trkpt lat="43.75063" lon="4.19089">
        <ele>42</ele>
        <time>2018-08-12T07:03:08Z</time>
      </trkpt>
      <trkpt lat="43.75072" lon="4.19089">
        <ele>42</ele>
        <time>2018-08-12T07:03:10Z</time>
      </trkpt>
      <trkpt lat="43.75081" lon="4.1909">
        <ele>42</ele>
        <time>2018-08-12T07:03:12Z</time>
      </trkpt>
      <trkpt lat="43.75089" lon="4.1909">
        <ele>42</ele>
        <time>2018-08-12T07:03:14Z</time>
      </trkpt>
      <trkpt lat="43.75097" lon="4.19091">
        <ele>42</ele>
        <time>2018-08-12T07:03:16Z</time>
      </trkpt>
      <trkpt lat="43.75105" lon="4.19092">
        <ele>42</ele>
        <time>2018-08-12T07:03:18Z</time>
      </trkpt>
      <trkpt lat="43.75113" lon="4.19094">
        <ele>42</ele>
        <time>2018-08-12T07:03:20Z</time>
      </trkpt>
      <trkpt lat="43.75121" lon="4.19095">
        <ele>42</ele>
        <time>2018-08-12T07:03:22Z</time>
      </trkpt>
      <trkpt lat="43.75129" lon="4.19095">
        <ele>42</ele>
        <time>2018-08-12T07:03:24Z</time>
      </trkpt>
      <trkpt lat="43.75137" lon="4.19096">
        <ele>42</ele>
        <time>2018-08-12T07:03:26Z</time>
      </trkpt>
      <trkpt lat="43.75145" lon="4.19095">
        <ele>42</ele>
        <time>2018-08-12T07:03:28Z</time>
      </trkpt>
      <trkpt lat="43.75153" lon="4.19095">
        <ele>43</ele>
        <time>2018-08-12T07:03:30Z</time>
      </trkpt>
      <trkpt lat="43.75161" lon="4.19096">
        <ele>43</ele>
        <time>2018-08-12T07:03:32Z</time>
      </trkpt>
      <trkpt lat="43.75168" lon="4.19097">
        <ele>43</ele>
        <time>2018-08-12T07:03:34Z</time>
      </trkpt>
      <trkpt lat="43.75176" lon="4.19097">
        <ele>43</ele>
        <time>2018-08-12T07:03:36Z</time>
      </trkpt>
      <trkpt lat="43.75184" lon="4.19098">
        <ele>43</ele>
        <time>2018-08-12T07:03:38Z</time>
      </trkpt>
      <trkpt lat="43.75192" lon="4.191">
        <ele>43</ele>
        <time>2018-08-12T07:03:40Z</time>
      </trkpt>
      <trkpt lat="43.752" lon="4.19102">
        <ele>44</ele>
        <time>2018-08-12T07:03:42Z</time>
      </trkpt>
      <trkpt lat="43.75208" lon="4.19103">
        <ele>44</ele>
        <time>2018-08-12T07:03:44Z</time>
      </trkpt>
      <trkpt lat="43.75216" lon="4.19104">
        <ele>44</ele>
        <time>2018-08-12T07:03:46Z</time>
      </trkpt>
      <trkpt lat="43.75224" lon="4.19105">
        <ele>44</ele>
        <time>2018-08-12T07:03:48Z</time>
      </trkpt>
      <trkpt lat="43.75232" lon="4.19107">
        <ele>44</ele>
        <time>2018-08-12T07:03:50Z</time>
      </trkpt>
      <trkpt lat="43.7524" lon="4.19108">
        <ele>44</ele>
        <time>2018-08-12T07:03:52Z</time>
      </trkpt>
      <trkpt lat="43.75248" lon="4.19109">
        <ele>44</ele>
        <time>2018-08-12T07:03:54Z</time>
      </trkpt>
      <trkpt lat="43.75256" lon="4.19111">
        <ele>46</ele>
        <time>2018-08-12T07:03:56Z</time>
      </trkpt>
      <trkpt lat="43.75263" lon="4.19113">
        <ele>46</ele>
        <time>2018-08-12T07:03:58Z</time>
      </trkpt>
      <trkpt lat="43.75271" lon="4.19115">
        <ele>46</ele>
        <time>2018-08-12T07:04:00Z</time>
      </trkpt>
      <trkpt lat="43.75278" lon="4.19116">
        <ele>46</ele>
        <time>2018-08-12T07:04:02Z</time>
      </trkpt>
      <trkpt lat="43.75285" lon="4.19117">
        <ele>46</ele>
        <time>2018-08-12T07:04:04Z</time>
      </trkpt>
      <trkpt lat="43.75292" lon="4.19119">
        <ele>47</ele>
        <time>2018-08-12T07:04:06Z</time>
      </trkpt>
      <trkpt lat="43.75299" lon="4.1912">
        <ele>47</ele>
        <time>2018-08-12T07:04:08Z</time>
      </trkpt>
      <trkpt lat="43.75306" lon="4.19121">
        <ele>47</ele>
        <time>2018-08-12T07:04:10Z</time>
      </trkpt>
      <trkpt lat="43.75312" lon="4.19122">
        <ele>47</ele>
        <time>2018-08-12T07:04:12Z</time>
      </trkpt>
      <trkpt lat="43.75319" lon="4.19122">
        <ele>47</ele>
        <time>2018-08-12T07:04:14Z</time>
      </trkpt>
      <trkpt lat="43.75325" lon="4.19124">
        <ele>47</ele>
        <time>2018-08-12T07:04:16Z</time>
      </trkpt>
      <trkpt lat="43.75331" lon="4.19126">
        <ele>47</ele>
        <time>2018-08-12T07:04:18Z</time>
      </trkpt>
      <trkpt lat="43.75337" lon="4.19127">
        <ele>51</ele>
        <time>2018-08-12T07:04:20Z</time>
      </trkpt>
      <trkpt lat="43.75343" lon="4.19128">
        <ele>51</ele>
        <time>2018-08-12T07:04:22Z</time>
      </trkpt>
      <trkpt lat="43.7535" lon="4.19129">
        <ele>51</ele>
        <time>2018-08-12T07:04:24Z</time>
      </trkpt>
      <trkpt lat="43.75357" lon="4.19129">
        <ele>51</ele>
        <time>2018-08-12T07:04:26Z</time>
      </trkpt>
      <trkpt lat="43.75363" lon="4.19131">
        <ele>51</ele>
        <time>2018-08-12T07:04:28Z</time>
      </trkpt>
      <trkpt lat="43.75368" lon="4.19133">
        <ele>51</ele>
        <time>2018-08-12T07:04:30Z</time>
      </trkpt>
      <trkpt lat="43.75374" lon="4.19136">
        <ele>52</ele>
        <time>2018-08-12T07:04:33Z</time>
      </trkpt>
      <trkpt lat="43.75378" lon="4.1914">
        <ele>52</ele>
        <time>2018-08-12T07:04:35Z</time>
      </trkpt>
      <trkpt lat="43.75382" lon="4.19144">
        <ele>52</ele>
        <time>2018-08-12T07:04:37Z</time>
      </trkpt>
      <trkpt lat="43.75387" lon="4.19146">
        <ele>52</ele>
        <time>2018-08-12T07:04:40Z</time>
      </trkpt>
      <trkpt lat="43.75388" lon="4.19144">
        <ele>52</ele>
        <time>2018-08-12T07:04:55Z</time>
      </trkpt>
      <trkpt lat="43.75388" lon="4.1914">
        <ele>52</ele>
        <time>2018-08-12T07:04:57Z</time>
      </trkpt>
      <trkpt lat="43.75389" lon="4.1913">
        <ele>52</ele>
        <time>2018-08-12T07:05:00Z</time>
      </trkpt>
      <trkpt lat="43.7539" lon="4.19121">
        <ele>52</ele>
        <time>2018-08-12T07:05:02Z</time>
      </trkpt>
      <trkpt lat="43.75391" lon="4.19112">
        <ele>53</ele>
        <time>2018-08-12T07:05:04Z</time>
      </trkpt>
      <trkpt lat="43.75391" lon="4.19102">
        <ele>53</ele>
        <time>2018-08-12T07:05:06Z</time>
      </trkpt>
      <trkpt lat="43.75389" lon="4.19093">
        <ele>53</ele>
        <time>2018-08-12T07:05:08Z</time>
      </trkpt>
      <trkpt lat="43.75386" lon="4.19084">
        <ele>53</ele>
        <time>2018-08-12T07:05:10Z</time>
      </trkpt>
      <trkpt lat="43.75383" lon="4.19074">
        <ele>54</ele>
        <time>2018-08-12T07:05:12Z</time>
      </trkpt>
      <trkpt lat="43.75381" lon="4.19063">
        <ele>54</ele>
        <time>2018-08-12T07:05:14Z</time>
      </trkpt>
      <trkpt lat="43.75379" lon="4.19053">
        <ele>54</ele>
        <time>2018-08-12T07:05:16Z</time>
      </trkpt>
      <trkpt lat="43.75375" lon="4.19044">
        <ele>54</ele>
        <time>2018-08-12T07:05:18Z</time>
      </trkpt>
      <trkpt lat="43.7537" lon="4.19036">
        <ele>54</ele>
        <time>2018-08-12T07:05:20Z</time>
      </trkpt>
      <trkpt lat="43.75368" lon="4.19026">
        <ele>54</ele>
        <time>2018-08-12T07:05:22Z</time>
      </trkpt>
      <trkpt lat="43.75367" lon="4.19015">
        <ele>54</ele>
        <time>2018-08-12T07:05:24Z</time>
      </trkpt>
      <trkpt lat="43.75365" lon="4.19004">
        <ele>54</ele>
        <time>2018-08-12T07:05:26Z</time>
      </trkpt>
      <trkpt lat="43.75363" lon="4.18994">
        <ele>54</ele>
        <time>2018-08-12T07:05:28Z</time>
      </trkpt>
      <trkpt lat="43.75358" lon="4.18985">
        <ele>54</ele>
        <time>2018-08-12T07:05:30Z</time>
      </trkpt>
      <trkpt lat="43.75356" lon="4.18975">
        <ele>54</ele>
        <time>2018-08-12T07:05:32Z</time>
      </trkpt>
      <trkpt lat="43.75359" lon="4.18965">
        <ele>54</ele>
        <time>2018-08-12T07:05:34Z</time>
      </trkpt>
      <trkpt lat="43.75362" lon="4.18957">
        <ele>54</ele>
        <time>2018-08-12T07:05:36Z</time>
      </trkpt>
      <trkpt lat="43.75365" lon="4.18948">
        <ele>55</ele>
        <time>2018-08-12T07:05:38Z</time>
      </trkpt>
      <trkpt lat="43.75367" lon="4.18938">
        <ele>55</ele>
        <time>2018-08-12T07:05:40Z</time>
      </trkpt>
      <trkpt lat="43.7537" lon="4.18928">
        <ele>55</ele>
        <time>2018-08-12T07:05:42Z</time>
      </trkpt>
      <trkpt lat="43.75373" lon="4.18917">
        <ele>55</ele>
        <time>2018-08-12T07:05:44Z</time>
      </trkpt>
      <trkpt lat="43.75375" lon="4.18909">
        <ele>54</ele>
        <time>2018-08-12T07:05:46Z</time>
      </trkpt>
      <trkpt lat="43.75374" lon="4.18902">
        <ele>54</ele>
        <time>2018-08-12T07:05:48Z</time>
      </trkpt>
      <trkpt lat="43.7537" lon="4.18897">
        <ele>53</ele>
        <time>2018-08-12T07:05:50Z</time>
      </trkpt>
      <trkpt lat="43.75364" lon="4.18894">
        <ele>53</ele>
        <time>2018-08-12T07:05:52Z</time>
      </trkpt>
      <trkpt lat="43.75361" lon="4.18888">
        <ele>53</ele>
        <time>2018-08-12T07:05:54Z</time>
      </trkpt>
      <trkpt lat="43.75361" lon="4.18882">
        <ele>53</ele>
        <time>2018-08-12T07:05:56Z</time>
      </trkpt>
      <trkpt lat="43.75358" lon="4.18876">
        <ele>53</ele>
        <time>2018-08-12T07:05:58Z</time>
      </trkpt>
      <trkpt lat="43.75355" lon="4.18868">
        <ele>52</ele>
        <time>2018-08-12T07:06:00Z</time>
      </trkpt>
      <trkpt lat="43.75356" lon="4.18856">
        <ele>52</ele>
        <time>2018-08-12T07:06:01Z</time>
      </trkpt>
      <trkpt lat="43.75357" lon="4.18845">
        <ele>52</ele>
        <time>2018-08-12T07:06:03Z</time>
      </trkpt>
      <trkpt lat="43.75356" lon="4.18839">
        <ele>52</ele>
        <time>2018-08-12T07:06:04Z</time>
      </trkpt>
      <trkpt lat="43.75354" lon="4.18833">
        <ele>49</ele>
        <time>2018-08-12T07:06:05Z</time>
      </trkpt>
      <trkpt lat="43.75356" lon="4.18826">
        <ele>49</ele>
        <time>2018-08-12T07:06:06Z</time>
      </trkpt>
      <trkpt lat="43.75357" lon="4.18819">
        <ele>49</ele>
        <time>2018-08-12T07:06:07Z</time>
      </trkpt>
      <trkpt lat="43.75363" lon="4.1881">
        <ele>49</ele>
        <time>2018-08-12T07:06:09Z</time>
      </trkpt>
      <trkpt lat="43.75368" lon="4.18803">
        <ele>49</ele>
        <time>2018-08-12T07:06:11Z</time>
      </trkpt>
      <trkpt lat="43.7537" lon="4.18797">
        <ele>49</ele>
        <time>2018-08-12T07:06:13Z</time>
      </trkpt>
      <trkpt lat="43.75373" lon="4.18791">
        <ele>49</ele>
        <time>2018-08-12T07:06:16Z</time>
      </trkpt>
      <trkpt lat="43.75378" lon="4.18788">
        <ele>49</ele>
        <time>2018-08-12T07:06:19Z</time>
      </trkpt>
      <trkpt lat="43.75383" lon="4.1879">
        <ele>49</ele>
        <time>2018-08-12T07:06:22Z</time>
      </trkpt>
      <trkpt lat="43.75388" lon="4.18787">
        <ele>49</ele>
        <time>2018-08-12T07:06:33Z</time>
      </trkpt>
      <trkpt lat="43.75391" lon="4.18781">
        <ele>49</ele>
        <time>2018-08-12T07:06:36Z</time>
      </trkpt>
      <trkpt lat="43.75392" lon="4.18774">
        <ele>49</ele>
        <time>2018-08-12T07:06:39Z</time>
      </trkpt>
      <trkpt lat="43.75396" lon="4.18771">
        <ele>49</ele>
        <time>2018-08-12T07:06:41Z</time>
      </trkpt>
      <trkpt lat="43.75401" lon="4.18771">
        <ele>49</ele>
        <time>2018-08-12T07:06:43Z</time>
      </trkpt>
      <trkpt lat="43.75406" lon="4.18773">
        <ele>49</ele>
        <time>2018-08-12T07:06:45Z</time>
      </trkpt>
      <trkpt lat="43.7541" lon="4.18773">
        <ele>49</ele>
        <time>2018-08-12T07:06:47Z</time>
      </trkpt>
      <trkpt lat="43.75415" lon="4.18773">
        <ele>49</ele>
        <time>2018-08-12T07:06:49Z</time>
      </trkpt>
      <trkpt lat="43.7542" lon="4.1877">
        <ele>51</ele>
        <time>2018-08-12T07:06:51Z</time>
      </trkpt>
      <trkpt lat="43.75425" lon="4.18767">
        <ele>51</ele>
        <time>2018-08-12T07:06:53Z</time>
      </trkpt>
      <trkpt lat="43.75427" lon="4.18761">
        <ele>51</ele>
        <time>2018-08-12T07:06:55Z</time>
      </trkpt>
      <trkpt lat="43.75429" lon="4.18753">
        <ele>50</ele>
        <time>2018-08-12T07:06:57Z</time>
      </trkpt>
      <trkpt lat="43.7543" lon="4.18746">
        <ele>49</ele>
        <time>2018-08-12T07:06:59Z</time>
      </trkpt>
      <trkpt lat="43.75432" lon="4.18738">
        <ele>49</ele>
        <time>2018-08-12T07:07:01Z</time>
      </trkpt>
      <trkpt lat="43.75438" lon="4.18732">
        <ele>49</ele>
        <time>2018-08-12T07:07:03Z</time>
      </trkpt>
      <trkpt lat="43.75443" lon="4.18728">
        <ele>49</ele>
        <time>2018-08-12T07:07:05Z</time>
      </trkpt>
      <trkpt lat="43.75448" lon="4.18724">
        <ele>50</ele>
        <time>2018-08-12T07:07:06Z</time>
      </trkpt>
      <trkpt lat="43.75453" lon="4.18719">
        <ele>50</ele>
        <time>2018-08-12T07:07:08Z</time>
      </trkpt>
      <trkpt lat="43.75458" lon="4.18712">
        <ele>50</ele>
        <time>2018-08-12T07:07:10Z</time>
      </trkpt>
      <trkpt lat="43.75464" lon="4.18706">
        <ele>50</ele>
        <time>2018-08-12T07:07:12Z</time>
      </trkpt>
      <trkpt lat="43.75468" lon="4.18701">
        <ele>50</ele>
        <time>2018-08-12T07:07:14Z</time>
      </trkpt>
      <trkpt lat="43.75475" lon="4.18693">
        <ele>49</ele>
        <time>2018-08-12T07:07:17Z</time>
      </trkpt>
      <trkpt lat="43.7548" lon="4.18687">
        <ele>49</ele>
        <time>2018-08-12T07:07:19Z</time>
      </trkpt>
      <trkpt lat="43.75484" lon="4.18681">
        <ele>49</ele>
        <time>2018-08-12T07:07:21Z</time>
      </trkpt>
      <trkpt lat="43.75488" lon="4.18674">
        <ele>49</ele>
        <time>2018-08-12T07:07:23Z</time>
      </trkpt>
      <trkpt lat="43.75493" lon="4.18668">
        <ele>49</ele>
        <time>2018-08-12T07:07:25Z</time>
      </trkpt>
      <trkpt lat="43.75496" lon="4.18661">
        <ele>49</ele>
        <time>2018-08-12T07:07:27Z</time>
      </trkpt>
      <trkpt lat="43.755" lon="4.18654">
        <ele>49</ele>
        <time>2018-08-12T07:07:29Z</time>
      </trkpt>
      <trkpt lat="43.75503" lon="4.18646">
        <ele>50</ele>
        <time>2018-08-12T07:07:31Z</time>
      </trkpt>
      <trkpt lat="43.75507" lon="4.18639">
        <ele>51</ele>
        <time>2018-08-12T07:07:33Z</time>
      </trkpt>
      <trkpt lat="43.7551" lon="4.18632">
        <ele>51</ele>
        <time>2018-08-12T07:07:35Z</time>
      </trkpt>
      <trkpt lat="43.75515" lon="4.18626">
        <ele>51</ele>
        <time>2018-08-12T07:07:37Z</time>
      </trkpt>
      <trkpt lat="43.75518" lon="4.1862">
        <ele>51</ele>
        <time>2018-08-12T07:07:39Z</time>
      </trkpt>
      <trkpt lat="43.75522" lon="4.18614">
        <ele>51</ele>
        <time>2018-08-12T07:07:41Z</time>
      </trkpt>
      <trkpt lat="43.75525" lon="4.18606">
        <ele>52</ele>
        <time>2018-08-12T07:07:43Z</time>
      </trkpt>
      <trkpt lat="43.7553" lon="4.18601">
        <ele>52</ele>
        <time>2018-08-12T07:07:45Z</time>
      </trkpt>
      <trkpt lat="43.75533" lon="4.18595">
        <ele>52</ele>
        <time>2018-08-12T07:07:47Z</time>
      </trkpt>
      <trkpt lat="43.75537" lon="4.1859">
        <ele>52</ele>
        <time>2018-08-12T07:07:49Z</time>
      </trkpt>
      <trkpt lat="43.75539" lon="4.18584">
        <ele>52</ele>
        <time>2018-08-12T07:07:51Z</time>
      </trkpt>
      <trkpt lat="43.75536" lon="4.18579">
        <ele>55</ele>
        <time>2018-08-12T07:08:00Z</time>
      </trkpt>
      <trkpt lat="43.75534" lon="4.18573">
        <ele>55</ele>
        <time>2018-08-12T07:08:08Z</time>
      </trkpt>
      <trkpt lat="43.75531" lon="4.18568">
        <ele>55</ele>
        <time>2018-08-12T07:08:18Z</time>
      </trkpt>
      <trkpt lat="43.75529" lon="4.18561">
        <ele>55</ele>
        <time>2018-08-12T07:08:21Z</time>
      </trkpt>
      <trkpt lat="43.75529" lon="4.18555">
        <ele>55</ele>
        <time>2018-08-12T07:08:23Z</time>
      </trkpt>
      <trkpt lat="43.75528" lon="4.18548">
        <ele>55</ele>
        <time>2018-08-12T07:08:25Z</time>
      </trkpt>
      <trkpt lat="43.75529" lon="4.18541">
        <ele>56</ele>
        <time>2018-08-12T07:08:27Z</time>
      </trkpt>
      <trkpt lat="43.75531" lon="4.18534">
        <ele>56</ele>
        <time>2018-08-12T07:08:29Z</time>
      </trkpt>
      <trkpt lat="43.75534" lon="4.18527">
        <ele>56</ele>
        <time>2018-08-12T07:08:31Z</time>
      </trkpt>
      <trkpt lat="43.75536" lon="4.18521">
        <ele>56</ele>
        <time>2018-08-12T07:08:33Z</time>
      </trkpt>
      <trkpt lat="43.75538" lon="4.18512">
        <ele>57</ele>
        <time>2018-08-12T07:08:36Z</time>
      </trkpt>
      <trkpt lat="43.75535" lon="4.18506">
        <ele>57</ele>
        <time>2018-08-12T07:08:39Z</time>
      </trkpt>
      <trkpt lat="43.7553" lon="4.18505">
        <ele>57</ele>
        <time>2018-08-12T07:08:42Z</time>
      </trkpt>
      <trkpt lat="43.75525" lon="4.18506">
        <ele>57</ele>
        <time>2018-08-12T07:08:46Z</time>
      </trkpt>
      <trkpt lat="43.75521" lon="4.18502">
        <ele>57</ele>
        <time>2018-08-12T07:08:49Z</time>
      </trkpt>
      <trkpt lat="43.75515" lon="4.18498">
        <ele>59</ele>
        <time>2018-08-12T07:08:53Z</time>
      </trkpt>
      <trkpt lat="43.75519" lon="4.18491">
        <ele>59</ele>
        <time>2018-08-12T07:08:56Z</time>
      </trkpt>
      <trkpt lat="43.7552" lon="4.18483">
        <ele>59</ele>
        <time>2018-08-12T07:08:59Z</time>
      </trkpt>
      <trkpt lat="43.75525" lon="4.18479">
        <ele>59</ele>
        <time>2018-08-12T07:09:02Z</time>
      </trkpt>
      <trkpt lat="43.7553" lon="4.18483">
        <ele>59</ele>
        <time>2018-08-12T07:09:05Z</time>
      </trkpt>
      <trkpt lat="43.75533" lon="4.18486">
        <ele>59</ele>
        <time>2018-08-12T07:09:07Z</time>
      </trkpt>
      <trkpt lat="43.75538" lon="4.18487">
        <ele>59</ele>
        <time>2018-08-12T07:09:10Z</time>
      </trkpt>
      <trkpt lat="43.75544" lon="4.18481">
        <ele>59</ele>
        <time>2018-08-12T07:09:13Z</time>
      </trkpt>
      <trkpt lat="43.75551" lon="4.18479">
        <ele>59</ele>
        <time>2018-08-12T07:09:15Z</time>
      </trkpt>
      <trkpt lat="43.75557" lon="4.18483">
        <ele>59</ele>
        <time>2018-08-12T07:09:17Z</time>
      </trkpt>
      <trkpt lat="43.75562" lon="4.18491">
        <ele>59</ele>
        <time>2018-08-12T07:09:19Z</time>
      </trkpt>
      <trkpt lat="43.75569" lon="4.18498">
        <ele>59</ele>
        <time>2018-08-12T07:09:21Z</time>
      </trkpt>
      <trkpt lat="43.75575" lon="4.18505">
        <ele>58</ele>
        <time>2018-08-12T07:09:23Z</time>
      </trkpt>
      <trkpt lat="43.7558" lon="4.18511">
        <ele>58</ele>
        <time>2018-08-12T07:09:25Z</time>
      </trkpt>
      <trkpt lat="43.75586" lon="4.18512">
        <ele>58</ele>
        <time>2018-08-12T07:09:27Z</time>
      </trkpt>
      <trkpt lat="43.75591" lon="4.18515">
        <ele>58</ele>
        <time>2018-08-12T07:09:29Z</time>
      </trkpt>
      <trkpt lat="43.75597" lon="4.18519">
        <ele>58</ele>
        <time>2018-08-12T07:09:31Z</time>
      </trkpt>
      <trkpt lat="43.75602" lon="4.1852">
        <ele>58</ele>
        <time>2018-08-12T07:09:33Z</time>
      </trkpt>
      <trkpt lat="43.75607" lon="4.18523">
        <ele>58</ele>
        <time>2018-08-12T07:09:35Z</time>
      </trkpt>
      <trkpt lat="43.75612" lon="4.18529">
        <ele>58</ele>
        <time>2018-08-12T07:09:37Z</time>
      </trkpt>
      <trkpt lat="43.75617" lon="4.18534">
        <ele>58</ele>
        <time>2018-08-12T07:09:39Z</time>
      </trkpt>
      <trkpt lat="43.75621" lon="4.18533">
        <ele>58</ele>
        <time>2018-08-12T07:09:41Z</time>
      </trkpt>
      <trkpt lat="43.75624" lon="4.18526">
        <ele>58</ele>
        <time>2018-08-12T07:09:43Z</time>
      </trkpt>
      <trkpt lat="43.75627" lon="4.18519">
        <ele>58</ele>
        <time>2018-08-12T07:09:45Z</time>
      </trkpt>
      <trkpt lat="43.75628" lon="4.18512">
        <ele>58</ele>
        <time>2018-08-12T07:09:47Z</time>
      </trkpt>
      <trkpt lat="43.75627" lon="4.18505">
        <ele>58</ele>
        <time>2018-08-12T07:09:49Z</time>
      </trkpt>
      <trkpt lat="43.75633" lon="4.18498">
        <ele>59</ele>
        <time>2018-08-12T07:09:53Z</time>
      </trkpt>
      <trkpt lat="43.75639" lon="4.18498">
        <ele>59</ele>
        <time>2018-08-12T07:09:56Z</time>
      </trkpt>
      <trkpt lat="43.75644" lon="4.18496">
        <ele>59</ele>
        <time>2018-08-12T07:09:59Z</time>
      </trkpt>
      <trkpt lat="43.7565" lon="4.18498">
        <ele>59</ele>
        <time>2018-08-12T07:10:02Z</time>
      </trkpt>
      <trkpt lat="43.75652" lon="4.18508">
        <ele>59</ele>
        <time>2018-08-12T07:10:05Z</time>
      </trkpt>
      <trkpt lat="43.75654" lon="4.18515">
        <ele>59</ele>
        <time>2018-08-12T07:10:07Z</time>
      </trkpt>
      <trkpt lat="43.75656" lon="4.18521">
        <ele>59</ele>
        <time>2018-08-12T07:10:09Z</time>
      </trkpt>
      <trkpt lat="43.75658" lon="4.18528">
        <ele>59</ele>
        <time>2018-08-12T07:10:11Z</time>
      </trkpt>
      <trkpt lat="43.75662" lon="4.18532">
        <ele>58</ele>
        <time>2018-08-12T07:10:13Z</time>
      </trkpt>
      <trkpt lat="43.75667" lon="4.1853">
        <ele>60</ele>
        <time>2018-08-12T07:10:17Z</time>
      </trkpt>
      <trkpt lat="43.75672" lon="4.18535">
        <ele>60</ele>
        <time>2018-08-12T07:10:20Z</time>
      </trkpt>
      <trkpt lat="43.75675" lon="4.18542">
        <ele>60</ele>
        <time>2018-08-12T07:10:22Z</time>
      </trkpt>
      <trkpt lat="43.75679" lon="4.18547">
        <ele>60</ele>
        <time>2018-08-12T07:10:24Z</time>
      </trkpt>
      <trkpt lat="43.75685" lon="4.18552">
        <ele>60</ele>
        <time>2018-08-12T07:10:26Z</time>
      </trkpt>
      <trkpt lat="43.75695" lon="4.18552">
        <ele>61</ele>
        <time>2018-08-12T07:10:29Z</time>
      </trkpt>
      <trkpt lat="43.75702" lon="4.18552">
        <ele>61</ele>
        <time>2018-08-12T07:10:31Z</time>
      </trkpt>
      <trkpt lat="43.75708" lon="4.1855">
        <ele>61</ele>
        <time>2018-08-12T07:10:33Z</time>
      </trkpt>
      <trkpt lat="43.75712" lon="4.18545">
        <ele>61</ele>
        <time>2018-08-12T07:10:35Z</time>
      </trkpt>
      <trkpt lat="43.75715" lon="4.18539">
        <ele>61</ele>
        <time>2018-08-12T07:10:37Z</time>
      </trkpt>
      <trkpt lat="43.75718" lon="4.18534">
        <ele>61</ele>
        <time>2018-08-12T07:10:39Z</time>
      </trkpt>
      <trkpt lat="43.75719" lon="4.18526">
        <ele>61</ele>
        <time>2018-08-12T07:10:42Z</time>
      </trkpt>
      <trkpt lat="43.75718" lon="4.1852">
        <ele>61</ele>
        <time>2018-08-12T07:10:45Z</time>
      </trkpt>
      <trkpt lat="43.75717" lon="4.18512">
        <ele>61</ele>
        <time>2018-08-12T07:10:48Z</time>
      </trkpt>
      <trkpt lat="43.75716" lon="4.18506">
        <ele>61</ele>
        <time>2018-08-12T07:10:50Z</time>
      </trkpt>
      <trkpt lat="43.7572" lon="4.18497">
        <ele>61</ele>
        <time>2018-08-12T07:10:53Z</time>
      </trkpt>
      <trkpt lat="43.75721" lon="4.18491">
        <ele>61</ele>
        <time>2018-08-12T07:10:55Z</time>
      </trkpt>
      <trkpt lat="43.75718" lon="4.18485">
        <ele>60</ele>
        <time>2018-08-12T07:10:57Z</time>
      </trkpt>
      <trkpt lat="43.75716" lon="4.18478">
        <ele>60</ele>
        <time>2018-08-12T07:10:59Z</time>
      </trkpt>
      <trkpt lat="43.75715" lon="4.18469">
        <ele>60</ele>
        <time>2018-08-12T07:11:01Z</time>
      </trkpt>
      <trkpt lat="43.75711" lon="4.18461">
        <ele>60</ele>
        <time>2018-08-12T07:11:03Z</time>
      </trkpt>
      <trkpt lat="43.75707" lon="4.18457">
        <ele>60</ele>
        <time>2018-08-12T07:11:05Z</time>
      </trkpt>
      <trkpt lat="43.75701" lon="4.18453">
        <ele>60</ele>
        <time>2018-08-12T07:11:07Z</time>
      </trkpt>
      <trkpt lat="43.75698" lon="4.18447">
        <ele>60</ele>
        <time>2018-08-12T07:11:09Z</time>
      </trkpt>
      <trkpt lat="43.75696" lon="4.18441">
        <ele>60</ele>
        <time>2018-08-12T07:11:11Z</time>
      </trkpt>
      <trkpt lat="43.75692" lon="4.18438">
        <ele>59</ele>
        <time>2018-08-12T07:11:13Z</time>
      </trkpt>
      <trkpt lat="43.75687" lon="4.18434">
        <ele>59</ele>
        <time>2018-08-12T07:11:15Z</time>
      </trkpt>
      <trkpt lat="43.75683" lon="4.18428">
        <ele>59</ele>
        <time>2018-08-12T07:11:17Z</time>
      </trkpt>
      <trkpt lat="43.75684" lon="4.18421">
        <ele>59</ele>
        <time>2018-08-12T07:11:19Z</time>
      </trkpt>
      <trkpt lat="43.75688" lon="4.18415">
        <ele>58</ele>
        <time>2018-08-12T07:11:21Z</time>
      </trkpt>
      <trkpt lat="43.75692" lon="4.1841">
        <ele>58</ele>
        <time>2018-08-12T07:11:23Z</time>
      </trkpt>
      <trkpt lat="43.75696" lon="4.18405">
        <ele>58</ele>
        <time>2018-08-12T07:11:25Z</time>
      </trkpt>
      <trkpt lat="43.757" lon="4.18398">
        <ele>58</ele>
        <time>2018-08-12T07:11:27Z</time>
      </trkpt>
      <trkpt lat="43.75705" lon="4.18393">
        <ele>58</ele>
        <time>2018-08-12T07:11:29Z</time>
      </trkpt>
      <trkpt lat="43.7571" lon="4.1839">
        <ele>58</ele>
        <time>2018-08-12T07:11:31Z</time>
      </trkpt>
      <trkpt lat="43.75709" lon="4.18383">
        <ele>58</ele>
        <time>2018-08-12T07:11:33Z</time>
      </trkpt>
      <trkpt lat="43.75709" lon="4.18376">
        <ele>58</ele>
        <time>2018-08-12T07:11:35Z</time>
      </trkpt>
      <trkpt lat="43.7571" lon="4.18369">
        <ele>58</ele>
        <time>2018-08-12T07:11:37Z</time>
      </trkpt>
      <trkpt lat="43.75708" lon="4.1836">
        <ele>58</ele>
        <time>2018-08-12T07:11:41Z</time>
      </trkpt>
      <trkpt lat="43.75713" lon="4.18356">
        <ele>58</ele>
        <time>2018-08-12T07:11:43Z</time>
      </trkpt>
      <trkpt lat="43.75717" lon="4.18354">
        <ele>58</ele>
        <time>2018-08-12T07:11:46Z</time>
      </trkpt>
      <trkpt lat="43.7572" lon="4.18348">
        <ele>58</ele>
        <time>2018-08-12T07:11:49Z</time>
      </trkpt>
      <trkpt lat="43.75724" lon="4.18338">
        <ele>58</ele>
        <time>2018-08-12T07:11:53Z</time>
      </trkpt>
      <trkpt lat="43.75727" lon="4.18331">
        <ele>57</ele>
        <time>2018-08-12T07:11:56Z</time>
      </trkpt>
      <trkpt lat="43.75725" lon="4.18321">
        <ele>57</ele>
        <time>2018-08-12T07:11:59Z</time>
      </trkpt>
      <trkpt lat="43.75724" lon="4.18315">
        <ele>57</ele>
        <time>2018-08-12T07:12:01Z</time>
      </trkpt>
      <trkpt lat="43.75723" lon="4.18309">
        <ele>57</ele>
        <time>2018-08-12T07:12:03Z</time>
      </trkpt>
      <trkpt lat="43.75723" lon="4.18302">
        <ele>57</ele>
        <time>2018-08-12T07:12:05Z</time>
      </trkpt>
      <trkpt lat="43.75723" lon="4.18294">
        <ele>57</ele>
        <time>2018-08-12T07:12:07Z</time>
      </trkpt>
      <trkpt lat="43.75726" lon="4.18288">
        <ele>57</ele>
        <time>2018-08-12T07:12:09Z</time>
      </trkpt>
      <trkpt lat="43.75731" lon="4.18284">
        <ele>58</ele>
        <time>2018-08-12T07:12:11Z</time>
      </trkpt>
      <trkpt lat="43.75734" lon="4.18279">
        <ele>58</ele>
        <time>2018-08-12T07:12:12Z</time>
      </trkpt>
      <trkpt lat="43.75735" lon="4.1827">
        <ele>58</ele>
        <time>2018-08-12T07:12:14Z</time>
      </trkpt>
      <trkpt lat="43.75737" lon="4.18262">
        <ele>58</ele>
        <time>2018-08-12T07:12:16Z</time>
      </trkpt>
      <trkpt lat="43.75743" lon="4.18258">
        <ele>59</ele>
        <time>2018-08-12T07:12:19Z</time>
      </trkpt>
      <trkpt lat="43.75748" lon="4.18256">
        <ele>59</ele>
        <time>2018-08-12T07:12:21Z</time>
      </trkpt>
      <trkpt lat="43.75754" lon="4.18256">
        <ele>60</ele>
        <time>2018-08-12T07:12:23Z</time>
      </trkpt>
      <trkpt lat="43.75758" lon="4.18254">
        <ele>60</ele>
        <time>2018-08-12T07:12:25Z</time>
      </trkpt>
      <trkpt lat="43.75763" lon="4.1825">
        <ele>60</ele>
        <time>2018-08-12T07:12:27Z</time>
      </trkpt>
      <trkpt lat="43.75768" lon="4.18249">
        <ele>62</ele>
        <time>2018-08-12T07:12:29Z</time>
      </trkpt>
      <trkpt lat="43.75774" lon="4.18249">
        <ele>62</ele>
        <time>2018-08-12T07:12:32Z</time>
      </trkpt>
      <trkpt lat="43.75777" lon="4.18244">
        <ele>63</ele>
        <time>2018-08-12T07:12:34Z</time>
      </trkpt>
      <trkpt lat="43.75779" lon="4.18238">
        <ele>63</ele>
        <time>2018-08-12T07:12:36Z</time>
      </trkpt>
      <trkpt lat="43.75785" lon="4.18234">
        <ele>63</ele>
        <time>2018-08-12T07:12:39Z</time>
      </trkpt>
      <trkpt lat="43.7579" lon="4.18235">
        <ele>63</ele>
        <time>2018-08-12T07:12:42Z</time>
      </trkpt>
      <trkpt lat="43.75795" lon="4.1824">
        <ele>63</ele>
        <time>2018-08-12T07:12:45Z</time>
      </trkpt>
      <trkpt lat="43.758" lon="4.18239">
        <ele>64</ele>
        <time>2018-08-12T07:12:47Z</time>
      </trkpt>
      <trkpt lat="43.75805" lon="4.18237">
        <ele>64</ele>
        <time>2018-08-12T07:12:49Z</time>
      </trkpt>
      <trkpt lat="43.7581" lon="4.18233">
        <ele>64</ele>
        <time>2018-08-12T07:12:52Z</time>
      </trkpt>
      <trkpt lat="43.75816" lon="4.18238">
        <ele>64</ele>
        <time>2018-08-12T07:12:55Z</time>
      </trkpt>
      <trkpt lat="43.75821" lon="4.18238">
        <ele>64</ele>
        <time>2018-08-12T07:12:57Z</time>
      </trkpt>
      <trkpt lat="43.75826" lon="4.18235">
        <ele>64</ele>
        <time>2018-08-12T07:12:59Z</time>
      </trkpt>
      <trkpt lat="43.75826" lon="4.18228">
        <ele>64</ele>
        <time>2018-08-12T07:13:02Z</time>
      </trkpt>
      <trkpt lat="43.75822" lon="4.18222">
        <ele>64</ele>
        <time>2018-08-12T07:13:05Z</time>
      </trkpt>
      <trkpt lat="43.75817" lon="4.18219">
        <ele>64</ele>
        <time>2018-08-12T07:13:07Z</time>
      </trkpt>
      <trkpt lat="43.75811" lon="4.18217">
        <ele>64</ele>
        <time>2018-08-12T07:13:09Z</time>
      </trkpt>
      <trkpt lat="43.75806" lon="4.18214">
        <ele>64</ele>
        <time>2018-08-12T07:13:11Z</time>
      </trkpt>
      <trkpt lat="43.75805" lon="4.18207">
        <ele>64</ele>
        <time>2018-08-12T07:13:14Z</time>
      </trkpt>
      <trkpt lat="43.75801" lon="4.18204">
        <ele>64</ele>
        <time>2018-08-12T07:13:29Z</time>
      </trkpt>
      <trkpt lat="43.758" lon="4.18202">
        <ele>64</ele>
        <time>2018-08-12T07:13:55Z</time>
      </trkpt>
      <trkpt lat="43.758" lon="4.18202">
        <ele>64</ele>
        <time>2018-08-12T07:13:57Z</time>
      </trkpt>
      <trkpt lat="43.758" lon="4.18202">
        <ele>64</ele>
        <time>2018-08-12T07:14:25Z</time>
      </trkpt>
      <trkpt lat="43.758" lon="4.18202">
        <ele>64</ele>
        <time>2018-08-12T07:14:27Z</time>
      </trkpt>
      <trkpt lat="43.758" lon="4.18202">
        <ele>64</ele>
        <time>2018-08-12T07:14:55Z</time>
      </trkpt>
      <trkpt lat="43.758" lon="4.18202">
        <ele>64</ele>
        <time>2018-08-12T07:14:57Z</time>
      </trkpt>
      <trkpt lat="43.758" lon="4.18202">
        <ele>64</ele>
        <time>2018-08-12T07:15:25Z</time>
      </trkpt>
      <trkpt lat="43.758" lon="4.18202">
        <ele>64</ele>
        <time>2018-08-12T07:15:27Z</time>
      </trkpt>
      <trkpt lat="43.758" lon="4.18202">
        <ele>64</ele>
        <time>2018-08-12T07:15:55Z</time>
      </trkpt>
      <trkpt lat="43.758" lon="4.18202">
        <ele>64</ele>
        <time>2018-08-12T07:15:57Z</time>
      </trkpt>
      <trkpt lat="43.75799" lon="4.182">
        <ele>64</ele>
        <time>2018-08-12T07:16:25Z</time>
      </trkpt>
      <trkpt lat="43.75799" lon="4.182">
        <ele>64</ele>
        <time>2018-08-12T07:16:27Z</time>
      </trkpt>
      <trkpt lat="43.75796" lon="4.18196">
        <ele>64</ele>
        <time>2018-08-12T07:16:41Z</time>
      </trkpt>
      <trkpt lat="43.7579" lon="4.18193">
        <ele>64</ele>
        <time>2018-08-12T07:16:45Z</time>
      </trkpt>
      <trkpt lat="43.75785" lon="4.18198">
        <ele>64</ele>
        <time>2018-08-12T07:16:48Z</time>
      </trkpt>
      <trkpt lat="43.75781" lon="4.18198">
        <ele>64</ele>
        <time>2018-08-12T07:16:50Z</time>
      </trkpt>
      <trkpt lat="43.75775" lon="4.18195">
        <ele>64</ele>
        <time>2018-08-12T07:16:52Z</time>
      </trkpt>
      <trkpt lat="43.75769" lon="4.18194">
        <ele>63</ele>
        <time>2018-08-12T07:16:54Z</time>
      </trkpt>
      <trkpt lat="43.75763" lon="4.18194">
        <ele>63</ele>
        <time>2018-08-12T07:16:56Z</time>
      </trkpt>
      <trkpt lat="43.75758" lon="4.18193">
        <ele>63</ele>
        <time>2018-08-12T07:16:59Z</time>
      </trkpt>
      <trkpt lat="43.75753" lon="4.18195">
        <ele>63</ele>
        <time>2018-08-12T07:17:12Z</time>
      </trkpt>
      <trkpt lat="43.75748" lon="4.18194">
        <ele>60</ele>
        <time>2018-08-12T07:17:14Z</time>
      </trkpt>
      <trkpt lat="43.75742" lon="4.18191">
        <ele>60</ele>
        <time>2018-08-12T07:17:16Z</time>
      </trkpt>
      <trkpt lat="43.75737" lon="4.1819">
        <ele>60</ele>
        <time>2018-08-12T07:17:18Z</time>
      </trkpt>
      <trkpt lat="43.75732" lon="4.18192">
        <ele>60</ele>
        <time>2018-08-12T07:17:20Z</time>
      </trkpt>
      <trkpt lat="43.75734" lon="4.18199">
        <ele>60</ele>
        <time>2018-08-12T07:17:23Z</time>
      </trkpt>
      <trkpt lat="43.75739" lon="4.18202">
        <ele>60</ele>
        <time>2018-08-12T07:17:26Z</time>
      </trkpt>
      <trkpt lat="43.75745" lon="4.18202">
        <ele>60</ele>
        <time>2018-08-12T07:17:29Z</time>
      </trkpt>
      <trkpt lat="43.75745" lon="4.18211">
        <ele>60</ele>
        <time>2018-08-12T07:17:32Z</time>
      </trkpt>
      <trkpt lat="43.75744" lon="4.18218">
        <ele>60</ele>
        <time>2018-08-12T07:17:35Z</time>
      </trkpt>
      <trkpt lat="43.75742" lon="4.18226">
        <ele>60</ele>
        <time>2018-08-12T07:17:46Z</time>
      </trkpt>
      <trkpt lat="43.75743" lon="4.18234">
        <ele>60</ele>
        <time>2018-08-12T07:17:48Z</time>
      </trkpt>
      <trkpt lat="43.7574" lon="4.18242">
        <ele>60</ele>
        <time>2018-08-12T07:17:51Z</time>
      </trkpt>
      <trkpt lat="43.75737" lon="4.18247">
        <ele>60</ele>
        <time>2018-08-12T07:17:53Z</time>
      </trkpt>
      <trkpt lat="43.75735" lon="4.18253">
        <ele>59</ele>
        <time>2018-08-12T07:17:55Z</time>
      </trkpt>
      <trkpt lat="43.75729" lon="4.18253">
        <ele>58</ele>
        <time>2018-08-12T07:17:58Z</time>
      </trkpt>
      <trkpt lat="43.75726" lon="4.18249">
        <ele>59</ele>
        <time>2018-08-12T07:18:01Z</time>
      </trkpt>
      <trkpt lat="43.7572" lon="4.18246">
        <ele>59</ele>
        <time>2018-08-12T07:18:04Z</time>
      </trkpt>
      <trkpt lat="43.75713" lon="4.18245">
        <ele>59</ele>
        <time>2018-08-12T07:18:07Z</time>
      </trkpt>
      <trkpt lat="43.75708" lon="4.18247">
        <ele>58</ele>
        <time>2018-08-12T07:18:09Z</time>
      </trkpt>
      <trkpt lat="43.75705" lon="4.18253">
        <ele>57</ele>
        <time>2018-08-12T07:18:12Z</time>
      </trkpt>
      <trkpt lat="43.75703" lon="4.1826">
        <ele>57</ele>
        <time>2018-08-12T07:18:22Z</time>
      </trkpt>
      <trkpt lat="43.75698" lon="4.18263">
        <ele>57</ele>
        <time>2018-08-12T07:18:25Z</time>
      </trkpt>
      <trkpt lat="43.75693" lon="4.18263">
        <ele>57</ele>
        <time>2018-08-12T07:18:27Z</time>
      </trkpt>
      <trkpt lat="43.75686" lon="4.18263">
        <ele>56</ele>
        <time>2018-08-12T07:18:30Z</time>
      </trkpt>
      <trkpt lat="43.75681" lon="4.18262">
        <ele>56</ele>
        <time>2018-08-12T07:18:32Z</time>
      </trkpt>
      <trkpt lat="43.75673" lon="4.1826">
        <ele>56</ele>
        <time>2018-08-12T07:18:34Z</time>
      </trkpt>
      <trkpt lat="43.75665" lon="4.18257">
        <ele>55</ele>
        <time>2018-08-12T07:18:36Z</time>
      </trkpt>
      <trkpt lat="43.75658" lon="4.18254">
        <ele>54</ele>
        <time>2018-08-12T07:18:38Z</time>
      </trkpt>
      <trkpt lat="43.75655" lon="4.18251">
        <ele>54</ele>
        <time>2018-08-12T07:18:40Z</time>
      </trkpt>
      <trkpt lat="43.75654" lon="4.18243">
        <ele>54</ele>
        <time>2018-08-12T07:18:43Z</time>
      </trkpt>
      <trkpt lat="43.75654" lon="4.18235">
        <ele>54</ele>
        <time>2018-08-12T07:18:46Z</time>
      </trkpt>
      <trkpt lat="43.75654" lon="4.18228">
        <ele>54</ele>
        <time>2018-08-12T07:18:48Z</time>
      </trkpt>
      <trkpt lat="43.75652" lon="4.18223">
        <ele>54</ele>
        <time>2018-08-12T07:18:50Z</time>
      </trkpt>
      <trkpt lat="43.7565" lon="4.18217">
        <ele>54</ele>
        <time>2018-08-12T07:18:52Z</time>
      </trkpt>
      <trkpt lat="43.75649" lon="4.1821">
        <ele>54</ele>
        <time>2018-08-12T07:18:54Z</time>
      </trkpt>
      <trkpt lat="43.75647" lon="4.18202">
        <ele>54</ele>
        <time>2018-08-12T07:18:56Z</time>
      </trkpt>
      <trkpt lat="43.75642" lon="4.18197">
        <ele>54</ele>
        <time>2018-08-12T07:18:58Z</time>
      </trkpt>
      <trkpt lat="43.75635" lon="4.18193">
        <ele>54</ele>
        <time>2018-08-12T07:19:00Z</time>
      </trkpt>
      <trkpt lat="43.75628" lon="4.18191">
        <ele>54</ele>
        <time>2018-08-12T07:19:02Z</time>
      </trkpt>
      <trkpt lat="43.75623" lon="4.18187">
        <ele>54</ele>
        <time>2018-08-12T07:19:04Z</time>
      </trkpt>
      <trkpt lat="43.7562" lon="4.18182">
        <ele>53</ele>
        <time>2018-08-12T07:19:05Z</time>
      </trkpt>
      <trkpt lat="43.75616" lon="4.18174">
        <ele>53</ele>
        <time>2018-08-12T07:19:07Z</time>
      </trkpt>
      <trkpt lat="43.75617" lon="4.18165">
        <ele>53</ele>
        <time>2018-08-12T07:19:09Z</time>
      </trkpt>
      <trkpt lat="43.75618" lon="4.18155">
        <ele>53</ele>
        <time>2018-08-12T07:19:11Z</time>
      </trkpt>
      <trkpt lat="43.75621" lon="4.18146">
        <ele>54</ele>
        <time>2018-08-12T07:19:13Z</time>
      </trkpt>
      <trkpt lat="43.75623" lon="4.18134">
        <ele>54</ele>
        <time>2018-08-12T07:19:16Z</time>
      </trkpt>
      <trkpt lat="43.75623" lon="4.18124">
        <ele>53</ele>
        <time>2018-08-12T07:19:18Z</time>
      </trkpt>
      <trkpt lat="43.75626" lon="4.18115">
        <ele>53</ele>
        <time>2018-08-12T07:19:20Z</time>
      </trkpt>
      <trkpt lat="43.75628" lon="4.18105">
        <ele>53</ele>
        <time>2018-08-12T07:19:22Z</time>
      </trkpt>
      <trkpt lat="43.75628" lon="4.18095">
        <ele>53</ele>
        <time>2018-08-12T07:19:24Z</time>
      </trkpt>
      <trkpt lat="43.75626" lon="4.18083">
        <ele>53</ele>
        <time>2018-08-12T07:19:26Z</time>
      </trkpt>
      <trkpt lat="43.75626" lon="4.18068">
        <ele>52</ele>
        <time>2018-08-12T07:19:28Z</time>
      </trkpt>
      <trkpt lat="43.75623" lon="4.18062">
        <ele>52</ele>
        <time>2018-08-12T07:19:30Z</time>
      </trkpt>
      <trkpt lat="43.75619" lon="4.18054">
        <ele>51</ele>
        <time>2018-08-12T07:19:32Z</time>
      </trkpt>
      <trkpt lat="43.75615" lon="4.18047">
        <ele>51</ele>
        <time>2018-08-12T07:19:34Z</time>
      </trkpt>
      <trkpt lat="43.75614" lon="4.18038">
        <ele>51</ele>
        <time>2018-08-12T07:19:36Z</time>
      </trkpt>
      <trkpt lat="43.75615" lon="4.18028">
        <ele>51</ele>
        <time>2018-08-12T07:19:38Z</time>
      </trkpt>
      <trkpt lat="43.75615" lon="4.18018">
        <ele>51</ele>
        <time>2018-08-12T07:19:40Z</time>
      </trkpt>
      <trkpt lat="43.75616" lon="4.18011">
        <ele>51</ele>
        <time>2018-08-12T07:19:41Z</time>
      </trkpt>
      <trkpt lat="43.75618" lon="4.18">
        <ele>50</ele>
        <time>2018-08-12T07:19:43Z</time>
      </trkpt>
      <trkpt lat="43.7562" lon="4.17988">
        <ele>50</ele>
        <time>2018-08-12T07:19:45Z</time>
      </trkpt>
      <trkpt lat="43.75619" lon="4.17976">
        <ele>50</ele>
        <time>2018-08-12T07:19:47Z</time>
      </trkpt>
      <trkpt lat="43.75617" lon="4.17964">
        <ele>50</ele>
        <time>2018-08-12T07:19:49Z</time>
      </trkpt>
      <trkpt lat="43.75616" lon="4.17948">
        <ele>50</ele>
        <time>2018-08-12T07:19:52Z</time>
      </trkpt>
      <trkpt lat="43.75615" lon="4.17938">
        <ele>50</ele>
        <time>2018-08-12T07:19:54Z</time>
      </trkpt>
      <trkpt lat="43.75616" lon="4.1793">
        <ele>50</ele>
        <time>2018-08-12T07:19:56Z</time>
      </trkpt>
      <trkpt lat="43.75617" lon="4.17922">
        <ele>50</ele>
        <time>2018-08-12T07:19:58Z</time>
      </trkpt>
      <trkpt lat="43.75619" lon="4.17916">
        <ele>50</ele>
        <time>2018-08-12T07:20:01Z</time>
      </trkpt>
      <trkpt lat="43.75622" lon="4.17908">
        <ele>50</ele>
        <time>2018-08-12T07:20:05Z</time>
      </trkpt>
      <trkpt lat="43.75625" lon="4.179">
        <ele>50</ele>
        <time>2018-08-12T07:20:08Z</time>
      </trkpt>
      <trkpt lat="43.75629" lon="4.17896">
        <ele>50</ele>
        <time>2018-08-12T07:20:11Z</time>
      </trkpt>
      <trkpt lat="43.75633" lon="4.17901">
        <ele>50</ele>
        <time>2018-08-12T07:20:16Z</time>
      </trkpt>
      <trkpt lat="43.75638" lon="4.179">
        <ele>51</ele>
        <time>2018-08-12T07:20:21Z</time>
      </trkpt>
      <trkpt lat="43.75643" lon="4.17898">
        <ele>51</ele>
        <time>2018-08-12T07:20:24Z</time>
      </trkpt>
      <trkpt lat="43.75649" lon="4.179">
        <ele>51</ele>
        <time>2018-08-12T07:20:28Z</time>
      </trkpt>
      <trkpt lat="43.75654" lon="4.17905">
        <ele>51</ele>
        <time>2018-08-12T07:20:31Z</time>
      </trkpt>
      <trkpt lat="43.75657" lon="4.17913">
        <ele>52</ele>
        <time>2018-08-12T07:20:34Z</time>
      </trkpt>
      <trkpt lat="43.7566" lon="4.17918">
        <ele>52</ele>
        <time>2018-08-12T07:20:36Z</time>
      </trkpt>
      <trkpt lat="43.75665" lon="4.17928">
        <ele>52</ele>
        <time>2018-08-12T07:20:40Z</time>
      </trkpt>
      <trkpt lat="43.7567" lon="4.17935">
        <ele>54</ele>
        <time>2018-08-12T07:20:42Z</time>
      </trkpt>
      <trkpt lat="43.75676" lon="4.17934">
        <ele>54</ele>
        <time>2018-08-12T07:20:44Z</time>
      </trkpt>
      <trkpt lat="43.75681" lon="4.17928">
        <ele>54</ele>
        <time>2018-08-12T07:20:46Z</time>
      </trkpt>
      <trkpt lat="43.75687" lon="4.17924">
        <ele>55</ele>
        <time>2018-08-12T07:20:48Z</time>
      </trkpt>
      <trkpt lat="43.75693" lon="4.17927">
        <ele>55</ele>
        <time>2018-08-12T07:20:50Z</time>
      </trkpt>
      <trkpt lat="43.75696" lon="4.17934">
        <ele>55</ele>
        <time>2018-08-12T07:20:52Z</time>
      </trkpt>
      <trkpt lat="43.757" lon="4.17942">
        <ele>55</ele>
        <time>2018-08-12T07:20:54Z</time>
      </trkpt>
      <trkpt lat="43.75704" lon="4.17947">
        <ele>55</ele>
        <time>2018-08-12T07:20:56Z</time>
      </trkpt>
      <trkpt lat="43.75709" lon="4.17949">
        <ele>56</ele>
        <time>2018-08-12T07:20:58Z</time>
      </trkpt>
      <trkpt lat="43.75713" lon="4.17954">
        <ele>56</ele>
        <time>2018-08-12T07:21:01Z</time>
      </trkpt>
      <trkpt lat="43.75714" lon="4.17961">
        <ele>56</ele>
        <time>2018-08-12T07:21:05Z</time>
      </trkpt>
      <trkpt lat="43.75718" lon="4.17965">
        <ele>56</ele>
        <time>2018-08-12T07:21:08Z</time>
      </trkpt>
      <trkpt lat="43.75724" lon="4.17965">
        <ele>56</ele>
        <time>2018-08-12T07:21:11Z</time>
      </trkpt>
      <trkpt lat="43.7573" lon="4.17966">
        <ele>56</ele>
        <time>2018-08-12T07:21:14Z</time>
      </trkpt>
      <trkpt lat="43.75731" lon="4.17959">
        <ele>56</ele>
        <time>2018-08-12T07:21:17Z</time>
      </trkpt>
      <trkpt lat="43.75728" lon="4.17951">
        <ele>56</ele>
        <time>2018-08-12T07:21:20Z</time>
      </trkpt>
      <trkpt lat="43.75727" lon="4.17945">
        <ele>56</ele>
        <time>2018-08-12T07:21:22Z</time>
      </trkpt>
      <trkpt lat="43.75726" lon="4.17938">
        <ele>56</ele>
        <time>2018-08-12T07:21:24Z</time>
      </trkpt>
      <trkpt lat="43.75724" lon="4.17929">
        <ele>56</ele>
        <time>2018-08-12T07:21:26Z</time>
      </trkpt>
      <trkpt lat="43.75723" lon="4.17921">
        <ele>56</ele>
        <time>2018-08-12T07:21:28Z</time>
      </trkpt>
      <trkpt lat="43.7572" lon="4.17913">
        <ele>56</ele>
        <time>2018-08-12T07:21:30Z</time>
      </trkpt>
      <trkpt lat="43.75718" lon="4.17904">
        <ele>55</ele>
        <time>2018-08-12T07:21:32Z</time>
      </trkpt>
      <trkpt lat="43.75718" lon="4.17894">
        <ele>55</ele>
        <time>2018-08-12T07:21:34Z</time>
      </trkpt>
      <trkpt lat="43.75717" lon="4.17885">
        <ele>55</ele>
        <time>2018-08-12T07:21:36Z</time>
      </trkpt>
      <trkpt lat="43.75719" lon="4.17876">
        <ele>55</ele>
        <time>2018-08-12T07:21:38Z</time>
      </trkpt>
      <trkpt lat="43.75718" lon="4.17869">
        <ele>55</ele>
        <time>2018-08-12T07:21:40Z</time>
      </trkpt>
      <trkpt lat="43.75716" lon="4.17863">
        <ele>55</ele>
        <time>2018-08-12T07:21:42Z</time>
      </trkpt>
      <trkpt lat="43.7572" lon="4.17855">
        <ele>55</ele>
        <time>2018-08-12T07:21:44Z</time>
      </trkpt>
      <trkpt lat="43.75722" lon="4.17847">
        <ele>55</ele>
        <time>2018-08-12T07:21:46Z</time>
      </trkpt>
      <trkpt lat="43.75724" lon="4.17839">
        <ele>55</ele>
        <time>2018-08-12T07:21:48Z</time>
      </trkpt>
      <trkpt lat="43.75723" lon="4.1783">
        <ele>55</ele>
        <time>2018-08-12T07:21:50Z</time>
      </trkpt>
      <trkpt lat="43.75721" lon="4.17821">
        <ele>54</ele>
        <time>2018-08-12T07:21:52Z</time>
      </trkpt>
      <trkpt lat="43.75718" lon="4.17814">
        <ele>54</ele>
        <time>2018-08-12T07:21:54Z</time>
      </trkpt>
      <trkpt lat="43.75716" lon="4.17806">
        <ele>54</ele>
        <time>2018-08-12T07:21:56Z</time>
      </trkpt>
      <trkpt lat="43.75718" lon="4.17797">
        <ele>54</ele>
        <time>2018-08-12T07:21:58Z</time>
      </trkpt>
      <trkpt lat="43.75724" lon="4.17793">
        <ele>54</ele>
        <time>2018-08-12T07:22:00Z</time>
      </trkpt>
      <trkpt lat="43.75731" lon="4.17792">
        <ele>54</ele>
        <time>2018-08-12T07:22:02Z</time>
      </trkpt>
      <trkpt lat="43.75738" lon="4.17791">
        <ele>54</ele>
        <time>2018-08-12T07:22:04Z</time>
      </trkpt>
      <trkpt lat="43.75742" lon="4.17787">
        <ele>54</ele>
        <time>2018-08-12T07:22:06Z</time>
      </trkpt>
      <trkpt lat="43.75744" lon="4.17779">
        <ele>54</ele>
        <time>2018-08-12T07:22:08Z</time>
      </trkpt>
      <trkpt lat="43.75742" lon="4.17771">
        <ele>54</ele>
        <time>2018-08-12T07:22:10Z</time>
      </trkpt>
      <trkpt lat="43.75743" lon="4.17763">
        <ele>54</ele>
        <time>2018-08-12T07:22:12Z</time>
      </trkpt>
      <trkpt lat="43.75745" lon="4.17756">
        <ele>55</ele>
        <time>2018-08-12T07:22:15Z</time>
      </trkpt>
      <trkpt lat="43.75749" lon="4.1775">
        <ele>55</ele>
        <time>2018-08-12T07:22:20Z</time>
      </trkpt>
      <trkpt lat="43.75747" lon="4.17744">
        <ele>55</ele>
        <time>2018-08-12T07:22:23Z</time>
      </trkpt>
      <trkpt lat="43.75749" lon="4.17745">
        <ele>55</ele>
        <time>2018-08-12T07:22:41Z</time>
      </trkpt>
      <trkpt lat="43.7575" lon="4.17744">
        <ele>55</ele>
        <time>2018-08-12T07:22:42Z</time>
      </trkpt>
      <trkpt lat="43.75754" lon="4.17741">
        <ele>56</ele>
        <time>2018-08-12T07:22:46Z</time>
      </trkpt>
      <trkpt lat="43.7576" lon="4.17741">
        <ele>57</ele>
        <time>2018-08-12T07:22:49Z</time>
      </trkpt>
      <trkpt lat="43.75765" lon="4.17742">
        <ele>57</ele>
        <time>2018-08-12T07:22:51Z</time>
      </trkpt>
      <trkpt lat="43.75772" lon="4.17743">
        <ele>58</ele>
        <time>2018-08-12T07:22:53Z</time>
      </trkpt>
      <trkpt lat="43.75778" lon="4.17742">
        <ele>58</ele>
        <time>2018-08-12T07:22:55Z</time>
      </trkpt>
      <trkpt lat="43.75784" lon="4.1774">
        <ele>58</ele>
        <time>2018-08-12T07:22:57Z</time>
      </trkpt>
      <trkpt lat="43.7579" lon="4.17739">
        <ele>58</ele>
        <time>2018-08-12T07:22:59Z</time>
      </trkpt>
      <trkpt lat="43.75796" lon="4.17738">
        <ele>58</ele>
        <time>2018-08-12T07:23:01Z</time>
      </trkpt>
      <trkpt lat="43.758" lon="4.17735">
        <ele>59</ele>
        <time>2018-08-12T07:23:03Z</time>
      </trkpt>
      <trkpt lat="43.75805" lon="4.17733">
        <ele>59</ele>
        <time>2018-08-12T07:23:05Z</time>
      </trkpt>
      <trkpt lat="43.75811" lon="4.1773">
        <ele>59</ele>
        <time>2018-08-12T07:23:08Z</time>
      </trkpt>
      <trkpt lat="43.75813" lon="4.17722">
        <ele>59</ele>
        <time>2018-08-12T07:23:11Z</time>
      </trkpt>
      <trkpt lat="43.75811" lon="4.17715">
        <ele>59</ele>
        <time>2018-08-12T07:23:13Z</time>
      </trkpt>
      <trkpt lat="43.75809" lon="4.17709">
        <ele>59</ele>
        <time>2018-08-12T07:23:15Z</time>
      </trkpt>
      <trkpt lat="43.75806" lon="4.17703">
        <ele>60</ele>
        <time>2018-08-12T07:23:17Z</time>
      </trkpt>
      <trkpt lat="43.75804" lon="4.17698">
        <ele>60</ele>
        <time>2018-08-12T07:23:19Z</time>
      </trkpt>
      <trkpt lat="43.758" lon="4.17694">
        <ele>60</ele>
        <time>2018-08-12T07:23:21Z</time>
      </trkpt>
      <trkpt lat="43.75795" lon="4.17689">
        <ele>60</ele>
        <time>2018-08-12T07:23:24Z</time>
      </trkpt>
      <trkpt lat="43.7579" lon="4.17689">
        <ele>60</ele>
        <time>2018-08-12T07:23:27Z</time>
      </trkpt>
      <trkpt lat="43.75783" lon="4.17693">
        <ele>60</ele>
        <time>2018-08-12T07:23:30Z</time>
      </trkpt>
      <trkpt lat="43.75779" lon="4.17697">
        <ele>60</ele>
        <time>2018-08-12T07:23:32Z</time>
      </trkpt>
      <trkpt lat="43.75775" lon="4.17702">
        <ele>59</ele>
        <time>2018-08-12T07:23:34Z</time>
      </trkpt>
      <trkpt lat="43.7577" lon="4.17705">
        <ele>59</ele>
        <time>2018-08-12T07:23:36Z</time>
      </trkpt>
      <trkpt lat="43.75765" lon="4.17706">
        <ele>59</ele>
        <time>2018-08-12T07:23:38Z</time>
      </trkpt>
      <trkpt lat="43.75762" lon="4.17701">
        <ele>59</ele>
        <time>2018-08-12T07:23:40Z</time>
      </trkpt>
      <trkpt lat="43.75761" lon="4.17694">
        <ele>60</ele>
        <time>2018-08-12T07:23:42Z</time>
      </trkpt>
      <trkpt lat="43.75757" lon="4.17689">
        <ele>60</ele>
        <time>2018-08-12T07:23:44Z</time>
      </trkpt>
      <trkpt lat="43.75753" lon="4.17685">
        <ele>60</ele>
        <time>2018-08-12T07:23:46Z</time>
      </trkpt>
      <trkpt lat="43.75751" lon="4.1768">
        <ele>61</ele>
        <time>2018-08-12T07:23:48Z</time>
      </trkpt>
      <trkpt lat="43.75751" lon="4.17673">
        <ele>61</ele>
        <time>2018-08-12T07:23:50Z</time>
      </trkpt>
      <trkpt lat="43.75752" lon="4.17667">
        <ele>62</ele>
        <time>2018-08-12T07:23:52Z</time>
      </trkpt>
      <trkpt lat="43.75754" lon="4.17661">
        <ele>63</ele>
        <time>2018-08-12T07:23:54Z</time>
      </trkpt>
      <trkpt lat="43.75755" lon="4.17653">
        <ele>64</ele>
        <time>2018-08-12T07:23:57Z</time>
      </trkpt>
      <trkpt lat="43.75752" lon="4.17646">
        <ele>64</ele>
        <time>2018-08-12T07:24:00Z</time>
      </trkpt>
      <trkpt lat="43.75753" lon="4.17637">
        <ele>65</ele>
        <time>2018-08-12T07:24:03Z</time>
      </trkpt>
      <trkpt lat="43.75752" lon="4.17631">
        <ele>65</ele>
        <time>2018-08-12T07:24:05Z</time>
      </trkpt>
      <trkpt lat="43.75751" lon="4.17625">
        <ele>66</ele>
        <time>2018-08-12T07:24:07Z</time>
      </trkpt>
      <trkpt lat="43.7575" lon="4.17618">
        <ele>64</ele>
        <time>2018-08-12T07:24:09Z</time>
      </trkpt>
      <trkpt lat="43.75748" lon="4.17612">
        <ele>64</ele>
        <time>2018-08-12T07:24:11Z</time>
      </trkpt>
      <trkpt lat="43.75745" lon="4.17606">
        <ele>65</ele>
        <time>2018-08-12T07:24:13Z</time>
      </trkpt>
      <trkpt lat="43.75742" lon="4.17601">
        <ele>65</ele>
        <time>2018-08-12T07:24:15Z</time>
      </trkpt>
      <trkpt lat="43.7574" lon="4.17594">
        <ele>66</ele>
        <time>2018-08-12T07:24:17Z</time>
      </trkpt>
      <trkpt lat="43.75737" lon="4.17588">
        <ele>66</ele>
        <time>2018-08-12T07:24:19Z</time>
      </trkpt>
      <trkpt lat="43.75734" lon="4.17582">
        <ele>68</ele>
        <time>2018-08-12T07:24:21Z</time>
      </trkpt>
      <trkpt lat="43.7573" lon="4.17577">
        <ele>68</ele>
        <time>2018-08-12T07:24:23Z</time>
      </trkpt>
      <trkpt lat="43.75727" lon="4.17571">
        <ele>68</ele>
        <time>2018-08-12T07:24:25Z</time>
      </trkpt>
      <trkpt lat="43.75725" lon="4.17565">
        <ele>68</ele>
        <time>2018-08-12T07:24:27Z</time>
      </trkpt>
      <trkpt lat="43.75724" lon="4.17559">
        <ele>68</ele>
        <time>2018-08-12T07:24:29Z</time>
      </trkpt>
      <trkpt lat="43.75721" lon="4.17551">
        <ele>69</ele>
        <time>2018-08-12T07:24:32Z</time>
      </trkpt>
      <trkpt lat="43.75718" lon="4.17543">
        <ele>69</ele>
        <time>2018-08-12T07:24:35Z</time>
      </trkpt>
      <trkpt lat="43.75716" lon="4.17537">
        <ele>69</ele>
        <time>2018-08-12T07:24:37Z</time>
      </trkpt>
      <trkpt lat="43.75717" lon="4.17531">
        <ele>69</ele>
        <time>2018-08-12T07:24:39Z</time>
      </trkpt>
      <trkpt lat="43.75715" lon="4.17523">
        <ele>69</ele>
        <time>2018-08-12T07:24:42Z</time>
      </trkpt>
      <trkpt lat="43.75713" lon="4.17517">
        <ele>69</ele>
        <time>2018-08-12T07:24:44Z</time>
      </trkpt>
      <trkpt lat="43.7571" lon="4.17512">
        <ele>69</ele>
        <time>2018-08-12T07:24:46Z</time>
      </trkpt>
      <trkpt lat="43.75705" lon="4.17511">
        <ele>69</ele>
        <time>2018-08-12T07:24:48Z</time>
      </trkpt>
      <trkpt lat="43.75699" lon="4.17509">
        <ele>69</ele>
        <time>2018-08-12T07:24:50Z</time>
      </trkpt>
      <trkpt lat="43.75693" lon="4.17503">
        <ele>69</ele>
        <time>2018-08-12T07:24:52Z</time>
      </trkpt>
      <trkpt lat="43.7569" lon="4.17495">
        <ele>71</ele>
        <time>2018-08-12T07:24:54Z</time>
      </trkpt>
      <trkpt lat="43.75687" lon="4.17487">
        <ele>71</ele>
        <time>2018-08-12T07:24:56Z</time>
      </trkpt>
      <trkpt lat="43.75687" lon="4.17479">
        <ele>71</ele>
        <time>2018-08-12T07:24:58Z</time>
      </trkpt>
      <trkpt lat="43.75689" lon="4.17472">
        <ele>72</ele>
        <time>2018-08-12T07:25:00Z</time>
      </trkpt>
      <trkpt lat="43.75687" lon="4.17463">
        <ele>72</ele>
        <time>2018-08-12T07:25:03Z</time>
      </trkpt>
      <trkpt lat="43.75685" lon="4.17457">
        <ele>72</ele>
        <time>2018-08-12T07:25:05Z</time>
      </trkpt>
      <trkpt lat="43.75682" lon="4.1745">
        <ele>72</ele>
        <time>2018-08-12T07:25:07Z</time>
      </trkpt>
      <trkpt lat="43.75681" lon="4.17442">
        <ele>72</ele>
        <time>2018-08-12T07:25:09Z</time>
      </trkpt>
      <trkpt lat="43.75679" lon="4.17434">
        <ele>72</ele>
        <time>2018-08-12T07:25:11Z</time>
      </trkpt>
      <trkpt lat="43.75678" lon="4.17426">
        <ele>72</ele>
        <time>2018-08-12T07:25:13Z</time>
      </trkpt>
      <trkpt lat="43.75678" lon="4.17417">
        <ele>72</ele>
        <time>2018-08-12T07:25:15Z</time>
      </trkpt>
      <trkpt lat="43.75678" lon="4.17409">
        <ele>73</ele>
        <time>2018-08-12T07:25:17Z</time>
      </trkpt>
      <trkpt lat="43.75675" lon="4.17401">
        <ele>73</ele>
        <time>2018-08-12T07:25:19Z</time>
      </trkpt>
      <trkpt lat="43.75672" lon="4.17394">
        <ele>74</ele>
        <time>2018-08-12T07:25:21Z</time>
      </trkpt>
      <trkpt lat="43.7567" lon="4.17387">
        <ele>74</ele>
        <time>2018-08-12T07:25:23Z</time>
      </trkpt>
      <trkpt lat="43.75668" lon="4.17379">
        <ele>74</ele>
        <time>2018-08-12T07:25:25Z</time>
      </trkpt>
      <trkpt lat="43.75668" lon="4.17371">
        <ele>74</ele>
        <time>2018-08-12T07:25:27Z</time>
      </trkpt>
      <trkpt lat="43.75668" lon="4.17363">
        <ele>74</ele>
        <time>2018-08-12T07:25:29Z</time>
      </trkpt>
      <trkpt lat="43.75666" lon="4.17354">
        <ele>72</ele>
        <time>2018-08-12T07:25:31Z</time>
      </trkpt>
      <trkpt lat="43.75664" lon="4.17346">
        <ele>73</ele>
        <time>2018-08-12T07:25:33Z</time>
      </trkpt>
      <trkpt lat="43.75664" lon="4.17337">
        <ele>73</ele>
        <time>2018-08-12T07:25:35Z</time>
      </trkpt>
      <trkpt lat="43.75666" lon="4.17328">
        <ele>74</ele>
        <time>2018-08-12T07:25:37Z</time>
      </trkpt>
      <trkpt lat="43.75669" lon="4.1732">
        <ele>74</ele>
        <time>2018-08-12T07:25:39Z</time>
      </trkpt>
      <trkpt lat="43.7567" lon="4.17311">
        <ele>74</ele>
        <time>2018-08-12T07:25:41Z</time>
      </trkpt>
      <trkpt lat="43.7567" lon="4.17303">
        <ele>74</ele>
        <time>2018-08-12T07:25:43Z</time>
      </trkpt>
      <trkpt lat="43.7567" lon="4.17296">
        <ele>74</ele>
        <time>2018-08-12T07:25:45Z</time>
      </trkpt>
      <trkpt lat="43.75669" lon="4.17288">
        <ele>74</ele>
        <time>2018-08-12T07:25:47Z</time>
      </trkpt>
      <trkpt lat="43.75666" lon="4.17281">
        <ele>72</ele>
        <time>2018-08-12T07:25:49Z</time>
      </trkpt>
      <trkpt lat="43.75664" lon="4.17273">
        <ele>72</ele>
        <time>2018-08-12T07:25:51Z</time>
      </trkpt>
      <trkpt lat="43.75665" lon="4.17264">
        <ele>73</ele>
        <time>2018-08-12T07:25:53Z</time>
      </trkpt>
      <trkpt lat="43.75666" lon="4.17254">
        <ele>73</ele>
        <time>2018-08-12T07:25:55Z</time>
      </trkpt>
      <trkpt lat="43.75667" lon="4.17245">
        <ele>73</ele>
        <time>2018-08-12T07:25:57Z</time>
      </trkpt>
      <trkpt lat="43.75664" lon="4.17239">
        <ele>72</ele>
        <time>2018-08-12T07:25:59Z</time>
      </trkpt>
      <trkpt lat="43.75658" lon="4.17238">
        <ele>72</ele>
        <time>2018-08-12T07:26:07Z</time>
      </trkpt>
      <trkpt lat="43.75654" lon="4.1724">
        <ele>72</ele>
        <time>2018-08-12T07:26:09Z</time>
      </trkpt>
      <trkpt lat="43.75648" lon="4.1724">
        <ele>72</ele>
        <time>2018-08-12T07:26:11Z</time>
      </trkpt>
      <trkpt lat="43.75642" lon="4.1724">
        <ele>72</ele>
        <time>2018-08-12T07:26:13Z</time>
      </trkpt>
      <trkpt lat="43.75635" lon="4.1724">
        <ele>72</ele>
        <time>2018-08-12T07:26:15Z</time>
      </trkpt>
      <trkpt lat="43.75628" lon="4.17241">
        <ele>71</ele>
        <time>2018-08-12T07:26:17Z</time>
      </trkpt>
      <trkpt lat="43.75623" lon="4.17239">
        <ele>71</ele>
        <time>2018-08-12T07:26:19Z</time>
      </trkpt>
      <trkpt lat="43.7562" lon="4.17232">
        <ele>71</ele>
        <time>2018-08-12T07:26:21Z</time>
      </trkpt>
      <trkpt lat="43.75618" lon="4.17223">
        <ele>71</ele>
        <time>2018-08-12T07:26:23Z</time>
      </trkpt>
      <trkpt lat="43.75617" lon="4.17215">
        <ele>71</ele>
        <time>2018-08-12T07:26:25Z</time>
      </trkpt>
      <trkpt lat="43.75613" lon="4.1721">
        <ele>71</ele>
        <time>2018-08-12T07:26:27Z</time>
      </trkpt>
      <trkpt lat="43.75608" lon="4.17206">
        <ele>71</ele>
        <time>2018-08-12T07:26:29Z</time>
      </trkpt>
      <trkpt lat="43.75605" lon="4.172">
        <ele>71</ele>
        <time>2018-08-12T07:26:31Z</time>
      </trkpt>
      <trkpt lat="43.756" lon="4.17196">
        <ele>71</ele>
        <time>2018-08-12T07:26:33Z</time>
      </trkpt>
      <trkpt lat="43.75596" lon="4.17191">
        <ele>70</ele>
        <time>2018-08-12T07:26:35Z</time>
      </trkpt>
      <trkpt lat="43.75592" lon="4.17185">
        <ele>70</ele>
        <time>2018-08-12T07:26:37Z</time>
      </trkpt>
      <trkpt lat="43.75589" lon="4.1718">
        <ele>70</ele>
        <time>2018-08-12T07:26:39Z</time>
      </trkpt>
      <trkpt lat="43.75584" lon="4.1718">
        <ele>70</ele>
        <time>2018-08-12T07:26:42Z</time>
      </trkpt>
      <trkpt lat="43.75579" lon="4.17185">
        <ele>68</ele>
        <time>2018-08-12T07:26:45Z</time>
      </trkpt>
      <trkpt lat="43.75578" lon="4.17191">
        <ele>68</ele>
        <time>2018-08-12T07:26:47Z</time>
      </trkpt>
      <trkpt lat="43.75573" lon="4.17195">
        <ele>68</ele>
        <time>2018-08-12T07:26:50Z</time>
      </trkpt>
      <trkpt lat="43.75568" lon="4.1719">
        <ele>68</ele>
        <time>2018-08-12T07:26:53Z</time>
      </trkpt>
      <trkpt lat="43.75571" lon="4.1719">
        <ele>68</ele>
        <time>2018-08-12T07:27:11Z</time>
      </trkpt>
      <trkpt lat="43.75571" lon="4.1719">
        <ele>68</ele>
        <time>2018-08-12T07:27:12Z</time>
      </trkpt>
      <trkpt lat="43.75572" lon="4.1719">
        <ele>68</ele>
        <time>2018-08-12T07:27:41Z</time>
      </trkpt>
      <trkpt lat="43.75572" lon="4.1719">
        <ele>68</ele>
        <time>2018-08-12T07:27:42Z</time>
      </trkpt>
      <trkpt lat="43.75572" lon="4.1719">
        <ele>68</ele>
        <time>2018-08-12T07:28:11Z</time>
      </trkpt>
      <trkpt lat="43.75572" lon="4.1719">
        <ele>68</ele>
        <time>2018-08-12T07:28:12Z</time>
      </trkpt>
      <trkpt lat="43.75571" lon="4.17191">
        <ele>68</ele>
        <time>2018-08-12T07:28:41Z</time>
      </trkpt>
      <trkpt lat="43.75571" lon="4.17191">
        <ele>68</ele>
        <time>2018-08-12T07:28:42Z</time>
      </trkpt>
      <trkpt lat="43.75569" lon="4.17187">
        <ele>68</ele>
        <time>2018-08-12T07:29:11Z</time>
      </trkpt>
      <trkpt lat="43.7557" lon="4.17185">
        <ele>68</ele>
        <time>2018-08-12T07:29:12Z</time>
      </trkpt>
      <trkpt lat="43.7557" lon="4.17176">
        <ele>68</ele>
        <time>2018-08-12T07:29:15Z</time>
      </trkpt>
      <trkpt lat="43.75569" lon="4.17166">
        <ele>69</ele>
        <time>2018-08-12T07:29:17Z</time>
      </trkpt>
      <trkpt lat="43.75568" lon="4.17157">
        <ele>69</ele>
        <time>2018-08-12T07:29:19Z</time>
      </trkpt>
      <trkpt lat="43.75569" lon="4.17148">
        <ele>69</ele>
        <time>2018-08-12T07:29:21Z</time>
      </trkpt>
      <trkpt lat="43.75571" lon="4.1714">
        <ele>69</ele>
        <time>2018-08-12T07:29:23Z</time>
      </trkpt>
      <trkpt lat="43.75574" lon="4.17132">
        <ele>69</ele>
        <time>2018-08-12T07:29:25Z</time>
      </trkpt>
      <trkpt lat="43.75573" lon="4.17124">
        <ele>69</ele>
        <time>2018-08-12T07:29:27Z</time>
      </trkpt>
      <trkpt lat="43.75569" lon="4.17116">
        <ele>69</ele>
        <time>2018-08-12T07:29:29Z</time>
      </trkpt>
      <trkpt lat="43.75567" lon="4.17108">
        <ele>69</ele>
        <time>2018-08-12T07:29:31Z</time>
      </trkpt>
      <trkpt lat="43.75565" lon="4.17099">
        <ele>70</ele>
        <time>2018-08-12T07:29:33Z</time>
      </trkpt>
      <trkpt lat="43.75564" lon="4.17091">
        <ele>70</ele>
        <time>2018-08-12T07:29:35Z</time>
      </trkpt>
      <trkpt lat="43.75562" lon="4.17082">
        <ele>71</ele>
        <time>2018-08-12T07:29:37Z</time>
      </trkpt>
      <trkpt lat="43.75561" lon="4.17074">
        <ele>71</ele>
        <time>2018-08-12T07:29:39Z</time>
      </trkpt>
      <trkpt lat="43.7556" lon="4.17066">
        <ele>71</ele>
        <time>2018-08-12T07:29:41Z</time>
      </trkpt>
      <trkpt lat="43.75559" lon="4.17058">
        <ele>72</ele>
        <time>2018-08-12T07:29:43Z</time>
      </trkpt>
      <trkpt lat="43.75557" lon="4.1705">
        <ele>72</ele>
        <time>2018-08-12T07:29:45Z</time>
      </trkpt>
      <trkpt lat="43.75557" lon="4.17042">
        <ele>72</ele>
        <time>2018-08-12T07:29:47Z</time>
      </trkpt>
      <trkpt lat="43.75558" lon="4.17034">
        <ele>72</ele>
        <time>2018-08-12T07:29:49Z</time>
      </trkpt>
      <trkpt lat="43.7556" lon="4.17027">
        <ele>72</ele>
        <time>2018-08-12T07:29:51Z</time>
      </trkpt>
      <trkpt lat="43.7556" lon="4.17018">
        <ele>72</ele>
        <time>2018-08-12T07:29:54Z</time>
      </trkpt>
      <trkpt lat="43.75559" lon="4.1701">
        <ele>72</ele>
        <time>2018-08-12T07:29:57Z</time>
      </trkpt>
      <trkpt lat="43.75559" lon="4.17001">
        <ele>72</ele>
        <time>2018-08-12T07:30:00Z</time>
      </trkpt>
      <trkpt lat="43.75561" lon="4.16993">
        <ele>73</ele>
        <time>2018-08-12T07:30:03Z</time>
      </trkpt>
      <trkpt lat="43.75562" lon="4.16987">
        <ele>73</ele>
        <time>2018-08-12T07:30:05Z</time>
      </trkpt>
      <trkpt lat="43.75566" lon="4.1698">
        <ele>73</ele>
        <time>2018-08-12T07:30:07Z</time>
      </trkpt>
      <trkpt lat="43.75568" lon="4.16974">
        <ele>73</ele>
        <time>2018-08-12T07:30:09Z</time>
      </trkpt>
      <trkpt lat="43.75571" lon="4.16969">
        <ele>73</ele>
        <time>2018-08-12T07:30:11Z</time>
      </trkpt>
      <trkpt lat="43.75577" lon="4.16969">
        <ele>72</ele>
        <time>2018-08-12T07:30:13Z</time>
      </trkpt>
      <trkpt lat="43.75581" lon="4.16972">
        <ele>72</ele>
        <time>2018-08-12T07:30:15Z</time>
      </trkpt>
      <trkpt lat="43.75583" lon="4.16979">
        <ele>72</ele>
        <time>2018-08-12T07:30:17Z</time>
      </trkpt>
      <trkpt lat="43.75588" lon="4.16985">
        <ele>73</ele>
        <time>2018-08-12T07:30:20Z</time>
      </trkpt>
      <trkpt lat="43.75593" lon="4.16988">
        <ele>73</ele>
        <time>2018-08-12T07:30:22Z</time>
      </trkpt>
      <trkpt lat="43.756" lon="4.16991">
        <ele>73</ele>
        <time>2018-08-12T07:30:24Z</time>
      </trkpt>
      <trkpt lat="43.75605" lon="4.16993">
        <ele>73</ele>
        <time>2018-08-12T07:30:26Z</time>
      </trkpt>
      <trkpt lat="43.75612" lon="4.16996">
        <ele>73</ele>
        <time>2018-08-12T07:30:28Z</time>
      </trkpt>
      <trkpt lat="43.75618" lon="4.16997">
        <ele>73</ele>
        <time>2018-08-12T07:30:30Z</time>
      </trkpt>
      <trkpt lat="43.75623" lon="4.16999">
        <ele>73</ele>
        <time>2018-08-12T07:30:32Z</time>
      </trkpt>
      <trkpt lat="43.75631" lon="4.17001">
        <ele>73</ele>
        <time>2018-08-12T07:30:34Z</time>
      </trkpt>
      <trkpt lat="43.75637" lon="4.17003">
        <ele>74</ele>
        <time>2018-08-12T07:30:36Z</time>
      </trkpt>
      <trkpt lat="43.75642" lon="4.17006">
        <ele>74</ele>
        <time>2018-08-12T07:30:38Z</time>
      </trkpt>
      <trkpt lat="43.75648" lon="4.17007">
        <ele>74</ele>
        <time>2018-08-12T07:30:40Z</time>
      </trkpt>
      <trkpt lat="43.75655" lon="4.17008">
        <ele>74</ele>
        <time>2018-08-12T07:30:42Z</time>
      </trkpt>
      <trkpt lat="43.75661" lon="4.17008">
        <ele>74</ele>
        <time>2018-08-12T07:30:44Z</time>
      </trkpt>
      <trkpt lat="43.75668" lon="4.17007">
        <ele>75</ele>
        <time>2018-08-12T07:30:46Z</time>
      </trkpt>
      <trkpt lat="43.75674" lon="4.17007">
        <ele>75</ele>
        <time>2018-08-12T07:30:48Z</time>
      </trkpt>
      <trkpt lat="43.75679" lon="4.17008">
        <ele>75</ele>
        <time>2018-08-12T07:30:50Z</time>
      </trkpt>
      <trkpt lat="43.75685" lon="4.17008">
        <ele>75</ele>
        <time>2018-08-12T07:30:52Z</time>
      </trkpt>
      <trkpt lat="43.75691" lon="4.17009">
        <ele>75</ele>
        <time>2018-08-12T07:30:54Z</time>
      </trkpt>
      <trkpt lat="43.75697" lon="4.1701">
        <ele>75</ele>
        <time>2018-08-12T07:30:56Z</time>
      </trkpt>
      <trkpt lat="43.75702" lon="4.17011">
        <ele>75</ele>
        <time>2018-08-12T07:30:58Z</time>
      </trkpt>
      <trkpt lat="43.75707" lon="4.1701">
        <ele>75</ele>
        <time>2018-08-12T07:31:00Z</time>
      </trkpt>
      <trkpt lat="43.75711" lon="4.1701">
        <ele>75</ele>
        <time>2018-08-12T07:31:02Z</time>
      </trkpt>
      <trkpt lat="43.75716" lon="4.17011">
        <ele>75</ele>
        <time>2018-08-12T07:31:04Z</time>
      </trkpt>
      <trkpt lat="43.75721" lon="4.17013">
        <ele>75</ele>
        <time>2018-08-12T07:31:06Z</time>
      </trkpt>
      <trkpt lat="43.75726" lon="4.17015">
        <ele>75</ele>
        <time>2018-08-12T07:31:08Z</time>
      </trkpt>
      <trkpt lat="43.75731" lon="4.17018">
        <ele>75</ele>
        <time>2018-08-12T07:31:10Z</time>
      </trkpt>
      <trkpt lat="43.75737" lon="4.17021">
        <ele>75</ele>
        <time>2018-08-12T07:31:12Z</time>
      </trkpt>
      <trkpt lat="43.75742" lon="4.17024">
        <ele>75</ele>
        <time>2018-08-12T07:31:14Z</time>
      </trkpt>
      <trkpt lat="43.75747" lon="4.17028">
        <ele>75</ele>
        <time>2018-08-12T07:31:16Z</time>
      </trkpt>
      <trkpt lat="43.75753" lon="4.17031">
        <ele>77</ele>
        <time>2018-08-12T07:31:18Z</time>
      </trkpt>
      <trkpt lat="43.75758" lon="4.17034">
        <ele>77</ele>
        <time>2018-08-12T07:31:20Z</time>
      </trkpt>
      <trkpt lat="43.75764" lon="4.17037">
        <ele>77</ele>
        <time>2018-08-12T07:31:22Z</time>
      </trkpt>
      <trkpt lat="43.75769" lon="4.17039">
        <ele>77</ele>
        <time>2018-08-12T07:31:24Z</time>
      </trkpt>
      <trkpt lat="43.75774" lon="4.1704">
        <ele>77</ele>
        <time>2018-08-12T07:31:26Z</time>
      </trkpt>
      <trkpt lat="43.75779" lon="4.17043">
        <ele>77</ele>
        <time>2018-08-12T07:31:28Z</time>
      </trkpt>
      <trkpt lat="43.75784" lon="4.17046">
        <ele>77</ele>
        <time>2018-08-12T07:31:30Z</time>
      </trkpt>
      <trkpt lat="43.7579" lon="4.17049">
        <ele>77</ele>
        <time>2018-08-12T07:31:32Z</time>
      </trkpt>
      <trkpt lat="43.75796" lon="4.17051">
        <ele>77</ele>
        <time>2018-08-12T07:31:34Z</time>
      </trkpt>
      <trkpt lat="43.75802" lon="4.17055">
        <ele>78</ele>
        <time>2018-08-12T07:31:36Z</time>
      </trkpt>
      <trkpt lat="43.75808" lon="4.17058">
        <ele>78</ele>
        <time>2018-08-12T07:31:38Z</time>
      </trkpt>
      <trkpt lat="43.75812" lon="4.17063">
        <ele>78</ele>
        <time>2018-08-12T07:31:40Z</time>
      </trkpt>
      <trkpt lat="43.75818" lon="4.17066">
        <ele>78</ele>
        <time>2018-08-12T07:31:42Z</time>
      </trkpt>
      <trkpt lat="43.75823" lon="4.17067">
        <ele>79</ele>
        <time>2018-08-12T07:31:44Z</time>
      </trkpt>
      <trkpt lat="43.75829" lon="4.1707">
        <ele>79</ele>
        <time>2018-08-12T07:31:46Z</time>
      </trkpt>
      <trkpt lat="43.75834" lon="4.17071">
        <ele>80</ele>
        <time>2018-08-12T07:31:48Z</time>
      </trkpt>
      <trkpt lat="43.75839" lon="4.17073">
        <ele>80</ele>
        <time>2018-08-12T07:31:50Z</time>
      </trkpt>
      <trkpt lat="43.75843" lon="4.17075">
        <ele>80</ele>
        <time>2018-08-12T07:31:52Z</time>
      </trkpt>
      <trkpt lat="43.75846" lon="4.17083">
        <ele>80</ele>
        <time>2018-08-12T07:31:55Z</time>
      </trkpt>
      <trkpt lat="43.75845" lon="4.17089">
        <ele>80</ele>
        <time>2018-08-12T07:31:57Z</time>
      </trkpt>
      <trkpt lat="43.75844" lon="4.17096">
        <ele>80</ele>
        <time>2018-08-12T07:31:59Z</time>
      </trkpt>
      <trkpt lat="43.75845" lon="4.17103">
        <ele>80</ele>
        <time>2018-08-12T07:32:01Z</time>
      </trkpt>
      <trkpt lat="43.75848" lon="4.1711">
        <ele>80</ele>
        <time>2018-08-12T07:32:03Z</time>
      </trkpt>
      <trkpt lat="43.75854" lon="4.17114">
        <ele>80</ele>
        <time>2018-08-12T07:32:05Z</time>
      </trkpt>
      <trkpt lat="43.7586" lon="4.17116">
        <ele>80</ele>
        <time>2018-08-12T07:32:07Z</time>
      </trkpt>
      <trkpt lat="43.75866" lon="4.17117">
        <ele>80</ele>
        <time>2018-08-12T07:32:09Z</time>
      </trkpt>
      <trkpt lat="43.75872" lon="4.17119">
        <ele>80</ele>
        <time>2018-08-12T07:32:11Z</time>
      </trkpt>
      <trkpt lat="43.75879" lon="4.17121">
        <ele>80</ele>
        <time>2018-08-12T07:32:13Z</time>
      </trkpt>
      <trkpt lat="43.75884" lon="4.17122">
        <ele>81</ele>
        <time>2018-08-12T07:32:15Z</time>
      </trkpt>
      <trkpt lat="43.75892" lon="4.17123">
        <ele>81</ele>
        <time>2018-08-12T07:32:17Z</time>
      </trkpt>
      <trkpt lat="43.75898" lon="4.17124">
        <ele>81</ele>
        <time>2018-08-12T07:32:19Z</time>
      </trkpt>
      <trkpt lat="43.75905" lon="4.17127">
        <ele>81</ele>
        <time>2018-08-12T07:32:21Z</time>
      </trkpt>
      <trkpt lat="43.75911" lon="4.1713">
        <ele>81</ele>
        <time>2018-08-12T07:32:23Z</time>
      </trkpt>
      <trkpt lat="43.75916" lon="4.17131">
        <ele>81</ele>
        <time>2018-08-12T07:32:25Z</time>
      </trkpt>
      <trkpt lat="43.75922" lon="4.17133">
        <ele>81</ele>
        <time>2018-08-12T07:32:27Z</time>
      </trkpt>
      <trkpt lat="43.75929" lon="4.17135">
        <ele>82</ele>
        <time>2018-08-12T07:32:29Z</time>
      </trkpt>
      <trkpt lat="43.75934" lon="4.17136">
        <ele>82</ele>
        <time>2018-08-12T07:32:31Z</time>
      </trkpt>
      <trkpt lat="43.7594" lon="4.17138">
        <ele>82</ele>
        <time>2018-08-12T07:32:33Z</time>
      </trkpt>
      <trkpt lat="43.75946" lon="4.1714">
        <ele>82</ele>
        <time>2018-08-12T07:32:35Z</time>
      </trkpt>
      <trkpt lat="43.75952" lon="4.17142">
        <ele>82</ele>
        <time>2018-08-12T07:32:37Z</time>
      </trkpt>
      <trkpt lat="43.75958" lon="4.17143">
        <ele>82</ele>
        <time>2018-08-12T07:32:39Z</time>
      </trkpt>
      <trkpt lat="43.75964" lon="4.17144">
        <ele>82</ele>
        <time>2018-08-12T07:32:41Z</time>
      </trkpt>
      <trkpt lat="43.7597" lon="4.17145">
        <ele>82</ele>
        <time>2018-08-12T07:32:43Z</time>
      </trkpt>
      <trkpt lat="43.75976" lon="4.17147">
        <ele>82</ele>
        <time>2018-08-12T07:32:45Z</time>
      </trkpt>
      <trkpt lat="43.75982" lon="4.17149">
        <ele>82</ele>
        <time>2018-08-12T07:32:47Z</time>
      </trkpt>
      <trkpt lat="43.75987" lon="4.17151">
        <ele>83</ele>
        <time>2018-08-12T07:32:49Z</time>
      </trkpt>
      <trkpt lat="43.75992" lon="4.17153">
        <ele>83</ele>
        <time>2018-08-12T07:32:51Z</time>
      </trkpt>
      <trkpt lat="43.75998" lon="4.17155">
        <ele>83</ele>
        <time>2018-08-12T07:32:53Z</time>
      </trkpt>
      <trkpt lat="43.76" lon="4.17162">
        <ele>84</ele>
        <time>2018-08-12T07:32:55Z</time>
      </trkpt>
      <trkpt lat="43.76003" lon="4.17169">
        <ele>84</ele>
        <time>2018-08-12T07:32:57Z</time>
      </trkpt>
      <trkpt lat="43.76005" lon="4.17176">
        <ele>85</ele>
        <time>2018-08-12T07:32:59Z</time>
      </trkpt>
      <trkpt lat="43.76009" lon="4.17182">
        <ele>85</ele>
        <time>2018-08-12T07:33:01Z</time>
      </trkpt>
      <trkpt lat="43.76014" lon="4.17186">
        <ele>86</ele>
        <time>2018-08-12T07:33:03Z</time>
      </trkpt>
      <trkpt lat="43.7602" lon="4.17188">
        <ele>86</ele>
        <time>2018-08-12T07:33:05Z</time>
      </trkpt>
      <trkpt lat="43.76027" lon="4.17187">
        <ele>86</ele>
        <time>2018-08-12T07:33:07Z</time>
      </trkpt>
      <trkpt lat="43.76033" lon="4.17187">
        <ele>86</ele>
        <time>2018-08-12T07:33:09Z</time>
      </trkpt>
      <trkpt lat="43.7604" lon="4.17187">
        <ele>86</ele>
        <time>2018-08-12T07:33:11Z</time>
      </trkpt>
      <trkpt lat="43.76046" lon="4.17187">
        <ele>86</ele>
        <time>2018-08-12T07:33:13Z</time>
      </trkpt>
      <trkpt lat="43.76052" lon="4.17185">
        <ele>86</ele>
        <time>2018-08-12T07:33:15Z</time>
      </trkpt>
      <trkpt lat="43.76058" lon="4.17186">
        <ele>86</ele>
        <time>2018-08-12T07:33:17Z</time>
      </trkpt>
      <trkpt lat="43.76064" lon="4.17187">
        <ele>86</ele>
        <time>2018-08-12T07:33:19Z</time>
      </trkpt>
      <trkpt lat="43.7607" lon="4.17188">
        <ele>86</ele>
        <time>2018-08-12T07:33:21Z</time>
      </trkpt>
      <trkpt lat="43.76077" lon="4.1719">
        <ele>86</ele>
        <time>2018-08-12T07:33:23Z</time>
      </trkpt>
      <trkpt lat="43.76083" lon="4.1719">
        <ele>86</ele>
        <time>2018-08-12T07:33:25Z</time>
      </trkpt>
      <trkpt lat="43.7609" lon="4.17189">
        <ele>86</ele>
        <time>2018-08-12T07:33:27Z</time>
      </trkpt>
      <trkpt lat="43.76098" lon="4.17188">
        <ele>87</ele>
        <time>2018-08-12T07:33:29Z</time>
      </trkpt>
      <trkpt lat="43.76105" lon="4.17189">
        <ele>87</ele>
        <time>2018-08-12T07:33:31Z</time>
      </trkpt>
      <trkpt lat="43.76112" lon="4.17191">
        <ele>87</ele>
        <time>2018-08-12T07:33:33Z</time>
      </trkpt>
      <trkpt lat="43.76118" lon="4.17191">
        <ele>87</ele>
        <time>2018-08-12T07:33:35Z</time>
      </trkpt>
      <trkpt lat="43.76123" lon="4.17192">
        <ele>87</ele>
        <time>2018-08-12T07:33:37Z</time>
      </trkpt>
      <trkpt lat="43.76129" lon="4.17193">
        <ele>87</ele>
        <time>2018-08-12T07:33:40Z</time>
      </trkpt>
      <trkpt lat="43.76134" lon="4.17194">
        <ele>87</ele>
        <time>2018-08-12T07:33:54Z</time>
      </trkpt>
      <trkpt lat="43.7614" lon="4.17193">
        <ele>87</ele>
        <time>2018-08-12T07:33:57Z</time>
      </trkpt>
      <trkpt lat="43.76145" lon="4.17193">
        <ele>87</ele>
        <time>2018-08-12T07:33:59Z</time>
      </trkpt>
      <trkpt lat="43.76149" lon="4.17194">
        <ele>87</ele>
        <time>2018-08-12T07:34:00Z</time>
      </trkpt>
      <trkpt lat="43.76156" lon="4.17194">
        <ele>87</ele>
        <time>2018-08-12T07:34:02Z</time>
      </trkpt>
      <trkpt lat="43.7616" lon="4.17192">
        <ele>87</ele>
        <time>2018-08-12T07:34:05Z</time>
      </trkpt>
      <trkpt lat="43.7616" lon="4.17185">
        <ele>86</ele>
        <time>2018-08-12T07:34:08Z</time>
      </trkpt>
      <trkpt lat="43.76158" lon="4.17176">
        <ele>86</ele>
        <time>2018-08-12T07:34:11Z</time>
      </trkpt>
      <trkpt lat="43.76157" lon="4.17169">
        <ele>86</ele>
        <time>2018-08-12T07:34:13Z</time>
      </trkpt>
      <trkpt lat="43.76156" lon="4.17159">
        <ele>84</ele>
        <time>2018-08-12T07:34:14Z</time>
      </trkpt>
      <trkpt lat="43.76156" lon="4.17153">
        <ele>84</ele>
        <time>2018-08-12T07:34:15Z</time>
      </trkpt>
      <trkpt lat="43.76155" lon="4.17147">
        <ele>84</ele>
        <time>2018-08-12T07:34:16Z</time>
      </trkpt>
      <trkpt lat="43.76155" lon="4.17135">
        <ele>84</ele>
        <time>2018-08-12T07:34:18Z</time>
      </trkpt>
      <trkpt lat="43.76155" lon="4.17123">
        <ele>84</ele>
        <time>2018-08-12T07:34:20Z</time>
      </trkpt>
      <trkpt lat="43.76157" lon="4.17112">
        <ele>83</ele>
        <time>2018-08-12T07:34:22Z</time>
      </trkpt>
      <trkpt lat="43.76159" lon="4.17101">
        <ele>83</ele>
        <time>2018-08-12T07:34:24Z</time>
      </trkpt>
      <trkpt lat="43.76158" lon="4.1709">
        <ele>83</ele>
        <time>2018-08-12T07:34:26Z</time>
      </trkpt>
      <trkpt lat="43.76157" lon="4.17081">
        <ele>83</ele>
        <time>2018-08-12T07:34:28Z</time>
      </trkpt>
      <trkpt lat="43.76155" lon="4.17072">
        <ele>83</ele>
        <time>2018-08-12T07:34:31Z</time>
      </trkpt>
      <trkpt lat="43.76155" lon="4.17065">
        <ele>82</ele>
        <time>2018-08-12T07:34:33Z</time>
      </trkpt>
      <trkpt lat="43.76156" lon="4.17057">
        <ele>82</ele>
        <time>2018-08-12T07:34:35Z</time>
      </trkpt>
      <trkpt lat="43.76156" lon="4.17048">
        <ele>82</ele>
        <time>2018-08-12T07:34:37Z</time>
      </trkpt>
      <trkpt lat="43.76158" lon="4.17039">
        <ele>83</ele>
        <time>2018-08-12T07:34:39Z</time>
      </trkpt>
      <trkpt lat="43.7616" lon="4.1703">
        <ele>83</ele>
        <time>2018-08-12T07:34:41Z</time>
      </trkpt>
      <trkpt lat="43.76162" lon="4.1702">
        <ele>83</ele>
        <time>2018-08-12T07:34:43Z</time>
      </trkpt>
      <trkpt lat="43.76161" lon="4.1701">
        <ele>83</ele>
        <time>2018-08-12T07:34:45Z</time>
      </trkpt>
      <trkpt lat="43.76163" lon="4.17">
        <ele>84</ele>
        <time>2018-08-12T07:34:47Z</time>
      </trkpt>
      <trkpt lat="43.76163" lon="4.16989">
        <ele>84</ele>
        <time>2018-08-12T07:34:49Z</time>
      </trkpt>
      <trkpt lat="43.76162" lon="4.16979">
        <ele>83</ele>
        <time>2018-08-12T07:34:51Z</time>
      </trkpt>
      <trkpt lat="43.7616" lon="4.16969">
        <ele>83</ele>
        <time>2018-08-12T07:34:53Z</time>
      </trkpt>
      <trkpt lat="43.7616" lon="4.1696">
        <ele>83</ele>
        <time>2018-08-12T07:34:55Z</time>
      </trkpt>
      <trkpt lat="43.7616" lon="4.16953">
        <ele>83</ele>
        <time>2018-08-12T07:34:57Z</time>
      </trkpt>
      <trkpt lat="43.76161" lon="4.16946">
        <ele>84</ele>
        <time>2018-08-12T07:34:59Z</time>
      </trkpt>
      <trkpt lat="43.76162" lon="4.16938">
        <ele>84</ele>
        <time>2018-08-12T07:35:01Z</time>
      </trkpt>
      <trkpt lat="43.76161" lon="4.16931">
        <ele>84</ele>
        <time>2018-08-12T07:35:03Z</time>
      </trkpt>
      <trkpt lat="43.76157" lon="4.16925">
        <ele>84</ele>
        <time>2018-08-12T07:35:05Z</time>
      </trkpt>
      <trkpt lat="43.76156" lon="4.16918">
        <ele>84</ele>
        <time>2018-08-12T07:35:07Z</time>
      </trkpt>
      <trkpt lat="43.76152" lon="4.16916">
        <ele>85</ele>
        <time>2018-08-12T07:35:11Z</time>
      </trkpt>
      <trkpt lat="43.76148" lon="4.16912">
        <ele>85</ele>
        <time>2018-08-12T07:35:13Z</time>
      </trkpt>
      <trkpt lat="43.76144" lon="4.16904">
        <ele>85</ele>
        <time>2018-08-12T07:35:15Z</time>
      </trkpt>
      <trkpt lat="43.76149" lon="4.16898">
        <ele>85</ele>
        <time>2018-08-12T07:35:17Z</time>
      </trkpt>
      <trkpt lat="43.76152" lon="4.16892">
        <ele>85</ele>
        <time>2018-08-12T07:35:20Z</time>
      </trkpt>
      <trkpt lat="43.76154" lon="4.16884">
        <ele>85</ele>
        <time>2018-08-12T07:35:23Z</time>
      </trkpt>
      <trkpt lat="43.76158" lon="4.16875">
        <ele>85</ele>
        <time>2018-08-12T07:35:25Z</time>
      </trkpt>
      <trkpt lat="43.7616" lon="4.16867">
        <ele>85</ele>
        <time>2018-08-12T07:35:27Z</time>
      </trkpt>
      <trkpt lat="43.76163" lon="4.1686">
        <ele>86</ele>
        <time>2018-08-12T07:35:29Z</time>
      </trkpt>
      <trkpt lat="43.76165" lon="4.16852">
        <ele>86</ele>
        <time>2018-08-12T07:35:31Z</time>
      </trkpt>
      <trkpt lat="43.76168" lon="4.16848">
        <ele>87</ele>
        <time>2018-08-12T07:35:34Z</time>
      </trkpt>
      <trkpt lat="43.76164" lon="4.16844">
        <ele>86</ele>
        <time>2018-08-12T07:35:37Z</time>
      </trkpt>
      <trkpt lat="43.76161" lon="4.16837">
        <ele>86</ele>
        <time>2018-08-12T07:35:41Z</time>
      </trkpt>
      <trkpt lat="43.76157" lon="4.16834">
        <ele>86</ele>
        <time>2018-08-12T07:35:46Z</time>
      </trkpt>
      <trkpt lat="43.76149" lon="4.1683">
        <ele>87</ele>
        <time>2018-08-12T07:35:49Z</time>
      </trkpt>
      <trkpt lat="43.76145" lon="4.16827">
        <ele>87</ele>
        <time>2018-08-12T07:35:51Z</time>
      </trkpt>
      <trkpt lat="43.76146" lon="4.16819">
        <ele>87</ele>
        <time>2018-08-12T07:35:53Z</time>
      </trkpt>
      <trkpt lat="43.76147" lon="4.16812">
        <ele>87</ele>
        <time>2018-08-12T07:35:55Z</time>
      </trkpt>
      <trkpt lat="43.76145" lon="4.16805">
        <ele>87</ele>
        <time>2018-08-12T07:35:57Z</time>
      </trkpt>
      <trkpt lat="43.76147" lon="4.16796">
        <ele>87</ele>
        <time>2018-08-12T07:36:00Z</time>
      </trkpt>
      <trkpt lat="43.76149" lon="4.16791">
        <ele>87</ele>
        <time>2018-08-12T07:36:02Z</time>
      </trkpt>
      <trkpt lat="43.76148" lon="4.16784">
        <ele>87</ele>
        <time>2018-08-12T07:36:04Z</time>
      </trkpt>
      <trkpt lat="43.76143" lon="4.1678">
        <ele>87</ele>
        <time>2018-08-12T07:36:06Z</time>
      </trkpt>
      <trkpt lat="43.76139" lon="4.16776">
        <ele>87</ele>
        <time>2018-08-12T07:36:08Z</time>
      </trkpt>
      <trkpt lat="43.76137" lon="4.16769">
        <ele>87</ele>
        <time>2018-08-12T07:36:11Z</time>
      </trkpt>
      <trkpt lat="43.76138" lon="4.1676">
        <ele>87</ele>
        <time>2018-08-12T07:36:14Z</time>
      </trkpt>
      <trkpt lat="43.76141" lon="4.16755">
        <ele>87</ele>
        <time>2018-08-12T07:36:16Z</time>
      </trkpt>
      <trkpt lat="43.76138" lon="4.16745">
        <ele>87</ele>
        <time>2018-08-12T07:36:19Z</time>
      </trkpt>
      <trkpt lat="43.76136" lon="4.16736">
        <ele>87</ele>
        <time>2018-08-12T07:36:21Z</time>
      </trkpt>
      <trkpt lat="43.76136" lon="4.16728">
        <ele>87</ele>
        <time>2018-08-12T07:36:23Z</time>
      </trkpt>
      <trkpt lat="43.76138" lon="4.16722">
        <ele>87</ele>
        <time>2018-08-12T07:36:29Z</time>
      </trkpt>
      <trkpt lat="43.76141" lon="4.16717">
        <ele>87</ele>
        <time>2018-08-12T07:36:31Z</time>
      </trkpt>
      <trkpt lat="43.76143" lon="4.16711">
        <ele>87</ele>
        <time>2018-08-12T07:36:33Z</time>
      </trkpt>
      <trkpt lat="43.76143" lon="4.16704">
        <ele>87</ele>
        <time>2018-08-12T07:36:35Z</time>
      </trkpt>
      <trkpt lat="43.76141" lon="4.16698">
        <ele>87</ele>
        <time>2018-08-12T07:36:37Z</time>
      </trkpt>
      <trkpt lat="43.76146" lon="4.16694">
        <ele>86</ele>
        <time>2018-08-12T07:36:40Z</time>
      </trkpt>
      <trkpt lat="43.76152" lon="4.1669">
        <ele>86</ele>
        <time>2018-08-12T07:36:43Z</time>
      </trkpt>
      <trkpt lat="43.76157" lon="4.16687">
        <ele>86</ele>
        <time>2018-08-12T07:36:45Z</time>
      </trkpt>
      <trkpt lat="43.76163" lon="4.16684">
        <ele>86</ele>
        <time>2018-08-12T07:36:48Z</time>
      </trkpt>
      <trkpt lat="43.76168" lon="4.16687">
        <ele>87</ele>
        <time>2018-08-12T07:36:51Z</time>
      </trkpt>
      <trkpt lat="43.76173" lon="4.16691">
        <ele>87</ele>
        <time>2018-08-12T07:36:53Z</time>
      </trkpt>
      <trkpt lat="43.76178" lon="4.16694">
        <ele>88</ele>
        <time>2018-08-12T07:36:55Z</time>
      </trkpt>
      <trkpt lat="43.76183" lon="4.16696">
        <ele>88</ele>
        <time>2018-08-12T07:36:57Z</time>
      </trkpt>
      <trkpt lat="43.76188" lon="4.16697">
        <ele>88</ele>
        <time>2018-08-12T07:37:00Z</time>
      </trkpt>
      <trkpt lat="43.76193" lon="4.16699">
        <ele>88</ele>
        <time>2018-08-12T07:37:04Z</time>
      </trkpt>
      <trkpt lat="43.76193" lon="4.16706">
        <ele>88</ele>
        <time>2018-08-12T07:37:06Z</time>
      </trkpt>
      <trkpt lat="43.76197" lon="4.1671">
        <ele>88</ele>
        <time>2018-08-12T07:37:09Z</time>
      </trkpt>
      <trkpt lat="43.76202" lon="4.16717">
        <ele>88</ele>
        <time>2018-08-12T07:37:12Z</time>
      </trkpt>
      <trkpt lat="43.76202" lon="4.16726">
        <ele>88</ele>
        <time>2018-08-12T07:37:14Z</time>
      </trkpt>
      <trkpt lat="43.76203" lon="4.16733">
        <ele>89</ele>
        <time>2018-08-12T07:37:16Z</time>
      </trkpt>
      <trkpt lat="43.76208" lon="4.16735">
        <ele>89</ele>
        <time>2018-08-12T07:37:18Z</time>
      </trkpt>
      <trkpt lat="43.76214" lon="4.16734">
        <ele>89</ele>
        <time>2018-08-12T07:37:20Z</time>
      </trkpt>
      <trkpt lat="43.76222" lon="4.16733">
        <ele>89</ele>
        <time>2018-08-12T07:37:22Z</time>
      </trkpt>
      <trkpt lat="43.76227" lon="4.1673">
        <ele>89</ele>
        <time>2018-08-12T07:37:24Z</time>
      </trkpt>
      <trkpt lat="43.76228" lon="4.16722">
        <ele>89</ele>
        <time>2018-08-12T07:37:27Z</time>
      </trkpt>
      <trkpt lat="43.76225" lon="4.16716">
        <ele>89</ele>
        <time>2018-08-12T07:37:29Z</time>
      </trkpt>
      <trkpt lat="43.76223" lon="4.16709">
        <ele>88</ele>
        <time>2018-08-12T07:37:32Z</time>
      </trkpt>
      <trkpt lat="43.76226" lon="4.16704">
        <ele>88</ele>
        <time>2018-08-12T07:37:34Z</time>
      </trkpt>
      <trkpt lat="43.76232" lon="4.16701">
        <ele>88</ele>
        <time>2018-08-12T07:37:36Z</time>
      </trkpt>
      <trkpt lat="43.76237" lon="4.167">
        <ele>88</ele>
        <time>2018-08-12T07:37:37Z</time>
      </trkpt>
      <trkpt lat="43.76241" lon="4.16701">
        <ele>88</ele>
        <time>2018-08-12T07:37:38Z</time>
      </trkpt>
      <trkpt lat="43.76249" lon="4.16701">
        <ele>88</ele>
        <time>2018-08-12T07:37:40Z</time>
      </trkpt>
      <trkpt lat="43.76252" lon="4.16696">
        <ele>86</ele>
        <time>2018-08-12T07:37:43Z</time>
      </trkpt>
      <trkpt lat="43.76249" lon="4.16689">
        <ele>88</ele>
        <time>2018-08-12T07:37:45Z</time>
      </trkpt>
      <trkpt lat="43.76245" lon="4.16681">
        <ele>88</ele>
        <time>2018-08-12T07:37:47Z</time>
      </trkpt>
      <trkpt lat="43.76241" lon="4.16676">
        <ele>88</ele>
        <time>2018-08-12T07:37:50Z</time>
      </trkpt>
      <trkpt lat="43.7624" lon="4.16668">
        <ele>88</ele>
        <time>2018-08-12T07:37:54Z</time>
      </trkpt>
      <trkpt lat="43.76239" lon="4.1666">
        <ele>87</ele>
        <time>2018-08-12T07:37:56Z</time>
      </trkpt>
      <trkpt lat="43.76235" lon="4.16652">
        <ele>86</ele>
        <time>2018-08-12T07:37:58Z</time>
      </trkpt>
      <trkpt lat="43.76238" lon="4.16644">
        <ele>86</ele>
        <time>2018-08-12T07:38:02Z</time>
      </trkpt>
      <trkpt lat="43.76241" lon="4.16638">
        <ele>85</ele>
        <time>2018-08-12T07:38:05Z</time>
      </trkpt>
      <trkpt lat="43.76235" lon="4.16636">
        <ele>85</ele>
        <time>2018-08-12T07:38:07Z</time>
      </trkpt>
      <trkpt lat="43.76228" lon="4.16637">
        <ele>85</ele>
        <time>2018-08-12T07:38:09Z</time>
      </trkpt>
      <trkpt lat="43.76223" lon="4.1664">
        <ele>85</ele>
        <time>2018-08-12T07:38:11Z</time>
      </trkpt>
      <trkpt lat="43.76219" lon="4.16643">
        <ele>85</ele>
        <time>2018-08-12T07:38:16Z</time>
      </trkpt>
      <trkpt lat="43.76215" lon="4.16648">
        <ele>85</ele>
        <time>2018-08-12T07:38:21Z</time>
      </trkpt>
      <trkpt lat="43.7621" lon="4.16652">
        <ele>85</ele>
        <time>2018-08-12T07:38:25Z</time>
      </trkpt>
      <trkpt lat="43.76207" lon="4.16657">
        <ele>85</ele>
        <time>2018-08-12T07:38:28Z</time>
      </trkpt>
      <trkpt lat="43.76203" lon="4.16661">
        <ele>85</ele>
        <time>2018-08-12T07:38:34Z</time>
      </trkpt>
      <trkpt lat="43.76197" lon="4.16661">
        <ele>85</ele>
        <time>2018-08-12T07:38:37Z</time>
      </trkpt>
      <trkpt lat="43.76192" lon="4.16659">
        <ele>85</ele>
        <time>2018-08-12T07:38:39Z</time>
      </trkpt>
      <trkpt lat="43.76185" lon="4.16656">
        <ele>85</ele>
        <time>2018-08-12T07:38:41Z</time>
      </trkpt>
      <trkpt lat="43.76181" lon="4.16651">
        <ele>85</ele>
        <time>2018-08-12T07:38:43Z</time>
      </trkpt>
      <trkpt lat="43.76178" lon="4.16643">
        <ele>85</ele>
        <time>2018-08-12T07:38:45Z</time>
      </trkpt>
      <trkpt lat="43.76176" lon="4.16636">
        <ele>85</ele>
        <time>2018-08-12T07:38:47Z</time>
      </trkpt>
      <trkpt lat="43.76179" lon="4.16629">
        <ele>85</ele>
        <time>2018-08-12T07:38:51Z</time>
      </trkpt>
      <trkpt lat="43.76181" lon="4.16622">
        <ele>84</ele>
        <time>2018-08-12T07:38:54Z</time>
      </trkpt>
      <trkpt lat="43.7618" lon="4.16614">
        <ele>84</ele>
        <time>2018-08-12T07:38:57Z</time>
      </trkpt>
      <trkpt lat="43.76177" lon="4.16606">
        <ele>84</ele>
        <time>2018-08-12T07:39:00Z</time>
      </trkpt>
      <trkpt lat="43.76175" lon="4.16598">
        <ele>83</ele>
        <time>2018-08-12T07:39:02Z</time>
      </trkpt>
      <trkpt lat="43.76173" lon="4.16589">
        <ele>83</ele>
        <time>2018-08-12T07:39:04Z</time>
      </trkpt>
      <trkpt lat="43.76174" lon="4.16579">
        <ele>82</ele>
        <time>2018-08-12T07:39:06Z</time>
      </trkpt>
      <trkpt lat="43.76176" lon="4.16571">
        <ele>81</ele>
        <time>2018-08-12T07:39:08Z</time>
      </trkpt>
      <trkpt lat="43.76179" lon="4.16562">
        <ele>81</ele>
        <time>2018-08-12T07:39:11Z</time>
      </trkpt>
      <trkpt lat="43.7618" lon="4.16554">
        <ele>81</ele>
        <time>2018-08-12T07:39:13Z</time>
      </trkpt>
      <trkpt lat="43.76181" lon="4.16546">
        <ele>81</ele>
        <time>2018-08-12T07:39:15Z</time>
      </trkpt>
      <trkpt lat="43.76183" lon="4.16538">
        <ele>81</ele>
        <time>2018-08-12T07:39:17Z</time>
      </trkpt>
      <trkpt lat="43.76186" lon="4.16529">
        <ele>81</ele>
        <time>2018-08-12T07:39:19Z</time>
      </trkpt>
      <trkpt lat="43.76186" lon="4.16518">
        <ele>81</ele>
        <time>2018-08-12T07:39:21Z</time>
      </trkpt>
      <trkpt lat="43.76183" lon="4.16511">
        <ele>81</ele>
        <time>2018-08-12T07:39:23Z</time>
      </trkpt>
      <trkpt lat="43.76181" lon="4.16504">
        <ele>81</ele>
        <time>2018-08-12T07:39:25Z</time>
      </trkpt>
      <trkpt lat="43.7618" lon="4.16496">
        <ele>81</ele>
        <time>2018-08-12T07:39:27Z</time>
      </trkpt>
      <trkpt lat="43.76178" lon="4.16489">
        <ele>81</ele>
        <time>2018-08-12T07:39:29Z</time>
      </trkpt>
      <trkpt lat="43.76175" lon="4.16483">
        <ele>81</ele>
        <time>2018-08-12T07:39:31Z</time>
      </trkpt>
      <trkpt lat="43.76172" lon="4.16477">
        <ele>81</ele>
        <time>2018-08-12T07:39:33Z</time>
      </trkpt>
      <trkpt lat="43.76172" lon="4.16475">
        <ele>81</ele>
        <time>2018-08-12T07:39:56Z</time>
      </trkpt>
      <trkpt lat="43.76172" lon="4.16475">
        <ele>81</ele>
        <time>2018-08-12T07:39:57Z</time>
      </trkpt>
      <trkpt lat="43.76172" lon="4.16475">
        <ele>81</ele>
        <time>2018-08-12T07:40:26Z</time>
      </trkpt>
      <trkpt lat="43.76172" lon="4.16475">
        <ele>81</ele>
        <time>2018-08-12T07:40:27Z</time>
      </trkpt>
      <trkpt lat="43.76172" lon="4.16475">
        <ele>81</ele>
        <time>2018-08-12T07:40:56Z</time>
      </trkpt>
      <trkpt lat="43.76172" lon="4.16475">
        <ele>81</ele>
        <time>2018-08-12T07:40:57Z</time>
      </trkpt>
      <trkpt lat="43.76172" lon="4.16475">
        <ele>81</ele>
        <time>2018-08-12T07:41:26Z</time>
      </trkpt>
      <trkpt lat="43.76172" lon="4.16475">
        <ele>81</ele>
        <time>2018-08-12T07:41:27Z</time>
      </trkpt>
      <trkpt lat="43.7617" lon="4.16471">
        <ele>81</ele>
        <time>2018-08-12T07:41:56Z</time>
      </trkpt>
      <trkpt lat="43.7617" lon="4.16471">
        <ele>81</ele>
        <time>2018-08-12T07:41:57Z</time>
      </trkpt>
      <trkpt lat="43.7617" lon="4.16471">
        <ele>81</ele>
        <time>2018-08-12T07:42:26Z</time>
      </trkpt>
      <trkpt lat="43.7617" lon="4.16471">
        <ele>81</ele>
        <time>2018-08-12T07:42:27Z</time>
      </trkpt>
      <trkpt lat="43.7617" lon="4.16471">
        <ele>81</ele>
        <time>2018-08-12T07:42:56Z</time>
      </trkpt>
      <trkpt lat="43.7617" lon="4.16471">
        <ele>81</ele>
        <time>2018-08-12T07:42:57Z</time>
      </trkpt>
      <trkpt lat="43.7617" lon="4.16471">
        <ele>81</ele>
        <time>2018-08-12T07:43:26Z</time>
      </trkpt>
      <trkpt lat="43.7617" lon="4.16471">
        <ele>81</ele>
        <time>2018-08-12T07:43:28Z</time>
      </trkpt>
      <trkpt lat="43.7617" lon="4.16471">
        <ele>81</ele>
        <time>2018-08-12T07:43:56Z</time>
      </trkpt>
      <trkpt lat="43.7617" lon="4.16471">
        <ele>81</ele>
        <time>2018-08-12T07:43:57Z</time>
      </trkpt>
      <trkpt lat="43.76176" lon="4.16467">
        <ele>81</ele>
        <time>2018-08-12T07:44:24Z</time>
      </trkpt>
      <trkpt lat="43.76183" lon="4.16464">
        <ele>81</ele>
        <time>2018-08-12T07:44:27Z</time>
      </trkpt>
      <trkpt lat="43.76187" lon="4.16461">
        <ele>81</ele>
        <time>2018-08-12T07:44:29Z</time>
      </trkpt>
      <trkpt lat="43.76194" lon="4.1646">
        <ele>81</ele>
        <time>2018-08-12T07:44:32Z</time>
      </trkpt>
      <trkpt lat="43.76198" lon="4.16457">
        <ele>81</ele>
        <time>2018-08-12T07:44:34Z</time>
      </trkpt>
      <trkpt lat="43.76199" lon="4.16448">
        <ele>81</ele>
        <time>2018-08-12T07:44:37Z</time>
      </trkpt>
      <trkpt lat="43.76201" lon="4.16441">
        <ele>81</ele>
        <time>2018-08-12T07:44:39Z</time>
      </trkpt>
      <trkpt lat="43.76202" lon="4.16433">
        <ele>81</ele>
        <time>2018-08-12T07:44:41Z</time>
      </trkpt>
      <trkpt lat="43.76205" lon="4.16425">
        <ele>81</ele>
        <time>2018-08-12T07:44:43Z</time>
      </trkpt>
      <trkpt lat="43.76207" lon="4.16417">
        <ele>81</ele>
        <time>2018-08-12T07:44:45Z</time>
      </trkpt>
      <trkpt lat="43.76207" lon="4.1641">
        <ele>83</ele>
        <time>2018-08-12T07:44:47Z</time>
      </trkpt>
      <trkpt lat="43.76205" lon="4.16403">
        <ele>83</ele>
        <time>2018-08-12T07:44:49Z</time>
      </trkpt>
      <trkpt lat="43.76201" lon="4.164">
        <ele>83</ele>
        <time>2018-08-12T07:44:51Z</time>
      </trkpt>
      <trkpt lat="43.76201" lon="4.16394">
        <ele>83</ele>
        <time>2018-08-12T07:44:53Z</time>
      </trkpt>
      <trkpt lat="43.76203" lon="4.16387">
        <ele>83</ele>
        <time>2018-08-12T07:44:55Z</time>
      </trkpt>
      <trkpt lat="43.76208" lon="4.16382">
        <ele>83</ele>
        <time>2018-08-12T07:44:57Z</time>
      </trkpt>
      <trkpt lat="43.76213" lon="4.16377">
        <ele>83</ele>
        <time>2018-08-12T07:44:59Z</time>
      </trkpt>
      <trkpt lat="43.76219" lon="4.16372">
        <ele>83</ele>
        <time>2018-08-12T07:45:01Z</time>
      </trkpt>
      <trkpt lat="43.76225" lon="4.16367">
        <ele>84</ele>
        <time>2018-08-12T07:45:03Z</time>
      </trkpt>
      <trkpt lat="43.76226" lon="4.16361">
        <ele>84</ele>
        <time>2018-08-12T07:45:05Z</time>
      </trkpt>
      <trkpt lat="43.76224" lon="4.16354">
        <ele>84</ele>
        <time>2018-08-12T07:45:07Z</time>
      </trkpt>
      <trkpt lat="43.76222" lon="4.16346">
        <ele>84</ele>
        <time>2018-08-12T07:45:09Z</time>
      </trkpt>
      <trkpt lat="43.76222" lon="4.16339">
        <ele>84</ele>
        <time>2018-08-12T07:45:11Z</time>
      </trkpt>
      <trkpt lat="43.76225" lon="4.16332">
        <ele>85</ele>
        <time>2018-08-12T07:45:13Z</time>
      </trkpt>
      <trkpt lat="43.76228" lon="4.16325">
        <ele>85</ele>
        <time>2018-08-12T07:45:15Z</time>
      </trkpt>
      <trkpt lat="43.76231" lon="4.16318">
        <ele>85</ele>
        <time>2018-08-12T07:45:17Z</time>
      </trkpt>
      <trkpt lat="43.76234" lon="4.16311">
        <ele>86</ele>
        <time>2018-08-12T07:45:19Z</time>
      </trkpt>
      <trkpt lat="43.7624" lon="4.16308">
        <ele>86</ele>
        <time>2018-08-12T07:45:21Z</time>
      </trkpt>
      <trkpt lat="43.76244" lon="4.16302">
        <ele>86</ele>
        <time>2018-08-12T07:45:23Z</time>
      </trkpt>
      <trkpt lat="43.76241" lon="4.16296">
        <ele>86</ele>
        <time>2018-08-12T07:45:25Z</time>
      </trkpt>
      <trkpt lat="43.76239" lon="4.1629">
        <ele>86</ele>
        <time>2018-08-12T07:45:27Z</time>
      </trkpt>
      <trkpt lat="43.76236" lon="4.16283">
        <ele>86</ele>
        <time>2018-08-12T07:45:29Z</time>
      </trkpt>
      <trkpt lat="43.76233" lon="4.16279">
        <ele>86</ele>
        <time>2018-08-12T07:45:31Z</time>
      </trkpt>
      <trkpt lat="43.7623" lon="4.16274">
        <ele>86</ele>
        <time>2018-08-12T07:45:33Z</time>
      </trkpt>
      <trkpt lat="43.76225" lon="4.16268">
        <ele>86</ele>
        <time>2018-08-12T07:45:36Z</time>
      </trkpt>
      <trkpt lat="43.76218" lon="4.16265">
        <ele>86</ele>
        <time>2018-08-12T07:45:39Z</time>
      </trkpt>
      <trkpt lat="43.76214" lon="4.16261">
        <ele>86</ele>
        <time>2018-08-12T07:45:41Z</time>
      </trkpt>
      <trkpt lat="43.76211" lon="4.16255">
        <ele>86</ele>
        <time>2018-08-12T07:45:43Z</time>
      </trkpt>
      <trkpt lat="43.76207" lon="4.16251">
        <ele>86</ele>
        <time>2018-08-12T07:45:45Z</time>
      </trkpt>
      <trkpt lat="43.76202" lon="4.16249">
        <ele>87</ele>
        <time>2018-08-12T07:45:47Z</time>
      </trkpt>
      <trkpt lat="43.76197" lon="4.16247">
        <ele>87</ele>
        <time>2018-08-12T07:45:49Z</time>
      </trkpt>
      <trkpt lat="43.76201" lon="4.16238">
        <ele>87</ele>
        <time>2018-08-12T07:45:51Z</time>
      </trkpt>
      <trkpt lat="43.76203" lon="4.1623">
        <ele>87</ele>
        <time>2018-08-12T07:45:53Z</time>
      </trkpt>
      <trkpt lat="43.76206" lon="4.16223">
        <ele>87</ele>
        <time>2018-08-12T07:45:55Z</time>
      </trkpt>
      <trkpt lat="43.76208" lon="4.16216">
        <ele>87</ele>
        <time>2018-08-12T07:45:57Z</time>
      </trkpt>
      <trkpt lat="43.76209" lon="4.16209">
        <ele>87</ele>
        <time>2018-08-12T07:45:59Z</time>
      </trkpt>
      <trkpt lat="43.7621" lon="4.162">
        <ele>87</ele>
        <time>2018-08-12T07:46:01Z</time>
      </trkpt>
      <trkpt lat="43.76212" lon="4.16192">
        <ele>87</ele>
        <time>2018-08-12T07:46:03Z</time>
      </trkpt>
      <trkpt lat="43.76213" lon="4.16183">
        <ele>87</ele>
        <time>2018-08-12T07:46:05Z</time>
      </trkpt>
      <trkpt lat="43.76215" lon="4.16174">
        <ele>87</ele>
        <time>2018-08-12T07:46:07Z</time>
      </trkpt>
      <trkpt lat="43.76218" lon="4.16166">
        <ele>87</ele>
        <time>2018-08-12T07:46:09Z</time>
      </trkpt>
      <trkpt lat="43.76222" lon="4.16156">
        <ele>87</ele>
        <time>2018-08-12T07:46:11Z</time>
      </trkpt>
      <trkpt lat="43.76225" lon="4.16146">
        <ele>87</ele>
        <time>2018-08-12T07:46:13Z</time>
      </trkpt>
      <trkpt lat="43.76229" lon="4.16136">
        <ele>87</ele>
        <time>2018-08-12T07:46:15Z</time>
      </trkpt>
      <trkpt lat="43.76232" lon="4.16126">
        <ele>87</ele>
        <time>2018-08-12T07:46:17Z</time>
      </trkpt>
      <trkpt lat="43.76236" lon="4.16117">
        <ele>87</ele>
        <time>2018-08-12T07:46:19Z</time>
      </trkpt>
      <trkpt lat="43.7624" lon="4.16109">
        <ele>86</ele>
        <time>2018-08-12T07:46:21Z</time>
      </trkpt>
      <trkpt lat="43.76244" lon="4.161">
        <ele>86</ele>
        <time>2018-08-12T07:46:23Z</time>
      </trkpt>
      <trkpt lat="43.76248" lon="4.16091">
        <ele>86</ele>
        <time>2018-08-12T07:46:25Z</time>
      </trkpt>
      <trkpt lat="43.76252" lon="4.16082">
        <ele>86</ele>
        <time>2018-08-12T07:46:27Z</time>
      </trkpt>
      <trkpt lat="43.76255" lon="4.16072">
        <ele>86</ele>
        <time>2018-08-12T07:46:29Z</time>
      </trkpt>
      <trkpt lat="43.76259" lon="4.16062">
        <ele>86</ele>
        <time>2018-08-12T07:46:31Z</time>
      </trkpt>
      <trkpt lat="43.76263" lon="4.16051">
        <ele>85</ele>
        <time>2018-08-12T07:46:33Z</time>
      </trkpt>
      <trkpt lat="43.76267" lon="4.16042">
        <ele>85</ele>
        <time>2018-08-12T07:46:35Z</time>
      </trkpt>
      <trkpt lat="43.76271" lon="4.16033">
        <ele>85</ele>
        <time>2018-08-12T07:46:37Z</time>
      </trkpt>
      <trkpt lat="43.76275" lon="4.16023">
        <ele>85</ele>
        <time>2018-08-12T07:46:39Z</time>
      </trkpt>
      <trkpt lat="43.76278" lon="4.16013">
        <ele>85</ele>
        <time>2018-08-12T07:46:41Z</time>
      </trkpt>
      <trkpt lat="43.7628" lon="4.16002">
        <ele>85</ele>
        <time>2018-08-12T07:46:43Z</time>
      </trkpt>
      <trkpt lat="43.76283" lon="4.15992">
        <ele>84</ele>
        <time>2018-08-12T07:46:45Z</time>
      </trkpt>
      <trkpt lat="43.76286" lon="4.15981">
        <ele>84</ele>
        <time>2018-08-12T07:46:47Z</time>
      </trkpt>
      <trkpt lat="43.76288" lon="4.15971">
        <ele>85</ele>
        <time>2018-08-12T07:46:49Z</time>
      </trkpt>
      <trkpt lat="43.76289" lon="4.15961">
        <ele>85</ele>
        <time>2018-08-12T07:46:51Z</time>
      </trkpt>
      <trkpt lat="43.76291" lon="4.15952">
        <ele>85</ele>
        <time>2018-08-12T07:46:53Z</time>
      </trkpt>
      <trkpt lat="43.76293" lon="4.15943">
        <ele>85</ele>
        <time>2018-08-12T07:46:55Z</time>
      </trkpt>
      <trkpt lat="43.76294" lon="4.15936">
        <ele>85</ele>
        <time>2018-08-12T07:46:59Z</time>
      </trkpt>
      <trkpt lat="43.76297" lon="4.15931">
        <ele>85</ele>
        <time>2018-08-12T07:47:02Z</time>
      </trkpt>
      <trkpt lat="43.76299" lon="4.15924">
        <ele>85</ele>
        <time>2018-08-12T07:47:04Z</time>
      </trkpt>
      <trkpt lat="43.76302" lon="4.15913">
        <ele>87</ele>
        <time>2018-08-12T07:47:07Z</time>
      </trkpt>
      <trkpt lat="43.76304" lon="4.15905">
        <ele>87</ele>
        <time>2018-08-12T07:47:09Z</time>
      </trkpt>
      <trkpt lat="43.76306" lon="4.15896">
        <ele>87</ele>
        <time>2018-08-12T07:47:11Z</time>
      </trkpt>
      <trkpt lat="43.76308" lon="4.15887">
        <ele>87</ele>
        <time>2018-08-12T07:47:13Z</time>
      </trkpt>
      <trkpt lat="43.76308" lon="4.15878">
        <ele>87</ele>
        <time>2018-08-12T07:47:15Z</time>
      </trkpt>
      <trkpt lat="43.7631" lon="4.15869">
        <ele>87</ele>
        <time>2018-08-12T07:47:17Z</time>
      </trkpt>
      <trkpt lat="43.76312" lon="4.1586">
        <ele>88</ele>
        <time>2018-08-12T07:47:19Z</time>
      </trkpt>
      <trkpt lat="43.76315" lon="4.15851">
        <ele>88</ele>
        <time>2018-08-12T07:47:21Z</time>
      </trkpt>
      <trkpt lat="43.76317" lon="4.15843">
        <ele>88</ele>
        <time>2018-08-12T07:47:23Z</time>
      </trkpt>
      <trkpt lat="43.7632" lon="4.15835">
        <ele>89</ele>
        <time>2018-08-12T07:47:25Z</time>
      </trkpt>
      <trkpt lat="43.76323" lon="4.15827">
        <ele>89</ele>
        <time>2018-08-12T07:47:27Z</time>
      </trkpt>
      <trkpt lat="43.76326" lon="4.1582">
        <ele>89</ele>
        <time>2018-08-12T07:47:29Z</time>
      </trkpt>
      <trkpt lat="43.76327" lon="4.15814">
        <ele>89</ele>
        <time>2018-08-12T07:47:31Z</time>
      </trkpt>
      <trkpt lat="43.76331" lon="4.1581">
        <ele>89</ele>
        <time>2018-08-12T07:47:34Z</time>
      </trkpt>
      <trkpt lat="43.76336" lon="4.15812">
        <ele>91</ele>
        <time>2018-08-12T07:47:36Z</time>
      </trkpt>
      <trkpt lat="43.76341" lon="4.15816">
        <ele>91</ele>
        <time>2018-08-12T07:47:39Z</time>
      </trkpt>
      <trkpt lat="43.76346" lon="4.15822">
        <ele>91</ele>
        <time>2018-08-12T07:47:42Z</time>
      </trkpt>
      <trkpt lat="43.76352" lon="4.15821">
        <ele>91</ele>
        <time>2018-08-12T07:47:45Z</time>
      </trkpt>
      <trkpt lat="43.76357" lon="4.15822">
        <ele>91</ele>
        <time>2018-08-12T07:47:48Z</time>
      </trkpt>
      <trkpt lat="43.76363" lon="4.15819">
        <ele>92</ele>
        <time>2018-08-12T07:47:51Z</time>
      </trkpt>
      <trkpt lat="43.76365" lon="4.1581">
        <ele>92</ele>
        <time>2018-08-12T07:47:54Z</time>
      </trkpt>
      <trkpt lat="43.76369" lon="4.15806">
        <ele>92</ele>
        <time>2018-08-12T07:47:56Z</time>
      </trkpt>
      <trkpt lat="43.76374" lon="4.15804">
        <ele>92</ele>
        <time>2018-08-12T07:47:58Z</time>
      </trkpt>
      <trkpt lat="43.76379" lon="4.15803">
        <ele>92</ele>
        <time>2018-08-12T07:48:00Z</time>
      </trkpt>
      <trkpt lat="43.76383" lon="4.15803">
        <ele>92</ele>
        <time>2018-08-12T07:48:02Z</time>
      </trkpt>
      <trkpt lat="43.76389" lon="4.15804">
        <ele>92</ele>
        <time>2018-08-12T07:48:04Z</time>
      </trkpt>
      <trkpt lat="43.76395" lon="4.15809">
        <ele>92</ele>
        <time>2018-08-12T07:48:07Z</time>
      </trkpt>
      <trkpt lat="43.764" lon="4.15806">
        <ele>93</ele>
        <time>2018-08-12T07:48:09Z</time>
      </trkpt>
      <trkpt lat="43.76406" lon="4.15804">
        <ele>93</ele>
        <time>2018-08-12T07:48:12Z</time>
      </trkpt>
      <trkpt lat="43.76413" lon="4.15804">
        <ele>93</ele>
        <time>2018-08-12T07:48:15Z</time>
      </trkpt>
      <trkpt lat="43.76418" lon="4.15806">
        <ele>94</ele>
        <time>2018-08-12T07:48:17Z</time>
      </trkpt>
      <trkpt lat="43.76424" lon="4.15808">
        <ele>94</ele>
        <time>2018-08-12T07:48:19Z</time>
      </trkpt>
      <trkpt lat="43.76431" lon="4.15811">
        <ele>94</ele>
        <time>2018-08-12T07:48:21Z</time>
      </trkpt>
      <trkpt lat="43.76437" lon="4.15814">
        <ele>94</ele>
        <time>2018-08-12T07:48:23Z</time>
      </trkpt>
      <trkpt lat="43.76444" lon="4.15811">
        <ele>94</ele>
        <time>2018-08-12T07:48:27Z</time>
      </trkpt>
      <trkpt lat="43.76449" lon="4.15802">
        <ele>94</ele>
        <time>2018-08-12T07:48:30Z</time>
      </trkpt>
      <trkpt lat="43.76454" lon="4.15794">
        <ele>94</ele>
        <time>2018-08-12T07:48:33Z</time>
      </trkpt>
      <trkpt lat="43.76459" lon="4.15794">
        <ele>94</ele>
        <time>2018-08-12T07:48:35Z</time>
      </trkpt>
      <trkpt lat="43.76464" lon="4.15792">
        <ele>94</ele>
        <time>2018-08-12T07:48:37Z</time>
      </trkpt>
      <trkpt lat="43.76468" lon="4.15786">
        <ele>94</ele>
        <time>2018-08-12T07:48:39Z</time>
      </trkpt>
      <trkpt lat="43.76469" lon="4.1578">
        <ele>94</ele>
        <time>2018-08-12T07:48:41Z</time>
      </trkpt>
      <trkpt lat="43.76473" lon="4.15775">
        <ele>94</ele>
        <time>2018-08-12T07:48:43Z</time>
      </trkpt>
      <trkpt lat="43.76477" lon="4.1577">
        <ele>95</ele>
        <time>2018-08-12T07:48:45Z</time>
      </trkpt>
      <trkpt lat="43.76481" lon="4.15761">
        <ele>95</ele>
        <time>2018-08-12T07:48:48Z</time>
      </trkpt>
      <trkpt lat="43.76485" lon="4.15753">
        <ele>95</ele>
        <time>2018-08-12T07:48:51Z</time>
      </trkpt>
      <trkpt lat="43.76489" lon="4.15746">
        <ele>96</ele>
        <time>2018-08-12T07:48:54Z</time>
      </trkpt>
      <trkpt lat="43.7649" lon="4.15737">
        <ele>96</ele>
        <time>2018-08-12T07:48:57Z</time>
      </trkpt>
      <trkpt lat="43.76491" lon="4.1573">
        <ele>96</ele>
        <time>2018-08-12T07:48:59Z</time>
      </trkpt>
      <trkpt lat="43.76493" lon="4.15721">
        <ele>96</ele>
        <time>2018-08-12T07:49:01Z</time>
      </trkpt>
      <trkpt lat="43.76495" lon="4.15713">
        <ele>96</ele>
        <time>2018-08-12T07:49:03Z</time>
      </trkpt>
      <trkpt lat="43.76494" lon="4.15704">
        <ele>96</ele>
        <time>2018-08-12T07:49:05Z</time>
      </trkpt>
      <trkpt lat="43.76495" lon="4.15696">
        <ele>96</ele>
        <time>2018-08-12T07:49:07Z</time>
      </trkpt>
      <trkpt lat="43.76497" lon="4.15688">
        <ele>96</ele>
        <time>2018-08-12T07:49:09Z</time>
      </trkpt>
      <trkpt lat="43.76499" lon="4.1568">
        <ele>96</ele>
        <time>2018-08-12T07:49:11Z</time>
      </trkpt>
      <trkpt lat="43.76499" lon="4.15671">
        <ele>96</ele>
        <time>2018-08-12T07:49:13Z</time>
      </trkpt>
      <trkpt lat="43.76499" lon="4.15664">
        <ele>96</ele>
        <time>2018-08-12T07:49:15Z</time>
      </trkpt>
      <trkpt lat="43.765" lon="4.15658">
        <ele>95</ele>
        <time>2018-08-12T07:49:17Z</time>
      </trkpt>
      <trkpt lat="43.76501" lon="4.15651">
        <ele>95</ele>
        <time>2018-08-12T07:49:19Z</time>
      </trkpt>
      <trkpt lat="43.76503" lon="4.15645">
        <ele>94</ele>
        <time>2018-08-12T07:49:21Z</time>
      </trkpt>
      <trkpt lat="43.76505" lon="4.15638">
        <ele>94</ele>
        <time>2018-08-12T07:49:23Z</time>
      </trkpt>
      <trkpt lat="43.76506" lon="4.15631">
        <ele>94</ele>
        <time>2018-08-12T07:49:25Z</time>
      </trkpt>
      <trkpt lat="43.7651" lon="4.15625">
        <ele>93</ele>
        <time>2018-08-12T07:49:28Z</time>
      </trkpt>
      <trkpt lat="43.76513" lon="4.15617">
        <ele>93</ele>
        <time>2018-08-12T07:49:31Z</time>
      </trkpt>
      <trkpt lat="43.76513" lon="4.1561">
        <ele>93</ele>
        <time>2018-08-12T07:49:33Z</time>
      </trkpt>
      <trkpt lat="43.7651" lon="4.156">
        <ele>93</ele>
        <time>2018-08-12T07:49:35Z</time>
      </trkpt>
      <trkpt lat="43.76506" lon="4.1559">
        <ele>92</ele>
        <time>2018-08-12T07:49:37Z</time>
      </trkpt>
      <trkpt lat="43.76504" lon="4.15584">
        <ele>92</ele>
        <time>2018-08-12T07:49:39Z</time>
      </trkpt>
      <trkpt lat="43.76503" lon="4.15576">
        <ele>91</ele>
        <time>2018-08-12T07:49:40Z</time>
      </trkpt>
      <trkpt lat="43.76503" lon="4.15564">
        <ele>90</ele>
        <time>2018-08-12T07:49:42Z</time>
      </trkpt>
      <trkpt lat="43.76505" lon="4.15555">
        <ele>89</ele>
        <time>2018-08-12T07:49:44Z</time>
      </trkpt>
      <trkpt lat="43.76507" lon="4.15544">
        <ele>89</ele>
        <time>2018-08-12T07:49:46Z</time>
      </trkpt>
      <trkpt lat="43.76509" lon="4.15536">
        <ele>88</ele>
        <time>2018-08-12T07:49:48Z</time>
      </trkpt>
      <trkpt lat="43.7651" lon="4.1553">
        <ele>88</ele>
        <time>2018-08-12T07:49:49Z</time>
      </trkpt>
      <trkpt lat="43.7651" lon="4.15523">
        <ele>88</ele>
        <time>2018-08-12T07:49:50Z</time>
      </trkpt>
      <trkpt lat="43.76508" lon="4.15512">
        <ele>88</ele>
        <time>2018-08-12T07:49:52Z</time>
      </trkpt>
      <trkpt lat="43.76505" lon="4.15504">
        <ele>88</ele>
        <time>2018-08-12T07:49:54Z</time>
      </trkpt>
      <trkpt lat="43.76504" lon="4.15496">
        <ele>88</ele>
        <time>2018-08-12T07:49:55Z</time>
      </trkpt>
      <trkpt lat="43.76503" lon="4.15486">
        <ele>87</ele>
        <time>2018-08-12T07:49:57Z</time>
      </trkpt>
      <trkpt lat="43.76504" lon="4.15479">
        <ele>87</ele>
        <time>2018-08-12T07:49:58Z</time>
      </trkpt>
      <trkpt lat="43.76503" lon="4.15471">
        <ele>87</ele>
        <time>2018-08-12T07:50:00Z</time>
      </trkpt>
      <trkpt lat="43.76506" lon="4.15464">
        <ele>86</ele>
        <time>2018-08-12T07:50:01Z</time>
      </trkpt>
      <trkpt lat="43.76506" lon="4.15455">
        <ele>86</ele>
        <time>2018-08-12T07:50:03Z</time>
      </trkpt>
      <trkpt lat="43.76508" lon="4.15448">
        <ele>86</ele>
        <time>2018-08-12T07:50:04Z</time>
      </trkpt>
      <trkpt lat="43.76511" lon="4.15437">
        <ele>86</ele>
        <time>2018-08-12T07:50:06Z</time>
      </trkpt>
      <trkpt lat="43.76514" lon="4.15429">
        <ele>86</ele>
        <time>2018-08-12T07:50:08Z</time>
      </trkpt>
      <trkpt lat="43.76515" lon="4.15422">
        <ele>86</ele>
        <time>2018-08-12T07:50:10Z</time>
      </trkpt>
      <trkpt lat="43.76515" lon="4.15414">
        <ele>87</ele>
        <time>2018-08-12T07:50:12Z</time>
      </trkpt>
      <trkpt lat="43.76512" lon="4.15407">
        <ele>87</ele>
        <time>2018-08-12T07:50:14Z</time>
      </trkpt>
      <trkpt lat="43.76508" lon="4.15403">
        <ele>87</ele>
        <time>2018-08-12T07:50:16Z</time>
      </trkpt>
      <trkpt lat="43.76503" lon="4.154">
        <ele>88</ele>
        <time>2018-08-12T07:50:19Z</time>
      </trkpt>
      <trkpt lat="43.76498" lon="4.15394">
        <ele>88</ele>
        <time>2018-08-12T07:50:22Z</time>
      </trkpt>
      <trkpt lat="43.76492" lon="4.15391">
        <ele>88</ele>
        <time>2018-08-12T07:50:25Z</time>
      </trkpt>
      <trkpt lat="43.76487" lon="4.15387">
        <ele>88</ele>
        <time>2018-08-12T07:50:28Z</time>
      </trkpt>
      <trkpt lat="43.7648" lon="4.15384">
        <ele>88</ele>
        <time>2018-08-12T07:50:31Z</time>
      </trkpt>
      <trkpt lat="43.76474" lon="4.15382">
        <ele>88</ele>
        <time>2018-08-12T07:50:33Z</time>
      </trkpt>
      <trkpt lat="43.76469" lon="4.15381">
        <ele>88</ele>
        <time>2018-08-12T07:50:35Z</time>
      </trkpt>
      <trkpt lat="43.76465" lon="4.1538">
        <ele>88</ele>
        <time>2018-08-12T07:50:37Z</time>
      </trkpt>
      <trkpt lat="43.7646" lon="4.1538">
        <ele>88</ele>
        <time>2018-08-12T07:50:40Z</time>
      </trkpt>
      <trkpt lat="43.76465" lon="4.15378">
        <ele>88</ele>
        <time>2018-08-12T07:50:54Z</time>
      </trkpt>
      <trkpt lat="43.7647" lon="4.15379">
        <ele>88</ele>
        <time>2018-08-12T07:50:58Z</time>
      </trkpt>
      <trkpt lat="43.76475" lon="4.15382">
        <ele>88</ele>
        <time>2018-08-12T07:51:01Z</time>
      </trkpt>
      <trkpt lat="43.7648" lon="4.15382">
        <ele>88</ele>
        <time>2018-08-12T07:51:04Z</time>
      </trkpt>
      <trkpt lat="43.76485" lon="4.15379">
        <ele>88</ele>
        <time>2018-08-12T07:51:07Z</time>
      </trkpt>
      <trkpt lat="43.76487" lon="4.15372">
        <ele>89</ele>
        <time>2018-08-12T07:51:10Z</time>
      </trkpt>
      <trkpt lat="43.76492" lon="4.15366">
        <ele>89</ele>
        <time>2018-08-12T07:51:13Z</time>
      </trkpt>
      <trkpt lat="43.76497" lon="4.15362">
        <ele>89</ele>
        <time>2018-08-12T07:51:15Z</time>
      </trkpt>
      <trkpt lat="43.765" lon="4.15356">
        <ele>89</ele>
        <time>2018-08-12T07:51:17Z</time>
      </trkpt>
      <trkpt lat="43.76504" lon="4.1535">
        <ele>90</ele>
        <time>2018-08-12T07:51:19Z</time>
      </trkpt>
      <trkpt lat="43.76507" lon="4.15343">
        <ele>90</ele>
        <time>2018-08-12T07:51:21Z</time>
      </trkpt>
      <trkpt lat="43.7651" lon="4.15338">
        <ele>90</ele>
        <time>2018-08-12T07:51:23Z</time>
      </trkpt>
      <trkpt lat="43.76515" lon="4.15335">
        <ele>90</ele>
        <time>2018-08-12T07:51:25Z</time>
      </trkpt>
      <trkpt lat="43.7652" lon="4.15334">
        <ele>89</ele>
        <time>2018-08-12T07:51:27Z</time>
      </trkpt>
      <trkpt lat="43.76526" lon="4.15336">
        <ele>89</ele>
        <time>2018-08-12T07:51:29Z</time>
      </trkpt>
      <trkpt lat="43.76531" lon="4.15335">
        <ele>89</ele>
        <time>2018-08-12T07:51:31Z</time>
      </trkpt>
      <trkpt lat="43.76536" lon="4.15335">
        <ele>89</ele>
        <time>2018-08-12T07:51:33Z</time>
      </trkpt>
      <trkpt lat="43.76541" lon="4.15332">
        <ele>92</ele>
        <time>2018-08-12T07:51:35Z</time>
      </trkpt>
      <trkpt lat="43.76545" lon="4.1533">
        <ele>92</ele>
        <time>2018-08-12T07:51:37Z</time>
      </trkpt>
      <trkpt lat="43.76548" lon="4.15322">
        <ele>92</ele>
        <time>2018-08-12T07:51:39Z</time>
      </trkpt>
      <trkpt lat="43.76552" lon="4.15314">
        <ele>92</ele>
        <time>2018-08-12T07:51:41Z</time>
      </trkpt>
      <trkpt lat="43.76555" lon="4.15307">
        <ele>92</ele>
        <time>2018-08-12T07:51:43Z</time>
      </trkpt>
      <trkpt lat="43.76558" lon="4.15302">
        <ele>92</ele>
        <time>2018-08-12T07:51:44Z</time>
      </trkpt>
      <trkpt lat="43.7656" lon="4.15297">
        <ele>92</ele>
        <time>2018-08-12T07:51:46Z</time>
      </trkpt>
      <trkpt lat="43.76564" lon="4.15289">
        <ele>93</ele>
        <time>2018-08-12T07:51:48Z</time>
      </trkpt>
      <trkpt lat="43.76568" lon="4.1528">
        <ele>93</ele>
        <time>2018-08-12T07:51:50Z</time>
      </trkpt>
      <trkpt lat="43.76571" lon="4.15272">
        <ele>93</ele>
        <time>2018-08-12T07:51:52Z</time>
      </trkpt>
      <trkpt lat="43.76574" lon="4.15263">
        <ele>94</ele>
        <time>2018-08-12T07:51:54Z</time>
      </trkpt>
      <trkpt lat="43.76576" lon="4.15257">
        <ele>94</ele>
        <time>2018-08-12T07:51:56Z</time>
      </trkpt>
      <trkpt lat="43.76577" lon="4.15251">
        <ele>94</ele>
        <time>2018-08-12T07:51:57Z</time>
      </trkpt>
      <trkpt lat="43.7658" lon="4.15243">
        <ele>95</ele>
        <time>2018-08-12T07:51:59Z</time>
      </trkpt>
      <trkpt lat="43.76582" lon="4.15235">
        <ele>96</ele>
        <time>2018-08-12T07:52:01Z</time>
      </trkpt>
      <trkpt lat="43.76584" lon="4.15229">
        <ele>94</ele>
        <time>2018-08-12T07:52:03Z</time>
      </trkpt>
      <trkpt lat="43.76587" lon="4.15223">
        <ele>94</ele>
        <time>2018-08-12T07:52:04Z</time>
      </trkpt>
      <trkpt lat="43.7659" lon="4.15218">
        <ele>94</ele>
        <time>2018-08-12T07:52:06Z</time>
      </trkpt>
      <trkpt lat="43.76592" lon="4.15211">
        <ele>94</ele>
        <time>2018-08-12T07:52:07Z</time>
      </trkpt>
      <trkpt lat="43.76594" lon="4.15205">
        <ele>94</ele>
        <time>2018-08-12T07:52:09Z</time>
      </trkpt>
      <trkpt lat="43.76595" lon="4.15198">
        <ele>94</ele>
        <time>2018-08-12T07:52:10Z</time>
      </trkpt>
      <trkpt lat="43.76596" lon="4.15191">
        <ele>94</ele>
        <time>2018-08-12T07:52:12Z</time>
      </trkpt>
      <trkpt lat="43.76597" lon="4.15184">
        <ele>95</ele>
        <time>2018-08-12T07:52:13Z</time>
      </trkpt>
      <trkpt lat="43.76599" lon="4.15174">
        <ele>95</ele>
        <time>2018-08-12T07:52:15Z</time>
      </trkpt>
      <trkpt lat="43.766" lon="4.15166">
        <ele>96</ele>
        <time>2018-08-12T07:52:17Z</time>
      </trkpt>
      <trkpt lat="43.76596" lon="4.15159">
        <ele>96</ele>
        <time>2018-08-12T07:52:19Z</time>
      </trkpt>
      <trkpt lat="43.76592" lon="4.15154">
        <ele>96</ele>
        <time>2018-08-12T07:52:21Z</time>
      </trkpt>
      <trkpt lat="43.76588" lon="4.15147">
        <ele>96</ele>
        <time>2018-08-12T07:52:23Z</time>
      </trkpt>
      <trkpt lat="43.76584" lon="4.1514">
        <ele>96</ele>
        <time>2018-08-12T07:52:25Z</time>
      </trkpt>
      <trkpt lat="43.76579" lon="4.15132">
        <ele>97</ele>
        <time>2018-08-12T07:52:27Z</time>
      </trkpt>
      <trkpt lat="43.76576" lon="4.15124">
        <ele>96</ele>
        <time>2018-08-12T07:52:29Z</time>
      </trkpt>
      <trkpt lat="43.76573" lon="4.15113">
        <ele>96</ele>
        <time>2018-08-12T07:52:31Z</time>
      </trkpt>
      <trkpt lat="43.76572" lon="4.15102">
        <ele>96</ele>
        <time>2018-08-12T07:52:33Z</time>
      </trkpt>
      <trkpt lat="43.76574" lon="4.15091">
        <ele>96</ele>
        <time>2018-08-12T07:52:35Z</time>
      </trkpt>
      <trkpt lat="43.76575" lon="4.15081">
        <ele>95</ele>
        <time>2018-08-12T07:52:37Z</time>
      </trkpt>
      <trkpt lat="43.76576" lon="4.1507">
        <ele>94</ele>
        <time>2018-08-12T07:52:39Z</time>
      </trkpt>
      <trkpt lat="43.76578" lon="4.1506">
        <ele>94</ele>
        <time>2018-08-12T07:52:41Z</time>
      </trkpt>
      <trkpt lat="43.76581" lon="4.1505">
        <ele>93</ele>
        <time>2018-08-12T07:52:43Z</time>
      </trkpt>
      <trkpt lat="43.76584" lon="4.15034">
        <ele>92</ele>
        <time>2018-08-12T07:52:44Z</time>
      </trkpt>
      <trkpt lat="43.76585" lon="4.15026">
        <ele>92</ele>
        <time>2018-08-12T07:52:45Z</time>
      </trkpt>
      <trkpt lat="43.76586" lon="4.15019">
        <ele>91</ele>
        <time>2018-08-12T07:52:46Z</time>
      </trkpt>
      <trkpt lat="43.76585" lon="4.15008">
        <ele>91</ele>
        <time>2018-08-12T07:52:47Z</time>
      </trkpt>
      <trkpt lat="43.7659" lon="4.14998">
        <ele>90</ele>
        <time>2018-08-12T07:52:48Z</time>
      </trkpt>
      <trkpt lat="43.76592" lon="4.14991">
        <ele>89</ele>
        <time>2018-08-12T07:52:49Z</time>
      </trkpt>
      <trkpt lat="43.76595" lon="4.14984">
        <ele>89</ele>
        <time>2018-08-12T07:52:50Z</time>
      </trkpt>
      <trkpt lat="43.76588" lon="4.14989">
        <ele>89</ele>
        <time>2018-08-12T07:52:51Z</time>
      </trkpt>
      <trkpt lat="43.76584" lon="4.14983">
        <ele>89</ele>
        <time>2018-08-12T07:52:52Z</time>
      </trkpt>
      <trkpt lat="43.76584" lon="4.14976">
        <ele>88</ele>
        <time>2018-08-12T07:52:53Z</time>
      </trkpt>
      <trkpt lat="43.76583" lon="4.14966">
        <ele>88</ele>
        <time>2018-08-12T07:52:55Z</time>
      </trkpt>
      <trkpt lat="43.76576" lon="4.14964">
        <ele>88</ele>
        <time>2018-08-12T07:52:56Z</time>
      </trkpt>
      <trkpt lat="43.76571" lon="4.14955">
        <ele>88</ele>
        <time>2018-08-12T07:52:58Z</time>
      </trkpt>
      <trkpt lat="43.76574" lon="4.14947">
        <ele>87</ele>
        <time>2018-08-12T07:53:00Z</time>
      </trkpt>
      <trkpt lat="43.76569" lon="4.14937">
        <ele>87</ele>
        <time>2018-08-12T07:53:02Z</time>
      </trkpt>
      <trkpt lat="43.76568" lon="4.1493">
        <ele>87</ele>
        <time>2018-08-12T07:53:03Z</time>
      </trkpt>
      <trkpt lat="43.76565" lon="4.14925">
        <ele>87</ele>
        <time>2018-08-12T07:53:04Z</time>
      </trkpt>
      <trkpt lat="43.76565" lon="4.14912">
        <ele>85</ele>
        <time>2018-08-12T07:53:06Z</time>
      </trkpt>
      <trkpt lat="43.76567" lon="4.14905">
        <ele>84</ele>
        <time>2018-08-12T07:53:07Z</time>
      </trkpt>
      <trkpt lat="43.76572" lon="4.149">
        <ele>84</ele>
        <time>2018-08-12T07:53:08Z</time>
      </trkpt>
      <trkpt lat="43.76573" lon="4.14893">
        <ele>84</ele>
        <time>2018-08-12T07:53:09Z</time>
      </trkpt>
      <trkpt lat="43.76573" lon="4.14884">
        <ele>84</ele>
        <time>2018-08-12T07:53:11Z</time>
      </trkpt>
      <trkpt lat="43.76575" lon="4.14875">
        <ele>83</ele>
        <time>2018-08-12T07:53:13Z</time>
      </trkpt>
      <trkpt lat="43.76576" lon="4.14867">
        <ele>83</ele>
        <time>2018-08-12T07:53:15Z</time>
      </trkpt>
      <trkpt lat="43.76576" lon="4.1486">
        <ele>83</ele>
        <time>2018-08-12T07:53:16Z</time>
      </trkpt>
      <trkpt lat="43.76577" lon="4.14853">
        <ele>82</ele>
        <time>2018-08-12T07:53:17Z</time>
      </trkpt>
      <trkpt lat="43.76578" lon="4.14841">
        <ele>82</ele>
        <time>2018-08-12T07:53:18Z</time>
      </trkpt>
      <trkpt lat="43.76578" lon="4.1483">
        <ele>81</ele>
        <time>2018-08-12T07:53:20Z</time>
      </trkpt>
      <trkpt lat="43.76584" lon="4.14829">
        <ele>81</ele>
        <time>2018-08-12T07:53:21Z</time>
      </trkpt>
      <trkpt lat="43.76589" lon="4.14828">
        <ele>81</ele>
        <time>2018-08-12T07:53:22Z</time>
      </trkpt>
      <trkpt lat="43.76595" lon="4.14824">
        <ele>81</ele>
        <time>2018-08-12T07:53:24Z</time>
      </trkpt>
      <trkpt lat="43.76602" lon="4.14817">
        <ele>81</ele>
        <time>2018-08-12T07:53:26Z</time>
      </trkpt>
      <trkpt lat="43.76609" lon="4.14809">
        <ele>81</ele>
        <time>2018-08-12T07:53:28Z</time>
      </trkpt>
      <trkpt lat="43.76615" lon="4.14809">
        <ele>81</ele>
        <time>2018-08-12T07:53:30Z</time>
      </trkpt>
      <trkpt lat="43.76622" lon="4.14808">
        <ele>81</ele>
        <time>2018-08-12T07:53:32Z</time>
      </trkpt>
      <trkpt lat="43.76629" lon="4.14805">
        <ele>81</ele>
        <time>2018-08-12T07:53:34Z</time>
      </trkpt>
      <trkpt lat="43.76632" lon="4.14801">
        <ele>81</ele>
        <time>2018-08-12T07:53:36Z</time>
      </trkpt>
      <trkpt lat="43.76634" lon="4.14796">
        <ele>81</ele>
        <time>2018-08-12T07:53:37Z</time>
      </trkpt>
      <trkpt lat="43.76641" lon="4.14792">
        <ele>81</ele>
        <time>2018-08-12T07:53:39Z</time>
      </trkpt>
      <trkpt lat="43.76646" lon="4.14792">
        <ele>81</ele>
        <time>2018-08-12T07:53:40Z</time>
      </trkpt>
      <trkpt lat="43.76651" lon="4.14786">
        <ele>81</ele>
        <time>2018-08-12T07:53:42Z</time>
      </trkpt>
      <trkpt lat="43.76651" lon="4.14775">
        <ele>82</ele>
        <time>2018-08-12T07:53:44Z</time>
      </trkpt>
      <trkpt lat="43.76653" lon="4.14766">
        <ele>82</ele>
        <time>2018-08-12T07:53:46Z</time>
      </trkpt>
      <trkpt lat="43.76654" lon="4.14756">
        <ele>82</ele>
        <time>2018-08-12T07:53:48Z</time>
      </trkpt>
      <trkpt lat="43.76655" lon="4.1475">
        <ele>83</ele>
        <time>2018-08-12T07:53:49Z</time>
      </trkpt>
      <trkpt lat="43.7666" lon="4.14742">
        <ele>83</ele>
        <time>2018-08-12T07:53:51Z</time>
      </trkpt>
      <trkpt lat="43.76663" lon="4.14736">
        <ele>83</ele>
        <time>2018-08-12T07:53:53Z</time>
      </trkpt>
      <trkpt lat="43.76666" lon="4.14728">
        <ele>83</ele>
        <time>2018-08-12T07:53:55Z</time>
      </trkpt>
      <trkpt lat="43.76668" lon="4.1472">
        <ele>81</ele>
        <time>2018-08-12T07:53:57Z</time>
      </trkpt>
      <trkpt lat="43.76673" lon="4.1472">
        <ele>81</ele>
        <time>2018-08-12T07:53:58Z</time>
      </trkpt>
      <trkpt lat="43.76678" lon="4.14718">
        <ele>81</ele>
        <time>2018-08-12T07:54:00Z</time>
      </trkpt>
      <trkpt lat="43.76685" lon="4.14719">
        <ele>80</ele>
        <time>2018-08-12T07:54:02Z</time>
      </trkpt>
      <trkpt lat="43.76691" lon="4.14717">
        <ele>80</ele>
        <time>2018-08-12T07:54:05Z</time>
      </trkpt>
      <trkpt lat="43.76695" lon="4.14712">
        <ele>80</ele>
        <time>2018-08-12T07:54:07Z</time>
      </trkpt>
      <trkpt lat="43.76695" lon="4.14705">
        <ele>80</ele>
        <time>2018-08-12T07:54:09Z</time>
      </trkpt>
      <trkpt lat="43.76696" lon="4.14692">
        <ele>80</ele>
        <time>2018-08-12T07:54:12Z</time>
      </trkpt>
      <trkpt lat="43.76697" lon="4.14682">
        <ele>80</ele>
        <time>2018-08-12T07:54:14Z</time>
      </trkpt>
      <trkpt lat="43.76692" lon="4.14677">
        <ele>81</ele>
        <time>2018-08-12T07:54:15Z</time>
      </trkpt>
      <trkpt lat="43.76691" lon="4.14668">
        <ele>81</ele>
        <time>2018-08-12T07:54:17Z</time>
      </trkpt>
      <trkpt lat="43.76698" lon="4.14664">
        <ele>79</ele>
        <time>2018-08-12T07:54:19Z</time>
      </trkpt>
      <trkpt lat="43.76695" lon="4.14651">
        <ele>79</ele>
        <time>2018-08-12T07:54:21Z</time>
      </trkpt>
      <trkpt lat="43.76691" lon="4.14642">
        <ele>79</ele>
        <time>2018-08-12T07:54:23Z</time>
      </trkpt>
      <trkpt lat="43.76688" lon="4.14634">
        <ele>79</ele>
        <time>2018-08-12T07:54:25Z</time>
      </trkpt>
      <trkpt lat="43.76692" lon="4.14626">
        <ele>78</ele>
        <time>2018-08-12T07:54:27Z</time>
      </trkpt>
      <trkpt lat="43.76694" lon="4.14617">
        <ele>78</ele>
        <time>2018-08-12T07:54:29Z</time>
      </trkpt>
      <trkpt lat="43.7669" lon="4.14607">
        <ele>78</ele>
        <time>2018-08-12T07:54:31Z</time>
      </trkpt>
      <trkpt lat="43.76687" lon="4.14597">
        <ele>78</ele>
        <time>2018-08-12T07:54:33Z</time>
      </trkpt>
      <trkpt lat="43.76686" lon="4.14585">
        <ele>78</ele>
        <time>2018-08-12T07:54:35Z</time>
      </trkpt>
      <trkpt lat="43.76686" lon="4.14577">
        <ele>74</ele>
        <time>2018-08-12T07:54:37Z</time>
      </trkpt>
      <trkpt lat="43.76687" lon="4.14566">
        <ele>73</ele>
        <time>2018-08-12T07:54:39Z</time>
      </trkpt>
      <trkpt lat="43.76687" lon="4.14554">
        <ele>72</ele>
        <time>2018-08-12T07:54:41Z</time>
      </trkpt>
      <trkpt lat="43.76688" lon="4.14544">
        <ele>71</ele>
        <time>2018-08-12T07:54:43Z</time>
      </trkpt>
      <trkpt lat="43.76688" lon="4.14537">
        <ele>71</ele>
        <time>2018-08-12T07:54:45Z</time>
      </trkpt>
      <trkpt lat="43.76691" lon="4.1453">
        <ele>70</ele>
        <time>2018-08-12T07:54:47Z</time>
      </trkpt>
      <trkpt lat="43.76693" lon="4.14523">
        <ele>70</ele>
        <time>2018-08-12T07:54:49Z</time>
      </trkpt>
      <trkpt lat="43.76687" lon="4.14518">
        <ele>70</ele>
        <time>2018-08-12T07:54:50Z</time>
      </trkpt>
      <trkpt lat="43.76683" lon="4.1451">
        <ele>70</ele>
        <time>2018-08-12T07:54:52Z</time>
      </trkpt>
      <trkpt lat="43.76683" lon="4.145">
        <ele>70</ele>
        <time>2018-08-12T07:54:53Z</time>
      </trkpt>
      <trkpt lat="43.76678" lon="4.14493">
        <ele>66</ele>
        <time>2018-08-12T07:54:55Z</time>
      </trkpt>
      <trkpt lat="43.76677" lon="4.14485">
        <ele>66</ele>
        <time>2018-08-12T07:54:57Z</time>
      </trkpt>
      <trkpt lat="43.76677" lon="4.14477">
        <ele>64</ele>
        <time>2018-08-12T07:54:59Z</time>
      </trkpt>
      <trkpt lat="43.76674" lon="4.14472">
        <ele>64</ele>
        <time>2018-08-12T07:55:02Z</time>
      </trkpt>
      <trkpt lat="43.7667" lon="4.14464">
        <ele>63</ele>
        <time>2018-08-12T07:55:04Z</time>
      </trkpt>
      <trkpt lat="43.76676" lon="4.14463">
        <ele>63</ele>
        <time>2018-08-12T07:55:06Z</time>
      </trkpt>
      <trkpt lat="43.76672" lon="4.14454">
        <ele>62</ele>
        <time>2018-08-12T07:55:10Z</time>
      </trkpt>
      <trkpt lat="43.76666" lon="4.1445">
        <ele>66</ele>
        <time>2018-08-12T07:55:12Z</time>
      </trkpt>
      <trkpt lat="43.7666" lon="4.14448">
        <ele>66</ele>
        <time>2018-08-12T07:55:14Z</time>
      </trkpt>
      <trkpt lat="43.76659" lon="4.14441">
        <ele>65</ele>
        <time>2018-08-12T07:55:15Z</time>
      </trkpt>
      <trkpt lat="43.76657" lon="4.14434">
        <ele>65</ele>
        <time>2018-08-12T07:55:17Z</time>
      </trkpt>
      <trkpt lat="43.76654" lon="4.14427">
        <ele>64</ele>
        <time>2018-08-12T07:55:19Z</time>
      </trkpt>
      <trkpt lat="43.76648" lon="4.14423">
        <ele>64</ele>
        <time>2018-08-12T07:55:21Z</time>
      </trkpt>
      <trkpt lat="43.76644" lon="4.14417">
        <ele>65</ele>
        <time>2018-08-12T07:55:23Z</time>
      </trkpt>
      <trkpt lat="43.76641" lon="4.14411">
        <ele>60</ele>
        <time>2018-08-12T07:55:25Z</time>
      </trkpt>
      <trkpt lat="43.76638" lon="4.14406">
        <ele>60</ele>
        <time>2018-08-12T07:55:27Z</time>
      </trkpt>
      <trkpt lat="43.76635" lon="4.144">
        <ele>60</ele>
        <time>2018-08-12T07:55:29Z</time>
      </trkpt>
      <trkpt lat="43.76638" lon="4.14393">
        <ele>60</ele>
        <time>2018-08-12T07:55:31Z</time>
      </trkpt>
      <trkpt lat="43.76634" lon="4.14386">
        <ele>60</ele>
        <time>2018-08-12T07:55:34Z</time>
      </trkpt>
      <trkpt lat="43.76632" lon="4.14378">
        <ele>59</ele>
        <time>2018-08-12T07:55:37Z</time>
      </trkpt>
      <trkpt lat="43.76631" lon="4.1437">
        <ele>59</ele>
        <time>2018-08-12T07:55:39Z</time>
      </trkpt>
      <trkpt lat="43.76635" lon="4.14369">
        <ele>59</ele>
        <time>2018-08-12T07:55:41Z</time>
      </trkpt>
      <trkpt lat="43.7664" lon="4.1437">
        <ele>59</ele>
        <time>2018-08-12T07:55:44Z</time>
      </trkpt>
      <trkpt lat="43.76645" lon="4.14371">
        <ele>59</ele>
        <time>2018-08-12T07:55:47Z</time>
      </trkpt>
      <trkpt lat="43.76651" lon="4.14368">
        <ele>59</ele>
        <time>2018-08-12T07:55:51Z</time>
      </trkpt>
      <trkpt lat="43.76656" lon="4.14367">
        <ele>58</ele>
        <time>2018-08-12T07:55:53Z</time>
      </trkpt>
      <trkpt lat="43.7666" lon="4.14368">
        <ele>58</ele>
        <time>2018-08-12T07:55:56Z</time>
      </trkpt>
      <trkpt lat="43.76665" lon="4.14369">
        <ele>58</ele>
        <time>2018-08-12T07:55:59Z</time>
      </trkpt>
      <trkpt lat="43.76669" lon="4.14371">
        <ele>57</ele>
        <time>2018-08-12T07:56:04Z</time>
      </trkpt>
      <trkpt lat="43.76673" lon="4.14372">
        <ele>57</ele>
        <time>2018-08-12T07:56:26Z</time>
      </trkpt>
      <trkpt lat="43.76673" lon="4.14372">
        <ele>57</ele>
        <time>2018-08-12T07:56:27Z</time>
      </trkpt>
      <trkpt lat="43.76673" lon="4.14372">
        <ele>57</ele>
        <time>2018-08-12T07:56:56Z</time>
      </trkpt>
      <trkpt lat="43.76673" lon="4.14372">
        <ele>57</ele>
        <time>2018-08-12T07:56:57Z</time>
      </trkpt>
      <trkpt lat="43.76673" lon="4.14371">
        <ele>57</ele>
        <time>2018-08-12T07:57:26Z</time>
      </trkpt>
      <trkpt lat="43.76673" lon="4.14371">
        <ele>57</ele>
        <time>2018-08-12T07:57:27Z</time>
      </trkpt>
      <trkpt lat="43.76673" lon="4.14371">
        <ele>57</ele>
        <time>2018-08-12T07:57:56Z</time>
      </trkpt>
      <trkpt lat="43.76673" lon="4.14371">
        <ele>57</ele>
        <time>2018-08-12T07:57:57Z</time>
      </trkpt>
      <trkpt lat="43.76673" lon="4.14371">
        <ele>57</ele>
        <time>2018-08-12T07:58:26Z</time>
      </trkpt>
      <trkpt lat="43.76673" lon="4.14371">
        <ele>57</ele>
        <time>2018-08-12T07:58:27Z</time>
      </trkpt>
      <trkpt lat="43.76673" lon="4.14371">
        <ele>57</ele>
        <time>2018-08-12T07:58:56Z</time>
      </trkpt>
      <trkpt lat="43.76673" lon="4.14371">
        <ele>57</ele>
        <time>2018-08-12T07:58:57Z</time>
      </trkpt>
      <trkpt lat="43.76674" lon="4.14374">
        <ele>57</ele>
        <time>2018-08-12T07:59:26Z</time>
      </trkpt>
      <trkpt lat="43.76674" lon="4.14374">
        <ele>57</ele>
        <time>2018-08-12T07:59:27Z</time>
      </trkpt>
      <trkpt lat="43.7668" lon="4.14373">
        <ele>57</ele>
        <time>2018-08-12T07:59:43Z</time>
      </trkpt>
      <trkpt lat="43.76684" lon="4.14368">
        <ele>56</ele>
        <time>2018-08-12T07:59:46Z</time>
      </trkpt>
      <trkpt lat="43.76689" lon="4.14364">
        <ele>56</ele>
        <time>2018-08-12T07:59:49Z</time>
      </trkpt>
      <trkpt lat="43.76694" lon="4.1436">
        <ele>56</ele>
        <time>2018-08-12T07:59:52Z</time>
      </trkpt>
      <trkpt lat="43.76699" lon="4.14355">
        <ele>56</ele>
        <time>2018-08-12T07:59:55Z</time>
      </trkpt>
      <trkpt lat="43.767" lon="4.14346">
        <ele>56</ele>
        <time>2018-08-12T07:59:58Z</time>
      </trkpt>
      <trkpt lat="43.767" lon="4.1434">
        <ele>56</ele>
        <time>2018-08-12T08:00:00Z</time>
      </trkpt>
      <trkpt lat="43.76699" lon="4.14332">
        <ele>57</ele>
        <time>2018-08-12T08:00:03Z</time>
      </trkpt>
      <trkpt lat="43.76698" lon="4.14324">
        <ele>57</ele>
        <time>2018-08-12T08:00:06Z</time>
      </trkpt>
      <trkpt lat="43.76697" lon="4.14317">
        <ele>57</ele>
        <time>2018-08-12T08:00:09Z</time>
      </trkpt>
      <trkpt lat="43.76698" lon="4.14311">
        <ele>58</ele>
        <time>2018-08-12T08:00:12Z</time>
      </trkpt>
      <trkpt lat="43.76703" lon="4.14308">
        <ele>58</ele>
        <time>2018-08-12T08:00:15Z</time>
      </trkpt>
      <trkpt lat="43.76706" lon="4.14302">
        <ele>58</ele>
        <time>2018-08-12T08:00:18Z</time>
      </trkpt>
      <trkpt lat="43.76712" lon="4.143">
        <ele>58</ele>
        <time>2018-08-12T08:00:21Z</time>
      </trkpt>
      <trkpt lat="43.76717" lon="4.14296">
        <ele>58</ele>
        <time>2018-08-12T08:00:24Z</time>
      </trkpt>
      <trkpt lat="43.76721" lon="4.1429">
        <ele>58</ele>
        <time>2018-08-12T08:00:27Z</time>
      </trkpt>
      <trkpt lat="43.76725" lon="4.14285">
        <ele>58</ele>
        <time>2018-08-12T08:00:30Z</time>
      </trkpt>
      <trkpt lat="43.7673" lon="4.14277">
        <ele>58</ele>
        <time>2018-08-12T08:00:33Z</time>
      </trkpt>
      <trkpt lat="43.76734" lon="4.14269">
        <ele>59</ele>
        <time>2018-08-12T08:00:36Z</time>
      </trkpt>
      <trkpt lat="43.76738" lon="4.14262">
        <ele>59</ele>
        <time>2018-08-12T08:00:39Z</time>
      </trkpt>
      <trkpt lat="43.7674" lon="4.14255">
        <ele>59</ele>
        <time>2018-08-12T08:00:42Z</time>
      </trkpt>
      <trkpt lat="43.76737" lon="4.14248">
        <ele>61</ele>
        <time>2018-08-12T08:00:45Z</time>
      </trkpt>
      <trkpt lat="43.76734" lon="4.14241">
        <ele>62</ele>
        <time>2018-08-12T08:00:48Z</time>
      </trkpt>
      <trkpt lat="43.76733" lon="4.14234">
        <ele>63</ele>
        <time>2018-08-12T08:00:51Z</time>
      </trkpt>
      <trkpt lat="43.76734" lon="4.14226">
        <ele>63</ele>
        <time>2018-08-12T08:00:55Z</time>
      </trkpt>
      <trkpt lat="43.76733" lon="4.1422">
        <ele>64</ele>
        <time>2018-08-12T08:00:58Z</time>
      </trkpt>
      <trkpt lat="43.76735" lon="4.14214">
        <ele>64</ele>
        <time>2018-08-12T08:01:00Z</time>
      </trkpt>
      <trkpt lat="43.76738" lon="4.14207">
        <ele>64</ele>
        <time>2018-08-12T08:01:03Z</time>
      </trkpt>
      <trkpt lat="43.76742" lon="4.14203">
        <ele>64</ele>
        <time>2018-08-12T08:01:06Z</time>
      </trkpt>
      <trkpt lat="43.76743" lon="4.14196">
        <ele>65</ele>
        <time>2018-08-12T08:01:09Z</time>
      </trkpt>
      <trkpt lat="43.76744" lon="4.14188">
        <ele>65</ele>
        <time>2018-08-12T08:01:12Z</time>
      </trkpt>
      <trkpt lat="43.76746" lon="4.14181">
        <ele>65</ele>
        <time>2018-08-12T08:01:15Z</time>
      </trkpt>
      <trkpt lat="43.76744" lon="4.14175">
        <ele>66</ele>
        <time>2018-08-12T08:01:18Z</time>
      </trkpt>
      <trkpt lat="43.76739" lon="4.14172">
        <ele>66</ele>
        <time>2018-08-12T08:01:21Z</time>
      </trkpt>
      <trkpt lat="43.76735" lon="4.14171">
        <ele>66</ele>
        <time>2018-08-12T08:01:24Z</time>
      </trkpt>
      <trkpt lat="43.76729" lon="4.14169">
        <ele>66</ele>
        <time>2018-08-12T08:01:28Z</time>
      </trkpt>
      <trkpt lat="43.76724" lon="4.1417">
        <ele>66</ele>
        <time>2018-08-12T08:01:31Z</time>
      </trkpt>
      <trkpt lat="43.76719" lon="4.14169">
        <ele>66</ele>
        <time>2018-08-12T08:01:35Z</time>
      </trkpt>
      <trkpt lat="43.76716" lon="4.14163">
        <ele>70</ele>
        <time>2018-08-12T08:01:38Z</time>
      </trkpt>
      <trkpt lat="43.76714" lon="4.14157">
        <ele>71</ele>
        <time>2018-08-12T08:01:40Z</time>
      </trkpt>
      <trkpt lat="43.76714" lon="4.1415">
        <ele>71</ele>
        <time>2018-08-12T08:01:44Z</time>
      </trkpt>
      <trkpt lat="43.76716" lon="4.1414">
        <ele>71</ele>
        <time>2018-08-12T08:01:48Z</time>
      </trkpt>
      <trkpt lat="43.76715" lon="4.14132">
        <ele>72</ele>
        <time>2018-08-12T08:01:52Z</time>
      </trkpt>
      <trkpt lat="43.76717" lon="4.14126">
        <ele>72</ele>
        <time>2018-08-12T08:01:56Z</time>
      </trkpt>
      <trkpt lat="43.76719" lon="4.14118">
        <ele>72</ele>
        <time>2018-08-12T08:02:00Z</time>
      </trkpt>
      <trkpt lat="43.7672" lon="4.14108">
        <ele>72</ele>
        <time>2018-08-12T08:02:04Z</time>
      </trkpt>
      <trkpt lat="43.76719" lon="4.14102">
        <ele>73</ele>
        <time>2018-08-12T08:02:07Z</time>
      </trkpt>
      <trkpt lat="43.76719" lon="4.14095">
        <ele>73</ele>
        <time>2018-08-12T08:02:10Z</time>
      </trkpt>
      <trkpt lat="43.7672" lon="4.14089">
        <ele>73</ele>
        <time>2018-08-12T08:02:13Z</time>
      </trkpt>
      <trkpt lat="43.76723" lon="4.14083">
        <ele>77</ele>
        <time>2018-08-12T08:02:16Z</time>
      </trkpt>
      <trkpt lat="43.76727" lon="4.14076">
        <ele>77</ele>
        <time>2018-08-12T08:02:19Z</time>
      </trkpt>
      <trkpt lat="43.76727" lon="4.14068">
        <ele>78</ele>
        <time>2018-08-12T08:02:22Z</time>
      </trkpt>
      <trkpt lat="43.76724" lon="4.14063">
        <ele>78</ele>
        <time>2018-08-12T08:02:25Z</time>
      </trkpt>
      <trkpt lat="43.76724" lon="4.14055">
        <ele>78</ele>
        <time>2018-08-12T08:02:29Z</time>
      </trkpt>
      <trkpt lat="43.76719" lon="4.14053">
        <ele>79</ele>
        <time>2018-08-12T08:02:32Z</time>
      </trkpt>
      <trkpt lat="43.76717" lon="4.14046">
        <ele>79</ele>
        <time>2018-08-12T08:02:36Z</time>
      </trkpt>
      <trkpt lat="43.76719" lon="4.14038">
        <ele>79</ele>
        <time>2018-08-12T08:02:40Z</time>
      </trkpt>
      <trkpt lat="43.7672" lon="4.14032">
        <ele>80</ele>
        <time>2018-08-12T08:02:43Z</time>
      </trkpt>
      <trkpt lat="43.7672" lon="4.14025">
        <ele>80</ele>
        <time>2018-08-12T08:02:45Z</time>
      </trkpt>
      <trkpt lat="43.76723" lon="4.14018">
        <ele>80</ele>
        <time>2018-08-12T08:02:48Z</time>
      </trkpt>
      <trkpt lat="43.76727" lon="4.14012">
        <ele>81</ele>
        <time>2018-08-12T08:02:51Z</time>
      </trkpt>
      <trkpt lat="43.76729" lon="4.14007">
        <ele>81</ele>
        <time>2018-08-12T08:02:54Z</time>
      </trkpt>
      <trkpt lat="43.76731" lon="4.14001">
        <ele>81</ele>
        <time>2018-08-12T08:02:58Z</time>
      </trkpt>
      <trkpt lat="43.76735" lon="4.13997">
        <ele>84</ele>
        <time>2018-08-12T08:03:01Z</time>
      </trkpt>
      <trkpt lat="43.76734" lon="4.13991">
        <ele>84</ele>
        <time>2018-08-12T08:03:05Z</time>
      </trkpt>
      <trkpt lat="43.76729" lon="4.1399">
        <ele>85</ele>
        <time>2018-08-12T08:03:08Z</time>
      </trkpt>
      <trkpt lat="43.76724" lon="4.13986">
        <ele>85</ele>
        <time>2018-08-12T08:03:11Z</time>
      </trkpt>
      <trkpt lat="43.76719" lon="4.13983">
        <ele>85</ele>
        <time>2018-08-12T08:03:14Z</time>
      </trkpt>
      <trkpt lat="43.76715" lon="4.13978">
        <ele>86</ele>
        <time>2018-08-12T08:03:17Z</time>
      </trkpt>
      <trkpt lat="43.76711" lon="4.13974">
        <ele>86</ele>
        <time>2018-08-12T08:03:20Z</time>
      </trkpt>
      <trkpt lat="43.76708" lon="4.13969">
        <ele>86</ele>
        <time>2018-08-12T08:03:23Z</time>
      </trkpt>
      <trkpt lat="43.76709" lon="4.13962">
        <ele>86</ele>
        <time>2018-08-12T08:03:27Z</time>
      </trkpt>
      <trkpt lat="43.76708" lon="4.13955">
        <ele>87</ele>
        <time>2018-08-12T08:03:31Z</time>
      </trkpt>
      <trkpt lat="43.76704" lon="4.13953">
        <ele>87</ele>
        <time>2018-08-12T08:03:34Z</time>
      </trkpt>
      <trkpt lat="43.767" lon="4.13949">
        <ele>87</ele>
        <time>2018-08-12T08:03:37Z</time>
      </trkpt>
      <trkpt lat="43.76701" lon="4.13943">
        <ele>87</ele>
        <time>2018-08-12T08:03:41Z</time>
      </trkpt>
      <trkpt lat="43.76705" lon="4.13938">
        <ele>87</ele>
        <time>2018-08-12T08:03:44Z</time>
      </trkpt>
      <trkpt lat="43.76703" lon="4.13932">
        <ele>88</ele>
        <time>2018-08-12T08:03:48Z</time>
      </trkpt>
      <trkpt lat="43.76702" lon="4.13925">
        <ele>88</ele>
        <time>2018-08-12T08:03:51Z</time>
      </trkpt>
      <trkpt lat="43.767" lon="4.13919">
        <ele>88</ele>
        <time>2018-08-12T08:03:55Z</time>
      </trkpt>
      <trkpt lat="43.76695" lon="4.1392">
        <ele>88</ele>
        <time>2018-08-12T08:03:58Z</time>
      </trkpt>
      <trkpt lat="43.7669" lon="4.13919">
        <ele>89</ele>
        <time>2018-08-12T08:04:01Z</time>
      </trkpt>
      <trkpt lat="43.76688" lon="4.13912">
        <ele>90</ele>
        <time>2018-08-12T08:04:04Z</time>
      </trkpt>
      <trkpt lat="43.76688" lon="4.13904">
        <ele>90</ele>
        <time>2018-08-12T08:04:08Z</time>
      </trkpt>
      <trkpt lat="43.76684" lon="4.13899">
        <ele>90</ele>
        <time>2018-08-12T08:04:11Z</time>
      </trkpt>
      <trkpt lat="43.76681" lon="4.13893">
        <ele>90</ele>
        <time>2018-08-12T08:04:14Z</time>
      </trkpt>
      <trkpt lat="43.76675" lon="4.13889">
        <ele>90</ele>
        <time>2018-08-12T08:04:17Z</time>
      </trkpt>
      <trkpt lat="43.7667" lon="4.13893">
        <ele>90</ele>
        <time>2018-08-12T08:04:21Z</time>
      </trkpt>
      <trkpt lat="43.76668" lon="4.13898">
        <ele>90</ele>
        <time>2018-08-12T08:04:24Z</time>
      </trkpt>
      <trkpt lat="43.76666" lon="4.13907">
        <ele>91</ele>
        <time>2018-08-12T08:04:27Z</time>
      </trkpt>
      <trkpt lat="43.76662" lon="4.13912">
        <ele>91</ele>
        <time>2018-08-12T08:04:30Z</time>
      </trkpt>
      <trkpt lat="43.76657" lon="4.13908">
        <ele>90</ele>
        <time>2018-08-12T08:04:33Z</time>
      </trkpt>
      <trkpt lat="43.76652" lon="4.13904">
        <ele>90</ele>
        <time>2018-08-12T08:04:36Z</time>
      </trkpt>
      <trkpt lat="43.76648" lon="4.13896">
        <ele>89</ele>
        <time>2018-08-12T08:04:39Z</time>
      </trkpt>
      <trkpt lat="43.76643" lon="4.13892">
        <ele>89</ele>
        <time>2018-08-12T08:04:41Z</time>
      </trkpt>
      <trkpt lat="43.76638" lon="4.13889">
        <ele>89</ele>
        <time>2018-08-12T08:04:43Z</time>
      </trkpt>
      <trkpt lat="43.76635" lon="4.13893">
        <ele>89</ele>
        <time>2018-08-12T08:04:45Z</time>
      </trkpt>
      <trkpt lat="43.76632" lon="4.139">
        <ele>89</ele>
        <time>2018-08-12T08:04:47Z</time>
      </trkpt>
      <trkpt lat="43.76627" lon="4.13901">
        <ele>88</ele>
        <time>2018-08-12T08:04:49Z</time>
      </trkpt>
      <trkpt lat="43.76622" lon="4.13901">
        <ele>88</ele>
        <time>2018-08-12T08:04:51Z</time>
      </trkpt>
      <trkpt lat="43.76616" lon="4.13902">
        <ele>88</ele>
        <time>2018-08-12T08:04:54Z</time>
      </trkpt>
      <trkpt lat="43.76615" lon="4.13904">
        <ele>88</ele>
        <time>2018-08-12T08:05:11Z</time>
      </trkpt>
      <trkpt lat="43.76615" lon="4.13904">
        <ele>88</ele>
        <time>2018-08-12T08:05:12Z</time>
      </trkpt>
      <trkpt lat="43.76616" lon="4.13907">
        <ele>88</ele>
        <time>2018-08-12T08:05:41Z</time>
      </trkpt>
      <trkpt lat="43.76616" lon="4.13907">
        <ele>88</ele>
        <time>2018-08-12T08:05:42Z</time>
      </trkpt>
      <trkpt lat="43.76616" lon="4.13907">
        <ele>88</ele>
        <time>2018-08-12T08:06:11Z</time>
      </trkpt>
      <trkpt lat="43.76616" lon="4.13907">
        <ele>88</ele>
        <time>2018-08-12T08:06:12Z</time>
      </trkpt>
      <trkpt lat="43.76616" lon="4.13907">
        <ele>88</ele>
        <time>2018-08-12T08:06:41Z</time>
      </trkpt>
      <trkpt lat="43.76616" lon="4.13907">
        <ele>88</ele>
        <time>2018-08-12T08:06:42Z</time>
      </trkpt>
      <trkpt lat="43.76617" lon="4.13913">
        <ele>88</ele>
        <time>2018-08-12T08:07:02Z</time>
      </trkpt>
      <trkpt lat="43.76613" lon="4.1392">
        <ele>87</ele>
        <time>2018-08-12T08:07:06Z</time>
      </trkpt>
      <trkpt lat="43.76608" lon="4.13926">
        <ele>87</ele>
        <time>2018-08-12T08:07:09Z</time>
      </trkpt>
      <trkpt lat="43.76609" lon="4.13933">
        <ele>86</ele>
        <time>2018-08-12T08:07:11Z</time>
      </trkpt>
      <trkpt lat="43.76608" lon="4.13941">
        <ele>86</ele>
        <time>2018-08-12T08:07:14Z</time>
      </trkpt>
      <trkpt lat="43.76605" lon="4.13948">
        <ele>86</ele>
        <time>2018-08-12T08:07:17Z</time>
      </trkpt>
      <trkpt lat="43.766" lon="4.13954">
        <ele>86</ele>
        <time>2018-08-12T08:07:20Z</time>
      </trkpt>
      <trkpt lat="43.76595" lon="4.13953">
        <ele>86</ele>
        <time>2018-08-12T08:07:22Z</time>
      </trkpt>
      <trkpt lat="43.76588" lon="4.13955">
        <ele>86</ele>
        <time>2018-08-12T08:07:24Z</time>
      </trkpt>
      <trkpt lat="43.76582" lon="4.13961">
        <ele>81</ele>
        <time>2018-08-12T08:07:26Z</time>
      </trkpt>
      <trkpt lat="43.76575" lon="4.13966">
        <ele>81</ele>
        <time>2018-08-12T08:07:28Z</time>
      </trkpt>
      <trkpt lat="43.76569" lon="4.13969">
        <ele>81</ele>
        <time>2018-08-12T08:07:30Z</time>
      </trkpt>
      <trkpt lat="43.76565" lon="4.13971">
        <ele>80</ele>
        <time>2018-08-12T08:07:32Z</time>
      </trkpt>
      <trkpt lat="43.76559" lon="4.13967">
        <ele>80</ele>
        <time>2018-08-12T08:07:44Z</time>
      </trkpt>
      <trkpt lat="43.76558" lon="4.13961">
        <ele>80</ele>
        <time>2018-08-12T08:07:47Z</time>
      </trkpt>
      <trkpt lat="43.76557" lon="4.13954">
        <ele>80</ele>
        <time>2018-08-12T08:07:48Z</time>
      </trkpt>
      <trkpt lat="43.76556" lon="4.13946">
        <ele>81</ele>
        <time>2018-08-12T08:07:50Z</time>
      </trkpt>
      <trkpt lat="43.76554" lon="4.13939">
        <ele>81</ele>
        <time>2018-08-12T08:07:52Z</time>
      </trkpt>
      <trkpt lat="43.76553" lon="4.13931">
        <ele>81</ele>
        <time>2018-08-12T08:07:54Z</time>
      </trkpt>
      <trkpt lat="43.76554" lon="4.13924">
        <ele>81</ele>
        <time>2018-08-12T08:07:56Z</time>
      </trkpt>
      <trkpt lat="43.76555" lon="4.13914">
        <ele>81</ele>
        <time>2018-08-12T08:07:58Z</time>
      </trkpt>
      <trkpt lat="43.76556" lon="4.13904">
        <ele>80</ele>
        <time>2018-08-12T08:08:00Z</time>
      </trkpt>
      <trkpt lat="43.76559" lon="4.13894">
        <ele>80</ele>
        <time>2018-08-12T08:08:02Z</time>
      </trkpt>
      <trkpt lat="43.76561" lon="4.13887">
        <ele>80</ele>
        <time>2018-08-12T08:08:04Z</time>
      </trkpt>
      <trkpt lat="43.76559" lon="4.13879">
        <ele>80</ele>
        <time>2018-08-12T08:08:06Z</time>
      </trkpt>
      <trkpt lat="43.76555" lon="4.13875">
        <ele>79</ele>
        <time>2018-08-12T08:08:09Z</time>
      </trkpt>
      <trkpt lat="43.76554" lon="4.13867">
        <ele>79</ele>
        <time>2018-08-12T08:08:13Z</time>
      </trkpt>
      <trkpt lat="43.76553" lon="4.1386">
        <ele>79</ele>
        <time>2018-08-12T08:08:15Z</time>
      </trkpt>
      <trkpt lat="43.7655" lon="4.13851">
        <ele>79</ele>
        <time>2018-08-12T08:08:17Z</time>
      </trkpt>
      <trkpt lat="43.76548" lon="4.13844">
        <ele>79</ele>
        <time>2018-08-12T08:08:19Z</time>
      </trkpt>
      <trkpt lat="43.7655" lon="4.13835">
        <ele>79</ele>
        <time>2018-08-12T08:08:20Z</time>
      </trkpt>
      <trkpt lat="43.76553" lon="4.13823">
        <ele>77</ele>
        <time>2018-08-12T08:08:22Z</time>
      </trkpt>
      <trkpt lat="43.76557" lon="4.13814">
        <ele>78</ele>
        <time>2018-08-12T08:08:24Z</time>
      </trkpt>
      <trkpt lat="43.76562" lon="4.13807">
        <ele>78</ele>
        <time>2018-08-12T08:08:26Z</time>
      </trkpt>
      <trkpt lat="43.76565" lon="4.138">
        <ele>77</ele>
        <time>2018-08-12T08:08:28Z</time>
      </trkpt>
      <trkpt lat="43.76564" lon="4.1379">
        <ele>77</ele>
        <time>2018-08-12T08:08:30Z</time>
      </trkpt>
      <trkpt lat="43.76565" lon="4.13781">
        <ele>77</ele>
        <time>2018-08-12T08:08:32Z</time>
      </trkpt>
      <trkpt lat="43.76566" lon="4.13774">
        <ele>77</ele>
        <time>2018-08-12T08:08:34Z</time>
      </trkpt>
      <trkpt lat="43.76569" lon="4.13766">
        <ele>77</ele>
        <time>2018-08-12T08:08:36Z</time>
      </trkpt>
      <trkpt lat="43.76572" lon="4.13759">
        <ele>77</ele>
        <time>2018-08-12T08:08:38Z</time>
      </trkpt>
      <trkpt lat="43.76576" lon="4.13755">
        <ele>77</ele>
        <time>2018-08-12T08:08:40Z</time>
      </trkpt>
      <trkpt lat="43.76581" lon="4.13749">
        <ele>78</ele>
        <time>2018-08-12T08:08:42Z</time>
      </trkpt>
      <trkpt lat="43.76586" lon="4.13744">
        <ele>79</ele>
        <time>2018-08-12T08:08:44Z</time>
      </trkpt>
      <trkpt lat="43.76589" lon="4.13737">
        <ele>79</ele>
        <time>2018-08-12T08:08:46Z</time>
      </trkpt>
      <trkpt lat="43.76589" lon="4.13729">
        <ele>80</ele>
        <time>2018-08-12T08:08:48Z</time>
      </trkpt>
      <trkpt lat="43.76589" lon="4.13722">
        <ele>80</ele>
        <time>2018-08-12T08:08:50Z</time>
      </trkpt>
      <trkpt lat="43.7659" lon="4.13715">
        <ele>80</ele>
        <time>2018-08-12T08:08:51Z</time>
      </trkpt>
      <trkpt lat="43.76593" lon="4.13707">
        <ele>80</ele>
        <time>2018-08-12T08:08:53Z</time>
      </trkpt>
      <trkpt lat="43.76597" lon="4.13699">
        <ele>80</ele>
        <time>2018-08-12T08:08:55Z</time>
      </trkpt>
      <trkpt lat="43.766" lon="4.13693">
        <ele>80</ele>
        <time>2018-08-12T08:08:57Z</time>
      </trkpt>
      <trkpt lat="43.766" lon="4.13687">
        <ele>80</ele>
        <time>2018-08-12T08:08:58Z</time>
      </trkpt>
      <trkpt lat="43.766" lon="4.13678">
        <ele>80</ele>
        <time>2018-08-12T08:09:00Z</time>
      </trkpt>
      <trkpt lat="43.76601" lon="4.1367">
        <ele>80</ele>
        <time>2018-08-12T08:09:02Z</time>
      </trkpt>
      <trkpt lat="43.76602" lon="4.13663">
        <ele>81</ele>
        <time>2018-08-12T08:09:04Z</time>
      </trkpt>
      <trkpt lat="43.76606" lon="4.13656">
        <ele>81</ele>
        <time>2018-08-12T08:09:07Z</time>
      </trkpt>
      <trkpt lat="43.76609" lon="4.13651">
        <ele>81</ele>
        <time>2018-08-12T08:09:09Z</time>
      </trkpt>
      <trkpt lat="43.76612" lon="4.13643">
        <ele>82</ele>
        <time>2018-08-12T08:09:12Z</time>
      </trkpt>
      <trkpt lat="43.76615" lon="4.13638">
        <ele>82</ele>
        <time>2018-08-12T08:09:14Z</time>
      </trkpt>
      <trkpt lat="43.76614" lon="4.13635">
        <ele>82</ele>
        <time>2018-08-12T08:09:41Z</time>
      </trkpt>
      <trkpt lat="43.76614" lon="4.13635">
        <ele>82</ele>
        <time>2018-08-12T08:09:42Z</time>
      </trkpt>
      <trkpt lat="43.7661" lon="4.13638">
        <ele>82</ele>
        <time>2018-08-12T08:10:04Z</time>
      </trkpt>
      <trkpt lat="43.76606" lon="4.13638">
        <ele>82</ele>
        <time>2018-08-12T08:10:13Z</time>
      </trkpt>
      <trkpt lat="43.76601" lon="4.13632">
        <ele>82</ele>
        <time>2018-08-12T08:10:17Z</time>
      </trkpt>
      <trkpt lat="43.76597" lon="4.13627">
        <ele>82</ele>
        <time>2018-08-12T08:10:19Z</time>
      </trkpt>
      <trkpt lat="43.76592" lon="4.13624">
        <ele>82</ele>
        <time>2018-08-12T08:10:21Z</time>
      </trkpt>
      <trkpt lat="43.76587" lon="4.13624">
        <ele>82</ele>
        <time>2018-08-12T08:10:23Z</time>
      </trkpt>
      <trkpt lat="43.7658" lon="4.13625">
        <ele>81</ele>
        <time>2018-08-12T08:10:25Z</time>
      </trkpt>
      <trkpt lat="43.76573" lon="4.13627">
        <ele>80</ele>
        <time>2018-08-12T08:10:27Z</time>
      </trkpt>
      <trkpt lat="43.76566" lon="4.13629">
        <ele>80</ele>
        <time>2018-08-12T08:10:29Z</time>
      </trkpt>
      <trkpt lat="43.76561" lon="4.13626">
        <ele>80</ele>
        <time>2018-08-12T08:10:31Z</time>
      </trkpt>
      <trkpt lat="43.76556" lon="4.13625">
        <ele>80</ele>
        <time>2018-08-12T08:10:33Z</time>
      </trkpt>
      <trkpt lat="43.7655" lon="4.13626">
        <ele>80</ele>
        <time>2018-08-12T08:10:35Z</time>
      </trkpt>
      <trkpt lat="43.76545" lon="4.13627">
        <ele>80</ele>
        <time>2018-08-12T08:10:37Z</time>
      </trkpt>
      <trkpt lat="43.7654" lon="4.13624">
        <ele>80</ele>
        <time>2018-08-12T08:10:39Z</time>
      </trkpt>
      <trkpt lat="43.76534" lon="4.13622">
        <ele>80</ele>
        <time>2018-08-12T08:10:42Z</time>
      </trkpt>
      <trkpt lat="43.76529" lon="4.13621">
        <ele>80</ele>
        <time>2018-08-12T08:10:44Z</time>
      </trkpt>
      <trkpt lat="43.76522" lon="4.1362">
        <ele>80</ele>
        <time>2018-08-12T08:10:46Z</time>
      </trkpt>
      <trkpt lat="43.76516" lon="4.13618">
        <ele>80</ele>
        <time>2018-08-12T08:10:48Z</time>
      </trkpt>
      <trkpt lat="43.76511" lon="4.13616">
        <ele>81</ele>
        <time>2018-08-12T08:10:50Z</time>
      </trkpt>
      <trkpt lat="43.76506" lon="4.13614">
        <ele>81</ele>
        <time>2018-08-12T08:10:52Z</time>
      </trkpt>
      <trkpt lat="43.76502" lon="4.1361">
        <ele>81</ele>
        <time>2018-08-12T08:10:54Z</time>
      </trkpt>
      <trkpt lat="43.76497" lon="4.13607">
        <ele>81</ele>
        <time>2018-08-12T08:10:56Z</time>
      </trkpt>
      <trkpt lat="43.76492" lon="4.13605">
        <ele>81</ele>
        <time>2018-08-12T08:10:58Z</time>
      </trkpt>
      <trkpt lat="43.76486" lon="4.13602">
        <ele>81</ele>
        <time>2018-08-12T08:11:01Z</time>
      </trkpt>
      <trkpt lat="43.76482" lon="4.13599">
        <ele>81</ele>
        <time>2018-08-12T08:11:09Z</time>
      </trkpt>
      <trkpt lat="43.76481" lon="4.13598">
        <ele>81</ele>
        <time>2018-08-12T08:11:26Z</time>
      </trkpt>
      <trkpt lat="43.76481" lon="4.13597">
        <ele>81</ele>
        <time>2018-08-12T08:11:27Z</time>
      </trkpt>
      <trkpt lat="43.76484" lon="4.13591">
        <ele>82</ele>
        <time>2018-08-12T08:11:30Z</time>
      </trkpt>
      <trkpt lat="43.76486" lon="4.13585">
        <ele>82</ele>
        <time>2018-08-12T08:11:32Z</time>
      </trkpt>
      <trkpt lat="43.76489" lon="4.13578">
        <ele>84</ele>
        <time>2018-08-12T08:11:34Z</time>
      </trkpt>
      <trkpt lat="43.76492" lon="4.13572">
        <ele>84</ele>
        <time>2018-08-12T08:11:36Z</time>
      </trkpt>
      <trkpt lat="43.76495" lon="4.13566">
        <ele>84</ele>
        <time>2018-08-12T08:11:38Z</time>
      </trkpt>
      <trkpt lat="43.76498" lon="4.13559">
        <ele>84</ele>
        <time>2018-08-12T08:11:40Z</time>
      </trkpt>
      <trkpt lat="43.76501" lon="4.13553">
        <ele>85</ele>
        <time>2018-08-12T08:11:42Z</time>
      </trkpt>
      <trkpt lat="43.76503" lon="4.13546">
        <ele>85</ele>
        <time>2018-08-12T08:11:44Z</time>
      </trkpt>
      <trkpt lat="43.76505" lon="4.13538">
        <ele>85</ele>
        <time>2018-08-12T08:11:46Z</time>
      </trkpt>
      <trkpt lat="43.76506" lon="4.13532">
        <ele>85</ele>
        <time>2018-08-12T08:11:48Z</time>
      </trkpt>
      <trkpt lat="43.76509" lon="4.13524">
        <ele>85</ele>
        <time>2018-08-12T08:11:50Z</time>
      </trkpt>
      <trkpt lat="43.76511" lon="4.13515">
        <ele>85</ele>
        <time>2018-08-12T08:11:52Z</time>
      </trkpt>
      <trkpt lat="43.76513" lon="4.13507">
        <ele>85</ele>
        <time>2018-08-12T08:11:54Z</time>
      </trkpt>
      <trkpt lat="43.76515" lon="4.13499">
        <ele>85</ele>
        <time>2018-08-12T08:11:56Z</time>
      </trkpt>
      <trkpt lat="43.76519" lon="4.13492">
        <ele>85</ele>
        <time>2018-08-12T08:11:58Z</time>
      </trkpt>
      <trkpt lat="43.76522" lon="4.13485">
        <ele>85</ele>
        <time>2018-08-12T08:12:00Z</time>
      </trkpt>
      <trkpt lat="43.76526" lon="4.13479">
        <ele>85</ele>
        <time>2018-08-12T08:12:02Z</time>
      </trkpt>
      <trkpt lat="43.7653" lon="4.13472">
        <ele>84</ele>
        <time>2018-08-12T08:12:04Z</time>
      </trkpt>
      <trkpt lat="43.76534" lon="4.13467">
        <ele>84</ele>
        <time>2018-08-12T08:12:06Z</time>
      </trkpt>
      <trkpt lat="43.76532" lon="4.1346">
        <ele>84</ele>
        <time>2018-08-12T08:12:19Z</time>
      </trkpt>
      <trkpt lat="43.76526" lon="4.13459">
        <ele>84</ele>
        <time>2018-08-12T08:12:23Z</time>
      </trkpt>
      <trkpt lat="43.76519" lon="4.13458">
        <ele>84</ele>
        <time>2018-08-12T08:12:26Z</time>
      </trkpt>
      <trkpt lat="43.76514" lon="4.13458">
        <ele>84</ele>
        <time>2018-08-12T08:12:28Z</time>
      </trkpt>
      <trkpt lat="43.76507" lon="4.13457">
        <ele>84</ele>
        <time>2018-08-12T08:12:30Z</time>
      </trkpt>
      <trkpt lat="43.76501" lon="4.13456">
        <ele>85</ele>
        <time>2018-08-12T08:12:32Z</time>
      </trkpt>
      <trkpt lat="43.76495" lon="4.13454">
        <ele>85</ele>
        <time>2018-08-12T08:12:34Z</time>
      </trkpt>
      <trkpt lat="43.76488" lon="4.13452">
        <ele>85</ele>
        <time>2018-08-12T08:12:36Z</time>
      </trkpt>
      <trkpt lat="43.7648" lon="4.13447">
        <ele>85</ele>
        <time>2018-08-12T08:12:38Z</time>
      </trkpt>
      <trkpt lat="43.76476" lon="4.13445">
        <ele>85</ele>
        <time>2018-08-12T08:12:39Z</time>
      </trkpt>
      <trkpt lat="43.76467" lon="4.13442">
        <ele>85</ele>
        <time>2018-08-12T08:12:41Z</time>
      </trkpt>
      <trkpt lat="43.76459" lon="4.1344">
        <ele>85</ele>
        <time>2018-08-12T08:12:43Z</time>
      </trkpt>
      <trkpt lat="43.76451" lon="4.13438">
        <ele>85</ele>
        <time>2018-08-12T08:12:45Z</time>
      </trkpt>
      <trkpt lat="43.76446" lon="4.13434">
        <ele>85</ele>
        <time>2018-08-12T08:12:47Z</time>
      </trkpt>
      <trkpt lat="43.76442" lon="4.1343">
        <ele>85</ele>
        <time>2018-08-12T08:12:50Z</time>
      </trkpt>
      <trkpt lat="43.76435" lon="4.13428">
        <ele>85</ele>
        <time>2018-08-12T08:12:53Z</time>
      </trkpt>
      <trkpt lat="43.7643" lon="4.13427">
        <ele>85</ele>
        <time>2018-08-12T08:12:55Z</time>
      </trkpt>
      <trkpt lat="43.76424" lon="4.13425">
        <ele>85</ele>
        <time>2018-08-12T08:12:57Z</time>
      </trkpt>
      <trkpt lat="43.76418" lon="4.13422">
        <ele>85</ele>
        <time>2018-08-12T08:12:59Z</time>
      </trkpt>
      <trkpt lat="43.76412" lon="4.13416">
        <ele>85</ele>
        <time>2018-08-12T08:13:01Z</time>
      </trkpt>
      <trkpt lat="43.76407" lon="4.1341">
        <ele>85</ele>
        <time>2018-08-12T08:13:03Z</time>
      </trkpt>
      <trkpt lat="43.764" lon="4.13402">
        <ele>84</ele>
        <time>2018-08-12T08:13:05Z</time>
      </trkpt>
      <trkpt lat="43.76394" lon="4.13395">
        <ele>84</ele>
        <time>2018-08-12T08:13:07Z</time>
      </trkpt>
      <trkpt lat="43.7639" lon="4.13388">
        <ele>84</ele>
        <time>2018-08-12T08:13:09Z</time>
      </trkpt>
      <trkpt lat="43.76387" lon="4.1338">
        <ele>84</ele>
        <time>2018-08-12T08:13:11Z</time>
      </trkpt>
      <trkpt lat="43.76386" lon="4.13372">
        <ele>84</ele>
        <time>2018-08-12T08:13:13Z</time>
      </trkpt>
      <trkpt lat="43.76385" lon="4.13365">
        <ele>84</ele>
        <time>2018-08-12T08:13:15Z</time>
      </trkpt>
      <trkpt lat="43.76386" lon="4.13359">
        <ele>84</ele>
        <time>2018-08-12T08:13:17Z</time>
      </trkpt>
      <trkpt lat="43.76391" lon="4.13353">
        <ele>84</ele>
        <time>2018-08-12T08:13:20Z</time>
      </trkpt>
      <trkpt lat="43.76395" lon="4.1335">
        <ele>84</ele>
        <time>2018-08-12T08:13:22Z</time>
      </trkpt>
      <trkpt lat="43.76399" lon="4.13347">
        <ele>84</ele>
        <time>2018-08-12T08:13:24Z</time>
      </trkpt>
      <trkpt lat="43.76403" lon="4.13341">
        <ele>85</ele>
        <time>2018-08-12T08:13:26Z</time>
      </trkpt>
      <trkpt lat="43.76406" lon="4.13336">
        <ele>85</ele>
        <time>2018-08-12T08:13:28Z</time>
      </trkpt>
      <trkpt lat="43.76409" lon="4.13327">
        <ele>84</ele>
        <time>2018-08-12T08:13:30Z</time>
      </trkpt>
      <trkpt lat="43.7641" lon="4.13317">
        <ele>84</ele>
        <time>2018-08-12T08:13:32Z</time>
      </trkpt>
      <trkpt lat="43.7641" lon="4.13306">
        <ele>84</ele>
        <time>2018-08-12T08:13:34Z</time>
      </trkpt>
      <trkpt lat="43.76411" lon="4.13299">
        <ele>84</ele>
        <time>2018-08-12T08:13:36Z</time>
      </trkpt>
      <trkpt lat="43.76409" lon="4.13291">
        <ele>84</ele>
        <time>2018-08-12T08:13:37Z</time>
      </trkpt>
      <trkpt lat="43.76405" lon="4.13281">
        <ele>84</ele>
        <time>2018-08-12T08:13:39Z</time>
      </trkpt>
      <trkpt lat="43.76404" lon="4.13273">
        <ele>84</ele>
        <time>2018-08-12T08:13:41Z</time>
      </trkpt>
      <trkpt lat="43.76404" lon="4.1326">
        <ele>84</ele>
        <time>2018-08-12T08:13:43Z</time>
      </trkpt>
      <trkpt lat="43.76404" lon="4.13254">
        <ele>84</ele>
        <time>2018-08-12T08:13:44Z</time>
      </trkpt>
      <trkpt lat="43.76403" lon="4.13244">
        <ele>83</ele>
        <time>2018-08-12T08:13:46Z</time>
      </trkpt>
      <trkpt lat="43.76399" lon="4.13236">
        <ele>83</ele>
        <time>2018-08-12T08:13:47Z</time>
      </trkpt>
      <trkpt lat="43.76395" lon="4.13228">
        <ele>83</ele>
        <time>2018-08-12T08:13:49Z</time>
      </trkpt>
      <trkpt lat="43.7639" lon="4.13224">
        <ele>83</ele>
        <time>2018-08-12T08:13:50Z</time>
      </trkpt>
      <trkpt lat="43.76387" lon="4.13214">
        <ele>83</ele>
        <time>2018-08-12T08:13:52Z</time>
      </trkpt>
      <trkpt lat="43.76386" lon="4.13202">
        <ele>83</ele>
        <time>2018-08-12T08:13:54Z</time>
      </trkpt>
      <trkpt lat="43.76385" lon="4.13192">
        <ele>83</ele>
        <time>2018-08-12T08:13:56Z</time>
      </trkpt>
      <trkpt lat="43.76385" lon="4.13185">
        <ele>83</ele>
        <time>2018-08-12T08:13:57Z</time>
      </trkpt>
      <trkpt lat="43.76385" lon="4.13175">
        <ele>83</ele>
        <time>2018-08-12T08:13:59Z</time>
      </trkpt>
      <trkpt lat="43.76382" lon="4.13165">
        <ele>82</ele>
        <time>2018-08-12T08:14:00Z</time>
      </trkpt>
      <trkpt lat="43.76382" lon="4.13155">
        <ele>82</ele>
        <time>2018-08-12T08:14:02Z</time>
      </trkpt>
      <trkpt lat="43.7638" lon="4.13147">
        <ele>82</ele>
        <time>2018-08-12T08:14:03Z</time>
      </trkpt>
      <trkpt lat="43.76379" lon="4.13136">
        <ele>82</ele>
        <time>2018-08-12T08:14:05Z</time>
      </trkpt>
      <trkpt lat="43.76374" lon="4.13131">
        <ele>82</ele>
        <time>2018-08-12T08:14:06Z</time>
      </trkpt>
      <trkpt lat="43.76369" lon="4.13124">
        <ele>82</ele>
        <time>2018-08-12T08:14:08Z</time>
      </trkpt>
      <trkpt lat="43.76362" lon="4.13126">
        <ele>82</ele>
        <time>2018-08-12T08:14:09Z</time>
      </trkpt>
      <trkpt lat="43.76357" lon="4.13126">
        <ele>82</ele>
        <time>2018-08-12T08:14:10Z</time>
      </trkpt>
      <trkpt lat="43.76349" lon="4.13128">
        <ele>82</ele>
        <time>2018-08-12T08:14:12Z</time>
      </trkpt>
      <trkpt lat="43.7634" lon="4.1313">
        <ele>83</ele>
        <time>2018-08-12T08:14:13Z</time>
      </trkpt>
      <trkpt lat="43.76334" lon="4.13127">
        <ele>83</ele>
        <time>2018-08-12T08:14:15Z</time>
      </trkpt>
      <trkpt lat="43.76328" lon="4.13124">
        <ele>83</ele>
        <time>2018-08-12T08:14:17Z</time>
      </trkpt>
      <trkpt lat="43.76328" lon="4.13114">
        <ele>83</ele>
        <time>2018-08-12T08:14:18Z</time>
      </trkpt>
      <trkpt lat="43.76324" lon="4.1311">
        <ele>83</ele>
        <time>2018-08-12T08:14:19Z</time>
      </trkpt>
      <trkpt lat="43.76318" lon="4.13101">
        <ele>83</ele>
        <time>2018-08-12T08:14:21Z</time>
      </trkpt>
      <trkpt lat="43.76311" lon="4.13093">
        <ele>83</ele>
        <time>2018-08-12T08:14:23Z</time>
      </trkpt>
      <trkpt lat="43.76308" lon="4.13089">
        <ele>83</ele>
        <time>2018-08-12T08:14:24Z</time>
      </trkpt>
      <trkpt lat="43.76304" lon="4.13084">
        <ele>83</ele>
        <time>2018-08-12T08:14:25Z</time>
      </trkpt>
      <trkpt lat="43.76302" lon="4.13075">
        <ele>82</ele>
        <time>2018-08-12T08:14:26Z</time>
      </trkpt>
      <trkpt lat="43.76296" lon="4.13067">
        <ele>81</ele>
        <time>2018-08-12T08:14:28Z</time>
      </trkpt>
      <trkpt lat="43.76291" lon="4.13069">
        <ele>81</ele>
        <time>2018-08-12T08:14:29Z</time>
      </trkpt>
      <trkpt lat="43.76284" lon="4.13072">
        <ele>81</ele>
        <time>2018-08-12T08:14:31Z</time>
      </trkpt>
      <trkpt lat="43.76278" lon="4.13076">
        <ele>82</ele>
        <time>2018-08-12T08:14:33Z</time>
      </trkpt>
      <trkpt lat="43.7627" lon="4.1308">
        <ele>82</ele>
        <time>2018-08-12T08:14:35Z</time>
      </trkpt>
      <trkpt lat="43.76263" lon="4.13084">
        <ele>82</ele>
        <time>2018-08-12T08:14:37Z</time>
      </trkpt>
      <trkpt lat="43.76257" lon="4.1309">
        <ele>82</ele>
        <time>2018-08-12T08:14:39Z</time>
      </trkpt>
      <trkpt lat="43.76251" lon="4.13096">
        <ele>82</ele>
        <time>2018-08-12T08:14:41Z</time>
      </trkpt>
      <trkpt lat="43.76245" lon="4.13101">
        <ele>82</ele>
        <time>2018-08-12T08:14:43Z</time>
      </trkpt>
      <trkpt lat="43.76239" lon="4.13102">
        <ele>82</ele>
        <time>2018-08-12T08:14:45Z</time>
      </trkpt>
      <trkpt lat="43.76234" lon="4.13103">
        <ele>82</ele>
        <time>2018-08-12T08:14:47Z</time>
      </trkpt>
      <trkpt lat="43.76228" lon="4.13099">
        <ele>82</ele>
        <time>2018-08-12T08:14:48Z</time>
      </trkpt>
      <trkpt lat="43.7622" lon="4.13098">
        <ele>82</ele>
        <time>2018-08-12T08:14:50Z</time>
      </trkpt>
      <trkpt lat="43.76212" lon="4.131">
        <ele>82</ele>
        <time>2018-08-12T08:14:52Z</time>
      </trkpt>
      <trkpt lat="43.76203" lon="4.13101">
        <ele>83</ele>
        <time>2018-08-12T08:14:54Z</time>
      </trkpt>
      <trkpt lat="43.76198" lon="4.13103">
        <ele>83</ele>
        <time>2018-08-12T08:14:55Z</time>
      </trkpt>
      <trkpt lat="43.7619" lon="4.13105">
        <ele>83</ele>
        <time>2018-08-12T08:14:57Z</time>
      </trkpt>
      <trkpt lat="43.76185" lon="4.13106">
        <ele>83</ele>
        <time>2018-08-12T08:14:58Z</time>
      </trkpt>
      <trkpt lat="43.76178" lon="4.13108">
        <ele>83</ele>
        <time>2018-08-12T08:15:00Z</time>
      </trkpt>
      <trkpt lat="43.76173" lon="4.13106">
        <ele>83</ele>
        <time>2018-08-12T08:15:02Z</time>
      </trkpt>
      <trkpt lat="43.76167" lon="4.13111">
        <ele>83</ele>
        <time>2018-08-12T08:15:04Z</time>
      </trkpt>
      <trkpt lat="43.76168" lon="4.1312">
        <ele>83</ele>
        <time>2018-08-12T08:15:05Z</time>
      </trkpt>
      <trkpt lat="43.76166" lon="4.1313">
        <ele>85</ele>
        <time>2018-08-12T08:15:07Z</time>
      </trkpt>
      <trkpt lat="43.76165" lon="4.13138">
        <ele>85</ele>
        <time>2018-08-12T08:15:09Z</time>
      </trkpt>
      <trkpt lat="43.76167" lon="4.13149">
        <ele>83</ele>
        <time>2018-08-12T08:15:11Z</time>
      </trkpt>
      <trkpt lat="43.76167" lon="4.1316">
        <ele>84</ele>
        <time>2018-08-12T08:15:13Z</time>
      </trkpt>
      <trkpt lat="43.76168" lon="4.1317">
        <ele>83</ele>
        <time>2018-08-12T08:15:15Z</time>
      </trkpt>
      <trkpt lat="43.7617" lon="4.13176">
        <ele>83</ele>
        <time>2018-08-12T08:15:16Z</time>
      </trkpt>
      <trkpt lat="43.76172" lon="4.13186">
        <ele>82</ele>
        <time>2018-08-12T08:15:18Z</time>
      </trkpt>
      <trkpt lat="43.76165" lon="4.13192">
        <ele>84</ele>
        <time>2018-08-12T08:15:20Z</time>
      </trkpt>
      <trkpt lat="43.7616" lon="4.13198">
        <ele>84</ele>
        <time>2018-08-12T08:15:22Z</time>
      </trkpt>
      <trkpt lat="43.76153" lon="4.13198">
        <ele>84</ele>
        <time>2018-08-12T08:15:24Z</time>
      </trkpt>
      <trkpt lat="43.76147" lon="4.13202">
        <ele>84</ele>
        <time>2018-08-12T08:15:26Z</time>
      </trkpt>
      <trkpt lat="43.76144" lon="4.13208">
        <ele>84</ele>
        <time>2018-08-12T08:15:28Z</time>
      </trkpt>
      <trkpt lat="43.76141" lon="4.13214">
        <ele>84</ele>
        <time>2018-08-12T08:15:29Z</time>
      </trkpt>
      <trkpt lat="43.76138" lon="4.1322">
        <ele>84</ele>
        <time>2018-08-12T08:15:30Z</time>
      </trkpt>
      <trkpt lat="43.76133" lon="4.13228">
        <ele>84</ele>
        <time>2018-08-12T08:15:32Z</time>
      </trkpt>
      <trkpt lat="43.76127" lon="4.1323">
        <ele>84</ele>
        <time>2018-08-12T08:15:34Z</time>
      </trkpt>
      <trkpt lat="43.76122" lon="4.13236">
        <ele>84</ele>
        <time>2018-08-12T08:15:36Z</time>
      </trkpt>
      <trkpt lat="43.76118" lon="4.13238">
        <ele>85</ele>
        <time>2018-08-12T08:15:37Z</time>
      </trkpt>
      <trkpt lat="43.76114" lon="4.13245">
        <ele>85</ele>
        <time>2018-08-12T08:15:38Z</time>
      </trkpt>
      <trkpt lat="43.76109" lon="4.13251">
        <ele>84</ele>
        <time>2018-08-12T08:15:40Z</time>
      </trkpt>
      <trkpt lat="43.76106" lon="4.1326">
        <ele>84</ele>
        <time>2018-08-12T08:15:41Z</time>
      </trkpt>
      <trkpt lat="43.76101" lon="4.13268">
        <ele>83</ele>
        <time>2018-08-12T08:15:43Z</time>
      </trkpt>
      <trkpt lat="43.761" lon="4.13277">
        <ele>83</ele>
        <time>2018-08-12T08:15:45Z</time>
      </trkpt>
      <trkpt lat="43.76099" lon="4.13291">
        <ele>83</ele>
        <time>2018-08-12T08:15:47Z</time>
      </trkpt>
      <trkpt lat="43.76099" lon="4.13299">
        <ele>82</ele>
        <time>2018-08-12T08:15:49Z</time>
      </trkpt>
      <trkpt lat="43.76094" lon="4.13304">
        <ele>82</ele>
        <time>2018-08-12T08:15:50Z</time>
      </trkpt>
      <trkpt lat="43.76092" lon="4.13313">
        <ele>82</ele>
        <time>2018-08-12T08:15:52Z</time>
      </trkpt>
      <trkpt lat="43.76091" lon="4.13323">
        <ele>82</ele>
        <time>2018-08-12T08:15:58Z</time>
      </trkpt>
      <trkpt lat="43.76093" lon="4.13325">
        <ele>82</ele>
        <time>2018-08-12T08:16:26Z</time>
      </trkpt>
      <trkpt lat="43.76093" lon="4.13325">
        <ele>82</ele>
        <time>2018-08-12T08:16:27Z</time>
      </trkpt>
      <trkpt lat="43.76093" lon="4.13325">
        <ele>82</ele>
        <time>2018-08-12T08:16:56Z</time>
      </trkpt>
      <trkpt lat="43.76093" lon="4.13325">
        <ele>82</ele>
        <time>2018-08-12T08:16:57Z</time>
      </trkpt>
      <trkpt lat="43.76093" lon="4.13325">
        <ele>82</ele>
        <time>2018-08-12T08:17:26Z</time>
      </trkpt>
      <trkpt lat="43.76093" lon="4.13325">
        <ele>82</ele>
        <time>2018-08-12T08:17:27Z</time>
      </trkpt>
      <trkpt lat="43.76093" lon="4.13325">
        <ele>82</ele>
        <time>2018-08-12T08:17:56Z</time>
      </trkpt>
      <trkpt lat="43.76093" lon="4.13325">
        <ele>82</ele>
        <time>2018-08-12T08:17:57Z</time>
      </trkpt>
      <trkpt lat="43.7609" lon="4.13333">
        <ele>81</ele>
        <time>2018-08-12T08:18:25Z</time>
      </trkpt>
      <trkpt lat="43.76086" lon="4.1334">
        <ele>81</ele>
        <time>2018-08-12T08:18:28Z</time>
      </trkpt>
      <trkpt lat="43.76083" lon="4.13346">
        <ele>81</ele>
        <time>2018-08-12T08:18:30Z</time>
      </trkpt>
      <trkpt lat="43.76081" lon="4.13357">
        <ele>81</ele>
        <time>2018-08-12T08:18:32Z</time>
      </trkpt>
      <trkpt lat="43.76078" lon="4.13367">
        <ele>81</ele>
        <time>2018-08-12T08:18:34Z</time>
      </trkpt>
      <trkpt lat="43.76076" lon="4.13377">
        <ele>81</ele>
        <time>2018-08-12T08:18:36Z</time>
      </trkpt>
      <trkpt lat="43.76074" lon="4.13386">
        <ele>80</ele>
        <time>2018-08-12T08:18:38Z</time>
      </trkpt>
      <trkpt lat="43.76073" lon="4.13395">
        <ele>80</ele>
        <time>2018-08-12T08:18:41Z</time>
      </trkpt>
      <trkpt lat="43.76069" lon="4.13403">
        <ele>80</ele>
        <time>2018-08-12T08:18:43Z</time>
      </trkpt>
      <trkpt lat="43.76062" lon="4.13413">
        <ele>80</ele>
        <time>2018-08-12T08:18:45Z</time>
      </trkpt>
      <trkpt lat="43.76059" lon="4.13419">
        <ele>79</ele>
        <time>2018-08-12T08:18:47Z</time>
      </trkpt>
      <trkpt lat="43.76054" lon="4.13426">
        <ele>80</ele>
        <time>2018-08-12T08:18:49Z</time>
      </trkpt>
      <trkpt lat="43.76052" lon="4.13435">
        <ele>80</ele>
        <time>2018-08-12T08:18:51Z</time>
      </trkpt>
      <trkpt lat="43.76056" lon="4.13441">
        <ele>80</ele>
        <time>2018-08-12T08:18:53Z</time>
      </trkpt>
      <trkpt lat="43.76058" lon="4.13449">
        <ele>80</ele>
        <time>2018-08-12T08:18:55Z</time>
      </trkpt>
      <trkpt lat="43.76073" lon="4.13448">
        <ele>79</ele>
        <time>2018-08-12T08:18:56Z</time>
      </trkpt>
      <trkpt lat="43.76078" lon="4.13456">
        <ele>79</ele>
        <time>2018-08-12T08:18:58Z</time>
      </trkpt>
      <trkpt lat="43.76082" lon="4.13464">
        <ele>79</ele>
        <time>2018-08-12T08:19:00Z</time>
      </trkpt>
      <trkpt lat="43.76085" lon="4.13475">
        <ele>78</ele>
        <time>2018-08-12T08:19:02Z</time>
      </trkpt>
      <trkpt lat="43.76089" lon="4.13485">
        <ele>78</ele>
        <time>2018-08-12T08:19:04Z</time>
      </trkpt>
      <trkpt lat="43.7609" lon="4.13492">
        <ele>78</ele>
        <time>2018-08-12T08:19:05Z</time>
      </trkpt>
      <trkpt lat="43.76091" lon="4.13499">
        <ele>77</ele>
        <time>2018-08-12T08:19:06Z</time>
      </trkpt>
      <trkpt lat="43.76092" lon="4.13506">
        <ele>77</ele>
        <time>2018-08-12T08:19:07Z</time>
      </trkpt>
      <trkpt lat="43.76095" lon="4.13517">
        <ele>76</ele>
        <time>2018-08-12T08:19:09Z</time>
      </trkpt>
      <trkpt lat="43.76096" lon="4.13529">
        <ele>76</ele>
        <time>2018-08-12T08:19:11Z</time>
      </trkpt>
      <trkpt lat="43.76098" lon="4.13536">
        <ele>76</ele>
        <time>2018-08-12T08:19:12Z</time>
      </trkpt>
      <trkpt lat="43.76098" lon="4.13542">
        <ele>76</ele>
        <time>2018-08-12T08:19:13Z</time>
      </trkpt>
      <trkpt lat="43.76099" lon="4.13553">
        <ele>75</ele>
        <time>2018-08-12T08:19:15Z</time>
      </trkpt>
      <trkpt lat="43.76099" lon="4.13563">
        <ele>75</ele>
        <time>2018-08-12T08:19:17Z</time>
      </trkpt>
      <trkpt lat="43.761" lon="4.13574">
        <ele>75</ele>
        <time>2018-08-12T08:19:19Z</time>
      </trkpt>
      <trkpt lat="43.761" lon="4.13586">
        <ele>74</ele>
        <time>2018-08-12T08:19:21Z</time>
      </trkpt>
      <trkpt lat="43.76102" lon="4.13592">
        <ele>74</ele>
        <time>2018-08-12T08:19:22Z</time>
      </trkpt>
      <trkpt lat="43.76104" lon="4.13602">
        <ele>73</ele>
        <time>2018-08-12T08:19:24Z</time>
      </trkpt>
      <trkpt lat="43.76106" lon="4.1361">
        <ele>73</ele>
        <time>2018-08-12T08:19:26Z</time>
      </trkpt>
      <trkpt lat="43.76104" lon="4.1362">
        <ele>73</ele>
        <time>2018-08-12T08:19:29Z</time>
      </trkpt>
      <trkpt lat="43.76106" lon="4.13633">
        <ele>73</ele>
        <time>2018-08-12T08:19:31Z</time>
      </trkpt>
      <trkpt lat="43.76107" lon="4.1364">
        <ele>73</ele>
        <time>2018-08-12T08:19:32Z</time>
      </trkpt>
      <trkpt lat="43.76107" lon="4.13646">
        <ele>73</ele>
        <time>2018-08-12T08:19:33Z</time>
      </trkpt>
      <trkpt lat="43.76109" lon="4.13656">
        <ele>73</ele>
        <time>2018-08-12T08:19:35Z</time>
      </trkpt>
      <trkpt lat="43.76109" lon="4.13667">
        <ele>71</ele>
        <time>2018-08-12T08:19:37Z</time>
      </trkpt>
      <trkpt lat="43.76111" lon="4.13677">
        <ele>71</ele>
        <time>2018-08-12T08:19:39Z</time>
      </trkpt>
      <trkpt lat="43.76112" lon="4.13688">
        <ele>70</ele>
        <time>2018-08-12T08:19:41Z</time>
      </trkpt>
      <trkpt lat="43.76114" lon="4.13699">
        <ele>70</ele>
        <time>2018-08-12T08:19:43Z</time>
      </trkpt>
      <trkpt lat="43.76117" lon="4.13709">
        <ele>70</ele>
        <time>2018-08-12T08:19:45Z</time>
      </trkpt>
      <trkpt lat="43.76119" lon="4.13719">
        <ele>69</ele>
        <time>2018-08-12T08:19:47Z</time>
      </trkpt>
      <trkpt lat="43.7612" lon="4.1373">
        <ele>69</ele>
        <time>2018-08-12T08:19:49Z</time>
      </trkpt>
      <trkpt lat="43.76121" lon="4.1374">
        <ele>69</ele>
        <time>2018-08-12T08:19:51Z</time>
      </trkpt>
      <trkpt lat="43.76122" lon="4.13751">
        <ele>67</ele>
        <time>2018-08-12T08:19:53Z</time>
      </trkpt>
      <trkpt lat="43.76122" lon="4.13761">
        <ele>67</ele>
        <time>2018-08-12T08:19:55Z</time>
      </trkpt>
      <trkpt lat="43.7612" lon="4.13771">
        <ele>67</ele>
        <time>2018-08-12T08:19:57Z</time>
      </trkpt>
      <trkpt lat="43.76116" lon="4.1378">
        <ele>66</ele>
        <time>2018-08-12T08:19:59Z</time>
      </trkpt>
      <trkpt lat="43.76112" lon="4.1379">
        <ele>66</ele>
        <time>2018-08-12T08:20:01Z</time>
      </trkpt>
      <trkpt lat="43.7611" lon="4.13795">
        <ele>66</ele>
        <time>2018-08-12T08:20:02Z</time>
      </trkpt>
      <trkpt lat="43.76107" lon="4.13805">
        <ele>66</ele>
        <time>2018-08-12T08:20:04Z</time>
      </trkpt>
      <trkpt lat="43.76104" lon="4.13815">
        <ele>66</ele>
        <time>2018-08-12T08:20:06Z</time>
      </trkpt>
      <trkpt lat="43.76102" lon="4.13825">
        <ele>66</ele>
        <time>2018-08-12T08:20:08Z</time>
      </trkpt>
      <trkpt lat="43.76101" lon="4.13835">
        <ele>65</ele>
        <time>2018-08-12T08:20:10Z</time>
      </trkpt>
      <trkpt lat="43.76098" lon="4.13841">
        <ele>66</ele>
        <time>2018-08-12T08:20:11Z</time>
      </trkpt>
      <trkpt lat="43.76096" lon="4.13851">
        <ele>65</ele>
        <time>2018-08-12T08:20:13Z</time>
      </trkpt>
      <trkpt lat="43.76094" lon="4.13863">
        <ele>65</ele>
        <time>2018-08-12T08:20:14Z</time>
      </trkpt>
      <trkpt lat="43.76091" lon="4.13873">
        <ele>65</ele>
        <time>2018-08-12T08:20:16Z</time>
      </trkpt>
      <trkpt lat="43.76088" lon="4.13882">
        <ele>65</ele>
        <time>2018-08-12T08:20:18Z</time>
      </trkpt>
      <trkpt lat="43.7608" lon="4.13889">
        <ele>69</ele>
        <time>2018-08-12T08:20:20Z</time>
      </trkpt>
      <trkpt lat="43.76072" lon="4.13895">
        <ele>69</ele>
        <time>2018-08-12T08:20:22Z</time>
      </trkpt>
      <trkpt lat="43.76067" lon="4.13898">
        <ele>69</ele>
        <time>2018-08-12T08:20:23Z</time>
      </trkpt>
      <trkpt lat="43.76059" lon="4.13903">
        <ele>69</ele>
        <time>2018-08-12T08:20:25Z</time>
      </trkpt>
      <trkpt lat="43.76054" lon="4.13905">
        <ele>69</ele>
        <time>2018-08-12T08:20:26Z</time>
      </trkpt>
      <trkpt lat="43.76049" lon="4.13909">
        <ele>69</ele>
        <time>2018-08-12T08:20:27Z</time>
      </trkpt>
      <trkpt lat="43.76042" lon="4.13913">
        <ele>70</ele>
        <time>2018-08-12T08:20:29Z</time>
      </trkpt>
      <trkpt lat="43.76038" lon="4.13918">
        <ele>66</ele>
        <time>2018-08-12T08:20:31Z</time>
      </trkpt>
      <trkpt lat="43.7603" lon="4.13926">
        <ele>67</ele>
        <time>2018-08-12T08:20:33Z</time>
      </trkpt>
      <trkpt lat="43.76024" lon="4.13934">
        <ele>67</ele>
        <time>2018-08-12T08:20:35Z</time>
      </trkpt>
      <trkpt lat="43.76019" lon="4.13937">
        <ele>67</ele>
        <time>2018-08-12T08:20:36Z</time>
      </trkpt>
      <trkpt lat="43.76012" lon="4.13944">
        <ele>67</ele>
        <time>2018-08-12T08:20:38Z</time>
      </trkpt>
      <trkpt lat="43.76006" lon="4.13953">
        <ele>67</ele>
        <time>2018-08-12T08:20:40Z</time>
      </trkpt>
      <trkpt lat="43.75999" lon="4.13961">
        <ele>69</ele>
        <time>2018-08-12T08:20:42Z</time>
      </trkpt>
      <trkpt lat="43.75993" lon="4.13968">
        <ele>68</ele>
        <time>2018-08-12T08:20:44Z</time>
      </trkpt>
      <trkpt lat="43.75988" lon="4.13972">
        <ele>68</ele>
        <time>2018-08-12T08:20:45Z</time>
      </trkpt>
      <trkpt lat="43.75985" lon="4.13977">
        <ele>68</ele>
        <time>2018-08-12T08:20:46Z</time>
      </trkpt>
      <trkpt lat="43.75981" lon="4.13985">
        <ele>68</ele>
        <time>2018-08-12T08:20:48Z</time>
      </trkpt>
      <trkpt lat="43.75975" lon="4.1399">
        <ele>68</ele>
        <time>2018-08-12T08:20:50Z</time>
      </trkpt>
      <trkpt lat="43.75969" lon="4.13996">
        <ele>68</ele>
        <time>2018-08-12T08:20:52Z</time>
      </trkpt>
      <trkpt lat="43.75964" lon="4.14001">
        <ele>64</ele>
        <time>2018-08-12T08:20:54Z</time>
      </trkpt>
      <trkpt lat="43.75959" lon="4.14005">
        <ele>64</ele>
        <time>2018-08-12T08:20:56Z</time>
      </trkpt>
      <trkpt lat="43.75953" lon="4.14007">
        <ele>64</ele>
        <time>2018-08-12T08:20:58Z</time>
      </trkpt>
      <trkpt lat="43.75945" lon="4.14009">
        <ele>65</ele>
        <time>2018-08-12T08:21:00Z</time>
      </trkpt>
      <trkpt lat="43.75937" lon="4.14011">
        <ele>65</ele>
        <time>2018-08-12T08:21:02Z</time>
      </trkpt>
      <trkpt lat="43.75929" lon="4.14014">
        <ele>65</ele>
        <time>2018-08-12T08:21:04Z</time>
      </trkpt>
      <trkpt lat="43.75923" lon="4.14022">
        <ele>65</ele>
        <time>2018-08-12T08:21:06Z</time>
      </trkpt>
      <trkpt lat="43.75921" lon="4.14028">
        <ele>64</ele>
        <time>2018-08-12T08:21:07Z</time>
      </trkpt>
      <trkpt lat="43.75921" lon="4.14035">
        <ele>64</ele>
        <time>2018-08-12T08:21:08Z</time>
      </trkpt>
      <trkpt lat="43.75921" lon="4.14047">
        <ele>63</ele>
        <time>2018-08-12T08:21:10Z</time>
      </trkpt>
      <trkpt lat="43.75916" lon="4.14058">
        <ele>61</ele>
        <time>2018-08-12T08:21:12Z</time>
      </trkpt>
      <trkpt lat="43.75911" lon="4.14061">
        <ele>61</ele>
        <time>2018-08-12T08:21:13Z</time>
      </trkpt>
      <trkpt lat="43.75904" lon="4.14068">
        <ele>60</ele>
        <time>2018-08-12T08:21:15Z</time>
      </trkpt>
      <trkpt lat="43.759" lon="4.14073">
        <ele>60</ele>
        <time>2018-08-12T08:21:17Z</time>
      </trkpt>
      <trkpt lat="43.75899" lon="4.1408">
        <ele>60</ele>
        <time>2018-08-12T08:21:19Z</time>
      </trkpt>
      <trkpt lat="43.75899" lon="4.14087">
        <ele>57</ele>
        <time>2018-08-12T08:21:21Z</time>
      </trkpt>
      <trkpt lat="43.75901" lon="4.14097">
        <ele>57</ele>
        <time>2018-08-12T08:21:23Z</time>
      </trkpt>
      <trkpt lat="43.75902" lon="4.14107">
        <ele>57</ele>
        <time>2018-08-12T08:21:25Z</time>
      </trkpt>
      <trkpt lat="43.75903" lon="4.14114">
        <ele>56</ele>
        <time>2018-08-12T08:21:26Z</time>
      </trkpt>
      <trkpt lat="43.75904" lon="4.14125">
        <ele>56</ele>
        <time>2018-08-12T08:21:28Z</time>
      </trkpt>
      <trkpt lat="43.75904" lon="4.14133">
        <ele>55</ele>
        <time>2018-08-12T08:21:29Z</time>
      </trkpt>
      <trkpt lat="43.75902" lon="4.14144">
        <ele>55</ele>
        <time>2018-08-12T08:21:30Z</time>
      </trkpt>
      <trkpt lat="43.75901" lon="4.14151">
        <ele>55</ele>
        <time>2018-08-12T08:21:31Z</time>
      </trkpt>
      <trkpt lat="43.75899" lon="4.14158">
        <ele>54</ele>
        <time>2018-08-12T08:21:32Z</time>
      </trkpt>
      <trkpt lat="43.75899" lon="4.14165">
        <ele>54</ele>
        <time>2018-08-12T08:21:33Z</time>
      </trkpt>
      <trkpt lat="43.75901" lon="4.14174">
        <ele>53</ele>
        <time>2018-08-12T08:21:35Z</time>
      </trkpt>
      <trkpt lat="43.75904" lon="4.1418">
        <ele>53</ele>
        <time>2018-08-12T08:21:36Z</time>
      </trkpt>
      <trkpt lat="43.75905" lon="4.14188">
        <ele>53</ele>
        <time>2018-08-12T08:21:38Z</time>
      </trkpt>
      <trkpt lat="43.759" lon="4.14191">
        <ele>53</ele>
        <time>2018-08-12T08:21:39Z</time>
      </trkpt>
      <trkpt lat="43.75893" lon="4.14194">
        <ele>53</ele>
        <time>2018-08-12T08:21:41Z</time>
      </trkpt>
      <trkpt lat="43.75888" lon="4.14197">
        <ele>52</ele>
        <time>2018-08-12T08:21:43Z</time>
      </trkpt>
      <trkpt lat="43.75882" lon="4.142">
        <ele>52</ele>
        <time>2018-08-12T08:21:45Z</time>
      </trkpt>
      <trkpt lat="43.75881" lon="4.14208">
        <ele>52</ele>
        <time>2018-08-12T08:21:47Z</time>
      </trkpt>
      <trkpt lat="43.75884" lon="4.14214">
        <ele>52</ele>
        <time>2018-08-12T08:21:49Z</time>
      </trkpt>
      <trkpt lat="43.75888" lon="4.14216">
        <ele>52</ele>
        <time>2018-08-12T08:21:51Z</time>
      </trkpt>
      <trkpt lat="43.75893" lon="4.14217">
        <ele>52</ele>
        <time>2018-08-12T08:21:53Z</time>
      </trkpt>
      <trkpt lat="43.75899" lon="4.14216">
        <ele>52</ele>
        <time>2018-08-12T08:21:55Z</time>
      </trkpt>
      <trkpt lat="43.75905" lon="4.14215">
        <ele>52</ele>
        <time>2018-08-12T08:21:57Z</time>
      </trkpt>
      <trkpt lat="43.7591" lon="4.14211">
        <ele>52</ele>
        <time>2018-08-12T08:21:59Z</time>
      </trkpt>
      <trkpt lat="43.75915" lon="4.14207">
        <ele>53</ele>
        <time>2018-08-12T08:22:01Z</time>
      </trkpt>
      <trkpt lat="43.7592" lon="4.14204">
        <ele>54</ele>
        <time>2018-08-12T08:22:03Z</time>
      </trkpt>
      <trkpt lat="43.75925" lon="4.14202">
        <ele>54</ele>
        <time>2018-08-12T08:22:05Z</time>
      </trkpt>
      <trkpt lat="43.7593" lon="4.14197">
        <ele>54</ele>
        <time>2018-08-12T08:22:07Z</time>
      </trkpt>
      <trkpt lat="43.75935" lon="4.14192">
        <ele>54</ele>
        <time>2018-08-12T08:22:09Z</time>
      </trkpt>
      <trkpt lat="43.75939" lon="4.14188">
        <ele>54</ele>
        <time>2018-08-12T08:22:11Z</time>
      </trkpt>
      <trkpt lat="43.75943" lon="4.14185">
        <ele>55</ele>
        <time>2018-08-12T08:22:12Z</time>
      </trkpt>
      <trkpt lat="43.7595" lon="4.1418">
        <ele>55</ele>
        <time>2018-08-12T08:22:14Z</time>
      </trkpt>
      <trkpt lat="43.75957" lon="4.14177">
        <ele>55</ele>
        <time>2018-08-12T08:22:16Z</time>
      </trkpt>
      <trkpt lat="43.75964" lon="4.14173">
        <ele>55</ele>
        <time>2018-08-12T08:22:18Z</time>
      </trkpt>
      <trkpt lat="43.7597" lon="4.1417">
        <ele>55</ele>
        <time>2018-08-12T08:22:20Z</time>
      </trkpt>
      <trkpt lat="43.75976" lon="4.14167">
        <ele>55</ele>
        <time>2018-08-12T08:22:22Z</time>
      </trkpt>
      <trkpt lat="43.75983" lon="4.14162">
        <ele>57</ele>
        <time>2018-08-12T08:22:24Z</time>
      </trkpt>
      <trkpt lat="43.7599" lon="4.14158">
        <ele>57</ele>
        <time>2018-08-12T08:22:26Z</time>
      </trkpt>
      <trkpt lat="43.75997" lon="4.14154">
        <ele>57</ele>
        <time>2018-08-12T08:22:28Z</time>
      </trkpt>
      <trkpt lat="43.76004" lon="4.14148">
        <ele>57</ele>
        <time>2018-08-12T08:22:30Z</time>
      </trkpt>
      <trkpt lat="43.76011" lon="4.14142">
        <ele>58</ele>
        <time>2018-08-12T08:22:32Z</time>
      </trkpt>
      <trkpt lat="43.76018" lon="4.14138">
        <ele>58</ele>
        <time>2018-08-12T08:22:34Z</time>
      </trkpt>
      <trkpt lat="43.76025" lon="4.14133">
        <ele>58</ele>
        <time>2018-08-12T08:22:36Z</time>
      </trkpt>
      <trkpt lat="43.76032" lon="4.14127">
        <ele>58</ele>
        <time>2018-08-12T08:22:38Z</time>
      </trkpt>
      <trkpt lat="43.76039" lon="4.14122">
        <ele>58</ele>
        <time>2018-08-12T08:22:40Z</time>
      </trkpt>
      <trkpt lat="43.76046" lon="4.14117">
        <ele>58</ele>
        <time>2018-08-12T08:22:42Z</time>
      </trkpt>
      <trkpt lat="43.76051" lon="4.14113">
        <ele>58</ele>
        <time>2018-08-12T08:22:44Z</time>
      </trkpt>
      <trkpt lat="43.76055" lon="4.14109">
        <ele>58</ele>
        <time>2018-08-12T08:22:47Z</time>
      </trkpt>
      <trkpt lat="43.76061" lon="4.14108">
        <ele>58</ele>
        <time>2018-08-12T08:22:51Z</time>
      </trkpt>
      <trkpt lat="43.76059" lon="4.14114">
        <ele>58</ele>
        <time>2018-08-12T08:22:52Z</time>
      </trkpt>
      <trkpt lat="43.76055" lon="4.14123">
        <ele>58</ele>
        <time>2018-08-12T08:22:55Z</time>
      </trkpt>
      <trkpt lat="43.76047" lon="4.14132">
        <ele>58</ele>
        <time>2018-08-12T08:22:58Z</time>
      </trkpt>
      <trkpt lat="43.76043" lon="4.14137">
        <ele>58</ele>
        <time>2018-08-12T08:23:00Z</time>
      </trkpt>
      <trkpt lat="43.76039" lon="4.14142">
        <ele>58</ele>
        <time>2018-08-12T08:23:01Z</time>
      </trkpt>
      <trkpt lat="43.76035" lon="4.14148">
        <ele>58</ele>
        <time>2018-08-12T08:23:03Z</time>
      </trkpt>
      <trkpt lat="43.76032" lon="4.14153">
        <ele>58</ele>
        <time>2018-08-12T08:23:04Z</time>
      </trkpt>
      <trkpt lat="43.76028" lon="4.1416">
        <ele>58</ele>
        <time>2018-08-12T08:23:06Z</time>
      </trkpt>
      <trkpt lat="43.76024" lon="4.14164">
        <ele>58</ele>
        <time>2018-08-12T08:23:07Z</time>
      </trkpt>
      <trkpt lat="43.76019" lon="4.14171">
        <ele>57</ele>
        <time>2018-08-12T08:23:09Z</time>
      </trkpt>
      <trkpt lat="43.76016" lon="4.14176">
        <ele>57</ele>
        <time>2018-08-12T08:23:10Z</time>
      </trkpt>
      <trkpt lat="43.76012" lon="4.14181">
        <ele>57</ele>
        <time>2018-08-12T08:23:11Z</time>
      </trkpt>
      <trkpt lat="43.76009" lon="4.14187">
        <ele>57</ele>
        <time>2018-08-12T08:23:12Z</time>
      </trkpt>
      <trkpt lat="43.76006" lon="4.14192">
        <ele>58</ele>
        <time>2018-08-12T08:23:13Z</time>
      </trkpt>
      <trkpt lat="43.76004" lon="4.14197">
        <ele>58</ele>
        <time>2018-08-12T08:23:14Z</time>
      </trkpt>
      <trkpt lat="43.76001" lon="4.14201">
        <ele>58</ele>
        <time>2018-08-12T08:23:15Z</time>
      </trkpt>
      <trkpt lat="43.75995" lon="4.14211">
        <ele>55</ele>
        <time>2018-08-12T08:23:17Z</time>
      </trkpt>
      <trkpt lat="43.75989" lon="4.1422">
        <ele>55</ele>
        <time>2018-08-12T08:23:19Z</time>
      </trkpt>
      <trkpt lat="43.75984" lon="4.1423">
        <ele>56</ele>
        <time>2018-08-12T08:23:21Z</time>
      </trkpt>
      <trkpt lat="43.7598" lon="4.14241">
        <ele>56</ele>
        <time>2018-08-12T08:23:23Z</time>
      </trkpt>
      <trkpt lat="43.75977" lon="4.14247">
        <ele>55</ele>
        <time>2018-08-12T08:23:24Z</time>
      </trkpt>
      <trkpt lat="43.75974" lon="4.14258">
        <ele>54</ele>
        <time>2018-08-12T08:23:26Z</time>
      </trkpt>
      <trkpt lat="43.75972" lon="4.14264">
        <ele>54</ele>
        <time>2018-08-12T08:23:27Z</time>
      </trkpt>
      <trkpt lat="43.75968" lon="4.14273">
        <ele>54</ele>
        <time>2018-08-12T08:23:29Z</time>
      </trkpt>
      <trkpt lat="43.75966" lon="4.14285">
        <ele>54</ele>
        <time>2018-08-12T08:23:31Z</time>
      </trkpt>
      <trkpt lat="43.75963" lon="4.14297">
        <ele>53</ele>
        <time>2018-08-12T08:23:33Z</time>
      </trkpt>
      <trkpt lat="43.75961" lon="4.14303">
        <ele>53</ele>
        <time>2018-08-12T08:23:34Z</time>
      </trkpt>
      <trkpt lat="43.75958" lon="4.14313">
        <ele>53</ele>
        <time>2018-08-12T08:23:36Z</time>
      </trkpt>
      <trkpt lat="43.75957" lon="4.14322">
        <ele>53</ele>
        <time>2018-08-12T08:23:38Z</time>
      </trkpt>
      <trkpt lat="43.75957" lon="4.14334">
        <ele>51</ele>
        <time>2018-08-12T08:23:40Z</time>
      </trkpt>
      <trkpt lat="43.75952" lon="4.14342">
        <ele>51</ele>
        <time>2018-08-12T08:23:41Z</time>
      </trkpt>
      <trkpt lat="43.75951" lon="4.14352">
        <ele>51</ele>
        <time>2018-08-12T08:23:43Z</time>
      </trkpt>
      <trkpt lat="43.7595" lon="4.14362">
        <ele>51</ele>
        <time>2018-08-12T08:23:45Z</time>
      </trkpt>
      <trkpt lat="43.75949" lon="4.14372">
        <ele>50</ele>
        <time>2018-08-12T08:23:47Z</time>
      </trkpt>
      <trkpt lat="43.7595" lon="4.14382">
        <ele>50</ele>
        <time>2018-08-12T08:23:49Z</time>
      </trkpt>
      <trkpt lat="43.75949" lon="4.14389">
        <ele>50</ele>
        <time>2018-08-12T08:23:50Z</time>
      </trkpt>
      <trkpt lat="43.75948" lon="4.14401">
        <ele>50</ele>
        <time>2018-08-12T08:23:52Z</time>
      </trkpt>
      <trkpt lat="43.75947" lon="4.14408">
        <ele>50</ele>
        <time>2018-08-12T08:23:53Z</time>
      </trkpt>
      <trkpt lat="43.75945" lon="4.14419">
        <ele>49</ele>
        <time>2018-08-12T08:23:55Z</time>
      </trkpt>
      <trkpt lat="43.75945" lon="4.14426">
        <ele>49</ele>
        <time>2018-08-12T08:23:56Z</time>
      </trkpt>
      <trkpt lat="43.75942" lon="4.14437">
        <ele>49</ele>
        <time>2018-08-12T08:23:58Z</time>
      </trkpt>
      <trkpt lat="43.7594" lon="4.14442">
        <ele>49</ele>
        <time>2018-08-12T08:23:59Z</time>
      </trkpt>
      <trkpt lat="43.75937" lon="4.14448">
        <ele>49</ele>
        <time>2018-08-12T08:24:00Z</time>
      </trkpt>
      <trkpt lat="43.75935" lon="4.14454">
        <ele>49</ele>
        <time>2018-08-12T08:24:01Z</time>
      </trkpt>
      <trkpt lat="43.75931" lon="4.14461">
        <ele>49</ele>
        <time>2018-08-12T08:24:03Z</time>
      </trkpt>
      <trkpt lat="43.75925" lon="4.14469">
        <ele>49</ele>
        <time>2018-08-12T08:24:05Z</time>
      </trkpt>
      <trkpt lat="43.75919" lon="4.14474">
        <ele>49</ele>
        <time>2018-08-12T08:24:07Z</time>
      </trkpt>
      <trkpt lat="43.75914" lon="4.14475">
        <ele>49</ele>
        <time>2018-08-12T08:24:09Z</time>
      </trkpt>
      <trkpt lat="43.75909" lon="4.1448">
        <ele>49</ele>
        <time>2018-08-12T08:24:11Z</time>
      </trkpt>
      <trkpt lat="43.75903" lon="4.14484">
        <ele>49</ele>
        <time>2018-08-12T08:24:13Z</time>
      </trkpt>
      <trkpt lat="43.75898" lon="4.14492">
        <ele>50</ele>
        <time>2018-08-12T08:24:15Z</time>
      </trkpt>
      <trkpt lat="43.75893" lon="4.14496">
        <ele>50</ele>
        <time>2018-08-12T08:24:17Z</time>
      </trkpt>
      <trkpt lat="43.75888" lon="4.14498">
        <ele>50</ele>
        <time>2018-08-12T08:24:22Z</time>
      </trkpt>
      <trkpt lat="43.75883" lon="4.14501">
        <ele>54</ele>
        <time>2018-08-12T08:24:24Z</time>
      </trkpt>
      <trkpt lat="43.75877" lon="4.14502">
        <ele>54</ele>
        <time>2018-08-12T08:24:26Z</time>
      </trkpt>
      <trkpt lat="43.75872" lon="4.145">
        <ele>51</ele>
        <time>2018-08-12T08:24:28Z</time>
      </trkpt>
      <trkpt lat="43.75867" lon="4.14492">
        <ele>51</ele>
        <time>2018-08-12T08:24:30Z</time>
      </trkpt>
      <trkpt lat="43.75863" lon="4.14487">
        <ele>51</ele>
        <time>2018-08-12T08:24:32Z</time>
      </trkpt>
      <trkpt lat="43.75857" lon="4.14485">
        <ele>51</ele>
        <time>2018-08-12T08:24:33Z</time>
      </trkpt>
      <trkpt lat="43.75853" lon="4.14478">
        <ele>51</ele>
        <time>2018-08-12T08:24:35Z</time>
      </trkpt>
      <trkpt lat="43.75848" lon="4.14482">
        <ele>51</ele>
        <time>2018-08-12T08:24:36Z</time>
      </trkpt>
      <trkpt lat="43.75843" lon="4.14478">
        <ele>51</ele>
        <time>2018-08-12T08:24:38Z</time>
      </trkpt>
      <trkpt lat="43.75837" lon="4.14472">
        <ele>51</ele>
        <time>2018-08-12T08:24:40Z</time>
      </trkpt>
      <trkpt lat="43.75832" lon="4.14461">
        <ele>51</ele>
        <time>2018-08-12T08:24:42Z</time>
      </trkpt>
      <trkpt lat="43.75832" lon="4.14453">
        <ele>51</ele>
        <time>2018-08-12T08:24:44Z</time>
      </trkpt>
      <trkpt lat="43.75827" lon="4.14451">
        <ele>51</ele>
        <time>2018-08-12T08:24:48Z</time>
      </trkpt>
      <trkpt lat="43.75822" lon="4.14452">
        <ele>51</ele>
        <time>2018-08-12T08:24:50Z</time>
      </trkpt>
      <trkpt lat="43.75816" lon="4.14453">
        <ele>51</ele>
        <time>2018-08-12T08:24:52Z</time>
      </trkpt>
      <trkpt lat="43.7581" lon="4.14455">
        <ele>51</ele>
        <time>2018-08-12T08:24:54Z</time>
      </trkpt>
      <trkpt lat="43.75803" lon="4.14457">
        <ele>51</ele>
        <time>2018-08-12T08:24:56Z</time>
      </trkpt>
      <trkpt lat="43.75797" lon="4.14458">
        <ele>51</ele>
        <time>2018-08-12T08:24:58Z</time>
      </trkpt>
      <trkpt lat="43.75789" lon="4.1446">
        <ele>51</ele>
        <time>2018-08-12T08:25:00Z</time>
      </trkpt>
      <trkpt lat="43.75781" lon="4.14462">
        <ele>51</ele>
        <time>2018-08-12T08:25:02Z</time>
      </trkpt>
      <trkpt lat="43.75773" lon="4.14461">
        <ele>51</ele>
        <time>2018-08-12T08:25:04Z</time>
      </trkpt>
      <trkpt lat="43.75765" lon="4.14457">
        <ele>50</ele>
        <time>2018-08-12T08:25:06Z</time>
      </trkpt>
      <trkpt lat="43.75757" lon="4.14455">
        <ele>50</ele>
        <time>2018-08-12T08:25:08Z</time>
      </trkpt>
      <trkpt lat="43.75748" lon="4.14454">
        <ele>49</ele>
        <time>2018-08-12T08:25:10Z</time>
      </trkpt>
      <trkpt lat="43.7574" lon="4.14452">
        <ele>49</ele>
        <time>2018-08-12T08:25:12Z</time>
      </trkpt>
      <trkpt lat="43.75736" lon="4.14451">
        <ele>49</ele>
        <time>2018-08-12T08:25:13Z</time>
      </trkpt>
      <trkpt lat="43.75731" lon="4.14449">
        <ele>49</ele>
        <time>2018-08-12T08:25:14Z</time>
      </trkpt>
      <trkpt lat="43.75724" lon="4.14448">
        <ele>48</ele>
        <time>2018-08-12T08:25:15Z</time>
      </trkpt>
      <trkpt lat="43.75715" lon="4.14449">
        <ele>48</ele>
        <time>2018-08-12T08:25:17Z</time>
      </trkpt>
      <trkpt lat="43.75709" lon="4.14455">
        <ele>49</ele>
        <time>2018-08-12T08:25:19Z</time>
      </trkpt>
      <trkpt lat="43.75703" lon="4.14458">
        <ele>49</ele>
        <time>2018-08-12T08:25:21Z</time>
      </trkpt>
      <trkpt lat="43.75697" lon="4.1446">
        <ele>49</ele>
        <time>2018-08-12T08:25:23Z</time>
      </trkpt>
      <trkpt lat="43.75691" lon="4.14459">
        <ele>49</ele>
        <time>2018-08-12T08:25:25Z</time>
      </trkpt>
      <trkpt lat="43.7568" lon="4.14467">
        <ele>49</ele>
        <time>2018-08-12T08:25:27Z</time>
      </trkpt>
      <trkpt lat="43.75673" lon="4.14468">
        <ele>49</ele>
        <time>2018-08-12T08:25:29Z</time>
      </trkpt>
      <trkpt lat="43.75666" lon="4.14469">
        <ele>47</ele>
        <time>2018-08-12T08:25:31Z</time>
      </trkpt>
      <trkpt lat="43.75658" lon="4.14473">
        <ele>48</ele>
        <time>2018-08-12T08:25:33Z</time>
      </trkpt>
      <trkpt lat="43.75654" lon="4.14478">
        <ele>48</ele>
        <time>2018-08-12T08:25:34Z</time>
      </trkpt>
      <trkpt lat="43.75647" lon="4.14484">
        <ele>48</ele>
        <time>2018-08-12T08:25:36Z</time>
      </trkpt>
      <trkpt lat="43.75641" lon="4.14488">
        <ele>48</ele>
        <time>2018-08-12T08:25:38Z</time>
      </trkpt>
      <trkpt lat="43.75638" lon="4.14493">
        <ele>48</ele>
        <time>2018-08-12T08:25:40Z</time>
      </trkpt>
      <trkpt lat="43.75633" lon="4.145">
        <ele>48</ele>
        <time>2018-08-12T08:25:52Z</time>
      </trkpt>
      <trkpt lat="43.75629" lon="4.14505">
        <ele>53</ele>
        <time>2018-08-12T08:25:54Z</time>
      </trkpt>
      <trkpt lat="43.75626" lon="4.14511">
        <ele>54</ele>
        <time>2018-08-12T08:25:56Z</time>
      </trkpt>
      <trkpt lat="43.7562" lon="4.14516">
        <ele>54</ele>
        <time>2018-08-12T08:25:59Z</time>
      </trkpt>
      <trkpt lat="43.75615" lon="4.14518">
        <ele>54</ele>
        <time>2018-08-12T08:26:01Z</time>
      </trkpt>
      <trkpt lat="43.7561" lon="4.14519">
        <ele>53</ele>
        <time>2018-08-12T08:26:03Z</time>
      </trkpt>
      <trkpt lat="43.75604" lon="4.14521">
        <ele>53</ele>
        <time>2018-08-12T08:26:05Z</time>
      </trkpt>
      <trkpt lat="43.756" lon="4.14523">
        <ele>53</ele>
        <time>2018-08-12T08:26:07Z</time>
      </trkpt>
      <trkpt lat="43.75594" lon="4.14523">
        <ele>53</ele>
        <time>2018-08-12T08:26:09Z</time>
      </trkpt>
      <trkpt lat="43.75589" lon="4.14523">
        <ele>53</ele>
        <time>2018-08-12T08:26:11Z</time>
      </trkpt>
      <trkpt lat="43.75583" lon="4.14524">
        <ele>52</ele>
        <time>2018-08-12T08:26:13Z</time>
      </trkpt>
      <trkpt lat="43.75576" lon="4.14525">
        <ele>52</ele>
        <time>2018-08-12T08:26:15Z</time>
      </trkpt>
      <trkpt lat="43.75569" lon="4.14529">
        <ele>53</ele>
        <time>2018-08-12T08:26:17Z</time>
      </trkpt>
      <trkpt lat="43.75563" lon="4.14531">
        <ele>53</ele>
        <time>2018-08-12T08:26:19Z</time>
      </trkpt>
      <trkpt lat="43.75559" lon="4.1453">
        <ele>53</ele>
        <time>2018-08-12T08:26:21Z</time>
      </trkpt>
      <trkpt lat="43.75554" lon="4.14527">
        <ele>53</ele>
        <time>2018-08-12T08:26:23Z</time>
      </trkpt>
      <trkpt lat="43.75549" lon="4.14526">
        <ele>53</ele>
        <time>2018-08-12T08:26:25Z</time>
      </trkpt>
      <trkpt lat="43.75543" lon="4.14524">
        <ele>53</ele>
        <time>2018-08-12T08:26:27Z</time>
      </trkpt>
      <trkpt lat="43.75538" lon="4.14525">
        <ele>53</ele>
        <time>2018-08-12T08:26:29Z</time>
      </trkpt>
      <trkpt lat="43.75531" lon="4.14525">
        <ele>53</ele>
        <time>2018-08-12T08:26:31Z</time>
      </trkpt>
      <trkpt lat="43.75526" lon="4.14523">
        <ele>53</ele>
        <time>2018-08-12T08:26:33Z</time>
      </trkpt>
      <trkpt lat="43.7552" lon="4.14521">
        <ele>52</ele>
        <time>2018-08-12T08:26:35Z</time>
      </trkpt>
      <trkpt lat="43.75515" lon="4.14518">
        <ele>52</ele>
        <time>2018-08-12T08:26:37Z</time>
      </trkpt>
      <trkpt lat="43.75509" lon="4.14516">
        <ele>52</ele>
        <time>2018-08-12T08:26:39Z</time>
      </trkpt>
      <trkpt lat="43.75503" lon="4.14516">
        <ele>51</ele>
        <time>2018-08-12T08:26:42Z</time>
      </trkpt>
      <trkpt lat="43.75499" lon="4.14513">
        <ele>52</ele>
        <time>2018-08-12T08:26:45Z</time>
      </trkpt>
      <trkpt lat="43.75495" lon="4.14506">
        <ele>51</ele>
        <time>2018-08-12T08:26:48Z</time>
      </trkpt>
      <trkpt lat="43.75491" lon="4.14501">
        <ele>51</ele>
        <time>2018-08-12T08:26:51Z</time>
      </trkpt>
      <trkpt lat="43.75487" lon="4.14495">
        <ele>48</ele>
        <time>2018-08-12T08:26:54Z</time>
      </trkpt>
      <trkpt lat="43.75484" lon="4.1449">
        <ele>48</ele>
        <time>2018-08-12T08:26:56Z</time>
      </trkpt>
      <trkpt lat="43.75477" lon="4.14484">
        <ele>47</ele>
        <time>2018-08-12T08:26:58Z</time>
      </trkpt>
      <trkpt lat="43.75469" lon="4.14479">
        <ele>47</ele>
        <time>2018-08-12T08:27:00Z</time>
      </trkpt>
      <trkpt lat="43.75462" lon="4.14474">
        <ele>47</ele>
        <time>2018-08-12T08:27:02Z</time>
      </trkpt>
      <trkpt lat="43.75454" lon="4.14469">
        <ele>47</ele>
        <time>2018-08-12T08:27:04Z</time>
      </trkpt>
      <trkpt lat="43.75447" lon="4.14465">
        <ele>46</ele>
        <time>2018-08-12T08:27:06Z</time>
      </trkpt>
      <trkpt lat="43.7544" lon="4.14461">
        <ele>46</ele>
        <time>2018-08-12T08:27:08Z</time>
      </trkpt>
      <trkpt lat="43.75433" lon="4.14458">
        <ele>46</ele>
        <time>2018-08-12T08:27:10Z</time>
      </trkpt>
      <trkpt lat="43.75427" lon="4.14455">
        <ele>46</ele>
        <time>2018-08-12T08:27:12Z</time>
      </trkpt>
      <trkpt lat="43.7542" lon="4.14453">
        <ele>46</ele>
        <time>2018-08-12T08:27:14Z</time>
      </trkpt>
      <trkpt lat="43.75413" lon="4.14453">
        <ele>45</ele>
        <time>2018-08-12T08:27:16Z</time>
      </trkpt>
      <trkpt lat="43.75406" lon="4.14452">
        <ele>45</ele>
        <time>2018-08-12T08:27:18Z</time>
      </trkpt>
      <trkpt lat="43.75398" lon="4.14452">
        <ele>45</ele>
        <time>2018-08-12T08:27:20Z</time>
      </trkpt>
      <trkpt lat="43.75391" lon="4.14452">
        <ele>45</ele>
        <time>2018-08-12T08:27:22Z</time>
      </trkpt>
      <trkpt lat="43.75383" lon="4.14455">
        <ele>45</ele>
        <time>2018-08-12T08:27:24Z</time>
      </trkpt>
      <trkpt lat="43.75376" lon="4.14457">
        <ele>45</ele>
        <time>2018-08-12T08:27:26Z</time>
      </trkpt>
      <trkpt lat="43.75369" lon="4.1446">
        <ele>46</ele>
        <time>2018-08-12T08:27:28Z</time>
      </trkpt>
      <trkpt lat="43.75363" lon="4.1446">
        <ele>45</ele>
        <time>2018-08-12T08:27:30Z</time>
      </trkpt>
      <trkpt lat="43.75357" lon="4.14457">
        <ele>45</ele>
        <time>2018-08-12T08:27:32Z</time>
      </trkpt>
      <trkpt lat="43.75351" lon="4.14454">
        <ele>45</ele>
        <time>2018-08-12T08:27:34Z</time>
      </trkpt>
      <trkpt lat="43.75343" lon="4.14449">
        <ele>44</ele>
        <time>2018-08-12T08:27:36Z</time>
      </trkpt>
      <trkpt lat="43.75338" lon="4.14444">
        <ele>44</ele>
        <time>2018-08-12T08:27:37Z</time>
      </trkpt>
      <trkpt lat="43.75332" lon="4.14439">
        <ele>42</ele>
        <time>2018-08-12T08:27:39Z</time>
      </trkpt>
      <trkpt lat="43.75328" lon="4.14435">
        <ele>41</ele>
        <time>2018-08-12T08:27:41Z</time>
      </trkpt>
      <trkpt lat="43.75324" lon="4.1443">
        <ele>41</ele>
        <time>2018-08-12T08:27:44Z</time>
      </trkpt>
      <trkpt lat="43.75319" lon="4.14431">
        <ele>41</ele>
        <time>2018-08-12T08:27:47Z</time>
      </trkpt>
      <trkpt lat="43.75318" lon="4.14438">
        <ele>42</ele>
        <time>2018-08-12T08:27:49Z</time>
      </trkpt>
      <trkpt lat="43.75315" lon="4.14446">
        <ele>42</ele>
        <time>2018-08-12T08:27:51Z</time>
      </trkpt>
      <trkpt lat="43.75312" lon="4.14454">
        <ele>43</ele>
        <time>2018-08-12T08:27:53Z</time>
      </trkpt>
      <trkpt lat="43.75311" lon="4.14461">
        <ele>43</ele>
        <time>2018-08-12T08:27:55Z</time>
      </trkpt>
      <trkpt lat="43.75309" lon="4.14468">
        <ele>43</ele>
        <time>2018-08-12T08:27:57Z</time>
      </trkpt>
      <trkpt lat="43.75307" lon="4.14474">
        <ele>44</ele>
        <time>2018-08-12T08:27:59Z</time>
      </trkpt>
      <trkpt lat="43.75305" lon="4.14481">
        <ele>44</ele>
        <time>2018-08-12T08:28:01Z</time>
      </trkpt>
      <trkpt lat="43.75304" lon="4.14489">
        <ele>44</ele>
        <time>2018-08-12T08:28:03Z</time>
      </trkpt>
      <trkpt lat="43.75302" lon="4.14496">
        <ele>44</ele>
        <time>2018-08-12T08:28:05Z</time>
      </trkpt>
      <trkpt lat="43.753" lon="4.14503">
        <ele>48</ele>
        <time>2018-08-12T08:28:07Z</time>
      </trkpt>
      <trkpt lat="43.75297" lon="4.14511">
        <ele>48</ele>
        <time>2018-08-12T08:28:09Z</time>
      </trkpt>
      <trkpt lat="43.75295" lon="4.14519">
        <ele>48</ele>
        <time>2018-08-12T08:28:11Z</time>
      </trkpt>
      <trkpt lat="43.75292" lon="4.14526">
        <ele>48</ele>
        <time>2018-08-12T08:28:13Z</time>
      </trkpt>
      <trkpt lat="43.7529" lon="4.14534">
        <ele>48</ele>
        <time>2018-08-12T08:28:15Z</time>
      </trkpt>
      <trkpt lat="43.75287" lon="4.14541">
        <ele>48</ele>
        <time>2018-08-12T08:28:17Z</time>
      </trkpt>
      <trkpt lat="43.75284" lon="4.14548">
        <ele>48</ele>
        <time>2018-08-12T08:28:19Z</time>
      </trkpt>
      <trkpt lat="43.75281" lon="4.14555">
        <ele>48</ele>
        <time>2018-08-12T08:28:21Z</time>
      </trkpt>
      <trkpt lat="43.75278" lon="4.14561">
        <ele>48</ele>
        <time>2018-08-12T08:28:23Z</time>
      </trkpt>
      <trkpt lat="43.75275" lon="4.14568">
        <ele>48</ele>
        <time>2018-08-12T08:28:25Z</time>
      </trkpt>
      <trkpt lat="43.75272" lon="4.14574">
        <ele>48</ele>
        <time>2018-08-12T08:28:27Z</time>
      </trkpt>
      <trkpt lat="43.75269" lon="4.1458">
        <ele>47</ele>
        <time>2018-08-12T08:28:29Z</time>
      </trkpt>
      <trkpt lat="43.75266" lon="4.14586">
        <ele>49</ele>
        <time>2018-08-12T08:28:31Z</time>
      </trkpt>
      <trkpt lat="43.75263" lon="4.14591">
        <ele>49</ele>
        <time>2018-08-12T08:28:33Z</time>
      </trkpt>
      <trkpt lat="43.75259" lon="4.14596">
        <ele>49</ele>
        <time>2018-08-12T08:28:35Z</time>
      </trkpt>
      <trkpt lat="43.75256" lon="4.14602">
        <ele>49</ele>
        <time>2018-08-12T08:28:37Z</time>
      </trkpt>
      <trkpt lat="43.75254" lon="4.14609">
        <ele>50</ele>
        <time>2018-08-12T08:28:39Z</time>
      </trkpt>
      <trkpt lat="43.75253" lon="4.14616">
        <ele>50</ele>
        <time>2018-08-12T08:28:41Z</time>
      </trkpt>
      <trkpt lat="43.7525" lon="4.14623">
        <ele>46</ele>
        <time>2018-08-12T08:28:43Z</time>
      </trkpt>
      <trkpt lat="43.75246" lon="4.14631">
        <ele>46</ele>
        <time>2018-08-12T08:28:45Z</time>
      </trkpt>
      <trkpt lat="43.75243" lon="4.14639">
        <ele>46</ele>
        <time>2018-08-12T08:28:47Z</time>
      </trkpt>
      <trkpt lat="43.75239" lon="4.14647">
        <ele>47</ele>
        <time>2018-08-12T08:28:49Z</time>
      </trkpt>
      <trkpt lat="43.75235" lon="4.14654">
        <ele>47</ele>
        <time>2018-08-12T08:28:51Z</time>
      </trkpt>
      <trkpt lat="43.75232" lon="4.14662">
        <ele>47</ele>
        <time>2018-08-12T08:28:53Z</time>
      </trkpt>
      <trkpt lat="43.75229" lon="4.1467">
        <ele>49</ele>
        <time>2018-08-12T08:28:55Z</time>
      </trkpt>
      <trkpt lat="43.75226" lon="4.14679">
        <ele>49</ele>
        <time>2018-08-12T08:28:57Z</time>
      </trkpt>
      <trkpt lat="43.75224" lon="4.14687">
        <ele>49</ele>
        <time>2018-08-12T08:28:59Z</time>
      </trkpt>
      <trkpt lat="43.75221" lon="4.14695">
        <ele>49</ele>
        <time>2018-08-12T08:29:01Z</time>
      </trkpt>
      <trkpt lat="43.75219" lon="4.14703">
        <ele>49</ele>
        <time>2018-08-12T08:29:03Z</time>
      </trkpt>
      <trkpt lat="43.75218" lon="4.14709">
        <ele>49</ele>
        <time>2018-08-12T08:29:05Z</time>
      </trkpt>
      <trkpt lat="43.75217" lon="4.14717">
        <ele>49</ele>
        <time>2018-08-12T08:29:07Z</time>
      </trkpt>
      <trkpt lat="43.75218" lon="4.14726">
        <ele>49</ele>
        <time>2018-08-12T08:29:09Z</time>
      </trkpt>
      <trkpt lat="43.75219" lon="4.14735">
        <ele>50</ele>
        <time>2018-08-12T08:29:11Z</time>
      </trkpt>
      <trkpt lat="43.75218" lon="4.14745">
        <ele>50</ele>
        <time>2018-08-12T08:29:13Z</time>
      </trkpt>
      <trkpt lat="43.75218" lon="4.14753">
        <ele>52</ele>
        <time>2018-08-12T08:29:15Z</time>
      </trkpt>
      <trkpt lat="43.75219" lon="4.14765">
        <ele>52</ele>
        <time>2018-08-12T08:29:17Z</time>
      </trkpt>
      <trkpt lat="43.75219" lon="4.14775">
        <ele>52</ele>
        <time>2018-08-12T08:29:19Z</time>
      </trkpt>
      <trkpt lat="43.7522" lon="4.14785">
        <ele>52</ele>
        <time>2018-08-12T08:29:21Z</time>
      </trkpt>
      <trkpt lat="43.75221" lon="4.14795">
        <ele>52</ele>
        <time>2018-08-12T08:29:23Z</time>
      </trkpt>
      <trkpt lat="43.75221" lon="4.14805">
        <ele>52</ele>
        <time>2018-08-12T08:29:25Z</time>
      </trkpt>
      <trkpt lat="43.75222" lon="4.14812">
        <ele>52</ele>
        <time>2018-08-12T08:29:27Z</time>
      </trkpt>
      <trkpt lat="43.75223" lon="4.14819">
        <ele>52</ele>
        <time>2018-08-12T08:29:29Z</time>
      </trkpt>
      <trkpt lat="43.7522" lon="4.14825">
        <ele>52</ele>
        <time>2018-08-12T08:29:31Z</time>
      </trkpt>
      <trkpt lat="43.75215" lon="4.14828">
        <ele>52</ele>
        <time>2018-08-12T08:29:33Z</time>
      </trkpt>
      <trkpt lat="43.75209" lon="4.1483">
        <ele>52</ele>
        <time>2018-08-12T08:29:35Z</time>
      </trkpt>
      <trkpt lat="43.75204" lon="4.1483">
        <ele>51</ele>
        <time>2018-08-12T08:29:37Z</time>
      </trkpt>
      <trkpt lat="43.75198" lon="4.14831">
        <ele>51</ele>
        <time>2018-08-12T08:29:39Z</time>
      </trkpt>
      <trkpt lat="43.75192" lon="4.14832">
        <ele>51</ele>
        <time>2018-08-12T08:29:41Z</time>
      </trkpt>
      <trkpt lat="43.75186" lon="4.14833">
        <ele>52</ele>
        <time>2018-08-12T08:29:43Z</time>
      </trkpt>
      <trkpt lat="43.7518" lon="4.14835">
        <ele>51</ele>
        <time>2018-08-12T08:29:45Z</time>
      </trkpt>
      <trkpt lat="43.75172" lon="4.14837">
        <ele>50</ele>
        <time>2018-08-12T08:29:47Z</time>
      </trkpt>
      <trkpt lat="43.75166" lon="4.14839">
        <ele>50</ele>
        <time>2018-08-12T08:29:49Z</time>
      </trkpt>
      <trkpt lat="43.7516" lon="4.14841">
        <ele>50</ele>
        <time>2018-08-12T08:29:51Z</time>
      </trkpt>
      <trkpt lat="43.75153" lon="4.14842">
        <ele>51</ele>
        <time>2018-08-12T08:29:53Z</time>
      </trkpt>
      <trkpt lat="43.75146" lon="4.14843">
        <ele>51</ele>
        <time>2018-08-12T08:29:55Z</time>
      </trkpt>
      <trkpt lat="43.75139" lon="4.14843">
        <ele>52</ele>
        <time>2018-08-12T08:29:57Z</time>
      </trkpt>
      <trkpt lat="43.75134" lon="4.14843">
        <ele>52</ele>
        <time>2018-08-12T08:29:59Z</time>
      </trkpt>
      <trkpt lat="43.75133" lon="4.14843">
        <ele>52</ele>
        <time>2018-08-12T08:30:26Z</time>
      </trkpt>
      <trkpt lat="43.75133" lon="4.14843">
        <ele>52</ele>
        <time>2018-08-12T08:30:27Z</time>
      </trkpt>
      <trkpt lat="43.75127" lon="4.14843">
        <ele>52</ele>
        <time>2018-08-12T08:30:48Z</time>
      </trkpt>
      <trkpt lat="43.75126" lon="4.14841">
        <ele>52</ele>
        <time>2018-08-12T08:31:11Z</time>
      </trkpt>
      <trkpt lat="43.75126" lon="4.14841">
        <ele>52</ele>
        <time>2018-08-12T08:31:12Z</time>
      </trkpt>
      <trkpt lat="43.7512" lon="4.14841">
        <ele>52</ele>
        <time>2018-08-12T08:31:36Z</time>
      </trkpt>
      <trkpt lat="43.75114" lon="4.14842">
        <ele>52</ele>
        <time>2018-08-12T08:31:38Z</time>
      </trkpt>
      <trkpt lat="43.75108" lon="4.14844">
        <ele>52</ele>
        <time>2018-08-12T08:31:40Z</time>
      </trkpt>
      <trkpt lat="43.75101" lon="4.14845">
        <ele>52</ele>
        <time>2018-08-12T08:31:42Z</time>
      </trkpt>
      <trkpt lat="43.75094" lon="4.14846">
        <ele>52</ele>
        <time>2018-08-12T08:31:44Z</time>
      </trkpt>
      <trkpt lat="43.75087" lon="4.14846">
        <ele>52</ele>
        <time>2018-08-12T08:31:46Z</time>
      </trkpt>
      <trkpt lat="43.7508" lon="4.14847">
        <ele>52</ele>
        <time>2018-08-12T08:31:48Z</time>
      </trkpt>
      <trkpt lat="43.75074" lon="4.14847">
        <ele>53</ele>
        <time>2018-08-12T08:31:50Z</time>
      </trkpt>
      <trkpt lat="43.75068" lon="4.14849">
        <ele>53</ele>
        <time>2018-08-12T08:31:52Z</time>
      </trkpt>
      <trkpt lat="43.75063" lon="4.14853">
        <ele>53</ele>
        <time>2018-08-12T08:31:54Z</time>
      </trkpt>
      <trkpt lat="43.75057" lon="4.14856">
        <ele>53</ele>
        <time>2018-08-12T08:31:56Z</time>
      </trkpt>
      <trkpt lat="43.75051" lon="4.14857">
        <ele>54</ele>
        <time>2018-08-12T08:31:58Z</time>
      </trkpt>
      <trkpt lat="43.75044" lon="4.14858">
        <ele>54</ele>
        <time>2018-08-12T08:32:00Z</time>
      </trkpt>
      <trkpt lat="43.75036" lon="4.14861">
        <ele>54</ele>
        <time>2018-08-12T08:32:02Z</time>
      </trkpt>
      <trkpt lat="43.75029" lon="4.14865">
        <ele>54</ele>
        <time>2018-08-12T08:32:04Z</time>
      </trkpt>
      <trkpt lat="43.75022" lon="4.14869">
        <ele>54</ele>
        <time>2018-08-12T08:32:06Z</time>
      </trkpt>
      <trkpt lat="43.75017" lon="4.14875">
        <ele>54</ele>
        <time>2018-08-12T08:32:08Z</time>
      </trkpt>
      <trkpt lat="43.75013" lon="4.1488">
        <ele>54</ele>
        <time>2018-08-12T08:32:10Z</time>
      </trkpt>
      <trkpt lat="43.75008" lon="4.14885">
        <ele>55</ele>
        <time>2018-08-12T08:32:12Z</time>
      </trkpt>
      <trkpt lat="43.75003" lon="4.1489">
        <ele>55</ele>
        <time>2018-08-12T08:32:14Z</time>
      </trkpt>
      <trkpt lat="43.74998" lon="4.14896">
        <ele>54</ele>
        <time>2018-08-12T08:32:16Z</time>
      </trkpt>
      <trkpt lat="43.74992" lon="4.14901">
        <ele>55</ele>
        <time>2018-08-12T08:32:18Z</time>
      </trkpt>
      <trkpt lat="43.74986" lon="4.14904">
        <ele>55</ele>
        <time>2018-08-12T08:32:20Z</time>
      </trkpt>
      <trkpt lat="43.7498" lon="4.14907">
        <ele>54</ele>
        <time>2018-08-12T08:32:22Z</time>
      </trkpt>
      <trkpt lat="43.74975" lon="4.1491">
        <ele>54</ele>
        <time>2018-08-12T08:32:24Z</time>
      </trkpt>
      <trkpt lat="43.7497" lon="4.14915">
        <ele>54</ele>
        <time>2018-08-12T08:32:26Z</time>
      </trkpt>
      <trkpt lat="43.74965" lon="4.14919">
        <ele>58</ele>
        <time>2018-08-12T08:32:28Z</time>
      </trkpt>
      <trkpt lat="43.74962" lon="4.14924">
        <ele>58</ele>
        <time>2018-08-12T08:32:31Z</time>
      </trkpt>
      <trkpt lat="43.74958" lon="4.14928">
        <ele>58</ele>
        <time>2018-08-12T08:32:34Z</time>
      </trkpt>
      <trkpt lat="43.74954" lon="4.14932">
        <ele>58</ele>
        <time>2018-08-12T08:32:37Z</time>
      </trkpt>
      <trkpt lat="43.74947" lon="4.14933">
        <ele>58</ele>
        <time>2018-08-12T08:32:40Z</time>
      </trkpt>
      <trkpt lat="43.74942" lon="4.14937">
        <ele>58</ele>
        <time>2018-08-12T08:32:43Z</time>
      </trkpt>
      <trkpt lat="43.74936" lon="4.14942">
        <ele>58</ele>
        <time>2018-08-12T08:32:46Z</time>
      </trkpt>
      <trkpt lat="43.74932" lon="4.14948">
        <ele>58</ele>
        <time>2018-08-12T08:32:49Z</time>
      </trkpt>
      <trkpt lat="43.74928" lon="4.14952">
        <ele>58</ele>
        <time>2018-08-12T08:32:52Z</time>
      </trkpt>
      <trkpt lat="43.74923" lon="4.14956">
        <ele>59</ele>
        <time>2018-08-12T08:32:55Z</time>
      </trkpt>
      <trkpt lat="43.74918" lon="4.14959">
        <ele>59</ele>
        <time>2018-08-12T08:32:58Z</time>
      </trkpt>
      <trkpt lat="43.74913" lon="4.14962">
        <ele>57</ele>
        <time>2018-08-12T08:33:01Z</time>
      </trkpt>
      <trkpt lat="43.74909" lon="4.14967">
        <ele>58</ele>
        <time>2018-08-12T08:33:04Z</time>
      </trkpt>
      <trkpt lat="43.74905" lon="4.14972">
        <ele>58</ele>
        <time>2018-08-12T08:33:07Z</time>
      </trkpt>
      <trkpt lat="43.749" lon="4.14976">
        <ele>58</ele>
        <time>2018-08-12T08:33:10Z</time>
      </trkpt>
      <trkpt lat="43.74894" lon="4.14978">
        <ele>58</ele>
        <time>2018-08-12T08:33:13Z</time>
      </trkpt>
      <trkpt lat="43.74888" lon="4.14981">
        <ele>58</ele>
        <time>2018-08-12T08:33:16Z</time>
      </trkpt>
      <trkpt lat="43.74883" lon="4.14984">
        <ele>58</ele>
        <time>2018-08-12T08:33:18Z</time>
      </trkpt>
      <trkpt lat="43.74878" lon="4.14988">
        <ele>58</ele>
        <time>2018-08-12T08:33:20Z</time>
      </trkpt>
      <trkpt lat="43.74874" lon="4.14991">
        <ele>58</ele>
        <time>2018-08-12T08:33:22Z</time>
      </trkpt>
      <trkpt lat="43.7487" lon="4.14994">
        <ele>58</ele>
        <time>2018-08-12T08:33:24Z</time>
      </trkpt>
      <trkpt lat="43.74866" lon="4.14998">
        <ele>58</ele>
        <time>2018-08-12T08:33:26Z</time>
      </trkpt>
      <trkpt lat="43.7486" lon="4.15003">
        <ele>62</ele>
        <time>2018-08-12T08:33:29Z</time>
      </trkpt>
      <trkpt lat="43.74856" lon="4.15007">
        <ele>62</ele>
        <time>2018-08-12T08:33:32Z</time>
      </trkpt>
      <trkpt lat="43.74851" lon="4.1501">
        <ele>62</ele>
        <time>2018-08-12T08:33:35Z</time>
      </trkpt>
      <trkpt lat="43.74846" lon="4.15014">
        <ele>62</ele>
        <time>2018-08-12T08:33:39Z</time>
      </trkpt>
      <trkpt lat="43.74841" lon="4.15016">
        <ele>62</ele>
        <time>2018-08-12T08:33:42Z</time>
      </trkpt>
      <trkpt lat="43.74838" lon="4.15023">
        <ele>62</ele>
        <time>2018-08-12T08:33:45Z</time>
      </trkpt>
      <trkpt lat="43.74834" lon="4.15027">
        <ele>63</ele>
        <time>2018-08-12T08:33:48Z</time>
      </trkpt>
      <trkpt lat="43.74831" lon="4.15032">
        <ele>63</ele>
        <time>2018-08-12T08:33:50Z</time>
      </trkpt>
      <trkpt lat="43.74826" lon="4.15036">
        <ele>63</ele>
        <time>2018-08-12T08:33:53Z</time>
      </trkpt>
      <trkpt lat="43.74822" lon="4.15041">
        <ele>64</ele>
        <time>2018-08-12T08:33:56Z</time>
      </trkpt>
      <trkpt lat="43.74817" lon="4.15045">
        <ele>64</ele>
        <time>2018-08-12T08:33:59Z</time>
      </trkpt>
      <trkpt lat="43.74812" lon="4.15051">
        <ele>65</ele>
        <time>2018-08-12T08:34:02Z</time>
      </trkpt>
      <trkpt lat="43.74809" lon="4.15057">
        <ele>65</ele>
        <time>2018-08-12T08:34:05Z</time>
      </trkpt>
      <trkpt lat="43.74805" lon="4.15062">
        <ele>65</ele>
        <time>2018-08-12T08:34:08Z</time>
      </trkpt>
      <trkpt lat="43.74801" lon="4.15066">
        <ele>65</ele>
        <time>2018-08-12T08:34:11Z</time>
      </trkpt>
      <trkpt lat="43.74796" lon="4.15069">
        <ele>66</ele>
        <time>2018-08-12T08:34:14Z</time>
      </trkpt>
      <trkpt lat="43.74791" lon="4.15073">
        <ele>66</ele>
        <time>2018-08-12T08:34:18Z</time>
      </trkpt>
      <trkpt lat="43.74786" lon="4.15076">
        <ele>66</ele>
        <time>2018-08-12T08:34:22Z</time>
      </trkpt>
      <trkpt lat="43.74781" lon="4.15078">
        <ele>66</ele>
        <time>2018-08-12T08:34:26Z</time>
      </trkpt>
      <trkpt lat="43.74775" lon="4.1508">
        <ele>66</ele>
        <time>2018-08-12T08:34:30Z</time>
      </trkpt>
      <trkpt lat="43.7477" lon="4.15083">
        <ele>66</ele>
        <time>2018-08-12T08:34:33Z</time>
      </trkpt>
      <trkpt lat="43.74765" lon="4.15087">
        <ele>70</ele>
        <time>2018-08-12T08:34:36Z</time>
      </trkpt>
      <trkpt lat="43.74759" lon="4.15091">
        <ele>70</ele>
        <time>2018-08-12T08:34:39Z</time>
      </trkpt>
      <trkpt lat="43.74754" lon="4.15096">
        <ele>70</ele>
        <time>2018-08-12T08:34:42Z</time>
      </trkpt>
      <trkpt lat="43.74749" lon="4.15098">
        <ele>70</ele>
        <time>2018-08-12T08:34:45Z</time>
      </trkpt>
      <trkpt lat="43.74744" lon="4.15102">
        <ele>71</ele>
        <time>2018-08-12T08:35:01Z</time>
      </trkpt>
      <trkpt lat="43.7474" lon="4.15106">
        <ele>71</ele>
        <time>2018-08-12T08:35:04Z</time>
      </trkpt>
      <trkpt lat="43.74735" lon="4.1511">
        <ele>72</ele>
        <time>2018-08-12T08:35:07Z</time>
      </trkpt>
      <trkpt lat="43.74731" lon="4.15117">
        <ele>72</ele>
        <time>2018-08-12T08:35:10Z</time>
      </trkpt>
      <trkpt lat="43.74727" lon="4.15121">
        <ele>72</ele>
        <time>2018-08-12T08:35:12Z</time>
      </trkpt>
      <trkpt lat="43.74723" lon="4.15127">
        <ele>73</ele>
        <time>2018-08-12T08:35:15Z</time>
      </trkpt>
      <trkpt lat="43.7472" lon="4.15134">
        <ele>73</ele>
        <time>2018-08-12T08:35:18Z</time>
      </trkpt>
      <trkpt lat="43.74715" lon="4.15139">
        <ele>73</ele>
        <time>2018-08-12T08:35:21Z</time>
      </trkpt>
      <trkpt lat="43.74712" lon="4.15144">
        <ele>73</ele>
        <time>2018-08-12T08:35:24Z</time>
      </trkpt>
      <trkpt lat="43.74707" lon="4.15147">
        <ele>73</ele>
        <time>2018-08-12T08:35:27Z</time>
      </trkpt>
      <trkpt lat="43.74706" lon="4.15153">
        <ele>73</ele>
        <time>2018-08-12T08:35:30Z</time>
      </trkpt>
      <trkpt lat="43.74703" lon="4.15158">
        <ele>74</ele>
        <time>2018-08-12T08:35:33Z</time>
      </trkpt>
      <trkpt lat="43.74698" lon="4.15161">
        <ele>74</ele>
        <time>2018-08-12T08:35:36Z</time>
      </trkpt>
      <trkpt lat="43.74694" lon="4.15166">
        <ele>74</ele>
        <time>2018-08-12T08:35:39Z</time>
      </trkpt>
      <trkpt lat="43.74691" lon="4.15171">
        <ele>75</ele>
        <time>2018-08-12T08:35:42Z</time>
      </trkpt>
      <trkpt lat="43.74686" lon="4.15176">
        <ele>75</ele>
        <time>2018-08-12T08:35:45Z</time>
      </trkpt>
      <trkpt lat="43.74682" lon="4.15181">
        <ele>75</ele>
        <time>2018-08-12T08:35:48Z</time>
      </trkpt>
      <trkpt lat="43.74678" lon="4.15186">
        <ele>75</ele>
        <time>2018-08-12T08:35:51Z</time>
      </trkpt>
      <trkpt lat="43.74672" lon="4.15192">
        <ele>75</ele>
        <time>2018-08-12T08:35:54Z</time>
      </trkpt>
      <trkpt lat="43.74668" lon="4.15198">
        <ele>75</ele>
        <time>2018-08-12T08:35:56Z</time>
      </trkpt>
      <trkpt lat="43.74664" lon="4.15206">
        <ele>73</ele>
        <time>2018-08-12T08:35:58Z</time>
      </trkpt>
      <trkpt lat="43.74661" lon="4.15216">
        <ele>72</ele>
        <time>2018-08-12T08:36:00Z</time>
      </trkpt>
      <trkpt lat="43.74657" lon="4.15225">
        <ele>72</ele>
        <time>2018-08-12T08:36:02Z</time>
      </trkpt>
      <trkpt lat="43.74652" lon="4.15232">
        <ele>72</ele>
        <time>2018-08-12T08:36:04Z</time>
      </trkpt>
      <trkpt lat="43.74647" lon="4.15241">
        <ele>72</ele>
        <time>2018-08-12T08:36:06Z</time>
      </trkpt>
      <trkpt lat="43.74642" lon="4.15251">
        <ele>70</ele>
        <time>2018-08-12T08:36:08Z</time>
      </trkpt>
      <trkpt lat="43.74637" lon="4.1526">
        <ele>70</ele>
        <time>2018-08-12T08:36:10Z</time>
      </trkpt>
      <trkpt lat="43.74633" lon="4.15269">
        <ele>69</ele>
        <time>2018-08-12T08:36:12Z</time>
      </trkpt>
      <trkpt lat="43.74631" lon="4.15276">
        <ele>69</ele>
        <time>2018-08-12T08:36:14Z</time>
      </trkpt>
      <trkpt lat="43.74625" lon="4.15278">
        <ele>69</ele>
        <time>2018-08-12T08:36:18Z</time>
      </trkpt>
      <trkpt lat="43.7462" lon="4.15274">
        <ele>68</ele>
        <time>2018-08-12T08:36:21Z</time>
      </trkpt>
      <trkpt lat="43.74614" lon="4.15274">
        <ele>68</ele>
        <time>2018-08-12T08:36:23Z</time>
      </trkpt>
      <trkpt lat="43.74608" lon="4.1528">
        <ele>68</ele>
        <time>2018-08-12T08:36:25Z</time>
      </trkpt>
      <trkpt lat="43.74603" lon="4.15288">
        <ele>68</ele>
        <time>2018-08-12T08:36:27Z</time>
      </trkpt>
      <trkpt lat="43.74598" lon="4.15296">
        <ele>68</ele>
        <time>2018-08-12T08:36:29Z</time>
      </trkpt>
      <trkpt lat="43.74592" lon="4.15302">
        <ele>67</ele>
        <time>2018-08-12T08:36:31Z</time>
      </trkpt>
      <trkpt lat="43.74585" lon="4.15307">
        <ele>67</ele>
        <time>2018-08-12T08:36:33Z</time>
      </trkpt>
      <trkpt lat="43.74577" lon="4.15312">
        <ele>63</ele>
        <time>2018-08-12T08:36:35Z</time>
      </trkpt>
      <trkpt lat="43.74573" lon="4.15315">
        <ele>63</ele>
        <time>2018-08-12T08:36:36Z</time>
      </trkpt>
      <trkpt lat="43.74569" lon="4.15318">
        <ele>63</ele>
        <time>2018-08-12T08:36:37Z</time>
      </trkpt>
      <trkpt lat="43.74564" lon="4.15321">
        <ele>62</ele>
        <time>2018-08-12T08:36:38Z</time>
      </trkpt>
      <trkpt lat="43.74554" lon="4.15326">
        <ele>61</ele>
        <time>2018-08-12T08:36:39Z</time>
      </trkpt>
      <trkpt lat="43.74549" lon="4.15328">
        <ele>61</ele>
        <time>2018-08-12T08:36:40Z</time>
      </trkpt>
      <trkpt lat="43.74541" lon="4.15329">
        <ele>60</ele>
        <time>2018-08-12T08:36:42Z</time>
      </trkpt>
      <trkpt lat="43.74534" lon="4.15335">
        <ele>61</ele>
        <time>2018-08-12T08:36:44Z</time>
      </trkpt>
      <trkpt lat="43.74526" lon="4.15339">
        <ele>60</ele>
        <time>2018-08-12T08:36:46Z</time>
      </trkpt>
      <trkpt lat="43.74523" lon="4.15344">
        <ele>60</ele>
        <time>2018-08-12T08:36:47Z</time>
      </trkpt>
      <trkpt lat="43.74519" lon="4.15349">
        <ele>59</ele>
        <time>2018-08-12T08:36:48Z</time>
      </trkpt>
      <trkpt lat="43.74512" lon="4.15355">
        <ele>59</ele>
        <time>2018-08-12T08:36:50Z</time>
      </trkpt>
      <trkpt lat="43.74505" lon="4.15361">
        <ele>59</ele>
        <time>2018-08-12T08:36:52Z</time>
      </trkpt>
      <trkpt lat="43.74498" lon="4.15365">
        <ele>54</ele>
        <time>2018-08-12T08:36:54Z</time>
      </trkpt>
      <trkpt lat="43.74495" lon="4.15371">
        <ele>54</ele>
        <time>2018-08-12T08:36:56Z</time>
      </trkpt>
      <trkpt lat="43.74493" lon="4.15377">
        <ele>54</ele>
        <time>2018-08-12T08:36:58Z</time>
      </trkpt>
      <trkpt lat="43.74493" lon="4.15386">
        <ele>55</ele>
        <time>2018-08-12T08:37:01Z</time>
      </trkpt>
      <trkpt lat="43.74492" lon="4.15394">
        <ele>55</ele>
        <time>2018-08-12T08:37:04Z</time>
      </trkpt>
      <trkpt lat="43.7449" lon="4.15401">
        <ele>56</ele>
        <time>2018-08-12T08:37:06Z</time>
      </trkpt>
      <trkpt lat="43.74487" lon="4.15405">
        <ele>56</ele>
        <time>2018-08-12T08:37:08Z</time>
      </trkpt>
      <trkpt lat="43.74481" lon="4.15406">
        <ele>55</ele>
        <time>2018-08-12T08:37:10Z</time>
      </trkpt>
      <trkpt lat="43.74475" lon="4.15407">
        <ele>55</ele>
        <time>2018-08-12T08:37:12Z</time>
      </trkpt>
      <trkpt lat="43.74468" lon="4.15413">
        <ele>54</ele>
        <time>2018-08-12T08:37:14Z</time>
      </trkpt>
      <trkpt lat="43.74466" lon="4.15422">
        <ele>55</ele>
        <time>2018-08-12T08:37:16Z</time>
      </trkpt>
      <trkpt lat="43.74468" lon="4.15433">
        <ele>55</ele>
        <time>2018-08-12T08:37:18Z</time>
      </trkpt>
      <trkpt lat="43.74472" lon="4.15444">
        <ele>55</ele>
        <time>2018-08-12T08:37:20Z</time>
      </trkpt>
      <trkpt lat="43.74472" lon="4.15455">
        <ele>55</ele>
        <time>2018-08-12T08:37:22Z</time>
      </trkpt>
      <trkpt lat="43.74471" lon="4.15466">
        <ele>55</ele>
        <time>2018-08-12T08:37:24Z</time>
      </trkpt>
      <trkpt lat="43.74469" lon="4.15477">
        <ele>55</ele>
        <time>2018-08-12T08:37:26Z</time>
      </trkpt>
      <trkpt lat="43.74467" lon="4.15483">
        <ele>54</ele>
        <time>2018-08-12T08:37:27Z</time>
      </trkpt>
      <trkpt lat="43.74465" lon="4.15489">
        <ele>54</ele>
        <time>2018-08-12T08:37:29Z</time>
      </trkpt>
      <trkpt lat="43.7446" lon="4.15491">
        <ele>54</ele>
        <time>2018-08-12T08:37:39Z</time>
      </trkpt>
      <trkpt lat="43.74453" lon="4.15491">
        <ele>53</ele>
        <time>2018-08-12T08:37:42Z</time>
      </trkpt>
      <trkpt lat="43.74448" lon="4.1549">
        <ele>53</ele>
        <time>2018-08-12T08:37:45Z</time>
      </trkpt>
      <trkpt lat="43.74442" lon="4.15493">
        <ele>52</ele>
        <time>2018-08-12T08:37:47Z</time>
      </trkpt>
      <trkpt lat="43.74435" lon="4.15496">
        <ele>51</ele>
        <time>2018-08-12T08:37:49Z</time>
      </trkpt>
      <trkpt lat="43.74429" lon="4.15497">
        <ele>50</ele>
        <time>2018-08-12T08:37:51Z</time>
      </trkpt>
      <trkpt lat="43.74423" lon="4.15498">
        <ele>49</ele>
        <time>2018-08-12T08:37:53Z</time>
      </trkpt>
      <trkpt lat="43.74418" lon="4.15498">
        <ele>48</ele>
        <time>2018-08-12T08:37:55Z</time>
      </trkpt>
      <trkpt lat="43.74413" lon="4.15502">
        <ele>47</ele>
        <time>2018-08-12T08:38:04Z</time>
      </trkpt>
      <trkpt lat="43.74408" lon="4.15505">
        <ele>46</ele>
        <time>2018-08-12T08:38:07Z</time>
      </trkpt>
      <trkpt lat="43.74403" lon="4.15507">
        <ele>45</ele>
        <time>2018-08-12T08:38:10Z</time>
      </trkpt>
      <trkpt lat="43.74396" lon="4.15507">
        <ele>45</ele>
        <time>2018-08-12T08:38:13Z</time>
      </trkpt>
      <trkpt lat="43.7439" lon="4.15509">
        <ele>44</ele>
        <time>2018-08-12T08:38:16Z</time>
      </trkpt>
      <trkpt lat="43.74384" lon="4.15511">
        <ele>43</ele>
        <time>2018-08-12T08:38:19Z</time>
      </trkpt>
      <trkpt lat="43.74379" lon="4.15514">
        <ele>43</ele>
        <time>2018-08-12T08:38:22Z</time>
      </trkpt>
      <trkpt lat="43.74374" lon="4.15516">
        <ele>43</ele>
        <time>2018-08-12T08:38:24Z</time>
      </trkpt>
      <trkpt lat="43.74368" lon="4.15519">
        <ele>42</ele>
        <time>2018-08-12T08:38:26Z</time>
      </trkpt>
      <trkpt lat="43.74363" lon="4.15522">
        <ele>42</ele>
        <time>2018-08-12T08:38:28Z</time>
      </trkpt>
      <trkpt lat="43.74359" lon="4.15527">
        <ele>42</ele>
        <time>2018-08-12T08:38:30Z</time>
      </trkpt>
      <trkpt lat="43.74358" lon="4.15534">
        <ele>42</ele>
        <time>2018-08-12T08:38:33Z</time>
      </trkpt>
      <trkpt lat="43.74357" lon="4.15542">
        <ele>41</ele>
        <time>2018-08-12T08:38:36Z</time>
      </trkpt>
      <trkpt lat="43.74355" lon="4.15549">
        <ele>41</ele>
        <time>2018-08-12T08:38:38Z</time>
      </trkpt>
      <trkpt lat="43.74354" lon="4.15556">
        <ele>41</ele>
        <time>2018-08-12T08:38:40Z</time>
      </trkpt>
      <trkpt lat="43.74352" lon="4.15562">
        <ele>41</ele>
        <time>2018-08-12T08:38:42Z</time>
      </trkpt>
      <trkpt lat="43.74349" lon="4.15566">
        <ele>41</ele>
        <time>2018-08-12T08:39:11Z</time>
      </trkpt>
      <trkpt lat="43.74349" lon="4.15566">
        <ele>41</ele>
        <time>2018-08-12T08:39:13Z</time>
      </trkpt>
      <trkpt lat="43.7435" lon="4.15577">
        <ele>40</ele>
        <time>2018-08-12T08:39:35Z</time>
      </trkpt>
      <trkpt lat="43.74351" lon="4.15592">
        <ele>39</ele>
        <time>2018-08-12T08:39:38Z</time>
      </trkpt>
      <trkpt lat="43.74352" lon="4.156">
        <ele>39</ele>
        <time>2018-08-12T08:39:39Z</time>
      </trkpt>
      <trkpt lat="43.74352" lon="4.15608">
        <ele>39</ele>
        <time>2018-08-12T08:39:40Z</time>
      </trkpt>
      <trkpt lat="43.74353" lon="4.15616">
        <ele>39</ele>
        <time>2018-08-12T08:39:41Z</time>
      </trkpt>
      <trkpt lat="43.74353" lon="4.15626">
        <ele>39</ele>
        <time>2018-08-12T08:39:43Z</time>
      </trkpt>
      <trkpt lat="43.74354" lon="4.15634">
        <ele>39</ele>
        <time>2018-08-12T08:39:44Z</time>
      </trkpt>
      <trkpt lat="43.74355" lon="4.15646">
        <ele>38</ele>
        <time>2018-08-12T08:39:46Z</time>
      </trkpt>
      <trkpt lat="43.74355" lon="4.15657">
        <ele>38</ele>
        <time>2018-08-12T08:39:48Z</time>
      </trkpt>
      <trkpt lat="43.74355" lon="4.15666">
        <ele>38</ele>
        <time>2018-08-12T08:39:50Z</time>
      </trkpt>
      <trkpt lat="43.74351" lon="4.15678">
        <ele>37</ele>
        <time>2018-08-12T08:39:51Z</time>
      </trkpt>
      <trkpt lat="43.74348" lon="4.15686">
        <ele>37</ele>
        <time>2018-08-12T08:39:53Z</time>
      </trkpt>
      <trkpt lat="43.74345" lon="4.15692">
        <ele>38</ele>
        <time>2018-08-12T08:39:54Z</time>
      </trkpt>
      <trkpt lat="43.74342" lon="4.15701">
        <ele>38</ele>
        <time>2018-08-12T08:39:56Z</time>
      </trkpt>
      <trkpt lat="43.74339" lon="4.15712">
        <ele>38</ele>
        <time>2018-08-12T08:39:58Z</time>
      </trkpt>
      <trkpt lat="43.74336" lon="4.15723">
        <ele>38</ele>
        <time>2018-08-12T08:40:00Z</time>
      </trkpt>
      <trkpt lat="43.74332" lon="4.15731">
        <ele>36</ele>
        <time>2018-08-12T08:40:02Z</time>
      </trkpt>
      <trkpt lat="43.74328" lon="4.15739">
        <ele>36</ele>
        <time>2018-08-12T08:40:04Z</time>
      </trkpt>
      <trkpt lat="43.74327" lon="4.15745">
        <ele>36</ele>
        <time>2018-08-12T08:40:05Z</time>
      </trkpt>
      <trkpt lat="43.74323" lon="4.15755">
        <ele>37</ele>
        <time>2018-08-12T08:40:07Z</time>
      </trkpt>
      <trkpt lat="43.74326" lon="4.15761">
        <ele>37</ele>
        <time>2018-08-12T08:40:08Z</time>
      </trkpt>
      <trkpt lat="43.74327" lon="4.15771">
        <ele>37</ele>
        <time>2018-08-12T08:40:10Z</time>
      </trkpt>
      <trkpt lat="43.74328" lon="4.15781">
        <ele>37</ele>
        <time>2018-08-12T08:40:12Z</time>
      </trkpt>
      <trkpt lat="43.74328" lon="4.1579">
        <ele>37</ele>
        <time>2018-08-12T08:40:14Z</time>
      </trkpt>
      <trkpt lat="43.74328" lon="4.158">
        <ele>37</ele>
        <time>2018-08-12T08:40:16Z</time>
      </trkpt>
      <trkpt lat="43.74328" lon="4.15806">
        <ele>37</ele>
        <time>2018-08-12T08:40:18Z</time>
      </trkpt>
      <trkpt lat="43.74328" lon="4.15814">
        <ele>38</ele>
        <time>2018-08-12T08:40:20Z</time>
      </trkpt>
      <trkpt lat="43.74329" lon="4.15821">
        <ele>38</ele>
        <time>2018-08-12T08:40:33Z</time>
      </trkpt>
      <trkpt lat="43.74333" lon="4.15827">
        <ele>38</ele>
        <time>2018-08-12T08:40:36Z</time>
      </trkpt>
      <trkpt lat="43.74338" lon="4.15835">
        <ele>39</ele>
        <time>2018-08-12T08:40:38Z</time>
      </trkpt>
      <trkpt lat="43.74342" lon="4.15841">
        <ele>39</ele>
        <time>2018-08-12T08:40:40Z</time>
      </trkpt>
      <trkpt lat="43.74346" lon="4.15847">
        <ele>40</ele>
        <time>2018-08-12T08:40:42Z</time>
      </trkpt>
      <trkpt lat="43.74349" lon="4.15854">
        <ele>40</ele>
        <time>2018-08-12T08:40:44Z</time>
      </trkpt>
      <trkpt lat="43.74352" lon="4.1586">
        <ele>40</ele>
        <time>2018-08-12T08:40:46Z</time>
      </trkpt>
      <trkpt lat="43.74351" lon="4.15868">
        <ele>40</ele>
        <time>2018-08-12T08:40:48Z</time>
      </trkpt>
      <trkpt lat="43.74351" lon="4.15876">
        <ele>40</ele>
        <time>2018-08-12T08:40:50Z</time>
      </trkpt>
      <trkpt lat="43.74352" lon="4.15886">
        <ele>40</ele>
        <time>2018-08-12T08:40:52Z</time>
      </trkpt>
      <trkpt lat="43.74353" lon="4.15894">
        <ele>40</ele>
        <time>2018-08-12T08:40:54Z</time>
      </trkpt>
      <trkpt lat="43.74358" lon="4.15903">
        <ele>40</ele>
        <time>2018-08-12T08:40:56Z</time>
      </trkpt>
      <trkpt lat="43.74361" lon="4.15911">
        <ele>40</ele>
        <time>2018-08-12T08:40:58Z</time>
      </trkpt>
      <trkpt lat="43.74358" lon="4.15923">
        <ele>39</ele>
        <time>2018-08-12T08:41:00Z</time>
      </trkpt>
      <trkpt lat="43.74355" lon="4.15932">
        <ele>39</ele>
        <time>2018-08-12T08:41:02Z</time>
      </trkpt>
      <trkpt lat="43.7435" lon="4.1594">
        <ele>39</ele>
        <time>2018-08-12T08:41:04Z</time>
      </trkpt>
      <trkpt lat="43.74347" lon="4.15949">
        <ele>39</ele>
        <time>2018-08-12T08:41:06Z</time>
      </trkpt>
      <trkpt lat="43.74344" lon="4.15958">
        <ele>39</ele>
        <time>2018-08-12T08:41:08Z</time>
      </trkpt>
      <trkpt lat="43.74339" lon="4.15962">
        <ele>39</ele>
        <time>2018-08-12T08:41:09Z</time>
      </trkpt>
      <trkpt lat="43.74335" lon="4.1597">
        <ele>39</ele>
        <time>2018-08-12T08:41:11Z</time>
      </trkpt>
      <trkpt lat="43.74332" lon="4.15976">
        <ele>39</ele>
        <time>2018-08-12T08:41:12Z</time>
      </trkpt>
      <trkpt lat="43.74328" lon="4.15983">
        <ele>39</ele>
        <time>2018-08-12T08:41:14Z</time>
      </trkpt>
      <trkpt lat="43.74323" lon="4.1599">
        <ele>39</ele>
        <time>2018-08-12T08:41:16Z</time>
      </trkpt>
      <trkpt lat="43.74317" lon="4.15993">
        <ele>40</ele>
        <time>2018-08-12T08:41:18Z</time>
      </trkpt>
      <trkpt lat="43.7431" lon="4.15995">
        <ele>40</ele>
        <time>2018-08-12T08:41:20Z</time>
      </trkpt>
      <trkpt lat="43.74303" lon="4.15996">
        <ele>40</ele>
        <time>2018-08-12T08:41:22Z</time>
      </trkpt>
      <trkpt lat="43.74296" lon="4.15997">
        <ele>40</ele>
        <time>2018-08-12T08:41:24Z</time>
      </trkpt>
      <trkpt lat="43.74292" lon="4.15994">
        <ele>40</ele>
        <time>2018-08-12T08:41:25Z</time>
      </trkpt>
      <trkpt lat="43.74284" lon="4.15993">
        <ele>41</ele>
        <time>2018-08-12T08:41:27Z</time>
      </trkpt>
      <trkpt lat="43.74277" lon="4.15992">
        <ele>41</ele>
        <time>2018-08-12T08:41:29Z</time>
      </trkpt>
      <trkpt lat="43.74269" lon="4.15992">
        <ele>42</ele>
        <time>2018-08-12T08:41:31Z</time>
      </trkpt>
      <trkpt lat="43.74262" lon="4.15991">
        <ele>42</ele>
        <time>2018-08-12T08:41:33Z</time>
      </trkpt>
      <trkpt lat="43.74257" lon="4.1599">
        <ele>42</ele>
        <time>2018-08-12T08:41:35Z</time>
      </trkpt>
      <trkpt lat="43.74252" lon="4.15988">
        <ele>42</ele>
        <time>2018-08-12T08:41:37Z</time>
      </trkpt>
      <trkpt lat="43.74246" lon="4.1599">
        <ele>43</ele>
        <time>2018-08-12T08:41:39Z</time>
      </trkpt>
      <trkpt lat="43.74241" lon="4.1599">
        <ele>42</ele>
        <time>2018-08-12T08:41:42Z</time>
      </trkpt>
      <trkpt lat="43.74236" lon="4.15993">
        <ele>42</ele>
        <time>2018-08-12T08:41:45Z</time>
      </trkpt>
      <trkpt lat="43.74228" lon="4.15994">
        <ele>42</ele>
        <time>2018-08-12T08:41:47Z</time>
      </trkpt>
      <trkpt lat="43.74223" lon="4.15993">
        <ele>42</ele>
        <time>2018-08-12T08:41:49Z</time>
      </trkpt>
      <trkpt lat="43.74218" lon="4.15994">
        <ele>42</ele>
        <time>2018-08-12T08:41:51Z</time>
      </trkpt>
      <trkpt lat="43.74209" lon="4.16001">
        <ele>46</ele>
        <time>2018-08-12T08:41:53Z</time>
      </trkpt>
      <trkpt lat="43.74202" lon="4.16004">
        <ele>46</ele>
        <time>2018-08-12T08:41:55Z</time>
      </trkpt>
      <trkpt lat="43.74196" lon="4.1601">
        <ele>46</ele>
        <time>2018-08-12T08:41:57Z</time>
      </trkpt>
      <trkpt lat="43.74192" lon="4.16017">
        <ele>47</ele>
        <time>2018-08-12T08:41:59Z</time>
      </trkpt>
      <trkpt lat="43.74185" lon="4.16022">
        <ele>47</ele>
        <time>2018-08-12T08:42:01Z</time>
      </trkpt>
      <trkpt lat="43.74178" lon="4.16026">
        <ele>47</ele>
        <time>2018-08-12T08:42:03Z</time>
      </trkpt>
      <trkpt lat="43.74171" lon="4.16029">
        <ele>47</ele>
        <time>2018-08-12T08:42:05Z</time>
      </trkpt>
      <trkpt lat="43.74164" lon="4.16033">
        <ele>49</ele>
        <time>2018-08-12T08:42:07Z</time>
      </trkpt>
      <trkpt lat="43.74157" lon="4.16036">
        <ele>49</ele>
        <time>2018-08-12T08:42:09Z</time>
      </trkpt>
      <trkpt lat="43.74151" lon="4.16039">
        <ele>49</ele>
        <time>2018-08-12T08:42:11Z</time>
      </trkpt>
      <trkpt lat="43.74146" lon="4.16043">
        <ele>50</ele>
        <time>2018-08-12T08:42:13Z</time>
      </trkpt>
      <trkpt lat="43.74141" lon="4.16048">
        <ele>50</ele>
        <time>2018-08-12T08:42:15Z</time>
      </trkpt>
      <trkpt lat="43.74138" lon="4.16054">
        <ele>51</ele>
        <time>2018-08-12T08:42:17Z</time>
      </trkpt>
      <trkpt lat="43.74134" lon="4.16058">
        <ele>51</ele>
        <time>2018-08-12T08:42:19Z</time>
      </trkpt>
      <trkpt lat="43.7413" lon="4.16061">
        <ele>51</ele>
        <time>2018-08-12T08:42:21Z</time>
      </trkpt>
      <trkpt lat="43.74126" lon="4.16064">
        <ele>51</ele>
        <time>2018-08-12T08:42:23Z</time>
      </trkpt>
      <trkpt lat="43.7412" lon="4.16068">
        <ele>52</ele>
        <time>2018-08-12T08:42:26Z</time>
      </trkpt>
      <trkpt lat="43.74116" lon="4.16071">
        <ele>52</ele>
        <time>2018-08-12T08:42:28Z</time>
      </trkpt>
      <trkpt lat="43.74112" lon="4.16073">
        <ele>52</ele>
        <time>2018-08-12T08:42:30Z</time>
      </trkpt>
      <trkpt lat="43.74107" lon="4.16075">
        <ele>52</ele>
        <time>2018-08-12T08:42:32Z</time>
      </trkpt>
      <trkpt lat="43.74103" lon="4.16078">
        <ele>53</ele>
        <time>2018-08-12T08:42:34Z</time>
      </trkpt>
      <trkpt lat="43.74099" lon="4.16083">
        <ele>53</ele>
        <time>2018-08-12T08:42:37Z</time>
      </trkpt>
      <trkpt lat="43.74095" lon="4.16089">
        <ele>55</ele>
        <time>2018-08-12T08:42:40Z</time>
      </trkpt>
      <trkpt lat="43.74092" lon="4.16094">
        <ele>55</ele>
        <time>2018-08-12T08:42:42Z</time>
      </trkpt>
      <trkpt lat="43.74088" lon="4.16101">
        <ele>55</ele>
        <time>2018-08-12T08:42:44Z</time>
      </trkpt>
      <trkpt lat="43.74081" lon="4.16108">
        <ele>52</ele>
        <time>2018-08-12T08:42:46Z</time>
      </trkpt>
      <trkpt lat="43.74075" lon="4.16115">
        <ele>52</ele>
        <time>2018-08-12T08:42:48Z</time>
      </trkpt>
      <trkpt lat="43.74069" lon="4.16121">
        <ele>51</ele>
        <time>2018-08-12T08:42:50Z</time>
      </trkpt>
      <trkpt lat="43.74067" lon="4.16128">
        <ele>51</ele>
        <time>2018-08-12T08:42:51Z</time>
      </trkpt>
      <trkpt lat="43.74062" lon="4.16136">
        <ele>51</ele>
        <time>2018-08-12T08:42:52Z</time>
      </trkpt>
      <trkpt lat="43.74057" lon="4.16147">
        <ele>50</ele>
        <time>2018-08-12T08:42:54Z</time>
      </trkpt>
      <trkpt lat="43.74055" lon="4.16152">
        <ele>50</ele>
        <time>2018-08-12T08:42:55Z</time>
      </trkpt>
      <trkpt lat="43.74049" lon="4.16162">
        <ele>50</ele>
        <time>2018-08-12T08:42:57Z</time>
      </trkpt>
      <trkpt lat="43.7405" lon="4.16171">
        <ele>50</ele>
        <time>2018-08-12T08:42:59Z</time>
      </trkpt>
      <trkpt lat="43.74048" lon="4.16177">
        <ele>50</ele>
        <time>2018-08-12T08:43:01Z</time>
      </trkpt>
      <trkpt lat="43.74044" lon="4.16187">
        <ele>49</ele>
        <time>2018-08-12T08:43:03Z</time>
      </trkpt>
      <trkpt lat="43.74042" lon="4.16195">
        <ele>49</ele>
        <time>2018-08-12T08:43:05Z</time>
      </trkpt>
      <trkpt lat="43.74041" lon="4.16201">
        <ele>49</ele>
        <time>2018-08-12T08:43:06Z</time>
      </trkpt>
      <trkpt lat="43.74038" lon="4.16206">
        <ele>49</ele>
        <time>2018-08-12T08:43:07Z</time>
      </trkpt>
      <trkpt lat="43.74035" lon="4.16213">
        <ele>49</ele>
        <time>2018-08-12T08:43:08Z</time>
      </trkpt>
      <trkpt lat="43.74028" lon="4.16222">
        <ele>49</ele>
        <time>2018-08-12T08:43:10Z</time>
      </trkpt>
      <trkpt lat="43.74023" lon="4.16226">
        <ele>49</ele>
        <time>2018-08-12T08:43:12Z</time>
      </trkpt>
      <trkpt lat="43.7402" lon="4.16232">
        <ele>49</ele>
        <time>2018-08-12T08:43:13Z</time>
      </trkpt>
      <trkpt lat="43.74016" lon="4.1624">
        <ele>49</ele>
        <time>2018-08-12T08:43:15Z</time>
      </trkpt>
      <trkpt lat="43.74009" lon="4.16245">
        <ele>49</ele>
        <time>2018-08-12T08:43:17Z</time>
      </trkpt>
      <trkpt lat="43.74004" lon="4.16249">
        <ele>49</ele>
        <time>2018-08-12T08:43:19Z</time>
      </trkpt>
      <trkpt lat="43.74001" lon="4.16255">
        <ele>49</ele>
        <time>2018-08-12T08:43:21Z</time>
      </trkpt>
      <trkpt lat="43.73997" lon="4.1626">
        <ele>49</ele>
        <time>2018-08-12T08:43:23Z</time>
      </trkpt>
      <trkpt lat="43.73992" lon="4.16264">
        <ele>49</ele>
        <time>2018-08-12T08:43:26Z</time>
      </trkpt>
      <trkpt lat="43.73989" lon="4.1627">
        <ele>50</ele>
        <time>2018-08-12T08:43:29Z</time>
      </trkpt>
      <trkpt lat="43.73984" lon="4.16279">
        <ele>50</ele>
        <time>2018-08-12T08:43:32Z</time>
      </trkpt>
      <trkpt lat="43.7398" lon="4.16284">
        <ele>50</ele>
        <time>2018-08-12T08:43:34Z</time>
      </trkpt>
      <trkpt lat="43.73977" lon="4.1629">
        <ele>50</ele>
        <time>2018-08-12T08:43:35Z</time>
      </trkpt>
      <trkpt lat="43.73973" lon="4.16295">
        <ele>50</ele>
        <time>2018-08-12T08:43:37Z</time>
      </trkpt>
      <trkpt lat="43.7397" lon="4.16301">
        <ele>50</ele>
        <time>2018-08-12T08:43:40Z</time>
      </trkpt>
      <trkpt lat="43.7397" lon="4.16308">
        <ele>50</ele>
        <time>2018-08-12T08:43:42Z</time>
      </trkpt>
      <trkpt lat="43.73972" lon="4.16314">
        <ele>50</ele>
        <time>2018-08-12T08:43:44Z</time>
      </trkpt>
      <trkpt lat="43.73971" lon="4.16309">
        <ele>50</ele>
        <time>2018-08-12T08:44:11Z</time>
      </trkpt>
      <trkpt lat="43.73971" lon="4.16309">
        <ele>50</ele>
        <time>2018-08-12T08:44:13Z</time>
      </trkpt>
      <trkpt lat="43.73971" lon="4.16309">
        <ele>50</ele>
        <time>2018-08-12T08:44:41Z</time>
      </trkpt>
      <trkpt lat="43.73971" lon="4.16309">
        <ele>50</ele>
        <time>2018-08-12T08:44:43Z</time>
      </trkpt>
      <trkpt lat="43.73971" lon="4.1631">
        <ele>50</ele>
        <time>2018-08-12T08:45:11Z</time>
      </trkpt>
      <trkpt lat="43.73971" lon="4.16317">
        <ele>50</ele>
        <time>2018-08-12T08:45:13Z</time>
      </trkpt>
      <trkpt lat="43.73971" lon="4.16324">
        <ele>50</ele>
        <time>2018-08-12T08:45:15Z</time>
      </trkpt>
      <trkpt lat="43.73968" lon="4.16335">
        <ele>51</ele>
        <time>2018-08-12T08:45:18Z</time>
      </trkpt>
      <trkpt lat="43.73961" lon="4.16341">
        <ele>51</ele>
        <time>2018-08-12T08:45:20Z</time>
      </trkpt>
      <trkpt lat="43.73954" lon="4.16347">
        <ele>52</ele>
        <time>2018-08-12T08:45:22Z</time>
      </trkpt>
      <trkpt lat="43.73949" lon="4.1635">
        <ele>52</ele>
        <time>2018-08-12T08:45:24Z</time>
      </trkpt>
      <trkpt lat="43.73943" lon="4.16353">
        <ele>52</ele>
        <time>2018-08-12T08:45:26Z</time>
      </trkpt>
      <trkpt lat="43.73938" lon="4.16358">
        <ele>52</ele>
        <time>2018-08-12T08:45:28Z</time>
      </trkpt>
      <trkpt lat="43.73933" lon="4.16357">
        <ele>52</ele>
        <time>2018-08-12T08:45:30Z</time>
      </trkpt>
      <trkpt lat="43.73928" lon="4.16354">
        <ele>52</ele>
        <time>2018-08-12T08:45:32Z</time>
      </trkpt>
      <trkpt lat="43.73922" lon="4.16354">
        <ele>52</ele>
        <time>2018-08-12T08:45:34Z</time>
      </trkpt>
      <trkpt lat="43.73916" lon="4.16355">
        <ele>52</ele>
        <time>2018-08-12T08:45:36Z</time>
      </trkpt>
      <trkpt lat="43.73911" lon="4.16361">
        <ele>52</ele>
        <time>2018-08-12T08:45:38Z</time>
      </trkpt>
      <trkpt lat="43.73904" lon="4.16365">
        <ele>52</ele>
        <time>2018-08-12T08:45:40Z</time>
      </trkpt>
      <trkpt lat="43.73899" lon="4.16368">
        <ele>52</ele>
        <time>2018-08-12T08:45:42Z</time>
      </trkpt>
      <trkpt lat="43.73893" lon="4.16369">
        <ele>53</ele>
        <time>2018-08-12T08:45:44Z</time>
      </trkpt>
      <trkpt lat="43.73888" lon="4.16373">
        <ele>53</ele>
        <time>2018-08-12T08:45:46Z</time>
      </trkpt>
      <trkpt lat="43.73881" lon="4.16376">
        <ele>53</ele>
        <time>2018-08-12T08:45:48Z</time>
      </trkpt>
      <trkpt lat="43.73875" lon="4.16379">
        <ele>53</ele>
        <time>2018-08-12T08:45:50Z</time>
      </trkpt>
      <trkpt lat="43.73869" lon="4.16381">
        <ele>53</ele>
        <time>2018-08-12T08:45:52Z</time>
      </trkpt>
      <trkpt lat="43.73864" lon="4.16383">
        <ele>53</ele>
        <time>2018-08-12T08:45:53Z</time>
      </trkpt>
      <trkpt lat="43.73857" lon="4.16384">
        <ele>53</ele>
        <time>2018-08-12T08:45:55Z</time>
      </trkpt>
      <trkpt lat="43.73851" lon="4.1639">
        <ele>53</ele>
        <time>2018-08-12T08:45:57Z</time>
      </trkpt>
      <trkpt lat="43.73843" lon="4.16393">
        <ele>53</ele>
        <time>2018-08-12T08:45:59Z</time>
      </trkpt>
      <trkpt lat="43.73836" lon="4.16396">
        <ele>53</ele>
        <time>2018-08-12T08:46:01Z</time>
      </trkpt>
      <trkpt lat="43.73829" lon="4.164">
        <ele>53</ele>
        <time>2018-08-12T08:46:03Z</time>
      </trkpt>
      <trkpt lat="43.73822" lon="4.16401">
        <ele>53</ele>
        <time>2018-08-12T08:46:05Z</time>
      </trkpt>
      <trkpt lat="43.73817" lon="4.16403">
        <ele>53</ele>
        <time>2018-08-12T08:46:07Z</time>
      </trkpt>
      <trkpt lat="43.73811" lon="4.16406">
        <ele>53</ele>
        <time>2018-08-12T08:46:09Z</time>
      </trkpt>
      <trkpt lat="43.73804" lon="4.16409">
        <ele>53</ele>
        <time>2018-08-12T08:46:11Z</time>
      </trkpt>
      <trkpt lat="43.73798" lon="4.16407">
        <ele>53</ele>
        <time>2018-08-12T08:46:13Z</time>
      </trkpt>
      <trkpt lat="43.73793" lon="4.16411">
        <ele>53</ele>
        <time>2018-08-12T08:46:15Z</time>
      </trkpt>
      <trkpt lat="43.73788" lon="4.16413">
        <ele>53</ele>
        <time>2018-08-12T08:46:17Z</time>
      </trkpt>
      <trkpt lat="43.73785" lon="4.16412">
        <ele>53</ele>
        <time>2018-08-12T08:46:41Z</time>
      </trkpt>
      <trkpt lat="43.73785" lon="4.16413">
        <ele>53</ele>
        <time>2018-08-12T08:46:43Z</time>
      </trkpt>
      <trkpt lat="43.73786" lon="4.16411">
        <ele>53</ele>
        <time>2018-08-12T08:47:11Z</time>
      </trkpt>
      <trkpt lat="43.73786" lon="4.16412">
        <ele>53</ele>
        <time>2018-08-12T08:47:13Z</time>
      </trkpt>
      <trkpt lat="43.73785" lon="4.16414">
        <ele>53</ele>
        <time>2018-08-12T08:47:41Z</time>
      </trkpt>
      <trkpt lat="43.73785" lon="4.16414">
        <ele>53</ele>
        <time>2018-08-12T08:47:43Z</time>
      </trkpt>
      <trkpt lat="43.73776" lon="4.16417">
        <ele>52</ele>
        <time>2018-08-12T08:47:49Z</time>
      </trkpt>
      <trkpt lat="43.73771" lon="4.16424">
        <ele>52</ele>
        <time>2018-08-12T08:47:52Z</time>
      </trkpt>
      <trkpt lat="43.73767" lon="4.16429">
        <ele>52</ele>
        <time>2018-08-12T08:47:54Z</time>
      </trkpt>
      <trkpt lat="43.73761" lon="4.16433">
        <ele>52</ele>
        <time>2018-08-12T08:47:56Z</time>
      </trkpt>
      <trkpt lat="43.73756" lon="4.16437">
        <ele>52</ele>
        <time>2018-08-12T08:47:58Z</time>
      </trkpt>
      <trkpt lat="43.73751" lon="4.16439">
        <ele>52</ele>
        <time>2018-08-12T08:47:59Z</time>
      </trkpt>
      <trkpt lat="43.73744" lon="4.16444">
        <ele>52</ele>
        <time>2018-08-12T08:48:01Z</time>
      </trkpt>
      <trkpt lat="43.73738" lon="4.16449">
        <ele>53</ele>
        <time>2018-08-12T08:48:03Z</time>
      </trkpt>
      <trkpt lat="43.73732" lon="4.16456">
        <ele>53</ele>
        <time>2018-08-12T08:48:05Z</time>
      </trkpt>
      <trkpt lat="43.73726" lon="4.16462">
        <ele>53</ele>
        <time>2018-08-12T08:48:07Z</time>
      </trkpt>
      <trkpt lat="43.73722" lon="4.16467">
        <ele>53</ele>
        <time>2018-08-12T08:48:08Z</time>
      </trkpt>
      <trkpt lat="43.73715" lon="4.16474">
        <ele>53</ele>
        <time>2018-08-12T08:48:10Z</time>
      </trkpt>
      <trkpt lat="43.7371" lon="4.16476">
        <ele>53</ele>
        <time>2018-08-12T08:48:11Z</time>
      </trkpt>
      <trkpt lat="43.73703" lon="4.16482">
        <ele>53</ele>
        <time>2018-08-12T08:48:13Z</time>
      </trkpt>
      <trkpt lat="43.73696" lon="4.1649">
        <ele>53</ele>
        <time>2018-08-12T08:48:15Z</time>
      </trkpt>
      <trkpt lat="43.73693" lon="4.16494">
        <ele>53</ele>
        <time>2018-08-12T08:48:16Z</time>
      </trkpt>
      <trkpt lat="43.73689" lon="4.16498">
        <ele>53</ele>
        <time>2018-08-12T08:48:17Z</time>
      </trkpt>
      <trkpt lat="43.73682" lon="4.16504">
        <ele>54</ele>
        <time>2018-08-12T08:48:19Z</time>
      </trkpt>
      <trkpt lat="43.73678" lon="4.16508">
        <ele>54</ele>
        <time>2018-08-12T08:48:20Z</time>
      </trkpt>
      <trkpt lat="43.73674" lon="4.16512">
        <ele>54</ele>
        <time>2018-08-12T08:48:21Z</time>
      </trkpt>
      <trkpt lat="43.73671" lon="4.16516">
        <ele>54</ele>
        <time>2018-08-12T08:48:22Z</time>
      </trkpt>
      <trkpt lat="43.73668" lon="4.16521">
        <ele>54</ele>
        <time>2018-08-12T08:48:24Z</time>
      </trkpt>
      <trkpt lat="43.73661" lon="4.16528">
        <ele>54</ele>
        <time>2018-08-12T08:48:26Z</time>
      </trkpt>
      <trkpt lat="43.73653" lon="4.16534">
        <ele>55</ele>
        <time>2018-08-12T08:48:28Z</time>
      </trkpt>
      <trkpt lat="43.73648" lon="4.16536">
        <ele>55</ele>
        <time>2018-08-12T08:48:29Z</time>
      </trkpt>
      <trkpt lat="43.7364" lon="4.1654">
        <ele>55</ele>
        <time>2018-08-12T08:48:31Z</time>
      </trkpt>
      <trkpt lat="43.73636" lon="4.16547">
        <ele>55</ele>
        <time>2018-08-12T08:48:33Z</time>
      </trkpt>
      <trkpt lat="43.73627" lon="4.16554">
        <ele>55</ele>
        <time>2018-08-12T08:48:35Z</time>
      </trkpt>
      <trkpt lat="43.7362" lon="4.16561">
        <ele>55</ele>
        <time>2018-08-12T08:48:37Z</time>
      </trkpt>
      <trkpt lat="43.73617" lon="4.16568">
        <ele>55</ele>
        <time>2018-08-12T08:48:38Z</time>
      </trkpt>
      <trkpt lat="43.73609" lon="4.16572">
        <ele>55</ele>
        <time>2018-08-12T08:48:40Z</time>
      </trkpt>
      <trkpt lat="43.73604" lon="4.16574">
        <ele>55</ele>
        <time>2018-08-12T08:48:41Z</time>
      </trkpt>
      <trkpt lat="43.73597" lon="4.16581">
        <ele>55</ele>
        <time>2018-08-12T08:48:43Z</time>
      </trkpt>
      <trkpt lat="43.73592" lon="4.16583">
        <ele>55</ele>
        <time>2018-08-12T08:48:44Z</time>
      </trkpt>
      <trkpt lat="43.73587" lon="4.16585">
        <ele>55</ele>
        <time>2018-08-12T08:48:45Z</time>
      </trkpt>
      <trkpt lat="43.73583" lon="4.16588">
        <ele>55</ele>
        <time>2018-08-12T08:48:46Z</time>
      </trkpt>
      <trkpt lat="43.73576" lon="4.16592">
        <ele>54</ele>
        <time>2018-08-12T08:48:48Z</time>
      </trkpt>
      <trkpt lat="43.73572" lon="4.16595">
        <ele>54</ele>
        <time>2018-08-12T08:48:49Z</time>
      </trkpt>
      <trkpt lat="43.73565" lon="4.16596">
        <ele>54</ele>
        <time>2018-08-12T08:48:51Z</time>
      </trkpt>
      <trkpt lat="43.73556" lon="4.16602">
        <ele>54</ele>
        <time>2018-08-12T08:48:53Z</time>
      </trkpt>
      <trkpt lat="43.73551" lon="4.16603">
        <ele>54</ele>
        <time>2018-08-12T08:48:54Z</time>
      </trkpt>
      <trkpt lat="43.73547" lon="4.16605">
        <ele>54</ele>
        <time>2018-08-12T08:48:55Z</time>
      </trkpt>
      <trkpt lat="43.73542" lon="4.1661">
        <ele>54</ele>
        <time>2018-08-12T08:48:56Z</time>
      </trkpt>
      <trkpt lat="43.73534" lon="4.16615">
        <ele>53</ele>
        <time>2018-08-12T08:48:58Z</time>
      </trkpt>
      <trkpt lat="43.73526" lon="4.16619">
        <ele>53</ele>
        <time>2018-08-12T08:48:59Z</time>
      </trkpt>
      <trkpt lat="43.73521" lon="4.16622">
        <ele>53</ele>
        <time>2018-08-12T08:49:00Z</time>
      </trkpt>
      <trkpt lat="43.73517" lon="4.16625">
        <ele>53</ele>
        <time>2018-08-12T08:49:01Z</time>
      </trkpt>
      <trkpt lat="43.7351" lon="4.16624">
        <ele>53</ele>
        <time>2018-08-12T08:49:02Z</time>
      </trkpt>
      <trkpt lat="43.73505" lon="4.16627">
        <ele>53</ele>
        <time>2018-08-12T08:49:03Z</time>
      </trkpt>
      <trkpt lat="43.735" lon="4.16629">
        <ele>53</ele>
        <time>2018-08-12T08:49:04Z</time>
      </trkpt>
      <trkpt lat="43.73496" lon="4.16631">
        <ele>51</ele>
        <time>2018-08-12T08:49:05Z</time>
      </trkpt>
      <trkpt lat="43.73488" lon="4.16635">
        <ele>51</ele>
        <time>2018-08-12T08:49:07Z</time>
      </trkpt>
      <trkpt lat="43.7348" lon="4.16641">
        <ele>51</ele>
        <time>2018-08-12T08:49:09Z</time>
      </trkpt>
      <trkpt lat="43.73476" lon="4.16645">
        <ele>51</ele>
        <time>2018-08-12T08:49:10Z</time>
      </trkpt>
      <trkpt lat="43.73468" lon="4.16649">
        <ele>51</ele>
        <time>2018-08-12T08:49:12Z</time>
      </trkpt>
      <trkpt lat="43.73462" lon="4.16654">
        <ele>51</ele>
        <time>2018-08-12T08:49:13Z</time>
      </trkpt>
      <trkpt lat="43.73457" lon="4.16657">
        <ele>51</ele>
        <time>2018-08-12T08:49:14Z</time>
      </trkpt>
      <trkpt lat="43.73452" lon="4.1666">
        <ele>51</ele>
        <time>2018-08-12T08:49:15Z</time>
      </trkpt>
      <trkpt lat="43.73446" lon="4.16667">
        <ele>51</ele>
        <time>2018-08-12T08:49:17Z</time>
      </trkpt>
      <trkpt lat="43.73441" lon="4.16669">
        <ele>51</ele>
        <time>2018-08-12T08:49:18Z</time>
      </trkpt>
      <trkpt lat="43.73435" lon="4.16673">
        <ele>51</ele>
        <time>2018-08-12T08:49:20Z</time>
      </trkpt>
      <trkpt lat="43.73428" lon="4.16679">
        <ele>51</ele>
        <time>2018-08-12T08:49:22Z</time>
      </trkpt>
      <trkpt lat="43.73419" lon="4.16684">
        <ele>51</ele>
        <time>2018-08-12T08:49:24Z</time>
      </trkpt>
      <trkpt lat="43.73413" lon="4.16687">
        <ele>50</ele>
        <time>2018-08-12T08:49:26Z</time>
      </trkpt>
      <trkpt lat="43.73406" lon="4.16695">
        <ele>50</ele>
        <time>2018-08-12T08:49:28Z</time>
      </trkpt>
      <trkpt lat="43.734" lon="4.16703">
        <ele>50</ele>
        <time>2018-08-12T08:49:30Z</time>
      </trkpt>
      <trkpt lat="43.73394" lon="4.16712">
        <ele>50</ele>
        <time>2018-08-12T08:49:32Z</time>
      </trkpt>
      <trkpt lat="43.73391" lon="4.1672">
        <ele>50</ele>
        <time>2018-08-12T08:49:34Z</time>
      </trkpt>
      <trkpt lat="43.73385" lon="4.16728">
        <ele>50</ele>
        <time>2018-08-12T08:49:36Z</time>
      </trkpt>
      <trkpt lat="43.73378" lon="4.16732">
        <ele>49</ele>
        <time>2018-08-12T08:49:38Z</time>
      </trkpt>
      <trkpt lat="43.7337" lon="4.16738">
        <ele>49</ele>
        <time>2018-08-12T08:49:40Z</time>
      </trkpt>
      <trkpt lat="43.73365" lon="4.1674">
        <ele>49</ele>
        <time>2018-08-12T08:49:41Z</time>
      </trkpt>
      <trkpt lat="43.73361" lon="4.16743">
        <ele>49</ele>
        <time>2018-08-12T08:49:42Z</time>
      </trkpt>
      <trkpt lat="43.73355" lon="4.16747">
        <ele>49</ele>
        <time>2018-08-12T08:49:43Z</time>
      </trkpt>
      <trkpt lat="43.7335" lon="4.16749">
        <ele>49</ele>
        <time>2018-08-12T08:49:44Z</time>
      </trkpt>
      <trkpt lat="43.73346" lon="4.16751">
        <ele>48</ele>
        <time>2018-08-12T08:49:45Z</time>
      </trkpt>
      <trkpt lat="43.73336" lon="4.16757">
        <ele>48</ele>
        <time>2018-08-12T08:49:47Z</time>
      </trkpt>
      <trkpt lat="43.73329" lon="4.16763">
        <ele>47</ele>
        <time>2018-08-12T08:49:49Z</time>
      </trkpt>
      <trkpt lat="43.73324" lon="4.16766">
        <ele>47</ele>
        <time>2018-08-12T08:49:50Z</time>
      </trkpt>
      <trkpt lat="43.73318" lon="4.16772">
        <ele>47</ele>
        <time>2018-08-12T08:49:51Z</time>
      </trkpt>
      <trkpt lat="43.73315" lon="4.16777">
        <ele>46</ele>
        <time>2018-08-12T08:49:52Z</time>
      </trkpt>
      <trkpt lat="43.73311" lon="4.16783">
        <ele>46</ele>
        <time>2018-08-12T08:49:53Z</time>
      </trkpt>
      <trkpt lat="43.73308" lon="4.1679">
        <ele>46</ele>
        <time>2018-08-12T08:49:54Z</time>
      </trkpt>
      <trkpt lat="43.73305" lon="4.16797">
        <ele>46</ele>
        <time>2018-08-12T08:49:55Z</time>
      </trkpt>
      <trkpt lat="43.73302" lon="4.16803">
        <ele>46</ele>
        <time>2018-08-12T08:49:56Z</time>
      </trkpt>
      <trkpt lat="43.73298" lon="4.1681">
        <ele>46</ele>
        <time>2018-08-12T08:49:57Z</time>
      </trkpt>
      <trkpt lat="43.73295" lon="4.16816">
        <ele>46</ele>
        <time>2018-08-12T08:49:58Z</time>
      </trkpt>
      <trkpt lat="43.73292" lon="4.16823">
        <ele>46</ele>
        <time>2018-08-12T08:49:59Z</time>
      </trkpt>
      <trkpt lat="43.73289" lon="4.16833">
        <ele>46</ele>
        <time>2018-08-12T08:50:01Z</time>
      </trkpt>
      <trkpt lat="43.73286" lon="4.16839">
        <ele>45</ele>
        <time>2018-08-12T08:50:02Z</time>
      </trkpt>
      <trkpt lat="43.73282" lon="4.16846">
        <ele>45</ele>
        <time>2018-08-12T08:50:03Z</time>
      </trkpt>
      <trkpt lat="43.7328" lon="4.16852">
        <ele>45</ele>
        <time>2018-08-12T08:50:04Z</time>
      </trkpt>
      <trkpt lat="43.73277" lon="4.16858">
        <ele>45</ele>
        <time>2018-08-12T08:50:05Z</time>
      </trkpt>
      <trkpt lat="43.73275" lon="4.16866">
        <ele>45</ele>
        <time>2018-08-12T08:50:06Z</time>
      </trkpt>
      <trkpt lat="43.73272" lon="4.16872">
        <ele>45</ele>
        <time>2018-08-12T08:50:07Z</time>
      </trkpt>
      <trkpt lat="43.7327" lon="4.16878">
        <ele>45</ele>
        <time>2018-08-12T08:50:08Z</time>
      </trkpt>
      <trkpt lat="43.73268" lon="4.16884">
        <ele>45</ele>
        <time>2018-08-12T08:50:09Z</time>
      </trkpt>
      <trkpt lat="43.73263" lon="4.16888">
        <ele>45</ele>
        <time>2018-08-12T08:50:10Z</time>
      </trkpt>
      <trkpt lat="43.7326" lon="4.16893">
        <ele>45</ele>
        <time>2018-08-12T08:50:11Z</time>
      </trkpt>
      <trkpt lat="43.73257" lon="4.16899">
        <ele>44</ele>
        <time>2018-08-12T08:50:12Z</time>
      </trkpt>
      <trkpt lat="43.73256" lon="4.16906">
        <ele>44</ele>
        <time>2018-08-12T08:50:13Z</time>
      </trkpt>
      <trkpt lat="43.73253" lon="4.16911">
        <ele>44</ele>
        <time>2018-08-12T08:50:14Z</time>
      </trkpt>
      <trkpt lat="43.73249" lon="4.16916">
        <ele>44</ele>
        <time>2018-08-12T08:50:15Z</time>
      </trkpt>
      <trkpt lat="43.73246" lon="4.16923">
        <ele>44</ele>
        <time>2018-08-12T08:50:17Z</time>
      </trkpt>
      <trkpt lat="43.73244" lon="4.1693">
        <ele>44</ele>
        <time>2018-08-12T08:50:19Z</time>
      </trkpt>
      <trkpt lat="43.73241" lon="4.16939">
        <ele>45</ele>
        <time>2018-08-12T08:50:21Z</time>
      </trkpt>
      <trkpt lat="43.73235" lon="4.16946">
        <ele>45</ele>
        <time>2018-08-12T08:50:23Z</time>
      </trkpt>
      <trkpt lat="43.7323" lon="4.16955">
        <ele>45</ele>
        <time>2018-08-12T08:50:25Z</time>
      </trkpt>
      <trkpt lat="43.73224" lon="4.16964">
        <ele>45</ele>
        <time>2018-08-12T08:50:27Z</time>
      </trkpt>
      <trkpt lat="43.73222" lon="4.16969">
        <ele>45</ele>
        <time>2018-08-12T08:50:28Z</time>
      </trkpt>
      <trkpt lat="43.73219" lon="4.16974">
        <ele>45</ele>
        <time>2018-08-12T08:50:29Z</time>
      </trkpt>
      <trkpt lat="43.73216" lon="4.16981">
        <ele>45</ele>
        <time>2018-08-12T08:50:31Z</time>
      </trkpt>
      <trkpt lat="43.73211" lon="4.16985">
        <ele>45</ele>
        <time>2018-08-12T08:50:33Z</time>
      </trkpt>
      <trkpt lat="43.73204" lon="4.16987">
        <ele>45</ele>
        <time>2018-08-12T08:50:35Z</time>
      </trkpt>
      <trkpt lat="43.73197" lon="4.16991">
        <ele>45</ele>
        <time>2018-08-12T08:50:37Z</time>
      </trkpt>
      <trkpt lat="43.73192" lon="4.16999">
        <ele>45</ele>
        <time>2018-08-12T08:50:39Z</time>
      </trkpt>
      <trkpt lat="43.73187" lon="4.17004">
        <ele>44</ele>
        <time>2018-08-12T08:50:41Z</time>
      </trkpt>
      <trkpt lat="43.73182" lon="4.1701">
        <ele>44</ele>
        <time>2018-08-12T08:50:43Z</time>
      </trkpt>
      <trkpt lat="43.73178" lon="4.17015">
        <ele>44</ele>
        <time>2018-08-12T08:50:44Z</time>
      </trkpt>
      <trkpt lat="43.73174" lon="4.17023">
        <ele>44</ele>
        <time>2018-08-12T08:50:46Z</time>
      </trkpt>
      <trkpt lat="43.7317" lon="4.17031">
        <ele>44</ele>
        <time>2018-08-12T08:50:48Z</time>
      </trkpt>
      <trkpt lat="43.73166" lon="4.17035">
        <ele>45</ele>
        <time>2018-08-12T08:50:49Z</time>
      </trkpt>
      <trkpt lat="43.73161" lon="4.17043">
        <ele>45</ele>
        <time>2018-08-12T08:50:51Z</time>
      </trkpt>
      <trkpt lat="43.73154" lon="4.17049">
        <ele>45</ele>
        <time>2018-08-12T08:50:53Z</time>
      </trkpt>
      <trkpt lat="43.7315" lon="4.17056">
        <ele>45</ele>
        <time>2018-08-12T08:50:55Z</time>
      </trkpt>
      <trkpt lat="43.73145" lon="4.17068">
        <ele>45</ele>
        <time>2018-08-12T08:50:57Z</time>
      </trkpt>
      <trkpt lat="43.73141" lon="4.17079">
        <ele>45</ele>
        <time>2018-08-12T08:50:59Z</time>
      </trkpt>
      <trkpt lat="43.73136" lon="4.17086">
        <ele>47</ele>
        <time>2018-08-12T08:51:01Z</time>
      </trkpt>
      <trkpt lat="43.7313" lon="4.17094">
        <ele>48</ele>
        <time>2018-08-12T08:51:03Z</time>
      </trkpt>
      <trkpt lat="43.73129" lon="4.17104">
        <ele>48</ele>
        <time>2018-08-12T08:51:05Z</time>
      </trkpt>
      <trkpt lat="43.73131" lon="4.17119">
        <ele>48</ele>
        <time>2018-08-12T08:51:07Z</time>
      </trkpt>
      <trkpt lat="43.73131" lon="4.17125">
        <ele>48</ele>
        <time>2018-08-12T08:51:08Z</time>
      </trkpt>
      <trkpt lat="43.7313" lon="4.17136">
        <ele>49</ele>
        <time>2018-08-12T08:51:10Z</time>
      </trkpt>
      <trkpt lat="43.73129" lon="4.17143">
        <ele>49</ele>
        <time>2018-08-12T08:51:11Z</time>
      </trkpt>
      <trkpt lat="43.73128" lon="4.17153">
        <ele>49</ele>
        <time>2018-08-12T08:51:13Z</time>
      </trkpt>
      <trkpt lat="43.73126" lon="4.17165">
        <ele>49</ele>
        <time>2018-08-12T08:51:15Z</time>
      </trkpt>
      <trkpt lat="43.73123" lon="4.17175">
        <ele>50</ele>
        <time>2018-08-12T08:51:17Z</time>
      </trkpt>
      <trkpt lat="43.73123" lon="4.17184">
        <ele>50</ele>
        <time>2018-08-12T08:51:19Z</time>
      </trkpt>
      <trkpt lat="43.73123" lon="4.1719">
        <ele>50</ele>
        <time>2018-08-12T08:51:21Z</time>
      </trkpt>
      <trkpt lat="43.73122" lon="4.17198">
        <ele>50</ele>
        <time>2018-08-12T08:51:22Z</time>
      </trkpt>
      <trkpt lat="43.73121" lon="4.17209">
        <ele>50</ele>
        <time>2018-08-12T08:51:24Z</time>
      </trkpt>
      <trkpt lat="43.73117" lon="4.17219">
        <ele>50</ele>
        <time>2018-08-12T08:51:26Z</time>
      </trkpt>
      <trkpt lat="43.73115" lon="4.17226">
        <ele>50</ele>
        <time>2018-08-12T08:51:27Z</time>
      </trkpt>
      <trkpt lat="43.73113" lon="4.17233">
        <ele>50</ele>
        <time>2018-08-12T08:51:28Z</time>
      </trkpt>
      <trkpt lat="43.73109" lon="4.17242">
        <ele>50</ele>
        <time>2018-08-12T08:51:30Z</time>
      </trkpt>
      <trkpt lat="43.73106" lon="4.17251">
        <ele>48</ele>
        <time>2018-08-12T08:51:32Z</time>
      </trkpt>
      <trkpt lat="43.73103" lon="4.17264">
        <ele>48</ele>
        <time>2018-08-12T08:51:34Z</time>
      </trkpt>
      <trkpt lat="43.731" lon="4.17274">
        <ele>47</ele>
        <time>2018-08-12T08:51:36Z</time>
      </trkpt>
      <trkpt lat="43.73094" lon="4.17283">
        <ele>47</ele>
        <time>2018-08-12T08:51:37Z</time>
      </trkpt>
      <trkpt lat="43.73089" lon="4.17288">
        <ele>46</ele>
        <time>2018-08-12T08:51:38Z</time>
      </trkpt>
      <trkpt lat="43.73084" lon="4.17294">
        <ele>46</ele>
        <time>2018-08-12T08:51:40Z</time>
      </trkpt>
      <trkpt lat="43.73082" lon="4.17301">
        <ele>47</ele>
        <time>2018-08-12T08:51:41Z</time>
      </trkpt>
      <trkpt lat="43.73077" lon="4.17308">
        <ele>47</ele>
        <time>2018-08-12T08:51:43Z</time>
      </trkpt>
      <trkpt lat="43.73072" lon="4.17311">
        <ele>46</ele>
        <time>2018-08-12T08:51:45Z</time>
      </trkpt>
      <trkpt lat="43.73069" lon="4.17316">
        <ele>46</ele>
        <time>2018-08-12T08:51:47Z</time>
      </trkpt>
      <trkpt lat="43.73064" lon="4.1732">
        <ele>46</ele>
        <time>2018-08-12T08:51:48Z</time>
      </trkpt>
      <trkpt lat="43.73061" lon="4.17324">
        <ele>46</ele>
        <time>2018-08-12T08:51:50Z</time>
      </trkpt>
      <trkpt lat="43.73057" lon="4.17328">
        <ele>46</ele>
        <time>2018-08-12T08:51:51Z</time>
      </trkpt>
      <trkpt lat="43.73052" lon="4.17333">
        <ele>47</ele>
        <time>2018-08-12T08:51:52Z</time>
      </trkpt>
      <trkpt lat="43.73031" lon="4.17365">
        <ele>42</ele>
        <time>2018-08-12T08:52:04Z</time>
      </trkpt>
      <trkpt lat="43.7303" lon="4.17372">
        <ele>42</ele>
        <time>2018-08-12T08:52:05Z</time>
      </trkpt>
      <trkpt lat="43.73034" lon="4.17377">
        <ele>41</ele>
        <time>2018-08-12T08:52:07Z</time>
      </trkpt>
      <trkpt lat="43.73035" lon="4.17385">
        <ele>41</ele>
        <time>2018-08-12T08:52:09Z</time>
      </trkpt>
      <trkpt lat="43.73038" lon="4.17391">
        <ele>41</ele>
        <time>2018-08-12T08:52:11Z</time>
      </trkpt>
      <trkpt lat="43.73039" lon="4.17399">
        <ele>40</ele>
        <time>2018-08-12T08:52:13Z</time>
      </trkpt>
      <trkpt lat="43.73035" lon="4.17406">
        <ele>40</ele>
        <time>2018-08-12T08:52:15Z</time>
      </trkpt>
      <trkpt lat="43.7303" lon="4.17416">
        <ele>40</ele>
        <time>2018-08-12T08:52:17Z</time>
      </trkpt>
      <trkpt lat="43.73026" lon="4.17426">
        <ele>38</ele>
        <time>2018-08-12T08:52:19Z</time>
      </trkpt>
      <trkpt lat="43.73022" lon="4.17435">
        <ele>38</ele>
        <time>2018-08-12T08:52:21Z</time>
      </trkpt>
      <trkpt lat="43.73018" lon="4.17445">
        <ele>37</ele>
        <time>2018-08-12T08:52:23Z</time>
      </trkpt>
      <trkpt lat="43.73014" lon="4.17455">
        <ele>37</ele>
        <time>2018-08-12T08:52:25Z</time>
      </trkpt>
      <trkpt lat="43.7301" lon="4.17465">
        <ele>37</ele>
        <time>2018-08-12T08:52:27Z</time>
      </trkpt>
      <trkpt lat="43.73007" lon="4.1747">
        <ele>37</ele>
        <time>2018-08-12T08:52:28Z</time>
      </trkpt>
      <trkpt lat="43.73003" lon="4.1748">
        <ele>36</ele>
        <time>2018-08-12T08:52:30Z</time>
      </trkpt>
      <trkpt lat="43.72999" lon="4.17488">
        <ele>37</ele>
        <time>2018-08-12T08:52:31Z</time>
      </trkpt>
      <trkpt lat="43.72995" lon="4.17498">
        <ele>36</ele>
        <time>2018-08-12T08:52:33Z</time>
      </trkpt>
      <trkpt lat="43.7299" lon="4.17505">
        <ele>36</ele>
        <time>2018-08-12T08:52:34Z</time>
      </trkpt>
      <trkpt lat="43.72988" lon="4.1751">
        <ele>37</ele>
        <time>2018-08-12T08:52:35Z</time>
      </trkpt>
      <trkpt lat="43.72986" lon="4.17516">
        <ele>37</ele>
        <time>2018-08-12T08:52:36Z</time>
      </trkpt>
      <trkpt lat="43.72986" lon="4.17525">
        <ele>37</ele>
        <time>2018-08-12T08:52:37Z</time>
      </trkpt>
      <trkpt lat="43.72983" lon="4.17531">
        <ele>37</ele>
        <time>2018-08-12T08:52:38Z</time>
      </trkpt>
      <trkpt lat="43.72981" lon="4.17536">
        <ele>37</ele>
        <time>2018-08-12T08:52:39Z</time>
      </trkpt>
      <trkpt lat="43.72976" lon="4.17545">
        <ele>38</ele>
        <time>2018-08-12T08:52:41Z</time>
      </trkpt>
      <trkpt lat="43.72973" lon="4.17551">
        <ele>38</ele>
        <time>2018-08-12T08:52:42Z</time>
      </trkpt>
      <trkpt lat="43.72971" lon="4.17556">
        <ele>38</ele>
        <time>2018-08-12T08:52:43Z</time>
      </trkpt>
      <trkpt lat="43.72968" lon="4.17563">
        <ele>38</ele>
        <time>2018-08-12T08:52:44Z</time>
      </trkpt>
      <trkpt lat="43.72966" lon="4.17568">
        <ele>38</ele>
        <time>2018-08-12T08:52:45Z</time>
      </trkpt>
      <trkpt lat="43.72963" lon="4.17575">
        <ele>38</ele>
        <time>2018-08-12T08:52:46Z</time>
      </trkpt>
      <trkpt lat="43.72961" lon="4.17582">
        <ele>38</ele>
        <time>2018-08-12T08:52:47Z</time>
      </trkpt>
      <trkpt lat="43.72958" lon="4.17588">
        <ele>37</ele>
        <time>2018-08-12T08:52:48Z</time>
      </trkpt>
      <trkpt lat="43.72953" lon="4.17599">
        <ele>37</ele>
        <time>2018-08-12T08:52:50Z</time>
      </trkpt>
      <trkpt lat="43.72951" lon="4.17605">
        <ele>37</ele>
        <time>2018-08-12T08:52:51Z</time>
      </trkpt>
      <trkpt lat="43.72945" lon="4.17612">
        <ele>36</ele>
        <time>2018-08-12T08:52:53Z</time>
      </trkpt>
      <trkpt lat="43.72942" lon="4.17618">
        <ele>36</ele>
        <time>2018-08-12T08:52:54Z</time>
      </trkpt>
      <trkpt lat="43.72937" lon="4.17625">
        <ele>36</ele>
        <time>2018-08-12T08:52:55Z</time>
      </trkpt>
      <trkpt lat="43.72934" lon="4.1763">
        <ele>36</ele>
        <time>2018-08-12T08:52:56Z</time>
      </trkpt>
      <trkpt lat="43.72931" lon="4.17635">
        <ele>36</ele>
        <time>2018-08-12T08:52:57Z</time>
      </trkpt>
      <trkpt lat="43.72924" lon="4.17642">
        <ele>36</ele>
        <time>2018-08-12T08:52:59Z</time>
      </trkpt>
      <trkpt lat="43.72921" lon="4.17648">
        <ele>35</ele>
        <time>2018-08-12T08:53:00Z</time>
      </trkpt>
      <trkpt lat="43.72918" lon="4.17657">
        <ele>35</ele>
        <time>2018-08-12T08:53:01Z</time>
      </trkpt>
      <trkpt lat="43.72916" lon="4.17663">
        <ele>34</ele>
        <time>2018-08-12T08:53:02Z</time>
      </trkpt>
      <trkpt lat="43.72914" lon="4.17669">
        <ele>34</ele>
        <time>2018-08-12T08:53:03Z</time>
      </trkpt>
      <trkpt lat="43.7291" lon="4.17674">
        <ele>34</ele>
        <time>2018-08-12T08:53:04Z</time>
      </trkpt>
      <trkpt lat="43.72907" lon="4.1768">
        <ele>34</ele>
        <time>2018-08-12T08:53:05Z</time>
      </trkpt>
      <trkpt lat="43.72905" lon="4.17686">
        <ele>35</ele>
        <time>2018-08-12T08:53:06Z</time>
      </trkpt>
      <trkpt lat="43.72902" lon="4.17693">
        <ele>35</ele>
        <time>2018-08-12T08:53:07Z</time>
      </trkpt>
      <trkpt lat="43.72899" lon="4.17699">
        <ele>35</ele>
        <time>2018-08-12T08:53:08Z</time>
      </trkpt>
      <trkpt lat="43.72896" lon="4.17705">
        <ele>35</ele>
        <time>2018-08-12T08:53:09Z</time>
      </trkpt>
      <trkpt lat="43.72894" lon="4.17712">
        <ele>35</ele>
        <time>2018-08-12T08:53:10Z</time>
      </trkpt>
      <trkpt lat="43.72889" lon="4.17719">
        <ele>35</ele>
        <time>2018-08-12T08:53:11Z</time>
      </trkpt>
      <trkpt lat="43.72887" lon="4.17725">
        <ele>35</ele>
        <time>2018-08-12T08:53:12Z</time>
      </trkpt>
      <trkpt lat="43.72884" lon="4.17731">
        <ele>35</ele>
        <time>2018-08-12T08:53:13Z</time>
      </trkpt>
      <trkpt lat="43.72883" lon="4.17737">
        <ele>35</ele>
        <time>2018-08-12T08:53:14Z</time>
      </trkpt>
      <trkpt lat="43.7288" lon="4.17744">
        <ele>35</ele>
        <time>2018-08-12T08:53:15Z</time>
      </trkpt>
      <trkpt lat="43.72878" lon="4.1775">
        <ele>35</ele>
        <time>2018-08-12T08:53:16Z</time>
      </trkpt>
      <trkpt lat="43.72878" lon="4.17758">
        <ele>34</ele>
        <time>2018-08-12T08:53:17Z</time>
      </trkpt>
      <trkpt lat="43.72875" lon="4.17768">
        <ele>34</ele>
        <time>2018-08-12T08:53:19Z</time>
      </trkpt>
      <trkpt lat="43.72873" lon="4.17775">
        <ele>34</ele>
        <time>2018-08-12T08:53:20Z</time>
      </trkpt>
      <trkpt lat="43.72871" lon="4.17781">
        <ele>34</ele>
        <time>2018-08-12T08:53:21Z</time>
      </trkpt>
      <trkpt lat="43.72869" lon="4.17788">
        <ele>34</ele>
        <time>2018-08-12T08:53:22Z</time>
      </trkpt>
      <trkpt lat="43.72867" lon="4.17795">
        <ele>34</ele>
        <time>2018-08-12T08:53:23Z</time>
      </trkpt>
      <trkpt lat="43.72865" lon="4.17802">
        <ele>34</ele>
        <time>2018-08-12T08:53:24Z</time>
      </trkpt>
      <trkpt lat="43.72863" lon="4.17809">
        <ele>34</ele>
        <time>2018-08-12T08:53:25Z</time>
      </trkpt>
      <trkpt lat="43.72862" lon="4.17815">
        <ele>34</ele>
        <time>2018-08-12T08:53:26Z</time>
      </trkpt>
      <trkpt lat="43.7286" lon="4.17822">
        <ele>34</ele>
        <time>2018-08-12T08:53:27Z</time>
      </trkpt>
      <trkpt lat="43.72857" lon="4.17832">
        <ele>34</ele>
        <time>2018-08-12T08:53:29Z</time>
      </trkpt>
      <trkpt lat="43.72855" lon="4.17838">
        <ele>33</ele>
        <time>2018-08-12T08:53:30Z</time>
      </trkpt>
      <trkpt lat="43.72854" lon="4.17845">
        <ele>33</ele>
        <time>2018-08-12T08:53:31Z</time>
      </trkpt>
      <trkpt lat="43.72852" lon="4.17852">
        <ele>33</ele>
        <time>2018-08-12T08:53:32Z</time>
      </trkpt>
      <trkpt lat="43.7285" lon="4.17864">
        <ele>33</ele>
        <time>2018-08-12T08:53:34Z</time>
      </trkpt>
      <trkpt lat="43.72848" lon="4.17876">
        <ele>33</ele>
        <time>2018-08-12T08:53:36Z</time>
      </trkpt>
      <trkpt lat="43.72847" lon="4.17882">
        <ele>33</ele>
        <time>2018-08-12T08:53:37Z</time>
      </trkpt>
      <trkpt lat="43.72844" lon="4.17887">
        <ele>33</ele>
        <time>2018-08-12T08:53:38Z</time>
      </trkpt>
      <trkpt lat="43.72842" lon="4.17893">
        <ele>33</ele>
        <time>2018-08-12T08:53:39Z</time>
      </trkpt>
      <trkpt lat="43.72841" lon="4.17899">
        <ele>32</ele>
        <time>2018-08-12T08:53:40Z</time>
      </trkpt>
      <trkpt lat="43.7284" lon="4.17906">
        <ele>32</ele>
        <time>2018-08-12T08:53:41Z</time>
      </trkpt>
      <trkpt lat="43.72839" lon="4.17912">
        <ele>32</ele>
        <time>2018-08-12T08:53:42Z</time>
      </trkpt>
      <trkpt lat="43.72837" lon="4.17919">
        <ele>32</ele>
        <time>2018-08-12T08:53:43Z</time>
      </trkpt>
      <trkpt lat="43.72836" lon="4.17925">
        <ele>32</ele>
        <time>2018-08-12T08:53:44Z</time>
      </trkpt>
      <trkpt lat="43.72836" lon="4.17932">
        <ele>32</ele>
        <time>2018-08-12T08:53:45Z</time>
      </trkpt>
      <trkpt lat="43.72834" lon="4.17938">
        <ele>31</ele>
        <time>2018-08-12T08:53:46Z</time>
      </trkpt>
      <trkpt lat="43.72832" lon="4.17944">
        <ele>32</ele>
        <time>2018-08-12T08:53:47Z</time>
      </trkpt>
      <trkpt lat="43.72831" lon="4.1795">
        <ele>32</ele>
        <time>2018-08-12T08:53:48Z</time>
      </trkpt>
      <trkpt lat="43.72828" lon="4.17956">
        <ele>32</ele>
        <time>2018-08-12T08:53:49Z</time>
      </trkpt>
      <trkpt lat="43.72825" lon="4.17963">
        <ele>32</ele>
        <time>2018-08-12T08:53:50Z</time>
      </trkpt>
      <trkpt lat="43.72824" lon="4.17969">
        <ele>32</ele>
        <time>2018-08-12T08:53:51Z</time>
      </trkpt>
      <trkpt lat="43.72822" lon="4.17975">
        <ele>32</ele>
        <time>2018-08-12T08:53:52Z</time>
      </trkpt>
      <trkpt lat="43.72821" lon="4.17986">
        <ele>32</ele>
        <time>2018-08-12T08:53:54Z</time>
      </trkpt>
      <trkpt lat="43.7282" lon="4.17993">
        <ele>31</ele>
        <time>2018-08-12T08:53:55Z</time>
      </trkpt>
      <trkpt lat="43.72818" lon="4.18">
        <ele>31</ele>
        <time>2018-08-12T08:53:56Z</time>
      </trkpt>
      <trkpt lat="43.72816" lon="4.18007">
        <ele>31</ele>
        <time>2018-08-12T08:53:57Z</time>
      </trkpt>
      <trkpt lat="43.72815" lon="4.18014">
        <ele>31</ele>
        <time>2018-08-12T08:53:58Z</time>
      </trkpt>
      <trkpt lat="43.72813" lon="4.18021">
        <ele>31</ele>
        <time>2018-08-12T08:53:59Z</time>
      </trkpt>
      <trkpt lat="43.72813" lon="4.18028">
        <ele>31</ele>
        <time>2018-08-12T08:54:00Z</time>
      </trkpt>
      <trkpt lat="43.72812" lon="4.18035">
        <ele>31</ele>
        <time>2018-08-12T08:54:01Z</time>
      </trkpt>
      <trkpt lat="43.72812" lon="4.18044">
        <ele>31</ele>
        <time>2018-08-12T08:54:02Z</time>
      </trkpt>
      <trkpt lat="43.72811" lon="4.18051">
        <ele>31</ele>
        <time>2018-08-12T08:54:03Z</time>
      </trkpt>
      <trkpt lat="43.7281" lon="4.18059">
        <ele>30</ele>
        <time>2018-08-12T08:54:04Z</time>
      </trkpt>
      <trkpt lat="43.72808" lon="4.18066">
        <ele>30</ele>
        <time>2018-08-12T08:54:05Z</time>
      </trkpt>
      <trkpt lat="43.72806" lon="4.18074">
        <ele>30</ele>
        <time>2018-08-12T08:54:06Z</time>
      </trkpt>
      <trkpt lat="43.72805" lon="4.1808">
        <ele>30</ele>
        <time>2018-08-12T08:54:07Z</time>
      </trkpt>
      <trkpt lat="43.72805" lon="4.18087">
        <ele>30</ele>
        <time>2018-08-12T08:54:08Z</time>
      </trkpt>
      <trkpt lat="43.72804" lon="4.18095">
        <ele>30</ele>
        <time>2018-08-12T08:54:09Z</time>
      </trkpt>
      <trkpt lat="43.72804" lon="4.18102">
        <ele>30</ele>
        <time>2018-08-12T08:54:10Z</time>
      </trkpt>
      <trkpt lat="43.72803" lon="4.18108">
        <ele>30</ele>
        <time>2018-08-12T08:54:11Z</time>
      </trkpt>
      <trkpt lat="43.728" lon="4.18116">
        <ele>30</ele>
        <time>2018-08-12T08:54:12Z</time>
      </trkpt>
      <trkpt lat="43.72799" lon="4.18123">
        <ele>30</ele>
        <time>2018-08-12T08:54:13Z</time>
      </trkpt>
      <trkpt lat="43.72797" lon="4.1813">
        <ele>30</ele>
        <time>2018-08-12T08:54:14Z</time>
      </trkpt>
      <trkpt lat="43.72796" lon="4.18137">
        <ele>30</ele>
        <time>2018-08-12T08:54:15Z</time>
      </trkpt>
      <trkpt lat="43.72796" lon="4.18144">
        <ele>30</ele>
        <time>2018-08-12T08:54:16Z</time>
      </trkpt>
      <trkpt lat="43.72795" lon="4.18155">
        <ele>30</ele>
        <time>2018-08-12T08:54:18Z</time>
      </trkpt>
      <trkpt lat="43.72795" lon="4.18162">
        <ele>30</ele>
        <time>2018-08-12T08:54:19Z</time>
      </trkpt>
      <trkpt lat="43.72795" lon="4.18171">
        <ele>30</ele>
        <time>2018-08-12T08:54:20Z</time>
      </trkpt>
      <trkpt lat="43.72796" lon="4.18179">
        <ele>30</ele>
        <time>2018-08-12T08:54:21Z</time>
      </trkpt>
      <trkpt lat="43.72796" lon="4.18185">
        <ele>30</ele>
        <time>2018-08-12T08:54:22Z</time>
      </trkpt>
      <trkpt lat="43.72796" lon="4.18193">
        <ele>30</ele>
        <time>2018-08-12T08:54:23Z</time>
      </trkpt>
      <trkpt lat="43.72796" lon="4.18205">
        <ele>30</ele>
        <time>2018-08-12T08:54:25Z</time>
      </trkpt>
      <trkpt lat="43.72796" lon="4.18212">
        <ele>30</ele>
        <time>2018-08-12T08:54:26Z</time>
      </trkpt>
      <trkpt lat="43.72796" lon="4.18225">
        <ele>30</ele>
        <time>2018-08-12T08:54:28Z</time>
      </trkpt>
      <trkpt lat="43.72796" lon="4.18231">
        <ele>30</ele>
        <time>2018-08-12T08:54:29Z</time>
      </trkpt>
      <trkpt lat="43.72796" lon="4.18238">
        <ele>30</ele>
        <time>2018-08-12T08:54:30Z</time>
      </trkpt>
      <trkpt lat="43.72796" lon="4.1825">
        <ele>30</ele>
        <time>2018-08-12T08:54:32Z</time>
      </trkpt>
      <trkpt lat="43.72797" lon="4.18257">
        <ele>30</ele>
        <time>2018-08-12T08:54:33Z</time>
      </trkpt>
      <trkpt lat="43.72799" lon="4.18264">
        <ele>30</ele>
        <time>2018-08-12T08:54:34Z</time>
      </trkpt>
      <trkpt lat="43.728" lon="4.1827">
        <ele>30</ele>
        <time>2018-08-12T08:54:35Z</time>
      </trkpt>
      <trkpt lat="43.728" lon="4.18277">
        <ele>30</ele>
        <time>2018-08-12T08:54:36Z</time>
      </trkpt>
      <trkpt lat="43.72801" lon="4.18284">
        <ele>30</ele>
        <time>2018-08-12T08:54:37Z</time>
      </trkpt>
      <trkpt lat="43.72802" lon="4.18291">
        <ele>30</ele>
        <time>2018-08-12T08:54:38Z</time>
      </trkpt>
      <trkpt lat="43.72803" lon="4.18298">
        <ele>30</ele>
        <time>2018-08-12T08:54:39Z</time>
      </trkpt>
      <trkpt lat="43.72804" lon="4.18305">
        <ele>30</ele>
        <time>2018-08-12T08:54:40Z</time>
      </trkpt>
      <trkpt lat="43.72804" lon="4.18312">
        <ele>30</ele>
        <time>2018-08-12T08:54:41Z</time>
      </trkpt>
      <trkpt lat="43.72805" lon="4.18319">
        <ele>30</ele>
        <time>2018-08-12T08:54:42Z</time>
      </trkpt>
      <trkpt lat="43.72807" lon="4.18326">
        <ele>30</ele>
        <time>2018-08-12T08:54:43Z</time>
      </trkpt>
      <trkpt lat="43.72809" lon="4.18332">
        <ele>30</ele>
        <time>2018-08-12T08:54:44Z</time>
      </trkpt>
      <trkpt lat="43.72811" lon="4.18338">
        <ele>29</ele>
        <time>2018-08-12T08:54:45Z</time>
      </trkpt>
      <trkpt lat="43.72812" lon="4.18345">
        <ele>29</ele>
        <time>2018-08-12T08:54:46Z</time>
      </trkpt>
      <trkpt lat="43.72813" lon="4.18352">
        <ele>29</ele>
        <time>2018-08-12T08:54:47Z</time>
      </trkpt>
      <trkpt lat="43.72815" lon="4.18364">
        <ele>29</ele>
        <time>2018-08-12T08:54:49Z</time>
      </trkpt>
      <trkpt lat="43.72816" lon="4.18371">
        <ele>29</ele>
        <time>2018-08-12T08:54:50Z</time>
      </trkpt>
      <trkpt lat="43.72818" lon="4.18378">
        <ele>29</ele>
        <time>2018-08-12T08:54:51Z</time>
      </trkpt>
      <trkpt lat="43.7282" lon="4.18385">
        <ele>29</ele>
        <time>2018-08-12T08:54:52Z</time>
      </trkpt>
      <trkpt lat="43.72822" lon="4.18392">
        <ele>28</ele>
        <time>2018-08-12T08:54:53Z</time>
      </trkpt>
      <trkpt lat="43.72825" lon="4.184">
        <ele>28</ele>
        <time>2018-08-12T08:54:54Z</time>
      </trkpt>
      <trkpt lat="43.72826" lon="4.18407">
        <ele>28</ele>
        <time>2018-08-12T08:54:55Z</time>
      </trkpt>
      <trkpt lat="43.72828" lon="4.18415">
        <ele>27</ele>
        <time>2018-08-12T08:54:56Z</time>
      </trkpt>
      <trkpt lat="43.7283" lon="4.18422">
        <ele>27</ele>
        <time>2018-08-12T08:54:57Z</time>
      </trkpt>
      <trkpt lat="43.7283" lon="4.18429">
        <ele>27</ele>
        <time>2018-08-12T08:54:58Z</time>
      </trkpt>
      <trkpt lat="43.72832" lon="4.18435">
        <ele>27</ele>
        <time>2018-08-12T08:54:59Z</time>
      </trkpt>
      <trkpt lat="43.72834" lon="4.18442">
        <ele>27</ele>
        <time>2018-08-12T08:55:00Z</time>
      </trkpt>
      <trkpt lat="43.72834" lon="4.18449">
        <ele>27</ele>
        <time>2018-08-12T08:55:01Z</time>
      </trkpt>
      <trkpt lat="43.72837" lon="4.18456">
        <ele>27</ele>
        <time>2018-08-12T08:55:02Z</time>
      </trkpt>
      <trkpt lat="43.72839" lon="4.18462">
        <ele>27</ele>
        <time>2018-08-12T08:55:03Z</time>
      </trkpt>
      <trkpt lat="43.72837" lon="4.1847">
        <ele>27</ele>
        <time>2018-08-12T08:55:04Z</time>
      </trkpt>
      <trkpt lat="43.72839" lon="4.18478">
        <ele>27</ele>
        <time>2018-08-12T08:55:05Z</time>
      </trkpt>
      <trkpt lat="43.72841" lon="4.18484">
        <ele>27</ele>
        <time>2018-08-12T08:55:06Z</time>
      </trkpt>
      <trkpt lat="43.72844" lon="4.1849">
        <ele>27</ele>
        <time>2018-08-12T08:55:07Z</time>
      </trkpt>
      <trkpt lat="43.72846" lon="4.18496">
        <ele>27</ele>
        <time>2018-08-12T08:55:08Z</time>
      </trkpt>
      <trkpt lat="43.72847" lon="4.18503">
        <ele>27</ele>
        <time>2018-08-12T08:55:09Z</time>
      </trkpt>
      <trkpt lat="43.72849" lon="4.1851">
        <ele>28</ele>
        <time>2018-08-12T08:55:10Z</time>
      </trkpt>
      <trkpt lat="43.72852" lon="4.18517">
        <ele>28</ele>
        <time>2018-08-12T08:55:11Z</time>
      </trkpt>
      <trkpt lat="43.72855" lon="4.18523">
        <ele>28</ele>
        <time>2018-08-12T08:55:12Z</time>
      </trkpt>
      <trkpt lat="43.72857" lon="4.1853">
        <ele>28</ele>
        <time>2018-08-12T08:55:13Z</time>
      </trkpt>
      <trkpt lat="43.72858" lon="4.18537">
        <ele>28</ele>
        <time>2018-08-12T08:55:14Z</time>
      </trkpt>
      <trkpt lat="43.7286" lon="4.18544">
        <ele>28</ele>
        <time>2018-08-12T08:55:15Z</time>
      </trkpt>
      <trkpt lat="43.72862" lon="4.18551">
        <ele>28</ele>
        <time>2018-08-12T08:55:16Z</time>
      </trkpt>
      <trkpt lat="43.72864" lon="4.18557">
        <ele>28</ele>
        <time>2018-08-12T08:55:17Z</time>
      </trkpt>
      <trkpt lat="43.72867" lon="4.1857">
        <ele>28</ele>
        <time>2018-08-12T08:55:19Z</time>
      </trkpt>
      <trkpt lat="43.72869" lon="4.18576">
        <ele>28</ele>
        <time>2018-08-12T08:55:20Z</time>
      </trkpt>
      <trkpt lat="43.72871" lon="4.18583">
        <ele>28</ele>
        <time>2018-08-12T08:55:21Z</time>
      </trkpt>
      <trkpt lat="43.72874" lon="4.18588">
        <ele>28</ele>
        <time>2018-08-12T08:55:22Z</time>
      </trkpt>
      <trkpt lat="43.72876" lon="4.18594">
        <ele>28</ele>
        <time>2018-08-12T08:55:23Z</time>
      </trkpt>
      <trkpt lat="43.72878" lon="4.186">
        <ele>28</ele>
        <time>2018-08-12T08:55:24Z</time>
      </trkpt>
      <trkpt lat="43.7288" lon="4.18606">
        <ele>28</ele>
        <time>2018-08-12T08:55:25Z</time>
      </trkpt>
      <trkpt lat="43.72883" lon="4.18611">
        <ele>28</ele>
        <time>2018-08-12T08:55:26Z</time>
      </trkpt>
      <trkpt lat="43.72887" lon="4.18622">
        <ele>28</ele>
        <time>2018-08-12T08:55:28Z</time>
      </trkpt>
      <trkpt lat="43.72889" lon="4.18634">
        <ele>28</ele>
        <time>2018-08-12T08:55:30Z</time>
      </trkpt>
      <trkpt lat="43.72892" lon="4.18645">
        <ele>28</ele>
        <time>2018-08-12T08:55:32Z</time>
      </trkpt>
      <trkpt lat="43.72895" lon="4.18656">
        <ele>28</ele>
        <time>2018-08-12T08:55:34Z</time>
      </trkpt>
      <trkpt lat="43.72897" lon="4.18663">
        <ele>28</ele>
        <time>2018-08-12T08:55:35Z</time>
      </trkpt>
      <trkpt lat="43.72898" lon="4.18671">
        <ele>27</ele>
        <time>2018-08-12T08:55:36Z</time>
      </trkpt>
      <trkpt lat="43.729" lon="4.18676">
        <ele>27</ele>
        <time>2018-08-12T08:55:37Z</time>
      </trkpt>
      <trkpt lat="43.72902" lon="4.18683">
        <ele>27</ele>
        <time>2018-08-12T08:55:38Z</time>
      </trkpt>
      <trkpt lat="43.72904" lon="4.1869">
        <ele>27</ele>
        <time>2018-08-12T08:55:39Z</time>
      </trkpt>
      <trkpt lat="43.72907" lon="4.18696">
        <ele>27</ele>
        <time>2018-08-12T08:55:40Z</time>
      </trkpt>
      <trkpt lat="43.72909" lon="4.18703">
        <ele>27</ele>
        <time>2018-08-12T08:55:41Z</time>
      </trkpt>
      <trkpt lat="43.72911" lon="4.18708">
        <ele>26</ele>
        <time>2018-08-12T08:55:42Z</time>
      </trkpt>
      <trkpt lat="43.72914" lon="4.18715">
        <ele>26</ele>
        <time>2018-08-12T08:55:43Z</time>
      </trkpt>
      <trkpt lat="43.72917" lon="4.1872">
        <ele>27</ele>
        <time>2018-08-12T08:55:44Z</time>
      </trkpt>
      <trkpt lat="43.72919" lon="4.18727">
        <ele>27</ele>
        <time>2018-08-12T08:55:45Z</time>
      </trkpt>
      <trkpt lat="43.72921" lon="4.18733">
        <ele>27</ele>
        <time>2018-08-12T08:55:46Z</time>
      </trkpt>
      <trkpt lat="43.72923" lon="4.1874">
        <ele>27</ele>
        <time>2018-08-12T08:55:47Z</time>
      </trkpt>
      <trkpt lat="43.72926" lon="4.18746">
        <ele>27</ele>
        <time>2018-08-12T08:55:48Z</time>
      </trkpt>
      <trkpt lat="43.72929" lon="4.18753">
        <ele>26</ele>
        <time>2018-08-12T08:55:49Z</time>
      </trkpt>
      <trkpt lat="43.72932" lon="4.18759">
        <ele>26</ele>
        <time>2018-08-12T08:55:50Z</time>
      </trkpt>
      <trkpt lat="43.72936" lon="4.18766">
        <ele>26</ele>
        <time>2018-08-12T08:55:51Z</time>
      </trkpt>
      <trkpt lat="43.72939" lon="4.18772">
        <ele>25</ele>
        <time>2018-08-12T08:55:52Z</time>
      </trkpt>
      <trkpt lat="43.72942" lon="4.18778">
        <ele>25</ele>
        <time>2018-08-12T08:55:53Z</time>
      </trkpt>
      <trkpt lat="43.72945" lon="4.18784">
        <ele>25</ele>
        <time>2018-08-12T08:55:54Z</time>
      </trkpt>
      <trkpt lat="43.72949" lon="4.1879">
        <ele>25</ele>
        <time>2018-08-12T08:55:55Z</time>
      </trkpt>
      <trkpt lat="43.72953" lon="4.18796">
        <ele>25</ele>
        <time>2018-08-12T08:55:56Z</time>
      </trkpt>
      <trkpt lat="43.72957" lon="4.18802">
        <ele>25</ele>
        <time>2018-08-12T08:55:57Z</time>
      </trkpt>
      <trkpt lat="43.72959" lon="4.18808">
        <ele>25</ele>
        <time>2018-08-12T08:55:58Z</time>
      </trkpt>
      <trkpt lat="43.72965" lon="4.18819">
        <ele>25</ele>
        <time>2018-08-12T08:56:00Z</time>
      </trkpt>
      <trkpt lat="43.72968" lon="4.18824">
        <ele>25</ele>
        <time>2018-08-12T08:56:01Z</time>
      </trkpt>
      <trkpt lat="43.72973" lon="4.18832">
        <ele>25</ele>
        <time>2018-08-12T08:56:03Z</time>
      </trkpt>
      <trkpt lat="43.72976" lon="4.18839">
        <ele>24</ele>
        <time>2018-08-12T08:56:05Z</time>
      </trkpt>
      <trkpt lat="43.72977" lon="4.18845">
        <ele>24</ele>
        <time>2018-08-12T08:56:07Z</time>
      </trkpt>
      <trkpt lat="43.7298" lon="4.18851">
        <ele>24</ele>
        <time>2018-08-12T08:56:23Z</time>
      </trkpt>
      <trkpt lat="43.72982" lon="4.18859">
        <ele>24</ele>
        <time>2018-08-12T08:56:26Z</time>
      </trkpt>
      <trkpt lat="43.72986" lon="4.18863">
        <ele>24</ele>
        <time>2018-08-12T08:56:28Z</time>
      </trkpt>
      <trkpt lat="43.7299" lon="4.18868">
        <ele>24</ele>
        <time>2018-08-12T08:56:30Z</time>
      </trkpt>
      <trkpt lat="43.72995" lon="4.18873">
        <ele>24</ele>
        <time>2018-08-12T08:56:32Z</time>
      </trkpt>
      <trkpt lat="43.72999" lon="4.18879">
        <ele>24</ele>
        <time>2018-08-12T08:56:34Z</time>
      </trkpt>
      <trkpt lat="43.73004" lon="4.18884">
        <ele>24</ele>
        <time>2018-08-12T08:56:36Z</time>
      </trkpt>
      <trkpt lat="43.73009" lon="4.1889">
        <ele>24</ele>
        <time>2018-08-12T08:56:38Z</time>
      </trkpt>
      <trkpt lat="43.73014" lon="4.18896">
        <ele>24</ele>
        <time>2018-08-12T08:56:40Z</time>
      </trkpt>
      <trkpt lat="43.73019" lon="4.18902">
        <ele>24</ele>
        <time>2018-08-12T08:56:42Z</time>
      </trkpt>
      <trkpt lat="43.73024" lon="4.18904">
        <ele>24</ele>
        <time>2018-08-12T08:56:44Z</time>
      </trkpt>
      <trkpt lat="43.73031" lon="4.18901">
        <ele>24</ele>
        <time>2018-08-12T08:56:46Z</time>
      </trkpt>
      <trkpt lat="43.73036" lon="4.18897">
        <ele>24</ele>
        <time>2018-08-12T08:56:48Z</time>
      </trkpt>
      <trkpt lat="43.73042" lon="4.18894">
        <ele>24</ele>
        <time>2018-08-12T08:56:50Z</time>
      </trkpt>
      <trkpt lat="43.73049" lon="4.18891">
        <ele>24</ele>
        <time>2018-08-12T08:56:52Z</time>
      </trkpt>
      <trkpt lat="43.73056" lon="4.1889">
        <ele>24</ele>
        <time>2018-08-12T08:56:54Z</time>
      </trkpt>
      <trkpt lat="43.73063" lon="4.18889">
        <ele>24</ele>
        <time>2018-08-12T08:56:56Z</time>
      </trkpt>
      <trkpt lat="43.73071" lon="4.18888">
        <ele>24</ele>
        <time>2018-08-12T08:56:58Z</time>
      </trkpt>
      <trkpt lat="43.73079" lon="4.18886">
        <ele>24</ele>
        <time>2018-08-12T08:57:00Z</time>
      </trkpt>
      <trkpt lat="43.73087" lon="4.18884">
        <ele>25</ele>
        <time>2018-08-12T08:57:02Z</time>
      </trkpt>
      <trkpt lat="43.73095" lon="4.18882">
        <ele>25</ele>
        <time>2018-08-12T08:57:04Z</time>
      </trkpt>
      <trkpt lat="43.73103" lon="4.18881">
        <ele>25</ele>
        <time>2018-08-12T08:57:06Z</time>
      </trkpt>
      <trkpt lat="43.7311" lon="4.18879">
        <ele>25</ele>
        <time>2018-08-12T08:57:08Z</time>
      </trkpt>
      <trkpt lat="43.73118" lon="4.18878">
        <ele>25</ele>
        <time>2018-08-12T08:57:10Z</time>
      </trkpt>
      <trkpt lat="43.73126" lon="4.18877">
        <ele>25</ele>
        <time>2018-08-12T08:57:12Z</time>
      </trkpt>
      <trkpt lat="43.73134" lon="4.18877">
        <ele>25</ele>
        <time>2018-08-12T08:57:14Z</time>
      </trkpt>
      <trkpt lat="43.73143" lon="4.18877">
        <ele>25</ele>
        <time>2018-08-12T08:57:16Z</time>
      </trkpt>
      <trkpt lat="43.73151" lon="4.18875">
        <ele>25</ele>
        <time>2018-08-12T08:57:18Z</time>
      </trkpt>
      <trkpt lat="43.73163" lon="4.18873">
        <ele>26</ele>
        <time>2018-08-12T08:57:21Z</time>
      </trkpt>
      <trkpt lat="43.73167" lon="4.18872">
        <ele>26</ele>
        <time>2018-08-12T08:57:22Z</time>
      </trkpt>
      <trkpt lat="43.73175" lon="4.18869">
        <ele>26</ele>
        <time>2018-08-12T08:57:24Z</time>
      </trkpt>
      <trkpt lat="43.73183" lon="4.18866">
        <ele>26</ele>
        <time>2018-08-12T08:57:26Z</time>
      </trkpt>
      <trkpt lat="43.73191" lon="4.18863">
        <ele>26</ele>
        <time>2018-08-12T08:57:28Z</time>
      </trkpt>
      <trkpt lat="43.73199" lon="4.18861">
        <ele>26</ele>
        <time>2018-08-12T08:57:30Z</time>
      </trkpt>
      <trkpt lat="43.73208" lon="4.18852">
        <ele>26</ele>
        <time>2018-08-12T08:57:33Z</time>
      </trkpt>
      <trkpt lat="43.73211" lon="4.18847">
        <ele>26</ele>
        <time>2018-08-12T08:57:34Z</time>
      </trkpt>
      <trkpt lat="43.73216" lon="4.18839">
        <ele>26</ele>
        <time>2018-08-12T08:57:36Z</time>
      </trkpt>
      <trkpt lat="43.73222" lon="4.18833">
        <ele>27</ele>
        <time>2018-08-12T08:57:38Z</time>
      </trkpt>
      <trkpt lat="43.73228" lon="4.18827">
        <ele>27</ele>
        <time>2018-08-12T08:57:40Z</time>
      </trkpt>
      <trkpt lat="43.73234" lon="4.18823">
        <ele>27</ele>
        <time>2018-08-12T08:57:42Z</time>
      </trkpt>
      <trkpt lat="43.73243" lon="4.18819">
        <ele>27</ele>
        <time>2018-08-12T08:57:45Z</time>
      </trkpt>
      <trkpt lat="43.73251" lon="4.18817">
        <ele>27</ele>
        <time>2018-08-12T08:57:47Z</time>
      </trkpt>
      <trkpt lat="43.73257" lon="4.18815">
        <ele>27</ele>
        <time>2018-08-12T08:57:49Z</time>
      </trkpt>
      <trkpt lat="43.73264" lon="4.18812">
        <ele>27</ele>
        <time>2018-08-12T08:57:51Z</time>
      </trkpt>
      <trkpt lat="43.73271" lon="4.18809">
        <ele>28</ele>
        <time>2018-08-12T08:57:53Z</time>
      </trkpt>
      <trkpt lat="43.73278" lon="4.18807">
        <ele>28</ele>
        <time>2018-08-12T08:57:55Z</time>
      </trkpt>
      <trkpt lat="43.73285" lon="4.18805">
        <ele>28</ele>
        <time>2018-08-12T08:57:57Z</time>
      </trkpt>
      <trkpt lat="43.73292" lon="4.18803">
        <ele>28</ele>
        <time>2018-08-12T08:57:59Z</time>
      </trkpt>
      <trkpt lat="43.73299" lon="4.18801">
        <ele>28</ele>
        <time>2018-08-12T08:58:01Z</time>
      </trkpt>
      <trkpt lat="43.73306" lon="4.18799">
        <ele>28</ele>
        <time>2018-08-12T08:58:03Z</time>
      </trkpt>
      <trkpt lat="43.73312" lon="4.18797">
        <ele>28</ele>
        <time>2018-08-12T08:58:05Z</time>
      </trkpt>
      <trkpt lat="43.73319" lon="4.18796">
        <ele>28</ele>
        <time>2018-08-12T08:58:07Z</time>
      </trkpt>
      <trkpt lat="43.73325" lon="4.18797">
        <ele>28</ele>
        <time>2018-08-12T08:58:09Z</time>
      </trkpt>
      <trkpt lat="43.73333" lon="4.18796">
        <ele>28</ele>
        <time>2018-08-12T08:58:11Z</time>
      </trkpt>
      <trkpt lat="43.7334" lon="4.18793">
        <ele>28</ele>
        <time>2018-08-12T08:58:13Z</time>
      </trkpt>
      <trkpt lat="43.73347" lon="4.1879">
        <ele>28</ele>
        <time>2018-08-12T08:58:15Z</time>
      </trkpt>
      <trkpt lat="43.73354" lon="4.18786">
        <ele>28</ele>
        <time>2018-08-12T08:58:17Z</time>
      </trkpt>
      <trkpt lat="43.7336" lon="4.1878">
        <ele>28</ele>
        <time>2018-08-12T08:58:19Z</time>
      </trkpt>
      <trkpt lat="43.73366" lon="4.18774">
        <ele>28</ele>
        <time>2018-08-12T08:58:21Z</time>
      </trkpt>
      <trkpt lat="43.7337" lon="4.18771">
        <ele>28</ele>
        <time>2018-08-12T08:58:22Z</time>
      </trkpt>
      <trkpt lat="43.73377" lon="4.18768">
        <ele>28</ele>
        <time>2018-08-12T08:58:24Z</time>
      </trkpt>
      <trkpt lat="43.73385" lon="4.18766">
        <ele>28</ele>
        <time>2018-08-12T08:58:26Z</time>
      </trkpt>
      <trkpt lat="43.73393" lon="4.18765">
        <ele>28</ele>
        <time>2018-08-12T08:58:28Z</time>
      </trkpt>
      <trkpt lat="43.73401" lon="4.18764">
        <ele>28</ele>
        <time>2018-08-12T08:58:30Z</time>
      </trkpt>
      <trkpt lat="43.73412" lon="4.18762">
        <ele>28</ele>
        <time>2018-08-12T08:58:33Z</time>
      </trkpt>
      <trkpt lat="43.73416" lon="4.18761">
        <ele>28</ele>
        <time>2018-08-12T08:58:34Z</time>
      </trkpt>
      <trkpt lat="43.73424" lon="4.18759">
        <ele>28</ele>
        <time>2018-08-12T08:58:36Z</time>
      </trkpt>
      <trkpt lat="43.73432" lon="4.18755">
        <ele>28</ele>
        <time>2018-08-12T08:58:38Z</time>
      </trkpt>
      <trkpt lat="43.73439" lon="4.18751">
        <ele>28</ele>
        <time>2018-08-12T08:58:40Z</time>
      </trkpt>
      <trkpt lat="43.73447" lon="4.18747">
        <ele>28</ele>
        <time>2018-08-12T08:58:42Z</time>
      </trkpt>
      <trkpt lat="43.73458" lon="4.18744">
        <ele>28</ele>
        <time>2018-08-12T08:58:45Z</time>
      </trkpt>
      <trkpt lat="43.73463" lon="4.18743">
        <ele>28</ele>
        <time>2018-08-12T08:58:46Z</time>
      </trkpt>
      <trkpt lat="43.73471" lon="4.18743">
        <ele>28</ele>
        <time>2018-08-12T08:58:48Z</time>
      </trkpt>
      <trkpt lat="43.73479" lon="4.18742">
        <ele>28</ele>
        <time>2018-08-12T08:58:50Z</time>
      </trkpt>
      <trkpt lat="43.73487" lon="4.1874">
        <ele>28</ele>
        <time>2018-08-12T08:58:52Z</time>
      </trkpt>
      <trkpt lat="43.73494" lon="4.18736">
        <ele>28</ele>
        <time>2018-08-12T08:58:54Z</time>
      </trkpt>
      <trkpt lat="43.73504" lon="4.18729">
        <ele>29</ele>
        <time>2018-08-12T08:58:57Z</time>
      </trkpt>
      <trkpt lat="43.73509" lon="4.18726">
        <ele>29</ele>
        <time>2018-08-12T08:58:58Z</time>
      </trkpt>
      <trkpt lat="43.73516" lon="4.18721">
        <ele>29</ele>
        <time>2018-08-12T08:59:00Z</time>
      </trkpt>
      <trkpt lat="43.73524" lon="4.18717">
        <ele>29</ele>
        <time>2018-08-12T08:59:02Z</time>
      </trkpt>
      <trkpt lat="43.73531" lon="4.18713">
        <ele>29</ele>
        <time>2018-08-12T08:59:04Z</time>
      </trkpt>
      <trkpt lat="43.73539" lon="4.18711">
        <ele>29</ele>
        <time>2018-08-12T08:59:06Z</time>
      </trkpt>
      <trkpt lat="43.7355" lon="4.1871">
        <ele>29</ele>
        <time>2018-08-12T08:59:09Z</time>
      </trkpt>
      <trkpt lat="43.73555" lon="4.18709">
        <ele>29</ele>
        <time>2018-08-12T08:59:10Z</time>
      </trkpt>
      <trkpt lat="43.73563" lon="4.18709">
        <ele>29</ele>
        <time>2018-08-12T08:59:12Z</time>
      </trkpt>
      <trkpt lat="43.73571" lon="4.18708">
        <ele>29</ele>
        <time>2018-08-12T08:59:14Z</time>
      </trkpt>
      <trkpt lat="43.73578" lon="4.18707">
        <ele>29</ele>
        <time>2018-08-12T08:59:16Z</time>
      </trkpt>
      <trkpt lat="43.73586" lon="4.18706">
        <ele>30</ele>
        <time>2018-08-12T08:59:18Z</time>
      </trkpt>
      <trkpt lat="43.73597" lon="4.18703">
        <ele>30</ele>
        <time>2018-08-12T08:59:21Z</time>
      </trkpt>
      <trkpt lat="43.73601" lon="4.18702">
        <ele>30</ele>
        <time>2018-08-12T08:59:22Z</time>
      </trkpt>
      <trkpt lat="43.73609" lon="4.187">
        <ele>30</ele>
        <time>2018-08-12T08:59:24Z</time>
      </trkpt>
      <trkpt lat="43.73617" lon="4.18699">
        <ele>30</ele>
        <time>2018-08-12T08:59:26Z</time>
      </trkpt>
      <trkpt lat="43.73625" lon="4.18696">
        <ele>30</ele>
        <time>2018-08-12T08:59:28Z</time>
      </trkpt>
      <trkpt lat="43.73633" lon="4.18693">
        <ele>30</ele>
        <time>2018-08-12T08:59:30Z</time>
      </trkpt>
      <trkpt lat="43.73644" lon="4.18688">
        <ele>30</ele>
        <time>2018-08-12T08:59:33Z</time>
      </trkpt>
      <trkpt lat="43.73648" lon="4.18686">
        <ele>30</ele>
        <time>2018-08-12T08:59:34Z</time>
      </trkpt>
      <trkpt lat="43.73655" lon="4.18682">
        <ele>30</ele>
        <time>2018-08-12T08:59:36Z</time>
      </trkpt>
      <trkpt lat="43.73662" lon="4.18677">
        <ele>29</ele>
        <time>2018-08-12T08:59:38Z</time>
      </trkpt>
      <trkpt lat="43.73668" lon="4.1867">
        <ele>29</ele>
        <time>2018-08-12T08:59:40Z</time>
      </trkpt>
      <trkpt lat="43.73673" lon="4.18663">
        <ele>29</ele>
        <time>2018-08-12T08:59:42Z</time>
      </trkpt>
      <trkpt lat="43.7368" lon="4.18653">
        <ele>30</ele>
        <time>2018-08-12T08:59:45Z</time>
      </trkpt>
      <trkpt lat="43.73686" lon="4.18647">
        <ele>30</ele>
        <time>2018-08-12T08:59:47Z</time>
      </trkpt>
      <trkpt lat="43.73694" lon="4.18647">
        <ele>30</ele>
        <time>2018-08-12T08:59:49Z</time>
      </trkpt>
      <trkpt lat="43.73701" lon="4.18649">
        <ele>30</ele>
        <time>2018-08-12T08:59:51Z</time>
      </trkpt>
      <trkpt lat="43.73709" lon="4.1865">
        <ele>30</ele>
        <time>2018-08-12T08:59:53Z</time>
      </trkpt>
      <trkpt lat="43.73717" lon="4.18651">
        <ele>30</ele>
        <time>2018-08-12T08:59:55Z</time>
      </trkpt>
      <trkpt lat="43.73724" lon="4.1865">
        <ele>30</ele>
        <time>2018-08-12T08:59:57Z</time>
      </trkpt>
      <trkpt lat="43.73728" lon="4.1865">
        <ele>30</ele>
        <time>2018-08-12T08:59:58Z</time>
      </trkpt>
      <trkpt lat="43.73736" lon="4.18649">
        <ele>30</ele>
        <time>2018-08-12T09:00:00Z</time>
      </trkpt>
      <trkpt lat="43.73744" lon="4.18648">
        <ele>30</ele>
        <time>2018-08-12T09:00:02Z</time>
      </trkpt>
      <trkpt lat="43.73752" lon="4.18647">
        <ele>31</ele>
        <time>2018-08-12T09:00:04Z</time>
      </trkpt>
      <trkpt lat="43.7376" lon="4.18645">
        <ele>31</ele>
        <time>2018-08-12T09:00:06Z</time>
      </trkpt>
      <trkpt lat="43.73765" lon="4.18644">
        <ele>31</ele>
        <time>2018-08-12T09:00:08Z</time>
      </trkpt>
      <trkpt lat="43.73772" lon="4.18642">
        <ele>31</ele>
        <time>2018-08-12T09:00:09Z</time>
      </trkpt>
      <trkpt lat="43.7378" lon="4.1864">
        <ele>31</ele>
        <time>2018-08-12T09:00:11Z</time>
      </trkpt>
      <trkpt lat="43.73786" lon="4.18639">
        <ele>31</ele>
        <time>2018-08-12T09:00:12Z</time>
      </trkpt>
      <trkpt lat="43.73795" lon="4.18639">
        <ele>31</ele>
        <time>2018-08-12T09:00:14Z</time>
      </trkpt>
      <trkpt lat="43.73803" lon="4.1864">
        <ele>31</ele>
        <time>2018-08-12T09:00:16Z</time>
      </trkpt>
      <trkpt lat="43.73812" lon="4.18639">
        <ele>31</ele>
        <time>2018-08-12T09:00:18Z</time>
      </trkpt>
      <trkpt lat="43.73819" lon="4.18639">
        <ele>31</ele>
        <time>2018-08-12T09:00:20Z</time>
      </trkpt>
      <trkpt lat="43.73824" lon="4.18638">
        <ele>31</ele>
        <time>2018-08-12T09:00:21Z</time>
      </trkpt>
      <trkpt lat="43.73833" lon="4.18638">
        <ele>31</ele>
        <time>2018-08-12T09:00:23Z</time>
      </trkpt>
      <trkpt lat="43.73842" lon="4.18638">
        <ele>31</ele>
        <time>2018-08-12T09:00:25Z</time>
      </trkpt>
      <trkpt lat="43.73851" lon="4.18638">
        <ele>31</ele>
        <time>2018-08-12T09:00:27Z</time>
      </trkpt>
      <trkpt lat="43.73859" lon="4.18636">
        <ele>31</ele>
        <time>2018-08-12T09:00:29Z</time>
      </trkpt>
      <trkpt lat="43.73871" lon="4.18634">
        <ele>31</ele>
        <time>2018-08-12T09:00:32Z</time>
      </trkpt>
      <trkpt lat="43.73875" lon="4.18633">
        <ele>31</ele>
        <time>2018-08-12T09:00:33Z</time>
      </trkpt>
      <trkpt lat="43.73883" lon="4.18632">
        <ele>31</ele>
        <time>2018-08-12T09:00:35Z</time>
      </trkpt>
      <trkpt lat="43.73891" lon="4.1863">
        <ele>31</ele>
        <time>2018-08-12T09:00:37Z</time>
      </trkpt>
      <trkpt lat="43.739" lon="4.18629">
        <ele>31</ele>
        <time>2018-08-12T09:00:39Z</time>
      </trkpt>
      <trkpt lat="43.73908" lon="4.18627">
        <ele>31</ele>
        <time>2018-08-12T09:00:41Z</time>
      </trkpt>
      <trkpt lat="43.73919" lon="4.18625">
        <ele>31</ele>
        <time>2018-08-12T09:00:44Z</time>
      </trkpt>
      <trkpt lat="43.73923" lon="4.18624">
        <ele>31</ele>
        <time>2018-08-12T09:00:45Z</time>
      </trkpt>
      <trkpt lat="43.73931" lon="4.18623">
        <ele>31</ele>
        <time>2018-08-12T09:00:47Z</time>
      </trkpt>
      <trkpt lat="43.73939" lon="4.18621">
        <ele>31</ele>
        <time>2018-08-12T09:00:49Z</time>
      </trkpt>
      <trkpt lat="43.73947" lon="4.18619">
        <ele>31</ele>
        <time>2018-08-12T09:00:51Z</time>
      </trkpt>
      <trkpt lat="43.73955" lon="4.18618">
        <ele>31</ele>
        <time>2018-08-12T09:00:53Z</time>
      </trkpt>
      <trkpt lat="43.73966" lon="4.18619">
        <ele>32</ele>
        <time>2018-08-12T09:00:56Z</time>
      </trkpt>
      <trkpt lat="43.7397" lon="4.18621">
        <ele>32</ele>
        <time>2018-08-12T09:00:57Z</time>
      </trkpt>
      <trkpt lat="43.73976" lon="4.18626">
        <ele>32</ele>
        <time>2018-08-12T09:00:59Z</time>
      </trkpt>
      <trkpt lat="43.7398" lon="4.18635">
        <ele>32</ele>
        <time>2018-08-12T09:01:01Z</time>
      </trkpt>
      <trkpt lat="43.73983" lon="4.18644">
        <ele>32</ele>
        <time>2018-08-12T09:01:03Z</time>
      </trkpt>
      <trkpt lat="43.73987" lon="4.18654">
        <ele>32</ele>
        <time>2018-08-12T09:01:05Z</time>
      </trkpt>
      <trkpt lat="43.73991" lon="4.18664">
        <ele>32</ele>
        <time>2018-08-12T09:01:08Z</time>
      </trkpt>
      <trkpt lat="43.73995" lon="4.18673">
        <ele>32</ele>
        <time>2018-08-12T09:01:10Z</time>
      </trkpt>
      <trkpt lat="43.73999" lon="4.1868">
        <ele>32</ele>
        <time>2018-08-12T09:01:12Z</time>
      </trkpt>
      <trkpt lat="43.74003" lon="4.18688">
        <ele>33</ele>
        <time>2018-08-12T09:01:14Z</time>
      </trkpt>
      <trkpt lat="43.74007" lon="4.18695">
        <ele>33</ele>
        <time>2018-08-12T09:01:16Z</time>
      </trkpt>
      <trkpt lat="43.74012" lon="4.18703">
        <ele>33</ele>
        <time>2018-08-12T09:01:18Z</time>
      </trkpt>
      <trkpt lat="43.74015" lon="4.1871">
        <ele>33</ele>
        <time>2018-08-12T09:01:20Z</time>
      </trkpt>
      <trkpt lat="43.7402" lon="4.18718">
        <ele>33</ele>
        <time>2018-08-12T09:01:22Z</time>
      </trkpt>
      <trkpt lat="43.74025" lon="4.18726">
        <ele>33</ele>
        <time>2018-08-12T09:01:24Z</time>
      </trkpt>
      <trkpt lat="43.74029" lon="4.18734">
        <ele>33</ele>
        <time>2018-08-12T09:01:26Z</time>
      </trkpt>
      <trkpt lat="43.74033" lon="4.18742">
        <ele>33</ele>
        <time>2018-08-12T09:01:28Z</time>
      </trkpt>
      <trkpt lat="43.74038" lon="4.1875">
        <ele>33</ele>
        <time>2018-08-12T09:01:30Z</time>
      </trkpt>
      <trkpt lat="43.74042" lon="4.18758">
        <ele>34</ele>
        <time>2018-08-12T09:01:32Z</time>
      </trkpt>
      <trkpt lat="43.74046" lon="4.18767">
        <ele>34</ele>
        <time>2018-08-12T09:01:34Z</time>
      </trkpt>
      <trkpt lat="43.7405" lon="4.18775">
        <ele>35</ele>
        <time>2018-08-12T09:01:36Z</time>
      </trkpt>
      <trkpt lat="43.74054" lon="4.18784">
        <ele>35</ele>
        <time>2018-08-12T09:01:38Z</time>
      </trkpt>
      <trkpt lat="43.74058" lon="4.18792">
        <ele>35</ele>
        <time>2018-08-12T09:01:40Z</time>
      </trkpt>
      <trkpt lat="43.7406" lon="4.18801">
        <ele>35</ele>
        <time>2018-08-12T09:01:42Z</time>
      </trkpt>
      <trkpt lat="43.74063" lon="4.18808">
        <ele>35</ele>
        <time>2018-08-12T09:01:44Z</time>
      </trkpt>
      <trkpt lat="43.74066" lon="4.18817">
        <ele>35</ele>
        <time>2018-08-12T09:01:46Z</time>
      </trkpt>
      <trkpt lat="43.74069" lon="4.18825">
        <ele>35</ele>
        <time>2018-08-12T09:01:48Z</time>
      </trkpt>
      <trkpt lat="43.74071" lon="4.18833">
        <ele>36</ele>
        <time>2018-08-12T09:01:50Z</time>
      </trkpt>
      <trkpt lat="43.74074" lon="4.1884">
        <ele>37</ele>
        <time>2018-08-12T09:01:52Z</time>
      </trkpt>
      <trkpt lat="43.74077" lon="4.18847">
        <ele>37</ele>
        <time>2018-08-12T09:01:54Z</time>
      </trkpt>
      <trkpt lat="43.7408" lon="4.18853">
        <ele>37</ele>
        <time>2018-08-12T09:01:56Z</time>
      </trkpt>
      <trkpt lat="43.74083" lon="4.1886">
        <ele>37</ele>
        <time>2018-08-12T09:01:58Z</time>
      </trkpt>
      <trkpt lat="43.74085" lon="4.18866">
        <ele>37</ele>
        <time>2018-08-12T09:02:00Z</time>
      </trkpt>
      <trkpt lat="43.74088" lon="4.18873">
        <ele>37</ele>
        <time>2018-08-12T09:02:02Z</time>
      </trkpt>
      <trkpt lat="43.7409" lon="4.1888">
        <ele>38</ele>
        <time>2018-08-12T09:02:04Z</time>
      </trkpt>
      <trkpt lat="43.74093" lon="4.18885">
        <ele>38</ele>
        <time>2018-08-12T09:02:06Z</time>
      </trkpt>
      <trkpt lat="43.74097" lon="4.18891">
        <ele>38</ele>
        <time>2018-08-12T09:02:08Z</time>
      </trkpt>
      <trkpt lat="43.741" lon="4.18898">
        <ele>38</ele>
        <time>2018-08-12T09:02:10Z</time>
      </trkpt>
      <trkpt lat="43.74102" lon="4.18904">
        <ele>38</ele>
        <time>2018-08-12T09:02:12Z</time>
      </trkpt>
      <trkpt lat="43.74105" lon="4.18909">
        <ele>38</ele>
        <time>2018-08-12T09:02:14Z</time>
      </trkpt>
      <trkpt lat="43.74108" lon="4.18915">
        <ele>38</ele>
        <time>2018-08-12T09:02:16Z</time>
      </trkpt>
      <trkpt lat="43.7411" lon="4.18921">
        <ele>40</ele>
        <time>2018-08-12T09:02:18Z</time>
      </trkpt>
      <trkpt lat="43.74112" lon="4.18927">
        <ele>40</ele>
        <time>2018-08-12T09:02:20Z</time>
      </trkpt>
      <trkpt lat="43.74115" lon="4.18934">
        <ele>40</ele>
        <time>2018-08-12T09:02:22Z</time>
      </trkpt>
      <trkpt lat="43.74118" lon="4.18939">
        <ele>40</ele>
        <time>2018-08-12T09:02:24Z</time>
      </trkpt>
      <trkpt lat="43.74122" lon="4.18944">
        <ele>40</ele>
        <time>2018-08-12T09:02:26Z</time>
      </trkpt>
      <trkpt lat="43.74125" lon="4.18949">
        <ele>40</ele>
        <time>2018-08-12T09:02:28Z</time>
      </trkpt>
      <trkpt lat="43.74127" lon="4.18954">
        <ele>40</ele>
        <time>2018-08-12T09:02:30Z</time>
      </trkpt>
      <trkpt lat="43.7413" lon="4.1896">
        <ele>41</ele>
        <time>2018-08-12T09:02:32Z</time>
      </trkpt>
      <trkpt lat="43.74133" lon="4.18965">
        <ele>41</ele>
        <time>2018-08-12T09:02:34Z</time>
      </trkpt>
      <trkpt lat="43.74137" lon="4.18969">
        <ele>41</ele>
        <time>2018-08-12T09:02:36Z</time>
      </trkpt>
      <trkpt lat="43.74141" lon="4.18974">
        <ele>41</ele>
        <time>2018-08-12T09:02:38Z</time>
      </trkpt>
      <trkpt lat="43.74145" lon="4.18979">
        <ele>41</ele>
        <time>2018-08-12T09:02:40Z</time>
      </trkpt>
      <trkpt lat="43.74148" lon="4.18983">
        <ele>41</ele>
        <time>2018-08-12T09:02:42Z</time>
      </trkpt>
      <trkpt lat="43.74152" lon="4.18986">
        <ele>42</ele>
        <time>2018-08-12T09:02:44Z</time>
      </trkpt>
      <trkpt lat="43.74157" lon="4.18989">
        <ele>42</ele>
        <time>2018-08-12T09:02:46Z</time>
      </trkpt>
      <trkpt lat="43.74162" lon="4.18993">
        <ele>42</ele>
        <time>2018-08-12T09:02:48Z</time>
      </trkpt>
      <trkpt lat="43.74167" lon="4.18996">
        <ele>43</ele>
        <time>2018-08-12T09:02:50Z</time>
      </trkpt>
      <trkpt lat="43.74171" lon="4.18998">
        <ele>43</ele>
        <time>2018-08-12T09:02:52Z</time>
      </trkpt>
      <trkpt lat="43.74175" lon="4.19001">
        <ele>43</ele>
        <time>2018-08-12T09:02:54Z</time>
      </trkpt>
      <trkpt lat="43.7418" lon="4.19004">
        <ele>44</ele>
        <time>2018-08-12T09:02:56Z</time>
      </trkpt>
      <trkpt lat="43.74185" lon="4.19009">
        <ele>44</ele>
        <time>2018-08-12T09:02:59Z</time>
      </trkpt>
      <trkpt lat="43.74189" lon="4.19012">
        <ele>44</ele>
        <time>2018-08-12T09:03:01Z</time>
      </trkpt>
      <trkpt lat="43.74194" lon="4.19015">
        <ele>44</ele>
        <time>2018-08-12T09:03:03Z</time>
      </trkpt>
      <trkpt lat="43.74197" lon="4.19019">
        <ele>44</ele>
        <time>2018-08-12T09:03:05Z</time>
      </trkpt>
      <trkpt lat="43.74202" lon="4.19022">
        <ele>44</ele>
        <time>2018-08-12T09:03:08Z</time>
      </trkpt>
      <trkpt lat="43.74204" lon="4.19028">
        <ele>44</ele>
        <time>2018-08-12T09:03:11Z</time>
      </trkpt>
      <trkpt lat="43.74207" lon="4.19036">
        <ele>44</ele>
        <time>2018-08-12T09:03:14Z</time>
      </trkpt>
      <trkpt lat="43.74211" lon="4.19043">
        <ele>45</ele>
        <time>2018-08-12T09:03:17Z</time>
      </trkpt>
      <trkpt lat="43.74214" lon="4.19051">
        <ele>45</ele>
        <time>2018-08-12T09:03:20Z</time>
      </trkpt>
      <trkpt lat="43.74217" lon="4.19058">
        <ele>45</ele>
        <time>2018-08-12T09:03:22Z</time>
      </trkpt>
      <trkpt lat="43.74219" lon="4.19064">
        <ele>45</ele>
        <time>2018-08-12T09:03:24Z</time>
      </trkpt>
      <trkpt lat="43.74221" lon="4.1907">
        <ele>45</ele>
        <time>2018-08-12T09:03:26Z</time>
      </trkpt>
      <trkpt lat="43.74223" lon="4.19077">
        <ele>45</ele>
        <time>2018-08-12T09:03:28Z</time>
      </trkpt>
      <trkpt lat="43.74226" lon="4.19083">
        <ele>45</ele>
        <time>2018-08-12T09:03:30Z</time>
      </trkpt>
      <trkpt lat="43.74229" lon="4.19088">
        <ele>46</ele>
        <time>2018-08-12T09:03:32Z</time>
      </trkpt>
      <trkpt lat="43.74232" lon="4.19095">
        <ele>46</ele>
        <time>2018-08-12T09:03:34Z</time>
      </trkpt>
      <trkpt lat="43.74235" lon="4.19101">
        <ele>46</ele>
        <time>2018-08-12T09:03:36Z</time>
      </trkpt>
      <trkpt lat="43.74238" lon="4.19107">
        <ele>46</ele>
        <time>2018-08-12T09:03:38Z</time>
      </trkpt>
      <trkpt lat="43.74241" lon="4.19113">
        <ele>46</ele>
        <time>2018-08-12T09:03:40Z</time>
      </trkpt>
      <trkpt lat="43.74245" lon="4.19119">
        <ele>46</ele>
        <time>2018-08-12T09:03:42Z</time>
      </trkpt>
      <trkpt lat="43.74248" lon="4.19125">
        <ele>46</ele>
        <time>2018-08-12T09:03:44Z</time>
      </trkpt>
      <trkpt lat="43.74251" lon="4.19132">
        <ele>46</ele>
        <time>2018-08-12T09:03:46Z</time>
      </trkpt>
      <trkpt lat="43.74254" lon="4.19138">
        <ele>46</ele>
        <time>2018-08-12T09:03:48Z</time>
      </trkpt>
      <trkpt lat="43.74256" lon="4.19145">
        <ele>46</ele>
        <time>2018-08-12T09:03:50Z</time>
      </trkpt>
      <trkpt lat="43.74258" lon="4.19152">
        <ele>46</ele>
        <time>2018-08-12T09:03:52Z</time>
      </trkpt>
      <trkpt lat="43.74261" lon="4.1916">
        <ele>47</ele>
        <time>2018-08-12T09:03:54Z</time>
      </trkpt>
      <trkpt lat="43.74264" lon="4.19166">
        <ele>47</ele>
        <time>2018-08-12T09:03:56Z</time>
      </trkpt>
      <trkpt lat="43.74267" lon="4.19175">
        <ele>48</ele>
        <time>2018-08-12T09:03:58Z</time>
      </trkpt>
      <trkpt lat="43.7427" lon="4.19183">
        <ele>48</ele>
        <time>2018-08-12T09:04:00Z</time>
      </trkpt>
      <trkpt lat="43.74273" lon="4.19192">
        <ele>48</ele>
        <time>2018-08-12T09:04:02Z</time>
      </trkpt>
      <trkpt lat="43.74277" lon="4.192">
        <ele>48</ele>
        <time>2018-08-12T09:04:04Z</time>
      </trkpt>
      <trkpt lat="43.74279" lon="4.19208">
        <ele>48</ele>
        <time>2018-08-12T09:04:06Z</time>
      </trkpt>
      <trkpt lat="43.74282" lon="4.19216">
        <ele>48</ele>
        <time>2018-08-12T09:04:08Z</time>
      </trkpt>
      <trkpt lat="43.74285" lon="4.19226">
        <ele>49</ele>
        <time>2018-08-12T09:04:10Z</time>
      </trkpt>
      <trkpt lat="43.74287" lon="4.19234">
        <ele>49</ele>
        <time>2018-08-12T09:04:12Z</time>
      </trkpt>
      <trkpt lat="43.74289" lon="4.19243">
        <ele>49</ele>
        <time>2018-08-12T09:04:14Z</time>
      </trkpt>
      <trkpt lat="43.74291" lon="4.19252">
        <ele>51</ele>
        <time>2018-08-12T09:04:16Z</time>
      </trkpt>
      <trkpt lat="43.74293" lon="4.19261">
        <ele>51</ele>
        <time>2018-08-12T09:04:18Z</time>
      </trkpt>
      <trkpt lat="43.74295" lon="4.1927">
        <ele>51</ele>
        <time>2018-08-12T09:04:20Z</time>
      </trkpt>
      <trkpt lat="43.74297" lon="4.1928">
        <ele>51</ele>
        <time>2018-08-12T09:04:22Z</time>
      </trkpt>
      <trkpt lat="43.74299" lon="4.19289">
        <ele>51</ele>
        <time>2018-08-12T09:04:24Z</time>
      </trkpt>
      <trkpt lat="43.74301" lon="4.19298">
        <ele>51</ele>
        <time>2018-08-12T09:04:26Z</time>
      </trkpt>
      <trkpt lat="43.74302" lon="4.19307">
        <ele>51</ele>
        <time>2018-08-12T09:04:28Z</time>
      </trkpt>
      <trkpt lat="43.74302" lon="4.19316">
        <ele>51</ele>
        <time>2018-08-12T09:04:30Z</time>
      </trkpt>
      <trkpt lat="43.74301" lon="4.19325">
        <ele>51</ele>
        <time>2018-08-12T09:04:32Z</time>
      </trkpt>
      <trkpt lat="43.74301" lon="4.19334">
        <ele>51</ele>
        <time>2018-08-12T09:04:34Z</time>
      </trkpt>
      <trkpt lat="43.74301" lon="4.19343">
        <ele>51</ele>
        <time>2018-08-12T09:04:36Z</time>
      </trkpt>
      <trkpt lat="43.74301" lon="4.19352">
        <ele>51</ele>
        <time>2018-08-12T09:04:38Z</time>
      </trkpt>
      <trkpt lat="43.743" lon="4.19361">
        <ele>51</ele>
        <time>2018-08-12T09:04:40Z</time>
      </trkpt>
      <trkpt lat="43.743" lon="4.1937">
        <ele>51</ele>
        <time>2018-08-12T09:04:42Z</time>
      </trkpt>
      <trkpt lat="43.74299" lon="4.19379">
        <ele>51</ele>
        <time>2018-08-12T09:04:44Z</time>
      </trkpt>
      <trkpt lat="43.74299" lon="4.1939">
        <ele>51</ele>
        <time>2018-08-12T09:04:46Z</time>
      </trkpt>
      <trkpt lat="43.74298" lon="4.194">
        <ele>51</ele>
        <time>2018-08-12T09:04:48Z</time>
      </trkpt>
      <trkpt lat="43.74296" lon="4.19411">
        <ele>51</ele>
        <time>2018-08-12T09:04:50Z</time>
      </trkpt>
      <trkpt lat="43.74294" lon="4.19422">
        <ele>51</ele>
        <time>2018-08-12T09:04:52Z</time>
      </trkpt>
      <trkpt lat="43.74293" lon="4.19433">
        <ele>51</ele>
        <time>2018-08-12T09:04:54Z</time>
      </trkpt>
      <trkpt lat="43.74291" lon="4.19443">
        <ele>51</ele>
        <time>2018-08-12T09:04:56Z</time>
      </trkpt>
      <trkpt lat="43.74287" lon="4.19452">
        <ele>51</ele>
        <time>2018-08-12T09:04:58Z</time>
      </trkpt>
      <trkpt lat="43.74284" lon="4.1946">
        <ele>51</ele>
        <time>2018-08-12T09:05:00Z</time>
      </trkpt>
      <trkpt lat="43.74284" lon="4.19469">
        <ele>51</ele>
        <time>2018-08-12T09:05:02Z</time>
      </trkpt>
      <trkpt lat="43.74284" lon="4.19479">
        <ele>52</ele>
        <time>2018-08-12T09:05:04Z</time>
      </trkpt>
      <trkpt lat="43.74284" lon="4.19489">
        <ele>52</ele>
        <time>2018-08-12T09:05:06Z</time>
      </trkpt>
      <trkpt lat="43.74286" lon="4.19498">
        <ele>52</ele>
        <time>2018-08-12T09:05:08Z</time>
      </trkpt>
      <trkpt lat="43.74291" lon="4.19506">
        <ele>52</ele>
        <time>2018-08-12T09:05:10Z</time>
      </trkpt>
      <trkpt lat="43.74297" lon="4.19512">
        <ele>52</ele>
        <time>2018-08-12T09:05:12Z</time>
      </trkpt>
      <trkpt lat="43.74302" lon="4.19519">
        <ele>52</ele>
        <time>2018-08-12T09:05:14Z</time>
      </trkpt>
      <trkpt lat="43.74307" lon="4.19527">
        <ele>52</ele>
        <time>2018-08-12T09:05:16Z</time>
      </trkpt>
      <trkpt lat="43.74311" lon="4.19536">
        <ele>52</ele>
        <time>2018-08-12T09:05:18Z</time>
      </trkpt>
      <trkpt lat="43.74314" lon="4.19544">
        <ele>52</ele>
        <time>2018-08-12T09:05:20Z</time>
      </trkpt>
      <trkpt lat="43.74319" lon="4.19554">
        <ele>53</ele>
        <time>2018-08-12T09:05:22Z</time>
      </trkpt>
      <trkpt lat="43.74322" lon="4.19563">
        <ele>53</ele>
        <time>2018-08-12T09:05:24Z</time>
      </trkpt>
      <trkpt lat="43.74326" lon="4.19573">
        <ele>53</ele>
        <time>2018-08-12T09:05:26Z</time>
      </trkpt>
      <trkpt lat="43.74329" lon="4.19582">
        <ele>53</ele>
        <time>2018-08-12T09:05:28Z</time>
      </trkpt>
      <trkpt lat="43.74333" lon="4.19591">
        <ele>54</ele>
        <time>2018-08-12T09:05:30Z</time>
      </trkpt>
      <trkpt lat="43.74335" lon="4.196">
        <ele>53</ele>
        <time>2018-08-12T09:05:32Z</time>
      </trkpt>
      <trkpt lat="43.74337" lon="4.1961">
        <ele>53</ele>
        <time>2018-08-12T09:05:34Z</time>
      </trkpt>
      <trkpt lat="43.74338" lon="4.19619">
        <ele>53</ele>
        <time>2018-08-12T09:05:36Z</time>
      </trkpt>
      <trkpt lat="43.74339" lon="4.19629">
        <ele>54</ele>
        <time>2018-08-12T09:05:38Z</time>
      </trkpt>
      <trkpt lat="43.7434" lon="4.19638">
        <ele>54</ele>
        <time>2018-08-12T09:05:40Z</time>
      </trkpt>
      <trkpt lat="43.74341" lon="4.19646">
        <ele>55</ele>
        <time>2018-08-12T09:05:42Z</time>
      </trkpt>
      <trkpt lat="43.74341" lon="4.19654">
        <ele>55</ele>
        <time>2018-08-12T09:05:44Z</time>
      </trkpt>
      <trkpt lat="43.74342" lon="4.19663">
        <ele>56</ele>
        <time>2018-08-12T09:05:46Z</time>
      </trkpt>
      <trkpt lat="43.74343" lon="4.1967">
        <ele>56</ele>
        <time>2018-08-12T09:05:48Z</time>
      </trkpt>
      <trkpt lat="43.74345" lon="4.19677">
        <ele>56</ele>
        <time>2018-08-12T09:05:50Z</time>
      </trkpt>
      <trkpt lat="43.74346" lon="4.19685">
        <ele>56</ele>
        <time>2018-08-12T09:05:52Z</time>
      </trkpt>
      <trkpt lat="43.74347" lon="4.19691">
        <ele>56</ele>
        <time>2018-08-12T09:05:54Z</time>
      </trkpt>
      <trkpt lat="43.74349" lon="4.19697">
        <ele>56</ele>
        <time>2018-08-12T09:05:56Z</time>
      </trkpt>
      <trkpt lat="43.7435" lon="4.19705">
        <ele>56</ele>
        <time>2018-08-12T09:05:58Z</time>
      </trkpt>
      <trkpt lat="43.74351" lon="4.19712">
        <ele>56</ele>
        <time>2018-08-12T09:06:00Z</time>
      </trkpt>
      <trkpt lat="43.74351" lon="4.19719">
        <ele>56</ele>
        <time>2018-08-12T09:06:02Z</time>
      </trkpt>
      <trkpt lat="43.74351" lon="4.19727">
        <ele>57</ele>
        <time>2018-08-12T09:06:04Z</time>
      </trkpt>
      <trkpt lat="43.74351" lon="4.19734">
        <ele>57</ele>
        <time>2018-08-12T09:06:06Z</time>
      </trkpt>
      <trkpt lat="43.7435" lon="4.19741">
        <ele>57</ele>
        <time>2018-08-12T09:06:08Z</time>
      </trkpt>
      <trkpt lat="43.7435" lon="4.19748">
        <ele>57</ele>
        <time>2018-08-12T09:06:10Z</time>
      </trkpt>
      <trkpt lat="43.74351" lon="4.19746">
        <ele>57</ele>
        <time>2018-08-12T09:06:29Z</time>
      </trkpt>
      <trkpt lat="43.74351" lon="4.19746">
        <ele>57</ele>
        <time>2018-08-12T09:06:32Z</time>
      </trkpt>
      <trkpt lat="43.74352" lon="4.19747">
        <ele>57</ele>
        <time>2018-08-12T09:06:50Z</time>
      </trkpt>
      <trkpt lat="43.74353" lon="4.19757">
        <ele>57</ele>
        <time>2018-08-12T09:06:54Z</time>
      </trkpt>
      <trkpt lat="43.74352" lon="4.19767">
        <ele>57</ele>
        <time>2018-08-12T09:06:56Z</time>
      </trkpt>
      <trkpt lat="43.74352" lon="4.19776">
        <ele>57</ele>
        <time>2018-08-12T09:06:58Z</time>
      </trkpt>
      <trkpt lat="43.74352" lon="4.19786">
        <ele>57</ele>
        <time>2018-08-12T09:07:00Z</time>
      </trkpt>
      <trkpt lat="43.74351" lon="4.19796">
        <ele>57</ele>
        <time>2018-08-12T09:07:02Z</time>
      </trkpt>
      <trkpt lat="43.74352" lon="4.19805">
        <ele>57</ele>
        <time>2018-08-12T09:07:04Z</time>
      </trkpt>
      <trkpt lat="43.74353" lon="4.19819">
        <ele>56</ele>
        <time>2018-08-12T09:07:07Z</time>
      </trkpt>
      <trkpt lat="43.74353" lon="4.19828">
        <ele>56</ele>
        <time>2018-08-12T09:07:09Z</time>
      </trkpt>
      <trkpt lat="43.74353" lon="4.19838">
        <ele>56</ele>
        <time>2018-08-12T09:07:11Z</time>
      </trkpt>
      <trkpt lat="43.74353" lon="4.19847">
        <ele>56</ele>
        <time>2018-08-12T09:07:13Z</time>
      </trkpt>
      <trkpt lat="43.7435" lon="4.19855">
        <ele>56</ele>
        <time>2018-08-12T09:07:15Z</time>
      </trkpt>
      <trkpt lat="43.74348" lon="4.19862">
        <ele>56</ele>
        <time>2018-08-12T09:07:17Z</time>
      </trkpt>
      <trkpt lat="43.74347" lon="4.19859">
        <ele>56</ele>
        <time>2018-08-12T09:07:51Z</time>
      </trkpt>
      <trkpt lat="43.74351" lon="4.20023">
        <ele>58</ele>
        <time>2018-08-12T09:08:35Z</time>
      </trkpt>
      <trkpt lat="43.74345" lon="4.20031">
        <ele>58</ele>
        <time>2018-08-12T09:08:36Z</time>
      </trkpt>
      <trkpt lat="43.74342" lon="4.2004">
        <ele>58</ele>
        <time>2018-08-12T09:08:38Z</time>
      </trkpt>
      <trkpt lat="43.74339" lon="4.20049">
        <ele>59</ele>
        <time>2018-08-12T09:08:40Z</time>
      </trkpt>
      <trkpt lat="43.74337" lon="4.20058">
        <ele>59</ele>
        <time>2018-08-12T09:08:42Z</time>
      </trkpt>
      <trkpt lat="43.74334" lon="4.20072">
        <ele>59</ele>
        <time>2018-08-12T09:08:45Z</time>
      </trkpt>
      <trkpt lat="43.74333" lon="4.20082">
        <ele>60</ele>
        <time>2018-08-12T09:08:47Z</time>
      </trkpt>
      <trkpt lat="43.7433" lon="4.20091">
        <ele>60</ele>
        <time>2018-08-12T09:08:49Z</time>
      </trkpt>
      <trkpt lat="43.74326" lon="4.20099">
        <ele>61</ele>
        <time>2018-08-12T09:08:51Z</time>
      </trkpt>
      <trkpt lat="43.74324" lon="4.20108">
        <ele>61</ele>
        <time>2018-08-12T09:08:53Z</time>
      </trkpt>
      <trkpt lat="43.74321" lon="4.20118">
        <ele>61</ele>
        <time>2018-08-12T09:08:55Z</time>
      </trkpt>
      <trkpt lat="43.7432" lon="4.20126">
        <ele>61</ele>
        <time>2018-08-12T09:08:57Z</time>
      </trkpt>
      <trkpt lat="43.74318" lon="4.20137">
        <ele>61</ele>
        <time>2018-08-12T09:08:59Z</time>
      </trkpt>
      <trkpt lat="43.74316" lon="4.20148">
        <ele>61</ele>
        <time>2018-08-12T09:09:01Z</time>
      </trkpt>
      <trkpt lat="43.74315" lon="4.20158">
        <ele>61</ele>
        <time>2018-08-12T09:09:03Z</time>
      </trkpt>
      <trkpt lat="43.74313" lon="4.20168">
        <ele>61</ele>
        <time>2018-08-12T09:09:05Z</time>
      </trkpt>
      <trkpt lat="43.74311" lon="4.20178">
        <ele>61</ele>
        <time>2018-08-12T09:09:07Z</time>
      </trkpt>
      <trkpt lat="43.7431" lon="4.20187">
        <ele>61</ele>
        <time>2018-08-12T09:09:09Z</time>
      </trkpt>
      <trkpt lat="43.74308" lon="4.20198">
        <ele>60</ele>
        <time>2018-08-12T09:09:11Z</time>
      </trkpt>
      <trkpt lat="43.74307" lon="4.20208">
        <ele>60</ele>
        <time>2018-08-12T09:09:13Z</time>
      </trkpt>
      <trkpt lat="43.74306" lon="4.20218">
        <ele>60</ele>
        <time>2018-08-12T09:09:15Z</time>
      </trkpt>
      <trkpt lat="43.74304" lon="4.20229">
        <ele>60</ele>
        <time>2018-08-12T09:09:17Z</time>
      </trkpt>
      <trkpt lat="43.74302" lon="4.2024">
        <ele>60</ele>
        <time>2018-08-12T09:09:19Z</time>
      </trkpt>
      <trkpt lat="43.743" lon="4.20256">
        <ele>58</ele>
        <time>2018-08-12T09:09:21Z</time>
      </trkpt>
      <trkpt lat="43.74296" lon="4.20267">
        <ele>58</ele>
        <time>2018-08-12T09:09:23Z</time>
      </trkpt>
      <trkpt lat="43.74295" lon="4.20279">
        <ele>58</ele>
        <time>2018-08-12T09:09:25Z</time>
      </trkpt>
      <trkpt lat="43.74294" lon="4.20285">
        <ele>58</ele>
        <time>2018-08-12T09:09:26Z</time>
      </trkpt>
      <trkpt lat="43.74292" lon="4.20296">
        <ele>58</ele>
        <time>2018-08-12T09:09:28Z</time>
      </trkpt>
      <trkpt lat="43.74293" lon="4.20304">
        <ele>58</ele>
        <time>2018-08-12T09:09:30Z</time>
      </trkpt>
      <trkpt lat="43.74289" lon="4.2032">
        <ele>58</ele>
        <time>2018-08-12T09:09:33Z</time>
      </trkpt>
      <trkpt lat="43.74289" lon="4.20328">
        <ele>58</ele>
        <time>2018-08-12T09:09:34Z</time>
      </trkpt>
      <trkpt lat="43.74289" lon="4.20334">
        <ele>55</ele>
        <time>2018-08-12T09:09:35Z</time>
      </trkpt>
      <trkpt lat="43.74292" lon="4.20343">
        <ele>55</ele>
        <time>2018-08-12T09:09:36Z</time>
      </trkpt>
      <trkpt lat="43.74293" lon="4.20351">
        <ele>55</ele>
        <time>2018-08-12T09:09:37Z</time>
      </trkpt>
      <trkpt lat="43.74294" lon="4.20358">
        <ele>55</ele>
        <time>2018-08-12T09:09:38Z</time>
      </trkpt>
      <trkpt lat="43.74295" lon="4.20366">
        <ele>55</ele>
        <time>2018-08-12T09:09:39Z</time>
      </trkpt>
      <trkpt lat="43.74297" lon="4.20374">
        <ele>54</ele>
        <time>2018-08-12T09:09:40Z</time>
      </trkpt>
      <trkpt lat="43.74299" lon="4.2038">
        <ele>54</ele>
        <time>2018-08-12T09:09:41Z</time>
      </trkpt>
      <trkpt lat="43.743" lon="4.20388">
        <ele>54</ele>
        <time>2018-08-12T09:09:42Z</time>
      </trkpt>
      <trkpt lat="43.74301" lon="4.20396">
        <ele>53</ele>
        <time>2018-08-12T09:09:43Z</time>
      </trkpt>
      <trkpt lat="43.74306" lon="4.20409">
        <ele>53</ele>
        <time>2018-08-12T09:09:45Z</time>
      </trkpt>
      <trkpt lat="43.74307" lon="4.20417">
        <ele>53</ele>
        <time>2018-08-12T09:09:46Z</time>
      </trkpt>
      <trkpt lat="43.74308" lon="4.20424">
        <ele>49</ele>
        <time>2018-08-12T09:09:47Z</time>
      </trkpt>
      <trkpt lat="43.74308" lon="4.20431">
        <ele>49</ele>
        <time>2018-08-12T09:09:48Z</time>
      </trkpt>
      <trkpt lat="43.7431" lon="4.20438">
        <ele>49</ele>
        <time>2018-08-12T09:09:49Z</time>
      </trkpt>
      <trkpt lat="43.7431" lon="4.20445">
        <ele>49</ele>
        <time>2018-08-12T09:09:50Z</time>
      </trkpt>
      <trkpt lat="43.74311" lon="4.20451">
        <ele>48</ele>
        <time>2018-08-12T09:09:51Z</time>
      </trkpt>
      <trkpt lat="43.74311" lon="4.2046">
        <ele>48</ele>
        <time>2018-08-12T09:09:52Z</time>
      </trkpt>
      <trkpt lat="43.74311" lon="4.20468">
        <ele>48</ele>
        <time>2018-08-12T09:09:53Z</time>
      </trkpt>
      <trkpt lat="43.74311" lon="4.20477">
        <ele>47</ele>
        <time>2018-08-12T09:09:54Z</time>
      </trkpt>
      <trkpt lat="43.74311" lon="4.20483">
        <ele>47</ele>
        <time>2018-08-12T09:09:55Z</time>
      </trkpt>
      <trkpt lat="43.74309" lon="4.20498">
        <ele>47</ele>
        <time>2018-08-12T09:09:57Z</time>
      </trkpt>
      <trkpt lat="43.7431" lon="4.20506">
        <ele>44</ele>
        <time>2018-08-12T09:09:58Z</time>
      </trkpt>
      <trkpt lat="43.74311" lon="4.20517">
        <ele>43</ele>
        <time>2018-08-12T09:10:00Z</time>
      </trkpt>
      <trkpt lat="43.74312" lon="4.20527">
        <ele>43</ele>
        <time>2018-08-12T09:10:02Z</time>
      </trkpt>
      <trkpt lat="43.7431" lon="4.20534">
        <ele>43</ele>
        <time>2018-08-12T09:10:04Z</time>
      </trkpt>
      <trkpt lat="43.74308" lon="4.20542">
        <ele>43</ele>
        <time>2018-08-12T09:10:06Z</time>
      </trkpt>
      <trkpt lat="43.74311" lon="4.20556">
        <ele>42</ele>
        <time>2018-08-12T09:10:09Z</time>
      </trkpt>
      <trkpt lat="43.74313" lon="4.20564">
        <ele>42</ele>
        <time>2018-08-12T09:10:10Z</time>
      </trkpt>
      <trkpt lat="43.74313" lon="4.20571">
        <ele>42</ele>
        <time>2018-08-12T09:10:11Z</time>
      </trkpt>
      <trkpt lat="43.74313" lon="4.20579">
        <ele>42</ele>
        <time>2018-08-12T09:10:12Z</time>
      </trkpt>
      <trkpt lat="43.74313" lon="4.20586">
        <ele>39</ele>
        <time>2018-08-12T09:10:13Z</time>
      </trkpt>
      <trkpt lat="43.74314" lon="4.20593">
        <ele>39</ele>
        <time>2018-08-12T09:10:14Z</time>
      </trkpt>
      <trkpt lat="43.74314" lon="4.20601">
        <ele>39</ele>
        <time>2018-08-12T09:10:15Z</time>
      </trkpt>
      <trkpt lat="43.74315" lon="4.20609">
        <ele>39</ele>
        <time>2018-08-12T09:10:16Z</time>
      </trkpt>
      <trkpt lat="43.74313" lon="4.20618">
        <ele>39</ele>
        <time>2018-08-12T09:10:17Z</time>
      </trkpt>
      <trkpt lat="43.74313" lon="4.20627">
        <ele>38</ele>
        <time>2018-08-12T09:10:18Z</time>
      </trkpt>
      <trkpt lat="43.74314" lon="4.20636">
        <ele>38</ele>
        <time>2018-08-12T09:10:19Z</time>
      </trkpt>
      <trkpt lat="43.74314" lon="4.20653">
        <ele>38</ele>
        <time>2018-08-12T09:10:21Z</time>
      </trkpt>
      <trkpt lat="43.74314" lon="4.20664">
        <ele>38</ele>
        <time>2018-08-12T09:10:22Z</time>
      </trkpt>
      <trkpt lat="43.74316" lon="4.20674">
        <ele>36</ele>
        <time>2018-08-12T09:10:23Z</time>
      </trkpt>
      <trkpt lat="43.74316" lon="4.20682">
        <ele>36</ele>
        <time>2018-08-12T09:10:24Z</time>
      </trkpt>
      <trkpt lat="43.74318" lon="4.20691">
        <ele>35</ele>
        <time>2018-08-12T09:10:25Z</time>
      </trkpt>
      <trkpt lat="43.74319" lon="4.207">
        <ele>35</ele>
        <time>2018-08-12T09:10:26Z</time>
      </trkpt>
      <trkpt lat="43.74321" lon="4.20709">
        <ele>35</ele>
        <time>2018-08-12T09:10:27Z</time>
      </trkpt>
      <trkpt lat="43.74323" lon="4.20719">
        <ele>34</ele>
        <time>2018-08-12T09:10:28Z</time>
      </trkpt>
      <trkpt lat="43.74325" lon="4.20728">
        <ele>34</ele>
        <time>2018-08-12T09:10:29Z</time>
      </trkpt>
      <trkpt lat="43.74327" lon="4.20737">
        <ele>33</ele>
        <time>2018-08-12T09:10:30Z</time>
      </trkpt>
      <trkpt lat="43.74329" lon="4.20745">
        <ele>33</ele>
        <time>2018-08-12T09:10:31Z</time>
      </trkpt>
      <trkpt lat="43.74332" lon="4.20762">
        <ele>32</ele>
        <time>2018-08-12T09:10:33Z</time>
      </trkpt>
      <trkpt lat="43.74334" lon="4.20772">
        <ele>31</ele>
        <time>2018-08-12T09:10:34Z</time>
      </trkpt>
      <trkpt lat="43.74337" lon="4.20778">
        <ele>31</ele>
        <time>2018-08-12T09:10:35Z</time>
      </trkpt>
      <trkpt lat="43.74339" lon="4.20788">
        <ele>30</ele>
        <time>2018-08-12T09:10:36Z</time>
      </trkpt>
      <trkpt lat="43.74342" lon="4.20796">
        <ele>30</ele>
        <time>2018-08-12T09:10:37Z</time>
      </trkpt>
      <trkpt lat="43.74346" lon="4.20805">
        <ele>30</ele>
        <time>2018-08-12T09:10:38Z</time>
      </trkpt>
      <trkpt lat="43.7435" lon="4.20814">
        <ele>30</ele>
        <time>2018-08-12T09:10:39Z</time>
      </trkpt>
      <trkpt lat="43.74352" lon="4.20823">
        <ele>29</ele>
        <time>2018-08-12T09:10:40Z</time>
      </trkpt>
      <trkpt lat="43.74355" lon="4.20832">
        <ele>29</ele>
        <time>2018-08-12T09:10:41Z</time>
      </trkpt>
      <trkpt lat="43.74359" lon="4.20843">
        <ele>27</ele>
        <time>2018-08-12T09:10:42Z</time>
      </trkpt>
      <trkpt lat="43.74361" lon="4.20852">
        <ele>26</ele>
        <time>2018-08-12T09:10:43Z</time>
      </trkpt>
      <trkpt lat="43.74363" lon="4.2087">
        <ele>26</ele>
        <time>2018-08-12T09:10:45Z</time>
      </trkpt>
      <trkpt lat="43.74366" lon="4.20884">
        <ele>25</ele>
        <time>2018-08-12T09:10:46Z</time>
      </trkpt>
      <trkpt lat="43.74368" lon="4.20895">
        <ele>25</ele>
        <time>2018-08-12T09:10:47Z</time>
      </trkpt>
      <trkpt lat="43.74368" lon="4.20905">
        <ele>25</ele>
        <time>2018-08-12T09:10:48Z</time>
      </trkpt>
      <trkpt lat="43.74369" lon="4.20917">
        <ele>25</ele>
        <time>2018-08-12T09:10:49Z</time>
      </trkpt>
      <trkpt lat="43.74371" lon="4.20926">
        <ele>22</ele>
        <time>2018-08-12T09:10:50Z</time>
      </trkpt>
      <trkpt lat="43.74369" lon="4.20937">
        <ele>22</ele>
        <time>2018-08-12T09:10:51Z</time>
      </trkpt>
      <trkpt lat="43.74365" lon="4.20946">
        <ele>22</ele>
        <time>2018-08-12T09:10:52Z</time>
      </trkpt>
      <trkpt lat="43.7436" lon="4.20954">
        <ele>22</ele>
        <time>2018-08-12T09:10:53Z</time>
      </trkpt>
      <trkpt lat="43.74355" lon="4.2096">
        <ele>22</ele>
        <time>2018-08-12T09:10:54Z</time>
      </trkpt>
      <trkpt lat="43.74351" lon="4.20965">
        <ele>22</ele>
        <time>2018-08-12T09:10:55Z</time>
      </trkpt>
      <trkpt lat="43.74343" lon="4.20977">
        <ele>22</ele>
        <time>2018-08-12T09:10:57Z</time>
      </trkpt>
      <trkpt lat="43.74341" lon="4.20985">
        <ele>22</ele>
        <time>2018-08-12T09:10:58Z</time>
      </trkpt>
      <trkpt lat="43.7434" lon="4.20992">
        <ele>22</ele>
        <time>2018-08-12T09:10:59Z</time>
      </trkpt>
      <trkpt lat="43.7434" lon="4.21">
        <ele>22</ele>
        <time>2018-08-12T09:11:00Z</time>
      </trkpt>
      <trkpt lat="43.74342" lon="4.21006">
        <ele>22</ele>
        <time>2018-08-12T09:11:01Z</time>
      </trkpt>
      <trkpt lat="43.74345" lon="4.21011">
        <ele>21</ele>
        <time>2018-08-12T09:11:02Z</time>
      </trkpt>
      <trkpt lat="43.74348" lon="4.21016">
        <ele>21</ele>
        <time>2018-08-12T09:11:03Z</time>
      </trkpt>
      <trkpt lat="43.74352" lon="4.21021">
        <ele>21</ele>
        <time>2018-08-12T09:11:04Z</time>
      </trkpt>
      <trkpt lat="43.74357" lon="4.21024">
        <ele>21</ele>
        <time>2018-08-12T09:11:05Z</time>
      </trkpt>
      <trkpt lat="43.7436" lon="4.21029">
        <ele>21</ele>
        <time>2018-08-12T09:11:06Z</time>
      </trkpt>
      <trkpt lat="43.74364" lon="4.21035">
        <ele>21</ele>
        <time>2018-08-12T09:11:07Z</time>
      </trkpt>
      <trkpt lat="43.74368" lon="4.21049">
        <ele>21</ele>
        <time>2018-08-12T09:11:09Z</time>
      </trkpt>
      <trkpt lat="43.74369" lon="4.21058">
        <ele>21</ele>
        <time>2018-08-12T09:11:10Z</time>
      </trkpt>
      <trkpt lat="43.74369" lon="4.21065">
        <ele>21</ele>
        <time>2018-08-12T09:11:11Z</time>
      </trkpt>
      <trkpt lat="43.7437" lon="4.21078">
        <ele>21</ele>
        <time>2018-08-12T09:11:13Z</time>
      </trkpt>
      <trkpt lat="43.7437" lon="4.21084">
        <ele>20</ele>
        <time>2018-08-12T09:11:14Z</time>
      </trkpt>
      <trkpt lat="43.74371" lon="4.21091">
        <ele>20</ele>
        <time>2018-08-12T09:11:15Z</time>
      </trkpt>
      <trkpt lat="43.74371" lon="4.21098">
        <ele>20</ele>
        <time>2018-08-12T09:11:16Z</time>
      </trkpt>
      <trkpt lat="43.74372" lon="4.21105">
        <ele>20</ele>
        <time>2018-08-12T09:11:17Z</time>
      </trkpt>
      <trkpt lat="43.74373" lon="4.21111">
        <ele>20</ele>
        <time>2018-08-12T09:11:18Z</time>
      </trkpt>
      <trkpt lat="43.74373" lon="4.21118">
        <ele>20</ele>
        <time>2018-08-12T09:11:19Z</time>
      </trkpt>
      <trkpt lat="43.74374" lon="4.21129">
        <ele>20</ele>
        <time>2018-08-12T09:11:21Z</time>
      </trkpt>
      <trkpt lat="43.74375" lon="4.21136">
        <ele>20</ele>
        <time>2018-08-12T09:11:22Z</time>
      </trkpt>
      <trkpt lat="43.74375" lon="4.21147">
        <ele>20</ele>
        <time>2018-08-12T09:11:24Z</time>
      </trkpt>
      <trkpt lat="43.74374" lon="4.21154">
        <ele>20</ele>
        <time>2018-08-12T09:11:26Z</time>
      </trkpt>
      <trkpt lat="43.74371" lon="4.21163">
        <ele>20</ele>
        <time>2018-08-12T09:11:29Z</time>
      </trkpt>
      <trkpt lat="43.74366" lon="4.21169">
        <ele>21</ele>
        <time>2018-08-12T09:11:31Z</time>
      </trkpt>
      <trkpt lat="43.74321" lon="4.21213">
        <ele>20</ele>
        <time>2018-08-12T09:11:43Z</time>
      </trkpt>
      <trkpt lat="43.74316" lon="4.21212">
        <ele>20</ele>
        <time>2018-08-12T09:11:44Z</time>
      </trkpt>
      <trkpt lat="43.74313" lon="4.21221">
        <ele>20</ele>
        <time>2018-08-12T09:11:45Z</time>
      </trkpt>
      <trkpt lat="43.74307" lon="4.21227">
        <ele>20</ele>
        <time>2018-08-12T09:11:47Z</time>
      </trkpt>
      <trkpt lat="43.74304" lon="4.21231">
        <ele>20</ele>
        <time>2018-08-12T09:11:48Z</time>
      </trkpt>
      <trkpt lat="43.743" lon="4.21236">
        <ele>20</ele>
        <time>2018-08-12T09:11:49Z</time>
      </trkpt>
      <trkpt lat="43.74296" lon="4.21241">
        <ele>20</ele>
        <time>2018-08-12T09:11:50Z</time>
      </trkpt>
      <trkpt lat="43.74293" lon="4.21245">
        <ele>20</ele>
        <time>2018-08-12T09:11:51Z</time>
      </trkpt>
      <trkpt lat="43.74285" lon="4.21252">
        <ele>20</ele>
        <time>2018-08-12T09:11:53Z</time>
      </trkpt>
      <trkpt lat="43.74281" lon="4.21255">
        <ele>20</ele>
        <time>2018-08-12T09:11:54Z</time>
      </trkpt>
      <trkpt lat="43.74273" lon="4.21256">
        <ele>20</ele>
        <time>2018-08-12T09:11:56Z</time>
      </trkpt>
      <trkpt lat="43.74264" lon="4.21257">
        <ele>20</ele>
        <time>2018-08-12T09:11:58Z</time>
      </trkpt>
      <trkpt lat="43.74259" lon="4.21258">
        <ele>20</ele>
        <time>2018-08-12T09:11:59Z</time>
      </trkpt>
      <trkpt lat="43.74255" lon="4.21259">
        <ele>20</ele>
        <time>2018-08-12T09:12:00Z</time>
      </trkpt>
      <trkpt lat="43.74246" lon="4.21263">
        <ele>19</ele>
        <time>2018-08-12T09:12:02Z</time>
      </trkpt>
      <trkpt lat="43.74241" lon="4.21264">
        <ele>19</ele>
        <time>2018-08-12T09:12:03Z</time>
      </trkpt>
      <trkpt lat="43.74236" lon="4.21264">
        <ele>19</ele>
        <time>2018-08-12T09:12:04Z</time>
      </trkpt>
      <trkpt lat="43.74232" lon="4.21269">
        <ele>19</ele>
        <time>2018-08-12T09:12:05Z</time>
      </trkpt>
      <trkpt lat="43.74228" lon="4.2127">
        <ele>19</ele>
        <time>2018-08-12T09:12:06Z</time>
      </trkpt>
      <trkpt lat="43.74223" lon="4.21272">
        <ele>19</ele>
        <time>2018-08-12T09:12:07Z</time>
      </trkpt>
      <trkpt lat="43.74216" lon="4.21279">
        <ele>19</ele>
        <time>2018-08-12T09:12:09Z</time>
      </trkpt>
      <trkpt lat="43.7421" lon="4.21286">
        <ele>19</ele>
        <time>2018-08-12T09:12:11Z</time>
      </trkpt>
      <trkpt lat="43.74206" lon="4.21288">
        <ele>19</ele>
        <time>2018-08-12T09:12:12Z</time>
      </trkpt>
      <trkpt lat="43.74198" lon="4.21296">
        <ele>19</ele>
        <time>2018-08-12T09:12:14Z</time>
      </trkpt>
      <trkpt lat="43.7419" lon="4.21298">
        <ele>19</ele>
        <time>2018-08-12T09:12:16Z</time>
      </trkpt>
      <trkpt lat="43.74183" lon="4.21297">
        <ele>19</ele>
        <time>2018-08-12T09:12:18Z</time>
      </trkpt>
      <trkpt lat="43.74174" lon="4.21293">
        <ele>18</ele>
        <time>2018-08-12T09:12:20Z</time>
      </trkpt>
      <trkpt lat="43.74166" lon="4.2129">
        <ele>18</ele>
        <time>2018-08-12T09:12:22Z</time>
      </trkpt>
      <trkpt lat="43.74157" lon="4.21288">
        <ele>18</ele>
        <time>2018-08-12T09:12:24Z</time>
      </trkpt>
      <trkpt lat="43.74153" lon="4.21288">
        <ele>18</ele>
        <time>2018-08-12T09:12:25Z</time>
      </trkpt>
      <trkpt lat="43.74146" lon="4.2129">
        <ele>18</ele>
        <time>2018-08-12T09:12:26Z</time>
      </trkpt>
      <trkpt lat="43.74142" lon="4.21289">
        <ele>18</ele>
        <time>2018-08-12T09:12:27Z</time>
      </trkpt>
      <trkpt lat="43.74137" lon="4.21288">
        <ele>18</ele>
        <time>2018-08-12T09:12:28Z</time>
      </trkpt>
      <trkpt lat="43.74127" lon="4.21287">
        <ele>18</ele>
        <time>2018-08-12T09:12:30Z</time>
      </trkpt>
      <trkpt lat="43.74122" lon="4.21289">
        <ele>18</ele>
        <time>2018-08-12T09:12:31Z</time>
      </trkpt>
      <trkpt lat="43.74112" lon="4.21295">
        <ele>18</ele>
        <time>2018-08-12T09:12:33Z</time>
      </trkpt>
      <trkpt lat="43.74104" lon="4.21299">
        <ele>18</ele>
        <time>2018-08-12T09:12:35Z</time>
      </trkpt>
      <trkpt lat="43.74098" lon="4.21304">
        <ele>18</ele>
        <time>2018-08-12T09:12:36Z</time>
      </trkpt>
      <trkpt lat="43.74094" lon="4.21307">
        <ele>18</ele>
        <time>2018-08-12T09:12:37Z</time>
      </trkpt>
      <trkpt lat="43.74089" lon="4.2131">
        <ele>19</ele>
        <time>2018-08-12T09:12:38Z</time>
      </trkpt>
      <trkpt lat="43.74084" lon="4.21314">
        <ele>19</ele>
        <time>2018-08-12T09:12:39Z</time>
      </trkpt>
      <trkpt lat="43.7408" lon="4.21316">
        <ele>19</ele>
        <time>2018-08-12T09:12:40Z</time>
      </trkpt>
      <trkpt lat="43.74075" lon="4.21319">
        <ele>19</ele>
        <time>2018-08-12T09:12:41Z</time>
      </trkpt>
      <trkpt lat="43.74071" lon="4.21322">
        <ele>19</ele>
        <time>2018-08-12T09:12:42Z</time>
      </trkpt>
      <trkpt lat="43.74066" lon="4.21324">
        <ele>19</ele>
        <time>2018-08-12T09:12:43Z</time>
      </trkpt>
      <trkpt lat="43.74057" lon="4.21328">
        <ele>19</ele>
        <time>2018-08-12T09:12:45Z</time>
      </trkpt>
      <trkpt lat="43.7405" lon="4.21334">
        <ele>19</ele>
        <time>2018-08-12T09:12:47Z</time>
      </trkpt>
      <trkpt lat="43.74045" lon="4.21337">
        <ele>19</ele>
        <time>2018-08-12T09:12:48Z</time>
      </trkpt>
      <trkpt lat="43.74041" lon="4.2134">
        <ele>20</ele>
        <time>2018-08-12T09:12:49Z</time>
      </trkpt>
      <trkpt lat="43.74036" lon="4.21344">
        <ele>20</ele>
        <time>2018-08-12T09:12:50Z</time>
      </trkpt>
      <trkpt lat="43.74032" lon="4.21347">
        <ele>20</ele>
        <time>2018-08-12T09:12:51Z</time>
      </trkpt>
      <trkpt lat="43.74027" lon="4.2135">
        <ele>20</ele>
        <time>2018-08-12T09:12:52Z</time>
      </trkpt>
      <trkpt lat="43.74022" lon="4.21354">
        <ele>20</ele>
        <time>2018-08-12T09:12:53Z</time>
      </trkpt>
      <trkpt lat="43.74018" lon="4.21359">
        <ele>20</ele>
        <time>2018-08-12T09:12:54Z</time>
      </trkpt>
      <trkpt lat="43.74013" lon="4.21363">
        <ele>20</ele>
        <time>2018-08-12T09:12:55Z</time>
      </trkpt>
      <trkpt lat="43.74009" lon="4.21367">
        <ele>20</ele>
        <time>2018-08-12T09:12:56Z</time>
      </trkpt>
      <trkpt lat="43.74004" lon="4.21369">
        <ele>20</ele>
        <time>2018-08-12T09:12:57Z</time>
      </trkpt>
      <trkpt lat="43.74" lon="4.21373">
        <ele>20</ele>
        <time>2018-08-12T09:12:58Z</time>
      </trkpt>
      <trkpt lat="43.73996" lon="4.21375">
        <ele>19</ele>
        <time>2018-08-12T09:12:59Z</time>
      </trkpt>
      <trkpt lat="43.73991" lon="4.21379">
        <ele>19</ele>
        <time>2018-08-12T09:13:00Z</time>
      </trkpt>
      <trkpt lat="43.73986" lon="4.21381">
        <ele>19</ele>
        <time>2018-08-12T09:13:01Z</time>
      </trkpt>
      <trkpt lat="43.73979" lon="4.21387">
        <ele>19</ele>
        <time>2018-08-12T09:13:03Z</time>
      </trkpt>
      <trkpt lat="43.7397" lon="4.21389">
        <ele>19</ele>
        <time>2018-08-12T09:13:05Z</time>
      </trkpt>
      <trkpt lat="43.73965" lon="4.21387">
        <ele>19</ele>
        <time>2018-08-12T09:13:06Z</time>
      </trkpt>
      <trkpt lat="43.7396" lon="4.21386">
        <ele>19</ele>
        <time>2018-08-12T09:13:07Z</time>
      </trkpt>
      <trkpt lat="43.73955" lon="4.21385">
        <ele>19</ele>
        <time>2018-08-12T09:13:08Z</time>
      </trkpt>
      <trkpt lat="43.73951" lon="4.21383">
        <ele>19</ele>
        <time>2018-08-12T09:13:09Z</time>
      </trkpt>
      <trkpt lat="43.73943" lon="4.2138">
        <ele>19</ele>
        <time>2018-08-12T09:13:11Z</time>
      </trkpt>
      <trkpt lat="43.73939" lon="4.21382">
        <ele>19</ele>
        <time>2018-08-12T09:13:12Z</time>
      </trkpt>
      <trkpt lat="43.73931" lon="4.21384">
        <ele>19</ele>
        <time>2018-08-12T09:13:14Z</time>
      </trkpt>
      <trkpt lat="43.73926" lon="4.21386">
        <ele>19</ele>
        <time>2018-08-12T09:13:15Z</time>
      </trkpt>
      <trkpt lat="43.73918" lon="4.21391">
        <ele>19</ele>
        <time>2018-08-12T09:13:17Z</time>
      </trkpt>
      <trkpt lat="43.73914" lon="4.21393">
        <ele>19</ele>
        <time>2018-08-12T09:13:18Z</time>
      </trkpt>
      <trkpt lat="43.73909" lon="4.21395">
        <ele>19</ele>
        <time>2018-08-12T09:13:19Z</time>
      </trkpt>
      <trkpt lat="43.739" lon="4.21396">
        <ele>19</ele>
        <time>2018-08-12T09:13:21Z</time>
      </trkpt>
      <trkpt lat="43.73894" lon="4.21398">
        <ele>19</ele>
        <time>2018-08-12T09:13:22Z</time>
      </trkpt>
      <trkpt lat="43.7389" lon="4.21399">
        <ele>19</ele>
        <time>2018-08-12T09:13:23Z</time>
      </trkpt>
      <trkpt lat="43.7388" lon="4.214">
        <ele>19</ele>
        <time>2018-08-12T09:13:25Z</time>
      </trkpt>
      <trkpt lat="43.73871" lon="4.21402">
        <ele>19</ele>
        <time>2018-08-12T09:13:27Z</time>
      </trkpt>
      <trkpt lat="43.73867" lon="4.21404">
        <ele>19</ele>
        <time>2018-08-12T09:13:28Z</time>
      </trkpt>
      <trkpt lat="43.73859" lon="4.21405">
        <ele>19</ele>
        <time>2018-08-12T09:13:30Z</time>
      </trkpt>
      <trkpt lat="43.73849" lon="4.21406">
        <ele>18</ele>
        <time>2018-08-12T09:13:32Z</time>
      </trkpt>
      <trkpt lat="43.73844" lon="4.21407">
        <ele>18</ele>
        <time>2018-08-12T09:13:33Z</time>
      </trkpt>
      <trkpt lat="43.73834" lon="4.21407">
        <ele>18</ele>
        <time>2018-08-12T09:13:35Z</time>
      </trkpt>
      <trkpt lat="43.73829" lon="4.21407">
        <ele>18</ele>
        <time>2018-08-12T09:13:36Z</time>
      </trkpt>
      <trkpt lat="43.73823" lon="4.21406">
        <ele>18</ele>
        <time>2018-08-12T09:13:37Z</time>
      </trkpt>
      <trkpt lat="43.73819" lon="4.21406">
        <ele>18</ele>
        <time>2018-08-12T09:13:38Z</time>
      </trkpt>
      <trkpt lat="43.73814" lon="4.21407">
        <ele>18</ele>
        <time>2018-08-12T09:13:39Z</time>
      </trkpt>
      <trkpt lat="43.73808" lon="4.21405">
        <ele>19</ele>
        <time>2018-08-12T09:13:40Z</time>
      </trkpt>
      <trkpt lat="43.73803" lon="4.21406">
        <ele>19</ele>
        <time>2018-08-12T09:13:41Z</time>
      </trkpt>
      <trkpt lat="43.73798" lon="4.21406">
        <ele>19</ele>
        <time>2018-08-12T09:13:42Z</time>
      </trkpt>
      <trkpt lat="43.73793" lon="4.21407">
        <ele>19</ele>
        <time>2018-08-12T09:13:43Z</time>
      </trkpt>
      <trkpt lat="43.73788" lon="4.21406">
        <ele>19</ele>
        <time>2018-08-12T09:13:44Z</time>
      </trkpt>
      <trkpt lat="43.73784" lon="4.21408">
        <ele>19</ele>
        <time>2018-08-12T09:13:45Z</time>
      </trkpt>
      <trkpt lat="43.73779" lon="4.21411">
        <ele>19</ele>
        <time>2018-08-12T09:13:46Z</time>
      </trkpt>
      <trkpt lat="43.73771" lon="4.21416">
        <ele>19</ele>
        <time>2018-08-12T09:13:48Z</time>
      </trkpt>
      <trkpt lat="43.73774" lon="4.21423">
        <ele>19</ele>
        <time>2018-08-12T09:13:49Z</time>
      </trkpt>
      <trkpt lat="43.73771" lon="4.21434">
        <ele>19</ele>
        <time>2018-08-12T09:13:51Z</time>
      </trkpt>
      <trkpt lat="43.73773" lon="4.2144">
        <ele>19</ele>
        <time>2018-08-12T09:13:53Z</time>
      </trkpt>
      <trkpt lat="43.73767" lon="4.21448">
        <ele>19</ele>
        <time>2018-08-12T09:13:56Z</time>
      </trkpt>
      <trkpt lat="43.7376" lon="4.21448">
        <ele>19</ele>
        <time>2018-08-12T09:13:58Z</time>
      </trkpt>
      <trkpt lat="43.73753" lon="4.21446">
        <ele>19</ele>
        <time>2018-08-12T09:14:00Z</time>
      </trkpt>
      <trkpt lat="43.73748" lon="4.21439">
        <ele>18</ele>
        <time>2018-08-12T09:14:02Z</time>
      </trkpt>
      <trkpt lat="43.73741" lon="4.21435">
        <ele>18</ele>
        <time>2018-08-12T09:14:04Z</time>
      </trkpt>
      <trkpt lat="43.73733" lon="4.21434">
        <ele>18</ele>
        <time>2018-08-12T09:14:06Z</time>
      </trkpt>
      <trkpt lat="43.73724" lon="4.21436">
        <ele>18</ele>
        <time>2018-08-12T09:14:08Z</time>
      </trkpt>
      <trkpt lat="43.73716" lon="4.21441">
        <ele>18</ele>
        <time>2018-08-12T09:14:10Z</time>
      </trkpt>
      <trkpt lat="43.73708" lon="4.21444">
        <ele>18</ele>
        <time>2018-08-12T09:14:12Z</time>
      </trkpt>
      <trkpt lat="43.73702" lon="4.21449">
        <ele>18</ele>
        <time>2018-08-12T09:14:14Z</time>
      </trkpt>
      <trkpt lat="43.73695" lon="4.21454">
        <ele>18</ele>
        <time>2018-08-12T09:14:16Z</time>
      </trkpt>
      <trkpt lat="43.73688" lon="4.2146">
        <ele>18</ele>
        <time>2018-08-12T09:14:18Z</time>
      </trkpt>
      <trkpt lat="43.73682" lon="4.21467">
        <ele>18</ele>
        <time>2018-08-12T09:14:20Z</time>
      </trkpt>
      <trkpt lat="43.73677" lon="4.21474">
        <ele>18</ele>
        <time>2018-08-12T09:14:22Z</time>
      </trkpt>
      <trkpt lat="43.7367" lon="4.21482">
        <ele>17</ele>
        <time>2018-08-12T09:14:24Z</time>
      </trkpt>
      <trkpt lat="43.73663" lon="4.2149">
        <ele>17</ele>
        <time>2018-08-12T09:14:26Z</time>
      </trkpt>
      <trkpt lat="43.73657" lon="4.21498">
        <ele>17</ele>
        <time>2018-08-12T09:14:28Z</time>
      </trkpt>
      <trkpt lat="43.7365" lon="4.21505">
        <ele>17</ele>
        <time>2018-08-12T09:14:30Z</time>
      </trkpt>
      <trkpt lat="43.73644" lon="4.21513">
        <ele>17</ele>
        <time>2018-08-12T09:14:32Z</time>
      </trkpt>
      <trkpt lat="43.73637" lon="4.21519">
        <ele>17</ele>
        <time>2018-08-12T09:14:34Z</time>
      </trkpt>
      <trkpt lat="43.7363" lon="4.21525">
        <ele>17</ele>
        <time>2018-08-12T09:14:36Z</time>
      </trkpt>
      <trkpt lat="43.73623" lon="4.21531">
        <ele>17</ele>
        <time>2018-08-12T09:14:38Z</time>
      </trkpt>
      <trkpt lat="43.73616" lon="4.21537">
        <ele>17</ele>
        <time>2018-08-12T09:14:40Z</time>
      </trkpt>
      <trkpt lat="43.73609" lon="4.21541">
        <ele>17</ele>
        <time>2018-08-12T09:14:42Z</time>
      </trkpt>
      <trkpt lat="43.73602" lon="4.21545">
        <ele>17</ele>
        <time>2018-08-12T09:14:44Z</time>
      </trkpt>
      <trkpt lat="43.73595" lon="4.21548">
        <ele>17</ele>
        <time>2018-08-12T09:14:46Z</time>
      </trkpt>
      <trkpt lat="43.73587" lon="4.21551">
        <ele>17</ele>
        <time>2018-08-12T09:14:48Z</time>
      </trkpt>
      <trkpt lat="43.7358" lon="4.21554">
        <ele>17</ele>
        <time>2018-08-12T09:14:50Z</time>
      </trkpt>
      <trkpt lat="43.73574" lon="4.21557">
        <ele>18</ele>
        <time>2018-08-12T09:14:52Z</time>
      </trkpt>
      <trkpt lat="43.7357" lon="4.2156">
        <ele>18</ele>
        <time>2018-08-12T09:14:54Z</time>
      </trkpt>
      <trkpt lat="43.73563" lon="4.21564">
        <ele>18</ele>
        <time>2018-08-12T09:14:56Z</time>
      </trkpt>
      <trkpt lat="43.73557" lon="4.21567">
        <ele>18</ele>
        <time>2018-08-12T09:14:58Z</time>
      </trkpt>
      <trkpt lat="43.7355" lon="4.2157">
        <ele>18</ele>
        <time>2018-08-12T09:15:00Z</time>
      </trkpt>
      <trkpt lat="43.73543" lon="4.21573">
        <ele>18</ele>
        <time>2018-08-12T09:15:02Z</time>
      </trkpt>
      <trkpt lat="43.73536" lon="4.21577">
        <ele>18</ele>
        <time>2018-08-12T09:15:04Z</time>
      </trkpt>
      <trkpt lat="43.73528" lon="4.21581">
        <ele>18</ele>
        <time>2018-08-12T09:15:06Z</time>
      </trkpt>
      <trkpt lat="43.73521" lon="4.21584">
        <ele>18</ele>
        <time>2018-08-12T09:15:08Z</time>
      </trkpt>
      <trkpt lat="43.73514" lon="4.21588">
        <ele>18</ele>
        <time>2018-08-12T09:15:10Z</time>
      </trkpt>
      <trkpt lat="43.73507" lon="4.21591">
        <ele>18</ele>
        <time>2018-08-12T09:15:12Z</time>
      </trkpt>
      <trkpt lat="43.73501" lon="4.21595">
        <ele>18</ele>
        <time>2018-08-12T09:15:14Z</time>
      </trkpt>
      <trkpt lat="43.73494" lon="4.21599">
        <ele>18</ele>
        <time>2018-08-12T09:15:16Z</time>
      </trkpt>
      <trkpt lat="43.73487" lon="4.21603">
        <ele>18</ele>
        <time>2018-08-12T09:15:18Z</time>
      </trkpt>
      <trkpt lat="43.7348" lon="4.21606">
        <ele>18</ele>
        <time>2018-08-12T09:15:20Z</time>
      </trkpt>
      <trkpt lat="43.73472" lon="4.21609">
        <ele>18</ele>
        <time>2018-08-12T09:15:22Z</time>
      </trkpt>
      <trkpt lat="43.73465" lon="4.21611">
        <ele>18</ele>
        <time>2018-08-12T09:15:24Z</time>
      </trkpt>
      <trkpt lat="43.73458" lon="4.21613">
        <ele>18</ele>
        <time>2018-08-12T09:15:26Z</time>
      </trkpt>
      <trkpt lat="43.73452" lon="4.21617">
        <ele>18</ele>
        <time>2018-08-12T09:15:28Z</time>
      </trkpt>
      <trkpt lat="43.73447" lon="4.21623">
        <ele>18</ele>
        <time>2018-08-12T09:15:30Z</time>
      </trkpt>
      <trkpt lat="43.73445" lon="4.21634">
        <ele>18</ele>
        <time>2018-08-12T09:15:32Z</time>
      </trkpt>
      <trkpt lat="43.73446" lon="4.21644">
        <ele>18</ele>
        <time>2018-08-12T09:15:33Z</time>
      </trkpt>
      <trkpt lat="43.73444" lon="4.21654">
        <ele>18</ele>
        <time>2018-08-12T09:15:35Z</time>
      </trkpt>
      <trkpt lat="43.73439" lon="4.21665">
        <ele>18</ele>
        <time>2018-08-12T09:15:37Z</time>
      </trkpt>
      <trkpt lat="43.73435" lon="4.21675">
        <ele>19</ele>
        <time>2018-08-12T09:15:39Z</time>
      </trkpt>
      <trkpt lat="43.73434" lon="4.21684">
        <ele>19</ele>
        <time>2018-08-12T09:15:41Z</time>
      </trkpt>
      <trkpt lat="43.73431" lon="4.21693">
        <ele>19</ele>
        <time>2018-08-12T09:15:43Z</time>
      </trkpt>
      <trkpt lat="43.7343" lon="4.21702">
        <ele>19</ele>
        <time>2018-08-12T09:15:45Z</time>
      </trkpt>
      <trkpt lat="43.7343" lon="4.2171">
        <ele>19</ele>
        <time>2018-08-12T09:15:47Z</time>
      </trkpt>
      <trkpt lat="43.73431" lon="4.21718">
        <ele>19</ele>
        <time>2018-08-12T09:15:49Z</time>
      </trkpt>
      <trkpt lat="43.73433" lon="4.21727">
        <ele>19</ele>
        <time>2018-08-12T09:15:51Z</time>
      </trkpt>
      <trkpt lat="43.73435" lon="4.21737">
        <ele>19</ele>
        <time>2018-08-12T09:15:53Z</time>
      </trkpt>
      <trkpt lat="43.73438" lon="4.21747">
        <ele>19</ele>
        <time>2018-08-12T09:15:55Z</time>
      </trkpt>
      <trkpt lat="43.73441" lon="4.21757">
        <ele>20</ele>
        <time>2018-08-12T09:15:57Z</time>
      </trkpt>
      <trkpt lat="43.73443" lon="4.21767">
        <ele>20</ele>
        <time>2018-08-12T09:15:59Z</time>
      </trkpt>
      <trkpt lat="43.73443" lon="4.21778">
        <ele>20</ele>
        <time>2018-08-12T09:16:01Z</time>
      </trkpt>
      <trkpt lat="43.73443" lon="4.2179">
        <ele>20</ele>
        <time>2018-08-12T09:16:03Z</time>
      </trkpt>
      <trkpt lat="43.73442" lon="4.21802">
        <ele>20</ele>
        <time>2018-08-12T09:16:05Z</time>
      </trkpt>
      <trkpt lat="43.73441" lon="4.21812">
        <ele>21</ele>
        <time>2018-08-12T09:16:07Z</time>
      </trkpt>
      <trkpt lat="43.7344" lon="4.21819">
        <ele>21</ele>
        <time>2018-08-12T09:16:08Z</time>
      </trkpt>
      <trkpt lat="43.73439" lon="4.21831">
        <ele>21</ele>
        <time>2018-08-12T09:16:10Z</time>
      </trkpt>
      <trkpt lat="43.73439" lon="4.21842">
        <ele>22</ele>
        <time>2018-08-12T09:16:12Z</time>
      </trkpt>
      <trkpt lat="43.73439" lon="4.21853">
        <ele>22</ele>
        <time>2018-08-12T09:16:14Z</time>
      </trkpt>
      <trkpt lat="43.73441" lon="4.21863">
        <ele>22</ele>
        <time>2018-08-12T09:16:16Z</time>
      </trkpt>
      <trkpt lat="43.73441" lon="4.21873">
        <ele>22</ele>
        <time>2018-08-12T09:16:18Z</time>
      </trkpt>
      <trkpt lat="43.7344" lon="4.2188">
        <ele>22</ele>
        <time>2018-08-12T09:16:20Z</time>
      </trkpt>
      <trkpt lat="43.73439" lon="4.21888">
        <ele>22</ele>
        <time>2018-08-12T09:16:22Z</time>
      </trkpt>
      <trkpt lat="43.73437" lon="4.21896">
        <ele>22</ele>
        <time>2018-08-12T09:16:24Z</time>
      </trkpt>
      <trkpt lat="43.73438" lon="4.21906">
        <ele>22</ele>
        <time>2018-08-12T09:16:26Z</time>
      </trkpt>
      <trkpt lat="43.7344" lon="4.21916">
        <ele>22</ele>
        <time>2018-08-12T09:16:28Z</time>
      </trkpt>
      <trkpt lat="43.73441" lon="4.21922">
        <ele>22</ele>
        <time>2018-08-12T09:16:29Z</time>
      </trkpt>
      <trkpt lat="43.73441" lon="4.21933">
        <ele>22</ele>
        <time>2018-08-12T09:16:31Z</time>
      </trkpt>
      <trkpt lat="43.73441" lon="4.21944">
        <ele>22</ele>
        <time>2018-08-12T09:16:33Z</time>
      </trkpt>
      <trkpt lat="43.73441" lon="4.21955">
        <ele>21</ele>
        <time>2018-08-12T09:16:35Z</time>
      </trkpt>
      <trkpt lat="43.73442" lon="4.21966">
        <ele>21</ele>
        <time>2018-08-12T09:16:37Z</time>
      </trkpt>
      <trkpt lat="43.73443" lon="4.21975">
        <ele>21</ele>
        <time>2018-08-12T09:16:39Z</time>
      </trkpt>
      <trkpt lat="43.73445" lon="4.21982">
        <ele>21</ele>
        <time>2018-08-12T09:16:41Z</time>
      </trkpt>
      <trkpt lat="43.73448" lon="4.2199">
        <ele>21</ele>
        <time>2018-08-12T09:16:51Z</time>
      </trkpt>
      <trkpt lat="43.73449" lon="4.21999">
        <ele>21</ele>
        <time>2018-08-12T09:16:53Z</time>
      </trkpt>
      <trkpt lat="43.7345" lon="4.2201">
        <ele>20</ele>
        <time>2018-08-12T09:16:55Z</time>
      </trkpt>
      <trkpt lat="43.73452" lon="4.22021">
        <ele>20</ele>
        <time>2018-08-12T09:16:57Z</time>
      </trkpt>
      <trkpt lat="43.73455" lon="4.22036">
        <ele>20</ele>
        <time>2018-08-12T09:17:00Z</time>
      </trkpt>
      <trkpt lat="43.73455" lon="4.22043">
        <ele>20</ele>
        <time>2018-08-12T09:17:01Z</time>
      </trkpt>
      <trkpt lat="43.73457" lon="4.22054">
        <ele>20</ele>
        <time>2018-08-12T09:17:03Z</time>
      </trkpt>
      <trkpt lat="43.73458" lon="4.22066">
        <ele>20</ele>
        <time>2018-08-12T09:17:05Z</time>
      </trkpt>
      <trkpt lat="43.73459" lon="4.22078">
        <ele>20</ele>
        <time>2018-08-12T09:17:07Z</time>
      </trkpt>
      <trkpt lat="43.7346" lon="4.22084">
        <ele>20</ele>
        <time>2018-08-12T09:17:08Z</time>
      </trkpt>
      <trkpt lat="43.7346" lon="4.22094">
        <ele>20</ele>
        <time>2018-08-12T09:17:09Z</time>
      </trkpt>
      <trkpt lat="43.73461" lon="4.221">
        <ele>20</ele>
        <time>2018-08-12T09:17:10Z</time>
      </trkpt>
      <trkpt lat="43.73464" lon="4.22112">
        <ele>20</ele>
        <time>2018-08-12T09:17:13Z</time>
      </trkpt>
      <trkpt lat="43.73464" lon="4.22122">
        <ele>20</ele>
        <time>2018-08-12T09:17:14Z</time>
      </trkpt>
      <trkpt lat="43.73463" lon="4.22134">
        <ele>20</ele>
        <time>2018-08-12T09:17:16Z</time>
      </trkpt>
      <trkpt lat="43.73464" lon="4.2214">
        <ele>20</ele>
        <time>2018-08-12T09:17:17Z</time>
      </trkpt>
      <trkpt lat="43.73467" lon="4.22153">
        <ele>20</ele>
        <time>2018-08-12T09:17:19Z</time>
      </trkpt>
      <trkpt lat="43.73468" lon="4.2216">
        <ele>20</ele>
        <time>2018-08-12T09:17:20Z</time>
      </trkpt>
      <trkpt lat="43.73469" lon="4.22173">
        <ele>20</ele>
        <time>2018-08-12T09:17:22Z</time>
      </trkpt>
      <trkpt lat="43.73469" lon="4.22179">
        <ele>20</ele>
        <time>2018-08-12T09:17:23Z</time>
      </trkpt>
      <trkpt lat="43.73471" lon="4.22192">
        <ele>20</ele>
        <time>2018-08-12T09:17:25Z</time>
      </trkpt>
      <trkpt lat="43.73472" lon="4.22198">
        <ele>20</ele>
        <time>2018-08-12T09:17:26Z</time>
      </trkpt>
      <trkpt lat="43.73472" lon="4.22205">
        <ele>20</ele>
        <time>2018-08-12T09:17:27Z</time>
      </trkpt>
      <trkpt lat="43.73473" lon="4.22212">
        <ele>20</ele>
        <time>2018-08-12T09:17:28Z</time>
      </trkpt>
      <trkpt lat="43.73473" lon="4.22219">
        <ele>20</ele>
        <time>2018-08-12T09:17:29Z</time>
      </trkpt>
      <trkpt lat="43.73474" lon="4.22226">
        <ele>20</ele>
        <time>2018-08-12T09:17:30Z</time>
      </trkpt>
      <trkpt lat="43.73476" lon="4.22238">
        <ele>20</ele>
        <time>2018-08-12T09:17:32Z</time>
      </trkpt>
      <trkpt lat="43.73479" lon="4.2225">
        <ele>20</ele>
        <time>2018-08-12T09:17:34Z</time>
      </trkpt>
      <trkpt lat="43.7348" lon="4.22261">
        <ele>20</ele>
        <time>2018-08-12T09:17:36Z</time>
      </trkpt>
      <trkpt lat="43.73481" lon="4.22268">
        <ele>20</ele>
        <time>2018-08-12T09:17:37Z</time>
      </trkpt>
      <trkpt lat="43.73483" lon="4.22279">
        <ele>20</ele>
        <time>2018-08-12T09:17:39Z</time>
      </trkpt>
      <trkpt lat="43.73484" lon="4.2229">
        <ele>20</ele>
        <time>2018-08-12T09:17:41Z</time>
      </trkpt>
      <trkpt lat="43.73486" lon="4.22302">
        <ele>20</ele>
        <time>2018-08-12T09:17:43Z</time>
      </trkpt>
      <trkpt lat="43.73487" lon="4.22308">
        <ele>20</ele>
        <time>2018-08-12T09:17:44Z</time>
      </trkpt>
      <trkpt lat="43.73488" lon="4.22319">
        <ele>20</ele>
        <time>2018-08-12T09:17:46Z</time>
      </trkpt>
      <trkpt lat="43.73489" lon="4.2233">
        <ele>20</ele>
        <time>2018-08-12T09:17:48Z</time>
      </trkpt>
      <trkpt lat="43.73489" lon="4.22337">
        <ele>20</ele>
        <time>2018-08-12T09:17:49Z</time>
      </trkpt>
      <trkpt lat="43.73489" lon="4.22343">
        <ele>20</ele>
        <time>2018-08-12T09:17:50Z</time>
      </trkpt>
      <trkpt lat="43.73492" lon="4.22355">
        <ele>20</ele>
        <time>2018-08-12T09:17:52Z</time>
      </trkpt>
      <trkpt lat="43.73492" lon="4.22367">
        <ele>20</ele>
        <time>2018-08-12T09:17:54Z</time>
      </trkpt>
      <trkpt lat="43.73495" lon="4.22378">
        <ele>20</ele>
        <time>2018-08-12T09:17:56Z</time>
      </trkpt>
      <trkpt lat="43.73497" lon="4.22388">
        <ele>20</ele>
        <time>2018-08-12T09:17:58Z</time>
      </trkpt>
      <trkpt lat="43.73499" lon="4.22401">
        <ele>20</ele>
        <time>2018-08-12T09:18:00Z</time>
      </trkpt>
      <trkpt lat="43.735" lon="4.22407">
        <ele>20</ele>
        <time>2018-08-12T09:18:01Z</time>
      </trkpt>
      <trkpt lat="43.735" lon="4.22414">
        <ele>20</ele>
        <time>2018-08-12T09:18:02Z</time>
      </trkpt>
      <trkpt lat="43.73502" lon="4.22422">
        <ele>20</ele>
        <time>2018-08-12T09:18:03Z</time>
      </trkpt>
      <trkpt lat="43.73503" lon="4.22428">
        <ele>20</ele>
        <time>2018-08-12T09:18:04Z</time>
      </trkpt>
      <trkpt lat="43.73504" lon="4.22434">
        <ele>20</ele>
        <time>2018-08-12T09:18:05Z</time>
      </trkpt>
      <trkpt lat="43.73505" lon="4.22445">
        <ele>20</ele>
        <time>2018-08-12T09:18:07Z</time>
      </trkpt>
      <trkpt lat="43.73507" lon="4.22452">
        <ele>20</ele>
        <time>2018-08-12T09:18:08Z</time>
      </trkpt>
      <trkpt lat="43.73508" lon="4.22464">
        <ele>20</ele>
        <time>2018-08-12T09:18:10Z</time>
      </trkpt>
      <trkpt lat="43.73509" lon="4.22476">
        <ele>20</ele>
        <time>2018-08-12T09:18:12Z</time>
      </trkpt>
      <trkpt lat="43.73511" lon="4.22489">
        <ele>20</ele>
        <time>2018-08-12T09:18:14Z</time>
      </trkpt>
      <trkpt lat="43.73513" lon="4.225">
        <ele>20</ele>
        <time>2018-08-12T09:18:16Z</time>
      </trkpt>
      <trkpt lat="43.73513" lon="4.22506">
        <ele>19</ele>
        <time>2018-08-12T09:18:17Z</time>
      </trkpt>
      <trkpt lat="43.73515" lon="4.22512">
        <ele>19</ele>
        <time>2018-08-12T09:18:18Z</time>
      </trkpt>
      <trkpt lat="43.73516" lon="4.22518">
        <ele>19</ele>
        <time>2018-08-12T09:18:19Z</time>
      </trkpt>
      <trkpt lat="43.73518" lon="4.2253">
        <ele>19</ele>
        <time>2018-08-12T09:18:21Z</time>
      </trkpt>
      <trkpt lat="43.73518" lon="4.22538">
        <ele>19</ele>
        <time>2018-08-12T09:18:22Z</time>
      </trkpt>
      <trkpt lat="43.73518" lon="4.22545">
        <ele>19</ele>
        <time>2018-08-12T09:18:23Z</time>
      </trkpt>
      <trkpt lat="43.73519" lon="4.22557">
        <ele>19</ele>
        <time>2018-08-12T09:18:25Z</time>
      </trkpt>
      <trkpt lat="43.73519" lon="4.22567">
        <ele>19</ele>
        <time>2018-08-12T09:18:27Z</time>
      </trkpt>
      <trkpt lat="43.73521" lon="4.22579">
        <ele>19</ele>
        <time>2018-08-12T09:18:29Z</time>
      </trkpt>
      <trkpt lat="43.73521" lon="4.2259">
        <ele>19</ele>
        <time>2018-08-12T09:18:31Z</time>
      </trkpt>
      <trkpt lat="43.73523" lon="4.22601">
        <ele>18</ele>
        <time>2018-08-12T09:18:33Z</time>
      </trkpt>
      <trkpt lat="43.73524" lon="4.22612">
        <ele>18</ele>
        <time>2018-08-12T09:18:35Z</time>
      </trkpt>
      <trkpt lat="43.73525" lon="4.22623">
        <ele>18</ele>
        <time>2018-08-12T09:18:37Z</time>
      </trkpt>
      <trkpt lat="43.73527" lon="4.22634">
        <ele>18</ele>
        <time>2018-08-12T09:18:39Z</time>
      </trkpt>
      <trkpt lat="43.73529" lon="4.22645">
        <ele>18</ele>
        <time>2018-08-12T09:18:41Z</time>
      </trkpt>
      <trkpt lat="43.73531" lon="4.22656">
        <ele>18</ele>
        <time>2018-08-12T09:18:43Z</time>
      </trkpt>
      <trkpt lat="43.73531" lon="4.22667">
        <ele>18</ele>
        <time>2018-08-12T09:18:45Z</time>
      </trkpt>
      <trkpt lat="43.73529" lon="4.22677">
        <ele>17</ele>
        <time>2018-08-12T09:18:47Z</time>
      </trkpt>
      <trkpt lat="43.73529" lon="4.22688">
        <ele>17</ele>
        <time>2018-08-12T09:18:49Z</time>
      </trkpt>
      <trkpt lat="43.73534" lon="4.22695">
        <ele>17</ele>
        <time>2018-08-12T09:18:51Z</time>
      </trkpt>
      <trkpt lat="43.73542" lon="4.22693">
        <ele>17</ele>
        <time>2018-08-12T09:18:53Z</time>
      </trkpt>
      <trkpt lat="43.73547" lon="4.22684">
        <ele>17</ele>
        <time>2018-08-12T09:18:55Z</time>
      </trkpt>
      <trkpt lat="43.73554" lon="4.22678">
        <ele>18</ele>
        <time>2018-08-12T09:18:57Z</time>
      </trkpt>
      <trkpt lat="43.73562" lon="4.22675">
        <ele>18</ele>
        <time>2018-08-12T09:18:59Z</time>
      </trkpt>
      <trkpt lat="43.73569" lon="4.22674">
        <ele>18</ele>
        <time>2018-08-12T09:19:01Z</time>
      </trkpt>
      <trkpt lat="43.73577" lon="4.22674">
        <ele>18</ele>
        <time>2018-08-12T09:19:03Z</time>
      </trkpt>
      <trkpt lat="43.73585" lon="4.22673">
        <ele>19</ele>
        <time>2018-08-12T09:19:05Z</time>
      </trkpt>
      <trkpt lat="43.73594" lon="4.22672">
        <ele>19</ele>
        <time>2018-08-12T09:19:07Z</time>
      </trkpt>
      <trkpt lat="43.73598" lon="4.22671">
        <ele>19</ele>
        <time>2018-08-12T09:19:08Z</time>
      </trkpt>
      <trkpt lat="43.73607" lon="4.22669">
        <ele>19</ele>
        <time>2018-08-12T09:19:10Z</time>
      </trkpt>
      <trkpt lat="43.73617" lon="4.22669">
        <ele>19</ele>
        <time>2018-08-12T09:19:12Z</time>
      </trkpt>
      <trkpt lat="43.73622" lon="4.22669">
        <ele>19</ele>
        <time>2018-08-12T09:19:13Z</time>
      </trkpt>
      <trkpt lat="43.7363" lon="4.22667">
        <ele>19</ele>
        <time>2018-08-12T09:19:15Z</time>
      </trkpt>
      <trkpt lat="43.73639" lon="4.22665">
        <ele>19</ele>
        <time>2018-08-12T09:19:17Z</time>
      </trkpt>
      <trkpt lat="43.73644" lon="4.22666">
        <ele>19</ele>
        <time>2018-08-12T09:19:18Z</time>
      </trkpt>
      <trkpt lat="43.73649" lon="4.22665">
        <ele>19</ele>
        <time>2018-08-12T09:19:19Z</time>
      </trkpt>
      <trkpt lat="43.73654" lon="4.22664">
        <ele>19</ele>
        <time>2018-08-12T09:19:20Z</time>
      </trkpt>
      <trkpt lat="43.73658" lon="4.22663">
        <ele>19</ele>
        <time>2018-08-12T09:19:21Z</time>
      </trkpt>
      <trkpt lat="43.73663" lon="4.22662">
        <ele>19</ele>
        <time>2018-08-12T09:19:22Z</time>
      </trkpt>
      <trkpt lat="43.73668" lon="4.22662">
        <ele>19</ele>
        <time>2018-08-12T09:19:23Z</time>
      </trkpt>
      <trkpt lat="43.73674" lon="4.22661">
        <ele>19</ele>
        <time>2018-08-12T09:19:25Z</time>
      </trkpt>
      <trkpt lat="43.73684" lon="4.2266">
        <ele>19</ele>
        <time>2018-08-12T09:19:27Z</time>
      </trkpt>
      <trkpt lat="43.73688" lon="4.22659">
        <ele>19</ele>
        <time>2018-08-12T09:19:28Z</time>
      </trkpt>
      <trkpt lat="43.73696" lon="4.22658">
        <ele>19</ele>
        <time>2018-08-12T09:19:30Z</time>
      </trkpt>
      <trkpt lat="43.73704" lon="4.22656">
        <ele>19</ele>
        <time>2018-08-12T09:19:32Z</time>
      </trkpt>
      <trkpt lat="43.73711" lon="4.22654">
        <ele>19</ele>
        <time>2018-08-12T09:19:34Z</time>
      </trkpt>
      <trkpt lat="43.73719" lon="4.2266">
        <ele>19</ele>
        <time>2018-08-12T09:19:36Z</time>
      </trkpt>
      <trkpt lat="43.73727" lon="4.2266">
        <ele>19</ele>
        <time>2018-08-12T09:19:38Z</time>
      </trkpt>
      <trkpt lat="43.73733" lon="4.22655">
        <ele>19</ele>
        <time>2018-08-12T09:19:40Z</time>
      </trkpt>
      <trkpt lat="43.73737" lon="4.22645">
        <ele>19</ele>
        <time>2018-08-12T09:19:42Z</time>
      </trkpt>
      <trkpt lat="43.7373" lon="4.22639">
        <ele>19</ele>
        <time>2018-08-12T09:19:44Z</time>
      </trkpt>
      <trkpt lat="43.73726" lon="4.2263">
        <ele>19</ele>
        <time>2018-08-12T09:19:46Z</time>
      </trkpt>
      <trkpt lat="43.73724" lon="4.2262">
        <ele>19</ele>
        <time>2018-08-12T09:19:48Z</time>
      </trkpt>
      <trkpt lat="43.73724" lon="4.2261">
        <ele>19</ele>
        <time>2018-08-12T09:19:50Z</time>
      </trkpt>
      <trkpt lat="43.73729" lon="4.22603">
        <ele>19</ele>
        <time>2018-08-12T09:19:52Z</time>
      </trkpt>
      <trkpt lat="43.73737" lon="4.226">
        <ele>19</ele>
        <time>2018-08-12T09:19:54Z</time>
      </trkpt>
      <trkpt lat="43.73746" lon="4.226">
        <ele>19</ele>
        <time>2018-08-12T09:19:56Z</time>
      </trkpt>
      <trkpt lat="43.7375" lon="4.22599">
        <ele>19</ele>
        <time>2018-08-12T09:19:57Z</time>
      </trkpt>
      <trkpt lat="43.73755" lon="4.22598">
        <ele>19</ele>
        <time>2018-08-12T09:19:58Z</time>
      </trkpt>
      <trkpt lat="43.7376" lon="4.22598">
        <ele>19</ele>
        <time>2018-08-12T09:19:59Z</time>
      </trkpt>
      <trkpt lat="43.73766" lon="4.22598">
        <ele>19</ele>
        <time>2018-08-12T09:20:00Z</time>
      </trkpt>
      <trkpt lat="43.73775" lon="4.22596">
        <ele>19</ele>
        <time>2018-08-12T09:20:02Z</time>
      </trkpt>
      <trkpt lat="43.7378" lon="4.22595">
        <ele>19</ele>
        <time>2018-08-12T09:20:03Z</time>
      </trkpt>
      <trkpt lat="43.73784" lon="4.22594">
        <ele>19</ele>
        <time>2018-08-12T09:20:04Z</time>
      </trkpt>
      <trkpt lat="43.73793" lon="4.22593">
        <ele>20</ele>
        <time>2018-08-12T09:20:06Z</time>
      </trkpt>
      <trkpt lat="43.73801" lon="4.22593">
        <ele>20</ele>
        <time>2018-08-12T09:20:08Z</time>
      </trkpt>
      <trkpt lat="43.73806" lon="4.22593">
        <ele>20</ele>
        <time>2018-08-12T09:20:09Z</time>
      </trkpt>
      <trkpt lat="43.73811" lon="4.22593">
        <ele>20</ele>
        <time>2018-08-12T09:20:10Z</time>
      </trkpt>
      <trkpt lat="43.73819" lon="4.22592">
        <ele>20</ele>
        <time>2018-08-12T09:20:12Z</time>
      </trkpt>
      <trkpt lat="43.73827" lon="4.2259">
        <ele>20</ele>
        <time>2018-08-12T09:20:14Z</time>
      </trkpt>
      <trkpt lat="43.73834" lon="4.22589">
        <ele>20</ele>
        <time>2018-08-12T09:20:16Z</time>
      </trkpt>
      <trkpt lat="43.73841" lon="4.22588">
        <ele>20</ele>
        <time>2018-08-12T09:20:18Z</time>
      </trkpt>
      <trkpt lat="43.73848" lon="4.22588">
        <ele>20</ele>
        <time>2018-08-12T09:20:20Z</time>
      </trkpt>
      <trkpt lat="43.73856" lon="4.22587">
        <ele>19</ele>
        <time>2018-08-12T09:20:22Z</time>
      </trkpt>
      <trkpt lat="43.73863" lon="4.22587">
        <ele>19</ele>
        <time>2018-08-12T09:20:24Z</time>
      </trkpt>
      <trkpt lat="43.73868" lon="4.22583">
        <ele>19</ele>
        <time>2018-08-12T09:20:26Z</time>
      </trkpt>
      <trkpt lat="43.73873" lon="4.2258">
        <ele>19</ele>
        <time>2018-08-12T09:20:28Z</time>
      </trkpt>
      <trkpt lat="43.73878" lon="4.22578">
        <ele>19</ele>
        <time>2018-08-12T09:20:30Z</time>
      </trkpt>
      <trkpt lat="43.73883" lon="4.22576">
        <ele>19</ele>
        <time>2018-08-12T09:20:33Z</time>
      </trkpt>
      <trkpt lat="43.73883" lon="4.22583">
        <ele>19</ele>
        <time>2018-08-12T09:20:46Z</time>
      </trkpt>
      <trkpt lat="43.73885" lon="4.22586">
        <ele>19</ele>
        <time>2018-08-12T09:21:10Z</time>
      </trkpt>
      <trkpt lat="43.73885" lon="4.22586">
        <ele>19</ele>
        <time>2018-08-12T09:21:12Z</time>
      </trkpt>
      <trkpt lat="43.73883" lon="4.22591">
        <ele>19</ele>
        <time>2018-08-12T09:21:27Z</time>
      </trkpt>
      <trkpt lat="43.73883" lon="4.22594">
        <ele>19</ele>
        <time>2018-08-12T09:21:55Z</time>
      </trkpt>
      <trkpt lat="43.73883" lon="4.22594">
        <ele>19</ele>
        <time>2018-08-12T09:22:01Z</time>
      </trkpt>
      <trkpt lat="43.73883" lon="4.22594">
        <ele>19</ele>
        <time>2018-08-12T09:22:20Z</time>
      </trkpt>
      <trkpt lat="43.73883" lon="4.22595">
        <ele>19</ele>
        <time>2018-08-12T09:22:22Z</time>
      </trkpt>
      <trkpt lat="43.73885" lon="4.22596">
        <ele>19</ele>
        <time>2018-08-12T09:22:47Z</time>
      </trkpt>
      <trkpt lat="43.73886" lon="4.22597">
        <ele>19</ele>
        <time>2018-08-12T09:22:49Z</time>
      </trkpt>
    </trkseg>
  </trk>
</gpx>